# Wetter Temperatur Luftdruck Luftfeuchtigkeit Sichtweite Windgeschwindigkeit Windrichtung Zeit
1 Clouds 7 1014 61 10000 5.1 290 21:19 02.04.2020
2 Clouds 8 1014 61 10000 5.1 290 20:55 02.04.2020
3 Clouds 8 1014 61 10000 5.1 300 20:37 02.04.2020
4 Clouds 8 1014 61 10000 5.1 300 20:18 02.04.2020
5 Clouds 9 1013 66 10000 6.7 310 19:42 02.04.2020
6 Clouds 9 1013 70 10000 6.7 300 19:20 02.04.2020
7 Clouds 10 1013 61 10000 7.7 290 18:56 02.04.2020
8 Clouds 10 1013 61 10000 7.7 290 18:38 02.04.2020
9 Clouds 10 1013 57 10000 8.7 280 18:19 02.04.2020
10 Clouds 10 1013 62 10000 6.2 280 17:43 02.04.2020
11 Clouds 11 1013 62 10000 6.2 280 17:24 02.04.2020
12 Clouds 11 1013 61 10000 8.7 280 16:58 02.04.2020
13 Clouds 11 1013 62 10000 8.2 290 16:40 02.04.2020
14 Clouds 11 1013 62 10000 8.7 280 16:22 02.04.2020
15 Clouds 11 1013 62 10000 8.7 280 15:57 02.04.2020
16 Clouds 11 1013 71 10000 9.3 290 15:39 02.04.2020
17 Clouds 11 1013 93 10000 8.7 290 15:19 02.04.2020
18 Clouds 10 1013 93 10000 8.7 290 14:57 02.04.2020
19 Drizzle 10 1013 87 2600 10.3 280 14:38 02.04.2020
20 Rain 10 1013 81 9000 9.8 280 14:18 02.04.2020
21 Rain 10 1013 81 9000 9.8 280 14:18 02.04.2020
22 Rain 10 1013 81 10000 8.7 280 13:54 02.04.2020
23 Rain 10 1013 81 10000 8.7 280 13:54 02.04.2020
24 Rain 10 1013 81 10000 8.7 280 13:36 02.04.2020
25 Rain 10 1013 87 10000 8.2 270 13:18 02.04.2020
26 Clouds 9 1013 87 10000 7.2 270 12:44 02.04.2020
27 Rain 9 1014 93 4000 7.2 270 12:19 02.04.2020
28 Drizzle 9 1014 93 3900 7.2 260 11:57 02.04.2020
29 Drizzle 9 1014 93 3900 7.2 260 11:39 02.04.2020
30 Rain 8 1014 81 10000 8.2 270 11:20 02.04.2020
31 Rain 8 1014 81 10000 8.2 270 10:56 02.04.2020
32 Clouds 8 1014 87 10000 7.7 270 10:37 02.04.2020
33 Clouds 8 1014 87 10000 6.7 270 10:19 02.04.2020
34 Clouds 8 1014 87 10000 6.7 270 10:19 02.04.2020
35 Clouds 8 1014 87 10000 6.7 270 09:58 02.04.2020
36 Clouds 8 1014 87 10000 6.7 270 09:58 02.04.2020
37 Clouds 8 1014 87 10000 5.7 260 09:39 02.04.2020
38 Clouds 8 1015 93 10000 5.7 260 09:19 02.04.2020
39 Clouds 7 1015 93 10000 4.6 250 08:47 02.04.2020
40 Clouds 7 1015 93 10000 4.6 250 08:27 02.04.2020
41 Clouds 7 1015 93 10000 4.1 240 07:45 02.04.2020
42 Clouds 7 1016 93 10000 5.1 270 07:21 02.04.2020
43 Clouds 7 1016 93 10000 5.1 270 06:59 02.04.2020
44 Clouds 7 1016 93 10000 4.6 270 06:22 02.04.2020
45 Rain 7 1017 93 10000 4.6 260 05:45 02.04.2020
46 Rain 7 1017 93 10000 4.1 270 04:47 02.04.2020
47 Clouds 7 1019 81 10000 3.1 280 02:18 02.04.2020
48 Clouds 7 1019 81 10000 4.1 290 00:54 02.04.2020
49 Clouds 7 1019 81 10000 4.1 290 00:31 02.04.2020
50 Clouds 7 1020 81 10000 4.1 290 23:59 01.04.2020
51 Clouds 7 1020 81 10000 2.6 280 23:37 01.04.2020
52 Clouds 7 1020 81 10000 3.6 280 23:18 01.04.2020
53 Clouds 7 1020 81 10000 2.6 270 22:41 01.04.2020
54 Clouds 7 1020 75 10000 3.1 280 22:22 01.04.2020
55 Clouds 7 1020 75 10000 3.1 280 21:58 01.04.2020
56 Clouds 7 1020 75 10000 3.1 280 21:58 01.04.2020
57 Clouds 7 1020 75 10000 4.6 280 21:39 01.04.2020
58 Clouds 7 1020 75 10000 5.7 290 21:19 01.04.2020
59 Clouds 7 1020 75 10000 5.7 290 20:55 01.04.2020
60 Clouds 7 1020 75 10000 5.7 290 20:55 01.04.2020
61 Clouds 7 1020 75 10000 4.6 300 20:37 01.04.2020
62 Clouds 8 1020 65 10000 5.7 310 20:18 01.04.2020
63 Clouds 8 1020 65 10000 5.7 310 20:18 01.04.2020
64 Clouds 8 1021 65 10000 5.7 300 19:43 01.04.2020
65 Clouds 8 1021 70 10000 6.2 290 19:22 01.04.2020
66 Clouds 8 1021 70 10000 6.2 290 18:59 01.04.2020
67 Clouds 8 1021 70 10000 6.2 290 18:59 01.04.2020
68 Clouds 8 1021 70 10000 6.2 290 18:59 01.04.2020
69 Clouds 8 1021 70 10000 6.2 290 18:59 01.04.2020
70 Clouds 8 1021 65 10000 6.2 300 18:40 01.04.2020
71 Clouds 8 1021 70 10000 5.1 290 18:21 01.04.2020
72 Clouds 8 1021 65 10000 7.2 290 17:56 01.04.2020
73 Clouds 8 1021 65 10000 7.2 290 17:56 01.04.2020
74 Clouds 8 1021 65 10000 7.2 290 17:36 01.04.2020
75 Clouds 9 1022 61 10000 7.2 290 17:18 01.04.2020
76 Clouds 9 1022 65 10000 6.2 290 16:43 01.04.2020
77 Clouds 9 1022 65 10000 6.2 290 16:43 01.04.2020
78 Clouds 9 1022 65 10000 5.7 300 16:25 01.04.2020
79 Clouds 9 1022 65 10000 5.7 300 15:59 01.04.2020
80 Clouds 8 1023 70 10000 3.1 310 15:41 01.04.2020
81 Rain 8 1023 70 9000 5.7 340 15:22 01.04.2020
82 Rain 8 1023 70 9000 5.7 340 14:58 01.04.2020
83 Clouds 8 1023 53 10000 4.6 300 14:39 01.04.2020
84 Clouds 8 1023 53 10000 4.6 300 14:20 01.04.2020
85 Clouds 8 1023 53 10000 4.6 300 13:58 01.04.2020
86 Clouds 8 1023 52 10000 4.1 310 13:38 01.04.2020
87 Clouds 8 1024 61 10000 4.1 310 13:19 01.04.2020
88 Clouds 8 1024 81 10000 3.1 300 12:56 01.04.2020
89 Clouds 8 1024 81 10000 3.1 300 12:36 01.04.2020
90 Clouds 7 1024 87 10000 2.6 280 12:18 01.04.2020
91 Clouds 7 1024 81 10000 2.6 270 11:42 01.04.2020
92 Clouds 7 1025 81 10000 2.6 270 11:23 01.04.2020
93 Clouds 6 1025 81 10000 2.6 270 10:58 01.04.2020
94 Clouds 6 1025 81 10000 2.6 270 10:38 01.04.2020
95 Rain 6 1025 81 10000 5.1 290 10:19 01.04.2020
96 Rain 6 1025 81 10000 5.1 290 09:57 01.04.2020
97 Rain 6 1025 81 10000 5.1 290 09:57 01.04.2020
98 Clouds 6 1025 87 10000 2.1 260 09:38 01.04.2020
99 Clouds 6 1025 87 10000 1.5 260 09:18 01.04.2020
100 Clouds 6 1025 87 10000 2.6 280 08:40 01.04.2020
101 Clouds 6 1025 87 10000 2.6 280 08:18 01.04.2020
102 Clouds 6 1025 87 10000 2.1 270 07:43 01.04.2020
103 Clouds 6 1026 93 10000 1 220 07:21 01.04.2020
104 Clouds 6 1026 93 10000 1.5 200 06:48 01.04.2020
105 Clouds 6 1026 93 10000 1 0 06:24 01.04.2020
106 Clouds 6 1026 93 10000 1 0 05:56 01.04.2020
107 Clouds 6 1027 93 10000 1.5 200 04:32 01.04.2020
108 Clouds 6 1028 86 10000 1.5 0 03:30 01.04.2020
109 Clouds 6 1028 81 10000 1 0 02:49 01.04.2020
110 Clouds 6 1029 81 10000 1 230 01:57 01.04.2020
111 Clouds 6 1029 81 10000 1.5 250 01:38 01.04.2020
112 Clouds 6 1029 81 10000 1 250 01:18 01.04.2020
113 Clouds 6 1030 81 10000 1.5 300 00:45 01.04.2020
114 Clouds 6 1030 75 10000 1.5 0 00:20 01.04.2020
115 Clouds 6 1030 75 10000 1.5 290 23:42 31.03.2020
116 Clouds 7 1031 75 10000 2.6 290 23:23 31.03.2020
117 Clouds 7 1031 75 10000 2.6 300 22:58 31.03.2020
118 Clouds 7 1031 75 10000 2.6 300 22:37 31.03.2020
119 Clouds 7 1031 70 10000 3.1 290 22:19 31.03.2020
120 Clouds 7 1031 65 10000 3.1 300 21:56 31.03.2020
121 Clouds 7 1031 65 10000 3.1 300 21:37 31.03.2020
122 Clouds 7 1031 70 10000 2.6 290 21:19 31.03.2020
123 Clouds 7 1031 70 10000 2.6 290 20:55 31.03.2020
124 Clouds 8 1031 70 10000 2.6 310 20:36 31.03.2020
125 Clouds 8 1031 70 10000 2.6 310 20:18 31.03.2020
126 Clouds 8 1032 61 10000 1 0 19:41 31.03.2020
127 Clouds 9 1032 61 10000 1 0 19:22 31.03.2020
128 Clouds 9 1032 57 10000 1 0 18:56 31.03.2020
129 Clouds 9 1032 57 10000 1 0 18:37 31.03.2020
130 Clouds 9 1032 57 10000 1 0 18:18 31.03.2020
131 Clouds 9 1032 57 10000 2.1 50 17:54 31.03.2020
132 Clouds 9 1032 57 10000 2.1 50 17:36 31.03.2020
133 Clouds 9 1032 57 10000 2.1 50 17:36 31.03.2020
134 Clouds 9 1033 57 10000 2.1 70 17:18 31.03.2020
135 Clouds 9 1033 61 10000 3.1 40 16:39 31.03.2020
136 Clouds 9 1034 61 10000 2.6 60 16:19 31.03.2020
137 Clouds 9 1034 61 10000 2.6 60 15:57 31.03.2020
138 Clouds 9 1034 61 10000 2.6 60 15:39 31.03.2020
139 Clouds 8 1034 61 10000 3.1 50 15:20 31.03.2020
140 Clouds 8 1034 61 10000 3.1 50 14:56 31.03.2020
141 Clouds 8 1035 65 10000 3.1 50 14:38 31.03.2020
142 Clouds 8 1035 61 10000 4.1 40 14:20 31.03.2020
143 Clouds 8 1035 70 10000 4.1 50 13:42 31.03.2020
144 Clouds 8 1035 70 10000 5.1 40 13:19 31.03.2020
145 Clouds 7 1035 65 10000 4.1 50 12:55 31.03.2020
146 Clouds 7 1035 65 10000 4.1 50 12:37 31.03.2020
147 Clouds 7 1035 65 10000 5.7 50 12:18 31.03.2020
148 Clouds 7 1035 65 10000 5.1 40 11:39 31.03.2020
149 Clouds 6 1035 81 10000 2.6 80 11:20 31.03.2020
150 Clouds 6 1035 81 10000 2.6 80 10:58 31.03.2020
151 Clouds 6 1035 81 10000 4.6 30 10:39 31.03.2020
152 Clouds 6 1035 81 10000 2.1 10 10:21 31.03.2020
153 Clouds 6 1035 81 10000 2.1 10 09:56 31.03.2020
154 Clouds 5 1036 86 10000 4.1 20 09:37 31.03.2020
155 Clouds 5 1036 86 10000 4.1 20 09:37 31.03.2020
156 Clouds 5 1036 86 10000 4.1 20 09:37 31.03.2020
157 Clouds 5 1036 86 10000 3.1 10 09:19 31.03.2020
158 Clouds 4 1036 86 10000 2.1 10 08:55 31.03.2020
159 Clouds 4 1036 86 10000 2.1 10 08:37 31.03.2020
160 Clouds 4 1035 93 10000 2.1 50 08:18 31.03.2020
161 Clouds 4 1035 93 10000 2.1 50 08:18 31.03.2020
162 Clouds 4 1035 86 10000 1.5 50 07:44 31.03.2020
163 Clouds 4 1035 86 10000 1.5 50 07:44 31.03.2020
164 Clouds 4 1035 86 10000 3.6 30 07:25 31.03.2020
165 Clouds 4 1035 86 10000 3.6 30 06:59 31.03.2020
166 Rain 4 1035 86 10000 4.6 50 06:41 31.03.2020
167 Rain 4 1035 86 10000 2.6 10 05:44 31.03.2020
168 Rain 4 1035 93 10000 3.1 20 05:24 31.03.2020
169 Clouds 4 1035 80 10000 3.6 10 02:56 31.03.2020
170 Clouds 5 1035 75 10000 4.6 10 01:47 31.03.2020
171 Clouds 5 1035 75 10000 4.1 10 01:19 31.03.2020
172 Clouds 5 1035 77 10000 4.1 20 00:43 31.03.2020
173 Clouds 5 1035 65 10000 3.6 10 00:20 31.03.2020
174 Clouds 6 1035 60 10000 3.6 30 23:40 30.03.2020
175 Clouds 6 1035 60 10000 4.6 20 23:20 30.03.2020
176 Clouds 6 1035 56 10000 5.1 20 22:57 30.03.2020
177 -273 0 0 0 0 0 22:38 30.03.2020
178 Clouds 7 1035 56 10000 5.1 20 22:18 30.03.2020
179 Clouds 7 1035 56 10000 5.1 20 21:57 30.03.2020
180 Clouds 7 1035 52 10000 5.7 20 21:37 30.03.2020
181 Clouds 8 1035 52 10000 6.2 30 21:19 30.03.2020
182 Clouds 8 1035 52 10000 6.2 30 20:56 30.03.2020
183 Clouds 8 1035 49 10000 6.2 30 20:37 30.03.2020
184 Clouds 8 1035 49 10000 6.2 20 20:19 30.03.2020
185 Clouds 9 1035 59 10000 6.2 30 19:41 30.03.2020
186 Clouds 9 1035 59 10000 6.2 30 19:41 30.03.2020
187 Clouds 9 1035 59 10000 5.7 30 19:22 30.03.2020
188 Clouds 9 1035 59 10000 5.7 30 19:22 30.03.2020
189 Clouds 9 1035 59 10000 5.7 30 18:57 30.03.2020
190 Clouds 9 1035 59 10000 7.2 20 18:39 30.03.2020
191 Clouds 9 1035 59 10000 7.2 20 18:39 30.03.2020
192 Clouds 9 1035 56 10000 6.7 20 18:21 30.03.2020
193 Clouds 9 1035 56 10000 6.7 20 17:57 30.03.2020
194 Clouds 9 1035 56 10000 4.6 360 17:39 30.03.2020
195 Clouds 9 1035 56 10000 5.7 10 17:19 30.03.2020
196 Clouds 9 1035 56 10000 5.7 10 16:56 30.03.2020
197 Clouds 9 1035 56 10000 4.6 10 16:56 30.03.2020
198 Clouds 9 1035 56 10000 4.6 10 16:38 30.03.2020
199 Clouds 9 1036 56 10000 5.1 10 16:19 30.03.2020
200 Clouds 9 1036 56 10000 5.1 10 15:54 30.03.2020
201 Clouds 9 1036 56 10000 4.6 20 15:36 30.03.2020
202 Clouds 9 1036 58 10000 5.7 20 15:18 30.03.2020
203 Clouds 9 1036 58 10000 5.7 40 14:40 30.03.2020
204 Clouds 9 1036 61 10000 3.6 10 14:19 30.03.2020
205 Clouds 9 1036 61 10000 3.6 10 13:59 30.03.2020
206 Clouds 8 1037 61 10000 4.1 360 13:40 30.03.2020
207 Clouds 8 1037 65 10000 5.1 350 13:21 30.03.2020
208 Clouds 8 1037 65 10000 5.1 350 12:56 30.03.2020
209 Clouds 7 1037 65 10000 4.6 340 12:37 30.03.2020
210 Clouds 7 1037 65 10000 4.6 340 12:19 30.03.2020
211 Clouds 7 1037 65 10000 4.6 340 11:55 30.03.2020
212 Clouds 7 1037 65 10000 4.6 340 11:55 30.03.2020
213 Clouds 7 1037 65 10000 2.6 320 11:37 30.03.2020
214 Clouds 7 1038 63 10000 3.1 320 11:18 30.03.2020
215 Clouds 6 1038 65 10000 2.6 330 10:39 30.03.2020
216 Clouds 6 1038 63 10000 1.5 0 10:21 30.03.2020
217 Clouds 6 1038 63 10000 1.5 0 10:21 30.03.2020
218 Clouds 5 1038 63 10000 1.5 0 09:54 30.03.2020
219 Clouds 5 1038 80 10000 2.74 358 09:36 30.03.2020
220 Clouds 4 1038 75 10000 3.1 340 09:18 30.03.2020
221 Clouds 4 1038 86 10000 0.5 0 08:40 30.03.2020
222 Clouds 3 1039 75 10000 4.1 340 08:21 30.03.2020
223 Clouds 3 1038 80 10000 0.5 0 07:48 30.03.2020
224 Clouds 3 1038 80 10000 0.5 0 07:25 30.03.2020
225 Clouds 3 1039 75 10000 3.6 340 06:47 30.03.2020
226 Clouds 3 1039 75 10000 3.6 340 06:29 30.03.2020
227 Clouds 2 1039 86 10000 1 120 05:46 30.03.2020
228 Clouds 2 1040 77 10000 1 160 04:40 30.03.2020
229 Clouds 2 1040 74 10000 0.5 0 04:20 30.03.2020
230 Clouds 2 1042 74 10000 0.5 0 02:52 30.03.2020
231 Clouds 2 1042 74 10000 0.5 0 01:58 30.03.2020
232 Clouds 2 1042 64 10000 1 0 01:18 30.03.2020
233 Clear 2 1043 64 10000 2.1 340 00:29 30.03.2020
234 Clouds 2 1043 69 10000 2.6 320 23:57 29.03.2020
235 Clouds 2 1043 69 10000 2.6 320 23:57 29.03.2020
236 Clouds 2 1043 64 10000 2.6 340 23:39 29.03.2020
237 Clouds 2 1043 59 10000 3.6 360 23:20 29.03.2020
238 Clouds 3 1043 59 10000 3.6 360 22:55 29.03.2020
239 Clouds 3 1043 59 10000 3.6 360 22:55 29.03.2020
240 Clouds 3 1044 55 10000 3.6 10 22:55 29.03.2020
241 Clouds 3 1044 55 10000 3.6 10 22:37 29.03.2020
242 Clouds 3 1044 55 10000 3.6 10 22:37 29.03.2020
243 Clouds 3 1044 60 10000 3.1 10 22:18 29.03.2020
244 Clouds 4 1044 60 10000 5.7 30 21:38 29.03.2020
245 Clouds 4 1044 56 10000 7.2 20 21:20 29.03.2020
246 Clouds 4 1044 56 10000 7.2 20 20:56 29.03.2020
247 Clouds 4 1044 56 10000 7.2 20 20:37 29.03.2020
248 Clouds 4 1044 56 10000 7.2 20 20:37 29.03.2020
249 Clouds 5 1044 56 10000 8.2 20 20:19 29.03.2020
250 Clouds 5 1044 56 10000 8.2 20 20:19 29.03.2020
251 Clouds 5 1044 56 10000 7.7 30 19:57 29.03.2020
252 Clouds 5 1044 56 10000 7.7 30 19:57 29.03.2020
253 Clouds 5 1044 56 10000 7.7 30 19:39 29.03.2020
254 Clouds 5 1044 56 10000 7.7 30 19:39 29.03.2020
255 Clouds 5 1044 60 10000 7.2 40 19:21 29.03.2020
256 Clouds 6 1043 52 10000 8.2 40 18:57 29.03.2020
257 Clouds 6 1043 52 10000 8.2 40 18:38 29.03.2020
258 Clouds 6 1043 52 10000 8.2 30 18:19 29.03.2020
259 Clouds 6 1043 48 10000 7.7 30 17:55 29.03.2020
260 Clouds 6 1043 48 10000 7.7 30 17:37 29.03.2020
261 Clouds 7 1043 48 10000 8.2 20 17:18 29.03.2020
262 Clouds 7 1043 48 10000 8.2 20 16:56 29.03.2020
263 Clouds 7 1043 39 10000 8.2 20 16:38 29.03.2020
264 Clouds 7 1043 42 10000 8.7 30 16:18 29.03.2020
265 Clouds 7 1044 45 10000 7.2 40 15:41 29.03.2020
266 Clouds 7 1044 52 10000 8.2 30 15:23 29.03.2020
267 Clouds 7 1044 52 10000 8.2 30 15:23 29.03.2020
268 Clouds 7 1044 52 10000 8.2 30 14:57 29.03.2020
269 Clouds 7 1044 52 10000 8.7 30 14:39 29.03.2020
270 Clouds 7 1044 45 10000 9.3 50 14:20 29.03.2020
271 Clouds 6 1044 48 10000 8.2 50 13:57 29.03.2020
272 Clouds 7 1044 48 10000 8.2 50 13:39 29.03.2020
273 Clouds 6 1044 48 10000 8.7 50 13:19 29.03.2020
274 Clouds 6 1044 52 10000 9.3 40 12:55 29.03.2020
275 Clouds 7 1044 52 10000 9.3 40 12:37 29.03.2020
276 Clouds 6 1044 56 10000 8.2 40 12:18 29.03.2020
277 Clouds 6 1044 56 10000 10.3 40 11:40 29.03.2020
278 Clouds 5 1043 56 10000 9.3 40 11:21 29.03.2020
279 Clouds 5 1043 56 10000 9.3 40 10:59 29.03.2020
280 Clouds 4 1043 60 10000 9.3 30 10:38 29.03.2020
281 Clouds 4 1043 55 10000 8.7 30 10:18 29.03.2020
282 Clear 4 1042 55 10000 6.7 40 09:40 29.03.2020
283 Clouds 3 1042 64 10000 7.2 30 09:20 29.03.2020
284 Clouds 3 1042 64 10000 7.2 30 08:54 29.03.2020
285 Clear 2 1042 64 10000 7.2 30 08:28 29.03.2020
286 Clouds 2 1041 59 10000 6.7 20 07:59 29.03.2020
287 Clouds 2 1041 59 10000 6.7 20 07:40 29.03.2020
288 Clouds 2 1041 59 10000 5.7 20 07:20 29.03.2020
289 Clear 3 1041 55 10000 6.2 20 04:59 29.03.2020
290 Clouds 3 1041 59 10000 7.7 30 03:55 29.03.2020
291 Clouds 3 1041 59 10000 5.7 30 03:26 29.03.2020
292 Clouds 3 1040 74 10000 8.2 30 01:51 29.03.2020
293 Clouds 3 1040 69 10000 6.2 30 01:23 29.03.2020
294 Clouds 3 1040 69 10000 6.2 30 00:55 29.03.2020
295 Clouds 3 1040 69 10000 6.7 30 00:31 29.03.2020
296 Clouds 3 1039 69 10000 9.3 30 23:43 28.03.2020
297 Clouds 3 1039 69 10000 9.3 30 23:43 28.03.2020
298 Clouds 3 1039 69 10000 8.7 30 23:24 28.03.2020
299 Clouds 4 1039 64 10000 7.2 20 22:58 28.03.2020
300 Clouds 4 1039 64 10000 7.2 20 22:38 28.03.2020
301 Clouds 4 1038 69 10000 7.2 40 22:20 28.03.2020
302 Clouds 4 1038 60 10000 7.2 30 21:43 28.03.2020
303 Clouds 4 1038 60 10000 7.2 30 21:24 28.03.2020
304 Clouds 4 1038 60 10000 8.7 20 20:59 28.03.2020
305 Clouds 5 1038 60 10000 7.2 30 20:41 28.03.2020
306 Clouds 5 1037 65 10000 7.7 30 20:23 28.03.2020
307 Clouds 5 1037 65 10000 7.7 30 19:57 28.03.2020
308 Clouds 6 1037 60 10000 7.7 40 19:38 28.03.2020
309 Clouds 6 1037 60 10000 7.7 40 19:38 28.03.2020
310 Clouds 6 1036 56 10000 10.3 30 19:20 28.03.2020
311 Clouds 6 1036 56 10000 7.2 20 18:56 28.03.2020
312 Clouds 7 1036 56 10000 7.2 20 18:38 28.03.2020
313 Clouds 7 1036 56 10000 7.2 20 18:38 28.03.2020
314 Clouds 7 1036 52 10000 8.7 40 18:19 28.03.2020
315 Clouds 8 1035 49 10000 10.3 30 17:38 28.03.2020
316 Clouds 8 1035 53 10000 8.7 40 17:20 28.03.2020
317 Clouds 9 1035 49 10000 8.7 30 16:42 28.03.2020
318 Clouds 9 1035 53 10000 8.2 40 16:20 28.03.2020
319 Clouds 9 1035 57 10000 9.3 30 15:56 28.03.2020
320 Clouds 9 1035 57 10000 9.3 30 15:38 28.03.2020
321 Clouds 9 1034 57 10000 8.2 40 15:19 28.03.2020
322 Clouds 10 1034 57 10000 7.2 50 14:43 28.03.2020
323 Clouds 10 1034 53 10000 7.7 20 14:22 28.03.2020
324 Clouds 10 1034 49 10000 7.7 20 13:57 28.03.2020
325 Clouds 10 1034 53 10000 6.7 50 13:37 28.03.2020
326 Clouds 10 1034 53 10000 7.7 40 13:18 28.03.2020
327 Clouds 10 1034 53 10000 7.7 40 13:18 28.03.2020
328 Clouds 10 1034 57 10000 7.7 50 12:38 28.03.2020
329 Clouds 9 1034 61 10000 7.7 50 12:19 28.03.2020
330 Clouds 9 1034 65 10000 7.7 40 11:42 28.03.2020
331 Clouds 9 1034 65 10000 7.7 40 11:42 28.03.2020
332 Clouds 9 1033 61 10000 7.2 50 11:21 28.03.2020
333 Clouds 8 1033 61 10000 8.2 40 10:44 28.03.2020
334 Clouds 8 1033 61 10000 8.2 40 10:25 28.03.2020
335 Clouds 8 1033 61 10000 9.3 40 09:59 28.03.2020
336 Clouds 7 1033 70 10000 8.7 40 09:40 28.03.2020
337 Clouds 7 1032 70 10000 8.2 40 09:21 28.03.2020
338 Clouds 7 1032 70 10000 6.7 40 08:43 28.03.2020
339 Clouds 6 1032 70 10000 6.7 40 08:24 28.03.2020
340 Clouds 6 1032 70 10000 4.1 50 07:53 28.03.2020
341 Clouds 6 1032 75 10000 3.6 30 07:35 28.03.2020
342 Clouds 6 1031 75 10000 6.2 30 06:52 28.03.2020
343 Clouds 5 1031 81 10000 6.2 50 06:23 28.03.2020
344 Clouds 6 1030 81 10000 6.2 50 05:26 28.03.2020
345 Clouds 5 1030 81 10000 6.2 40 04:53 28.03.2020
346 Clouds 5 1030 81 10000 6.2 40 04:35 28.03.2020
347 Clouds 4 1030 80 10000 2.6 20 02:50 28.03.2020
348 Clear 4 1030 68 10000 2.6 40 01:47 28.03.2020
349 Clear 4 1030 68 10000 2.6 40 01:23 28.03.2020
350 Clear 4 1030 74 10000 4.1 50 00:49 28.03.2020
351 Clear 4 1030 59 10000 2.6 60 00:24 28.03.2020
352 Clear 4 1030 55 10000 3.6 60 23:44 27.03.2020
353 Clear 4 1030 48 10000 1.5 0 23:25 27.03.2020
354 Clear 5 1029 48 10000 3.1 70 22:57 27.03.2020
355 Clear 5 1029 48 10000 3.1 70 22:39 27.03.2020
356 Clear 5 1029 45 10000 5.7 40 22:20 27.03.2020
357 Clear 6 1029 45 10000 5.7 40 21:57 27.03.2020
358 Clear 6 1029 45 10000 5.7 50 21:38 27.03.2020
359 Clear 6 1028 45 10000 4.6 50 21:20 27.03.2020
360 Clear 7 1028 45 10000 4.6 50 20:55 27.03.2020
361 Clear 7 1028 42 10000 3.6 50 20:37 27.03.2020
362 Clear 8 1028 39 10000 3.6 60 20:18 27.03.2020
363 Clear 9 1027 36 10000 5.1 50 19:42 27.03.2020
364 Clear 10 1027 37 10000 3.6 70 19:23 27.03.2020
365 Clear 10 1027 37 10000 3.6 70 18:56 27.03.2020
366 Clear 11 1027 34 10000 4.6 60 18:38 27.03.2020
367 Clear 11 1027 34 10000 4.6 60 18:38 27.03.2020
368 Clear 11 1027 40 10000 5.1 50 18:19 27.03.2020
369 Clear 12 1026 40 10000 6.2 50 17:40 27.03.2020
370 Clear 12 1026 40 10000 5.7 50 17:20 27.03.2020
371 Clear 12 1027 46 10000 4.1 70 16:54 27.03.2020
372 Clear 12 1027 46 10000 4.1 70 16:36 27.03.2020
373 Clear 12 1027 40 10000 5.1 70 16:18 27.03.2020
374 Clear 12 1027 40 10000 3.6 70 15:41 27.03.2020
375 Clear 12 1027 37 10000 5.1 50 15:23 27.03.2020
376 Clear 12 1027 34 10000 6.2 50 14:46 27.03.2020
377 Clear 12 1026 34 0 1.34 318 14:25 27.03.2020
378 Clear 12 1027 32 10000 5.1 40 13:56 27.03.2020
379 Clear 11 1027 37 10000 5.1 20 13:37 27.03.2020
380 Clear 11 1027 37 10000 5.1 20 13:37 27.03.2020
381 Clear 10 1028 43 10000 4.1 20 13:19 27.03.2020
382 Clear 10 1028 49 10000 2.6 10 12:51 27.03.2020
383 Clear 9 1028 43 10000 1.5 0 12:21 27.03.2020
384 Clear 10 1028 52 10000 2.1 120 11:59 27.03.2020
385 Clear 9 1028 52 10000 2.1 120 11:41 27.03.2020
386 Clear 9 1028 56 10000 2.1 110 11:41 27.03.2020
387 Clear 8 1028 56 10000 2.1 110 11:22 27.03.2020
388 Clear 8 1028 56 10000 2.1 70 10:54 27.03.2020
389 Clear 8 1028 56 10000 2.1 70 10:54 27.03.2020
390 Clear 7 1028 56 10000 2.1 70 10:36 27.03.2020
391 Clear 6 1028 60 10000 2.1 50 10:18 27.03.2020
392 Clear 6 1028 60 10000 2.1 50 09:55 27.03.2020
393 Clear 5 1027 65 10000 2.1 40 09:36 27.03.2020
394 Clear 4 1027 74 10000 2.1 40 09:18 27.03.2020
395 Clear 3 1027 80 7000 1 30 08:54 27.03.2020
396 Clear 3 1027 80 7000 1 30 08:36 27.03.2020
397 Clear 2 1027 86 6000 2.1 60 08:18 27.03.2020
398 Clear 1 1027 73 7000 2.6 60 07:43 27.03.2020
399 Clear 1 1026 73 7000 3.1 50 07:21 27.03.2020
400 Clear 1 1026 86 10000 1.5 50 06:41 27.03.2020
401 Clear 1 1026 73 10000 1.5 70 06:18 27.03.2020
402 Clear 2 1026 86 10000 1 0 03:42 27.03.2020
403 Clear 3 1026 69 10000 0.5 0 02:19 27.03.2020
404 Clear 4 1026 64 10000 2.1 80 01:19 27.03.2020
405 Clear 5 1026 64 10000 1.5 70 00:43 27.03.2020
406 Clear 5 1026 56 10000 1.5 30 00:19 27.03.2020
407 Clear 6 1025 56 10000 1.5 90 23:40 26.03.2020
408 Clear 6 1025 48 10000 1.5 100 23:18 26.03.2020
409 Clear 6 1025 52 10000 2.6 60 22:57 26.03.2020
410 Clear 7 1025 52 10000 2.6 60 22:36 26.03.2020
411 Clear 7 1025 52 10000 3.6 60 22:18 26.03.2020
412 Clear 7 1025 52 10000 3.6 60 22:18 26.03.2020
413 Clear 8 1025 52 10000 3.1 70 21:40 26.03.2020
414 Clear 9 1025 52 10000 4.1 50 21:21 26.03.2020
415 Clear 9 1025 52 10000 4.1 50 20:59 26.03.2020
416 Clear 10 1025 55 10000 4.6 40 20:39 26.03.2020
417 Clear 11 1025 43 10000 3.6 40 20:21 26.03.2020
418 Clear 11 1025 43 10000 3.6 40 19:58 26.03.2020
419 Clear 11 1024 37 10000 2.1 90 19:40 26.03.2020
420 Clear 12 1024 32 10000 1.5 0 19:21 26.03.2020
421 Clear 13 1024 32 10000 2.6 110 18:58 26.03.2020
422 Clear 13 1024 32 10000 2.6 110 18:40 26.03.2020
423 Clear 14 1024 28 10000 1.5 0 18:21 26.03.2020
424 Clear 15 1024 24 10000 2.6 90 17:44 26.03.2020
425 Clear 15 1024 24 10000 2.6 90 17:44 26.03.2020
426 Clear 15 1024 19 10000 2.6 90 17:20 26.03.2020
427 Clear 15 1024 19 10000 2.6 90 16:57 26.03.2020
428 Clear 16 1024 19 10000 2.6 90 16:38 26.03.2020
429 Clear 15 1024 18 10000 2.1 80 16:18 26.03.2020
430 Clear 15 1024 18 10000 2.1 80 15:54 26.03.2020
431 Clear 16 1024 16 10000 2.1 90 15:36 26.03.2020
432 Clear 16 1024 16 10000 2.6 110 15:18 26.03.2020
433 Clear 15 1024 15 10000 1.5 0 14:42 26.03.2020
434 Clear 16 1025 16 10000 2.1 0 14:24 26.03.2020
435 Clear 15 1025 16 10000 2.1 0 13:54 26.03.2020
436 Clear 15 1025 17 10000 3.1 100 13:36 26.03.2020
437 Clear 15 1025 24 10000 2.6 80 13:18 26.03.2020
438 Clear 14 1025 32 10000 2.1 80 12:38 26.03.2020
439 Clear 14 1025 34 10000 2.6 350 12:20 26.03.2020
440 Clear 13 1025 40 10000 1.5 0 11:46 26.03.2020
441 Clear 12 1025 40 10000 1 0 11:22 26.03.2020
442 Clear 10 1025 46 10000 1 0 10:56 26.03.2020
443 Clear 10 1025 46 10000 1 0 10:56 26.03.2020
444 Clear 10 1025 46 10000 1 0 10:38 26.03.2020
445 Clear 10 1025 49 10000 1.5 20 10:19 26.03.2020
446 Clear 8 1025 50 10000 0.5 0 09:44 26.03.2020
447 Clear 6 1025 50 10000 0.5 0 09:20 26.03.2020
448 Clear 4 1025 74 10000 2.6 30 08:55 26.03.2020
449 Clear 4 1025 74 10000 2.6 30 08:37 26.03.2020
450 Clear 2 1025 80 10000 1 0 08:18 26.03.2020
451 Clear 2 1025 74 10000 1 0 07:44 26.03.2020
452 Clear 2 1025 80 10000 2.6 110 07:21 26.03.2020
453 Clear 2 1025 67 10000 1.5 100 06:56 26.03.2020
454 Clear 3 1024 69 10000 1 70 05:59 26.03.2020
455 Clear 3 1024 64 10000 0.5 0 04:33 26.03.2020
456 Clear 4 1024 69 10000 1 100 03:44 26.03.2020
457 Clear 4 1024 86 10000 1.5 110 02:55 26.03.2020
458 Clear 6 1024 56 10000 1 90 01:50 26.03.2020
459 Clear 6 1024 65 10000 1.5 110 00:52 26.03.2020
460 Clear 7 1024 56 10000 1 90 23:59 25.03.2020
461 Clear 7 1024 56 10000 1 90 23:40 25.03.2020
462 Clear 8 1024 56 10000 1.5 90 23:20 25.03.2020
463 Clear 8 1024 60 10000 2.1 100 22:40 25.03.2020
464 Clear 9 1024 52 10000 1.5 100 22:21 25.03.2020
465 Clear 9 1024 52 10000 1.5 100 21:56 25.03.2020
466 Clear 9 1024 52 10000 1.5 110 21:37 25.03.2020
467 Clear 10 1023 43 10000 1 120 21:19 25.03.2020
468 Clear 11 1023 43 10000 1 120 20:54 25.03.2020
469 Clear 12 1023 34 10000 1 130 20:36 25.03.2020
470 Clear 13 1023 32 10000 1 0 20:18 25.03.2020
471 Clear 14 1023 30 10000 1 0 19:42 25.03.2020
472 Clear 15 1023 30 10000 1 0 19:22 25.03.2020
473 Clear 15 1022 30 10000 1.5 0 18:56 25.03.2020
474 Clear 16 1022 30 10000 1.5 0 18:37 25.03.2020
475 Clear 17 1022 29 10000 1.5 0 18:19 25.03.2020
476 Clear 17 1022 26 10000 2.1 200 17:54 25.03.2020
477 Clear 16 1022 26 10000 2.1 200 17:36 25.03.2020
478 Clear 17 1023 29 10000 2.1 190 17:18 25.03.2020
479 Clear 17 1023 29 10000 2.6 190 16:41 25.03.2020
480 Clear 17 1023 38 10000 2.6 200 16:22 25.03.2020
481 Clear 17 1023 38 10000 2.6 200 16:21 25.03.2020
482 Clear 17 1023 36 10000 2.1 200 15:44 25.03.2020
483 Fog 17 1023 38 650 1.5 0 15:21 25.03.2020
484 Fog 17 1023 38 650 1.5 0 14:59 25.03.2020
485 Clear 17 1023 38 10000 2.1 180 14:40 25.03.2020
486 Clouds 15 1023 38 10000 2.6 210 14:20 25.03.2020
487 Clouds 15 1023 41 10000 2.6 160 13:46 25.03.2020
488 Clouds 15 1023 41 10000 2.6 160 13:25 25.03.2020
489 Clouds 13 1024 47 10000 2.1 0 12:54 25.03.2020
490 Clouds 13 1024 47 10000 2.1 0 12:36 25.03.2020
491 Clouds 14 1024 47 10000 1.5 0 12:18 25.03.2020
492 Clouds 13 1024 50 10000 2.1 160 11:41 25.03.2020
493 Clouds 13 1024 50 10000 2.1 180 11:21 25.03.2020
494 Clouds 10 1024 53 10000 2.1 160 10:59 25.03.2020
495 Clouds 10 1024 53 10000 2.1 160 10:59 25.03.2020
496 Clouds 10 1024 53 10000 2.1 160 10:40 25.03.2020
497 Clouds 11 1024 50 10000 2.1 0 10:19 25.03.2020
498 Clouds 10 1024 49 10000 1.5 0 09:58 25.03.2020
499 Clouds 9 1024 49 10000 1.5 0 09:39 25.03.2020
500 Clouds 9 1024 52 10000 1.5 0 09:21 25.03.2020
501 Clouds 7 1024 60 10000 1 150 08:43 25.03.2020
502 Clouds 6 1024 60 10000 1 150 08:25 25.03.2020
503 Clouds 6 1024 60 10000 1 150 08:25 25.03.2020
504 Clouds 5 1024 60 10000 1 0 07:58 25.03.2020
505 Clouds 6 1023 56 10000 0.5 0 07:38 25.03.2020
506 Clouds 6 1023 56 10000 1 0 07:18 25.03.2020
507 Clouds 6 1023 60 10000 1.5 0 06:43 25.03.2020
508 Clouds 6 1023 61 10000 2.1 160 06:25 25.03.2020
509 Clouds 7 1023 61 10000 2.1 160 05:47 25.03.2020
510 Clouds 8 1023 70 10000 1.5 0 04:46 25.03.2020
511 Clouds 8 1023 70 10000 1.5 0 03:58 25.03.2020
512 Clouds 8 1023 70 10000 1 0 03:34 25.03.2020
513 Clouds 10 1022 71 10000 2.1 170 01:41 25.03.2020
514 Clouds 10 1022 71 10000 2.1 170 01:41 25.03.2020
515 Clouds 10 1022 71 10000 2.1 170 01:41 25.03.2020
516 Clouds 11 1022 66 10000 2.1 170 00:51 25.03.2020
517 Clouds 11 1022 66 10000 2.1 170 00:32 25.03.2020
518 Clouds 11 1022 71 10000 2.1 170 23:59 24.03.2020
519 Clouds 12 1022 71 10000 2.1 170 23:40 24.03.2020
520 Clouds 12 1022 66 10000 2.1 0 23:20 24.03.2020
521 Clouds 12 1022 71 10000 2.6 170 22:55 24.03.2020
522 Clouds 12 1022 71 10000 2.6 170 22:36 24.03.2020
523 Clouds 13 1022 66 10000 2.6 170 22:18 24.03.2020
524 Clouds 13 1021 66 10000 2.6 180 21:42 24.03.2020
525 Clouds 13 1021 66 10000 2.6 170 21:19 24.03.2020
526 Clouds 13 1021 66 10000 2.6 170 20:59 24.03.2020
527 Clouds 14 1021 62 10000 2.1 170 20:40 24.03.2020
528 Clouds 14 1021 62 10000 3.1 170 20:22 24.03.2020
529 Clouds 15 1021 62 10000 2.6 170 19:48 24.03.2020
530 Clouds 15 1021 62 10000 2.6 170 19:48 24.03.2020
531 Clouds 15 1021 62 10000 3.1 180 19:22 24.03.2020
532 Clouds 15 1021 62 10000 3.1 180 18:59 24.03.2020
533 Clouds 16 1020 62 10000 3.1 180 18:39 24.03.2020
534 Clouds 16 1020 59 10000 2.6 180 18:20 24.03.2020
535 Clouds 16 1020 59 10000 3.6 180 17:56 24.03.2020
536 Clouds 16 1020 59 10000 3.6 180 17:56 24.03.2020
537 Clouds 16 1020 59 10000 3.6 180 17:38 24.03.2020
538 Clouds 16 1020 55 10000 4.1 190 17:20 24.03.2020
539 Clouds 16 1021 55 10000 4.1 190 16:56 24.03.2020
540 Clouds 16 1021 55 10000 4.1 190 16:37 24.03.2020
541 Clouds 16 1021 55 10000 4.1 180 16:19 24.03.2020
542 Clouds 16 1021 55 10000 4.6 180 15:42 24.03.2020
543 Clouds 16 1021 55 10000 4.6 180 15:24 24.03.2020
544 Clouds 16 1022 55 10000 3.1 180 14:44 24.03.2020
545 Clouds 15 1022 58 10000 4.1 180 14:22 24.03.2020
546 Clouds 15 1022 58 10000 4.1 180 13:59 24.03.2020
547 Clouds 15 1022 54 10000 4.1 180 13:40 24.03.2020
548 Clouds 14 1022 58 10000 3.6 190 13:22 24.03.2020
549 Clouds 13 1023 58 10000 3.6 180 12:42 24.03.2020
550 Clouds 13 1023 58 10000 4.1 190 12:24 24.03.2020
551 Clouds 12 1023 57 10000 2.1 170 11:42 24.03.2020
552 Clear 9 1023 57 10000 3.6 190 11:22 24.03.2020
553 Clear 9 1023 61 10000 2.6 170 10:59 24.03.2020
554 Clear 9 1023 61 10000 2.6 170 10:41 24.03.2020
555 Clear 8 1023 61 10000 2.6 170 10:18 24.03.2020
556 Clear 7 1023 77 10000 2.1 150 09:46 24.03.2020
557 Clear 6 1023 77 10000 2.1 150 09:27 24.03.2020
558 Clear 5 1023 65 10000 2.1 170 08:57 24.03.2020
559 Clear 5 1023 69 10000 2.1 160 08:38 24.03.2020
560 Clouds 4 1023 69 10000 2.6 150 08:19 24.03.2020
561 Clouds 3 1023 64 10000 2.1 170 07:44 24.03.2020
562 Clouds 3 1022 64 10000 2.6 160 07:22 24.03.2020
563 Clouds 3 1022 64 10000 2.6 160 07:22 24.03.2020
564 Clouds 3 1022 64 10000 2.6 150 06:40 24.03.2020
565 Clouds 3 1023 60 10000 1.5 0 06:21 24.03.2020
566 Clouds 3 1023 60 10000 2.1 130 04:52 24.03.2020
567 Clouds 4 1024 64 10000 1 0 03:32 24.03.2020
568 Clouds 4 1024 60 10000 2.1 150 02:43 24.03.2020
569 Clouds 5 1024 65 10000 3.1 140 00:57 24.03.2020
570 Clouds 5 1025 65 10000 2.6 130 00:28 24.03.2020
571 Clouds 6 1025 60 10000 2.1 140 23:58 23.03.2020
572 Clouds 6 1024 56 10000 2.6 140 23:38 23.03.2020
573 Clouds 6 1024 56 10000 2.6 140 23:19 23.03.2020
574 Clouds 7 1024 56 10000 1.5 0 22:44 23.03.2020
575 Clouds 7 1024 52 10000 1.5 0 22:23 23.03.2020
576 Clouds 8 1024 52 10000 1.5 0 21:55 23.03.2020
577 Clouds 8 1024 52 10000 1.5 0 21:37 23.03.2020
578 Clouds 8 1024 49 10000 1.5 0 21:18 23.03.2020
579 Clouds 9 1024 45 10000 1.5 0 20:42 23.03.2020
580 Clouds 9 1024 45 10000 1.5 0 20:24 23.03.2020
581 Clouds 9 1024 49 10000 2.1 120 19:56 23.03.2020
582 Clouds 10 1024 43 10000 2.6 140 19:37 23.03.2020
583 Clouds 10 1024 40 10000 2.1 140 19:19 23.03.2020
584 Clouds 11 1024 37 10000 2.1 170 18:44 23.03.2020
585 Clouds 12 1024 37 10000 2.6 190 18:25 23.03.2020
586 Clouds 12 1024 35 10000 3.1 150 17:59 23.03.2020
587 Clouds 12 1024 35 10000 3.1 150 17:41 23.03.2020
588 Clouds 13 1024 35 10000 2.6 0 17:19 23.03.2020
589 Clouds 12 1024 37 10000 3.1 170 16:44 23.03.2020
590 Clouds 13 1024 35 10000 3.1 170 16:25 23.03.2020
591 Clouds 12 1024 35 10000 3.1 170 15:58 23.03.2020
592 Clouds 12 1024 34 10000 3.6 190 15:39 23.03.2020
593 Clouds 12 1025 34 10000 3.6 180 15:18 23.03.2020
594 Clouds 12 1025 37 10000 3.1 160 14:37 23.03.2020
595 Clouds 12 1025 37 10000 3.1 160 14:37 23.03.2020
596 Clouds 11 1025 37 10000 3.1 160 14:19 23.03.2020
597 Clouds 11 1025 37 10000 3.1 160 13:57 23.03.2020
598 Clouds 11 1025 43 10000 3.1 0 13:38 23.03.2020
599 Clouds 10 1025 46 10000 3.1 170 13:20 23.03.2020
600 Clouds 9 1026 49 10000 3.6 180 12:43 23.03.2020
601 Clouds 9 1026 52 10000 3.1 170 12:23 23.03.2020
602 Clouds 8 1026 52 10000 2.6 160 11:56 23.03.2020
603 Clouds 7 1026 52 10000 2.6 160 11:37 23.03.2020
604 Clouds 6 1026 56 10000 3.1 160 11:18 23.03.2020
605 Clouds 5 1027 60 10000 3.1 150 10:41 23.03.2020
606 Clouds 5 1027 56 10000 2.6 160 10:23 23.03.2020
607 Clouds 4 1027 56 10000 2.6 160 09:59 23.03.2020
608 Clouds 4 1026 60 10000 2.6 140 09:40 23.03.2020
609 Clouds 3 1026 60 10000 2.1 140 09:19 23.03.2020
610 Clouds 3 1026 74 10000 1 0 08:38 23.03.2020
611 Clear 1 1027 78 10000 1.5 40 08:20 23.03.2020
612 Clear 1 1027 78 10000 1 0 07:51 23.03.2020
613 Clear 0 1027 78 10000 1 0 07:33 23.03.2020
614 Clear 0 1027 80 10000 1 160 06:55 23.03.2020
615 Clear 0 1027 74 10000 0.5 0 06:33 23.03.2020
616 Clear 0 1027 74 10000 1 0 05:43 23.03.2020
617 Clear 1 1026 69 10000 2.1 130 03:54 23.03.2020
618 Clear 2 1027 64 10000 1.5 0 02:44 23.03.2020
619 Clear 2 1027 64 10000 2.1 120 01:42 23.03.2020
620 Clear 2 1028 69 10000 2.1 110 00:45 23.03.2020
621 Clear 3 1028 74 10000 1.5 0 23:58 22.03.2020
622 Clear 3 1028 74 10000 1.5 0 23:40 22.03.2020
623 Clear 3 1028 73 10000 3.6 110 23:22 22.03.2020
624 Clear 4 1028 69 10000 1.5 0 22:40 22.03.2020
625 Clear 4 1028 65 10000 2.6 100 22:20 22.03.2020
626 Clear 5 1028 73 10000 2.6 80 21:40 22.03.2020
627 Clear 5 1028 73 10000 2.6 80 21:21 22.03.2020
628 Clear 5 1028 73 10000 2.6 80 20:58 22.03.2020
629 Clear 5 1028 73 10000 4.1 80 20:40 22.03.2020
630 Clear 6 1028 75 10000 3.6 90 20:21 22.03.2020
631 Clouds 7 1028 67 10000 3.6 90 19:56 22.03.2020
632 Clouds 7 1028 67 10000 4.1 80 19:37 22.03.2020
633 Clouds 8 1028 49 10000 2.1 90 19:19 22.03.2020
634 Clouds 9 1028 49 10000 2.6 90 18:56 22.03.2020
635 Clouds 9 1028 49 10000 2.6 90 18:38 22.03.2020
636 Clouds 10 1027 46 10000 4.1 90 18:18 22.03.2020
637 Clouds 10 1027 46 10000 4.6 90 17:56 22.03.2020
638 Clouds 10 1027 46 10000 4.6 90 17:37 22.03.2020
639 Clouds 11 1027 43 10000 2.1 90 17:19 22.03.2020
640 Clouds 11 1027 40 10000 3.1 90 16:54 22.03.2020
641 Clouds 11 1027 40 10000 3.1 90 16:36 22.03.2020
642 Clouds 11 1027 40 10000 3.1 90 16:36 22.03.2020
643 Clouds 10 1027 43 10000 2.1 110 16:18 22.03.2020
644 Clouds 10 1028 40 10000 2.6 130 15:39 22.03.2020
645 Clouds 10 1028 49 10000 3.1 100 14:48 22.03.2020
646 Clouds 10 1029 51 10000 3.6 80 14:20 22.03.2020
647 Clouds 9 1029 51 10000 3.6 80 13:58 22.03.2020
648 Clouds 9 1029 51 10000 3.1 90 13:40 22.03.2020
649 Clouds 9 1029 52 10000 3.1 90 13:19 22.03.2020
650 Clouds 8 1029 48 10000 3.6 60 12:47 22.03.2020
651 Clouds 8 1029 56 10000 2.6 0 12:23 22.03.2020
652 Clouds 7 1029 56 10000 3.1 0 11:58 22.03.2020
653 Clouds 7 1029 56 10000 3.1 0 11:39 22.03.2020
654 Clouds 6 1029 60 10000 3.6 100 11:21 22.03.2020
655 Clouds 6 1029 65 10000 3.1 100 10:44 22.03.2020
656 Clouds 5 1029 65 10000 3.1 100 10:24 22.03.2020
657 Clouds 5 1029 65 10000 3.1 100 10:24 22.03.2020
658 Clouds 5 1029 65 10000 2.1 100 10:00 22.03.2020
659 Clouds 5 1029 69 10000 2.1 110 09:40 22.03.2020
660 Clouds 4 1029 80 10000 1.5 100 09:19 22.03.2020
661 Clouds 3 1029 74 10000 1.5 0 08:42 22.03.2020
662 Clouds 3 1029 74 10000 1.5 0 08:24 22.03.2020
663 Clouds 2 1029 85 10000 2.1 100 07:50 22.03.2020
664 Clouds 2 1029 80 10000 1 70 07:22 22.03.2020
665 Clouds 2 1028 80 10000 2.1 50 05:57 22.03.2020
666 Clouds 2 1028 80 10000 2.1 60 05:21 22.03.2020
667 Clouds 2 1029 86 10000 2.6 70 02:58 22.03.2020
668 Clouds 3 1028 74 10000 3.1 90 01:22 22.03.2020
669 Clouds 3 1028 74 10000 3.1 90 00:41 22.03.2020
670 Clouds 3 1028 74 10000 2.6 90 00:23 22.03.2020
671 Clouds 3 1028 69 10000 2.1 100 23:41 21.03.2020
672 Clouds 3 1028 69 10000 2.1 100 23:41 21.03.2020
673 Clouds 3 1028 69 10000 1 0 23:19 21.03.2020
674 Clouds 3 1028 74 10000 2.1 100 22:38 21.03.2020
675 Clouds 4 1028 69 10000 3.1 90 22:20 21.03.2020
676 Clouds 4 1028 69 10000 3.1 90 21:59 21.03.2020
677 Clouds 4 1028 69 10000 4.1 80 21:40 21.03.2020
678 Clouds 4 1027 69 10000 3.6 80 21:22 21.03.2020
679 Clouds 4 1027 64 10000 3.1 80 20:46 21.03.2020
680 Clear 4 1027 56 10000 3.6 90 20:23 21.03.2020
681 Clear 5 1027 56 10000 3.6 90 19:57 21.03.2020
682 Clear 5 1027 56 10000 4.6 100 19:39 21.03.2020
683 Clear 5 1026 56 10000 4.1 100 19:21 21.03.2020
684 Clear 6 1026 52 10000 5.1 100 18:54 21.03.2020
685 Clear 6 1026 52 10000 5.1 100 18:36 21.03.2020
686 Clear 6 1026 48 10000 4.6 90 18:18 21.03.2020
687 Clear 7 1026 39 10000 5.7 100 17:42 21.03.2020
688 Clear 8 1026 39 10000 4.6 100 17:23 21.03.2020
689 Clear 8 1026 34 10000 4.6 100 16:57 21.03.2020
690 Clear 8 1026 34 10000 4.6 100 16:38 21.03.2020
691 Clear 9 1027 34 10000 3.6 110 16:18 21.03.2020
692 Clear 9 1027 31 10000 4.6 0 15:41 21.03.2020
693 Clear 9 1027 34 10000 4.1 100 15:23 21.03.2020
694 Clear 9 1027 34 10000 4.1 100 14:58 21.03.2020
695 Clear 9 1027 34 10000 4.6 110 14:40 21.03.2020
696 Clouds 9 1027 39 10000 4.6 110 14:20 21.03.2020
697 Clouds 9 1027 39 10000 4.6 110 13:59 21.03.2020
698 Clouds 9 1028 39 10000 5.1 0 13:40 21.03.2020
699 Clouds 9 1028 39 10000 5.1 90 13:21 21.03.2020
700 Clouds 9 1028 39 10000 5.1 90 13:21 21.03.2020
701 Clouds 9 1028 39 10000 5.1 90 12:58 21.03.2020
702 Clouds 9 1028 36 10000 4.6 100 12:37 21.03.2020
703 Clouds 8 1029 42 10000 4.6 100 12:19 21.03.2020
704 Clouds 8 1029 49 10000 4.1 110 11:56 21.03.2020
705 Clouds 8 1029 49 10000 4.1 110 11:37 21.03.2020
706 Clouds 7 1029 52 10000 3.6 110 11:18 21.03.2020
707 Clouds 7 1029 74 10000 4.1 0 10:56 21.03.2020
708 Clouds 7 1029 74 10000 4.1 0 10:38 21.03.2020
709 Clouds 6 1029 74 10000 5.1 90 10:19 21.03.2020
710 Clouds 6 1029 74 10000 5.1 90 09:55 21.03.2020
711 Clouds 5 1029 70 10000 4.6 100 09:36 21.03.2020
712 Clouds 5 1029 74 10000 4.1 100 09:18 21.03.2020
713 Clouds 5 1029 74 10000 6.2 90 08:42 21.03.2020
714 Clouds 4 1029 78 10000 6.2 90 08:23 21.03.2020
715 Clouds 3 1029 69 10000 5.1 90 07:42 21.03.2020
716 Clouds 3 1029 84 10000 5.7 90 07:23 21.03.2020
717 Clouds 3 1030 69 10000 4.1 90 06:46 21.03.2020
718 Clouds 3 1030 69 10000 5.1 90 06:27 21.03.2020
719 Clouds 3 1030 84 10000 3.6 90 05:46 21.03.2020
720 Clouds 3 1030 84 10000 3.1 90 04:42 21.03.2020
721 Clouds 3 1031 84 10000 4.1 80 02:40 21.03.2020
722 Clear 3 1031 83 10000 4.1 70 02:18 21.03.2020
723 Clouds 3 1031 83 10000 4.1 70 01:31 21.03.2020
724 Clouds 3 1032 83 10000 4.1 80 00:47 21.03.2020
725 Clouds 3 1032 83 10000 4.1 80 00:24 21.03.2020
726 Clouds 3 1033 83 10000 3.1 80 23:48 20.03.2020
727 Rain 4 1033 83 10000 3.6 70 23:24 20.03.2020
728 Clouds 4 1032 78 10000 3.1 70 22:55 20.03.2020
729 Clouds 4 1032 78 10000 3.1 70 22:36 20.03.2020
730 Clouds 4 1032 78 10000 3.1 80 22:18 20.03.2020
731 Clear 4 1032 69 10000 4.1 70 21:54 20.03.2020
732 Clear 4 1032 69 10000 4.1 70 21:36 20.03.2020
733 Clear 5 1032 69 10000 4.1 70 21:18 20.03.2020
734 Clear 5 1032 60 10000 3.6 70 20:41 20.03.2020
735 Clear 6 1032 60 10000 4.1 70 20:21 20.03.2020
736 Clear 6 1032 60 10000 4.1 70 19:58 20.03.2020
737 Clear 6 1032 60 10000 3.6 70 19:39 20.03.2020
738 Clear 6 1032 52 10000 5.1 70 19:18 20.03.2020
739 Clouds 7 1032 49 10000 4.6 80 18:39 20.03.2020
740 Clouds 7 1032 49 10000 4.6 80 18:39 20.03.2020
741 Clear 8 1032 49 10000 4.1 80 18:20 20.03.2020
742 Clouds 8 1032 49 10000 5.7 70 17:56 20.03.2020
743 Clouds 8 1032 49 10000 5.7 70 17:38 20.03.2020
744 Clear 9 1032 42 10000 5.7 60 17:19 20.03.2020
745 Clear 9 1032 42 10000 6.2 60 16:42 20.03.2020
746 Clear 9 1032 39 10000 7.2 60 16:21 20.03.2020
747 Clear 9 1032 39 10000 7.2 60 15:56 20.03.2020
748 Clear 9 1032 43 10000 6.2 70 15:37 20.03.2020
749 Clear 9 1032 42 10000 6.2 80 15:19 20.03.2020
750 Clouds 9 1032 43 10000 7.7 60 14:42 20.03.2020
751 Clouds 9 1032 45 10000 6.7 60 14:21 20.03.2020
752 Clouds 9 1033 49 10000 8.2 50 13:50 20.03.2020
753 Clouds 9 1033 49 10000 5.7 70 13:26 20.03.2020
754 Clouds 9 1033 49 10000 7.7 60 12:59 20.03.2020
755 Clouds 9 1033 49 10000 7.7 60 12:38 20.03.2020
756 Clouds 8 1033 50 10000 8.2 50 12:20 20.03.2020
757 Clouds 8 1033 61 10000 7.2 50 11:40 20.03.2020
758 Clouds 7 1033 65 10000 4.6 80 11:21 20.03.2020
759 Clouds 7 1033 75 10000 6.7 60 10:57 20.03.2020
760 Clouds 7 1033 75 10000 6.7 60 10:57 20.03.2020
761 Clouds 7 1033 75 10000 6.7 60 10:38 20.03.2020
762 Clouds 6 1033 75 10000 5.1 60 10:18 20.03.2020
763 Clouds 6 1032 80 10000 6.2 50 09:46 20.03.2020
764 Clear 5 1032 80 10000 5.1 60 09:21 20.03.2020
765 Clear 4 1032 80 10000 5.1 60 08:58 20.03.2020
766 Clouds 4 1032 86 10000 4.6 50 08:39 20.03.2020
767 Clouds 3 1032 86 10000 4.1 40 08:19 20.03.2020
768 Clouds 3 1031 86 10000 3.6 50 07:43 20.03.2020
769 Clouds 3 1031 86 10000 3.6 40 07:25 20.03.2020
770 Clouds 3 1031 86 10000 4.1 50 06:42 20.03.2020
771 Clouds 3 1031 86 10000 2.6 60 06:22 20.03.2020
772 Clouds 4 1030 86 10000 3.1 40 04:48 20.03.2020
773 Clouds 4 1030 80 10000 2.6 50 02:54 20.03.2020
774 Clouds 5 1030 64 10000 2.1 80 01:50 20.03.2020
775 Clouds 5 1030 75 10000 1.5 70 00:45 20.03.2020
776 Clouds 5 1030 80 10000 1.5 70 00:24 20.03.2020
777 Clouds 5 1030 81 10000 1.5 50 23:42 19.03.2020
778 Clouds 5 1030 75 10000 1 50 23:23 19.03.2020
779 Clouds 6 1029 75 10000 2.6 20 22:54 19.03.2020
780 Clouds 6 1029 75 10000 2.6 20 22:36 19.03.2020
781 Clouds 6 1029 75 10000 2.1 340 22:18 19.03.2020
782 Clouds 6 1029 70 10000 2.1 340 21:39 19.03.2020
783 Clouds 6 1029 70 10000 2.6 350 21:20 19.03.2020
784 Clouds 6 1029 53 10000 2.6 340 20:54 19.03.2020
785 Clouds 6 1029 53 10000 2.6 340 20:36 19.03.2020
786 Clouds 6 1029 53 10000 2.6 340 20:36 19.03.2020
787 Clouds 7 1028 48 10000 1.5 100 20:18 19.03.2020
788 Clouds 7 1028 45 10000 1 0 19:39 19.03.2020
789 Clouds 7 1028 45 10000 1.5 0 19:21 19.03.2020
790 Clouds 7 1028 45 10000 1.5 0 18:59 19.03.2020
791 Clouds 8 1027 49 10000 1 0 18:41 19.03.2020
792 Clouds 8 1027 42 10000 1.5 0 18:22 19.03.2020
793 Clouds 8 1027 39 10000 2.1 50 17:55 19.03.2020
794 Clouds 9 1028 36 10000 1.5 0 17:37 19.03.2020
795 Clouds 9 1028 36 10000 1.5 0 17:18 19.03.2020
796 Clouds 9 1028 39 10000 1.5 0 16:42 19.03.2020
797 Clouds 9 1028 45 10000 2.6 20 16:21 19.03.2020
798 Clouds 9 1028 42 10000 2.6 360 15:44 19.03.2020
799 Clouds 9 1028 42 10000 1.5 0 15:24 19.03.2020
800 Clouds 9 1028 42 10000 1 0 14:43 19.03.2020
801 Clouds 9 1028 45 10000 1 0 14:23 19.03.2020
802 Clouds 9 1028 45 10000 1 0 13:59 19.03.2020
803 Clouds 9 1028 45 10000 1 0 13:37 19.03.2020
804 Clouds 8 1028 52 10000 1.5 0 13:18 19.03.2020
805 Clouds 8 1029 45 10000 2.1 40 12:41 19.03.2020
806 Clouds 8 1029 45 10000 1 0 12:23 19.03.2020
807 Clouds 8 1029 65 10000 1.5 0 11:58 19.03.2020
808 Clouds 8 1029 65 10000 1.5 0 11:58 19.03.2020
809 Clouds 7 1029 65 10000 1.5 0 11:40 19.03.2020
810 Clouds 7 1028 70 10000 1.5 0 11:22 19.03.2020
811 Clouds 7 1028 87 10000 1 0 10:42 19.03.2020
812 Clouds 6 1028 87 10000 0.5 0 10:21 19.03.2020
813 Clouds 6 1028 87 10000 0.5 0 09:58 19.03.2020
814 Clouds 6 1028 93 10000 0.5 0 09:38 19.03.2020
815 Clouds 5 1028 100 10000 0.5 0 09:19 19.03.2020
816 Clouds 5 1027 93 10000 0.5 90 08:45 19.03.2020
817 Clouds 4 1027 93 10000 1 80 08:21 19.03.2020
818 Clouds 4 1027 93 10000 0.5 100 07:47 19.03.2020
819 Clouds 4 1027 93 10000 0.5 100 07:28 19.03.2020
820 Clouds 4 1027 93 10000 0.5 0 06:49 19.03.2020
821 Clouds 4 1026 93 10000 1 120 05:52 19.03.2020
822 Clouds 4 1026 93 10000 1 150 04:59 19.03.2020
823 Clouds 4 1026 93 10000 1 150 04:40 19.03.2020
824 Clouds 4 1026 93 10000 0.5 180 02:50 19.03.2020
825 Clouds 5 1026 93 10000 1 130 01:25 19.03.2020
826 Clouds 5 1026 86 10000 0.5 300 00:32 19.03.2020
827 Clouds 5 1026 81 10000 1.5 320 23:57 18.03.2020
828 Rain 5 1026 81 10000 1 320 23:30 18.03.2020
829 Clouds 6 1026 81 10000 1 290 22:58 18.03.2020
830 Clouds 6 1026 81 10000 1 290 22:39 18.03.2020
831 Clouds 6 1026 81 10000 2.1 280 22:21 18.03.2020
832 Clouds 6 1026 81 10000 2.6 300 21:42 18.03.2020
833 Clouds 6 1026 87 10000 1.5 290 21:22 18.03.2020
834 Clouds 6 1026 87 10000 1.5 290 20:59 18.03.2020
835 Clouds 6 1026 87 10000 1.5 290 20:59 18.03.2020
836 Clouds 6 1025 81 10000 2.6 280 20:40 18.03.2020
837 Clouds 6 1025 81 10000 2.6 280 20:40 18.03.2020
838 Clouds 6 1025 81 10000 2.6 290 20:20 18.03.2020
839 Clouds 6 1025 81 10000 2.6 290 19:58 18.03.2020
840 Clouds 6 1025 75 10000 2.6 300 19:39 18.03.2020
841 Clouds 7 1024 75 10000 3.1 290 19:20 18.03.2020
842 Clouds 7 1024 70 10000 3.1 280 18:41 18.03.2020
843 Clouds 7 1024 75 10000 3.1 280 18:21 18.03.2020
844 Clouds 7 1024 75 10000 3.1 280 18:21 18.03.2020
845 Clouds 7 1024 70 10000 2.6 290 17:59 18.03.2020
846 Clouds 7 1024 70 10000 2.6 290 17:40 18.03.2020
847 Clouds 7 1024 70 10000 3.1 280 17:21 18.03.2020
848 Clouds 7 1024 75 10000 2.6 300 16:58 18.03.2020
849 Clouds 7 1024 75 10000 2.6 300 16:39 18.03.2020
850 Clouds 7 1024 75 10000 2.6 290 16:20 18.03.2020
851 Rain 7 1024 81 10000 2.6 290 15:45 18.03.2020
852 Clouds 7 1024 87 10000 3.1 280 15:20 18.03.2020
853 Rain 7 1024 87 10000 3.6 280 14:45 18.03.2020
854 Rain 7 1024 75 10000 4.6 290 14:22 18.03.2020
855 Rain 7 1024 75 10000 4.6 290 13:59 18.03.2020
856 Rain 7 1024 75 10000 3.1 290 13:37 18.03.2020
857 Rain 7 1024 81 10000 3.1 280 13:19 18.03.2020
858 Rain 7 1024 87 10000 2.6 290 12:41 18.03.2020
859 Rain 7 1024 87 10000 3.6 270 12:20 18.03.2020
860 Rain 7 1024 93 10000 3.1 290 11:40 18.03.2020
861 Rain 6 1024 93 10000 2.6 290 11:21 18.03.2020
862 Rain 6 1023 93 10000 2.1 290 10:58 18.03.2020
863 Rain 6 1023 93 10000 2.1 290 10:39 18.03.2020
864 Rain 6 1023 93 10000 2.1 280 10:20 18.03.2020
865 Rain 6 1023 93 10000 2.1 280 09:56 18.03.2020
866 Drizzle 6 1023 93 6000 2.1 280 09:38 18.03.2020
867 Clouds 6 1022 93 10000 1.5 290 09:20 18.03.2020
868 Clouds 6 1022 87 10000 2.6 300 08:39 18.03.2020
869 Rain 6 1022 93 10000 4.1 300 08:21 18.03.2020
870 Rain 6 1021 93 10000 3.1 290 07:49 18.03.2020
871 Rain 6 1021 93 10000 3.1 290 07:30 18.03.2020
872 Rain 7 1021 100 6000 4.1 300 06:50 18.03.2020
873 Rain 7 1021 100 5000 3.1 290 06:24 18.03.2020
874 Rain 7 1020 100 10000 3.6 290 05:35 18.03.2020
875 Rain 8 1019 100 10000 6.2 290 04:27 18.03.2020
876 Rain 10 1018 93 7000 6.2 210 02:49 18.03.2020
877 Drizzle 11 1018 93 5000 6.7 220 01:48 18.03.2020
878 Rain 11 1018 93 10000 7.2 220 01:27 18.03.2020
879 Rain 12 1019 81 10000 6.7 210 00:25 18.03.2020
880 Rain 12 1019 81 10000 7.7 210 23:51 17.03.2020
881 Rain 12 1019 81 10000 7.2 200 23:28 17.03.2020
882 Rain 12 1019 81 10000 7.2 200 22:59 17.03.2020
883 Clouds 12 1019 81 10000 7.2 200 22:40 17.03.2020
884 Clouds 12 1019 81 10000 6.2 200 22:22 17.03.2020
885 Clouds 12 1019 81 10000 6.7 200 21:40 17.03.2020
886 Clouds 12 1019 81 10000 6.7 200 21:21 17.03.2020
887 Clouds 12 1020 81 10000 6.7 210 20:41 17.03.2020
888 Clouds 12 1020 81 10000 7.2 210 20:22 17.03.2020
889 Clouds 12 1020 81 10000 7.2 210 19:59 17.03.2020
890 Clouds 12 1019 76 10000 6.2 210 19:40 17.03.2020
891 Clouds 13 1020 76 10000 9.3 220 19:18 17.03.2020
892 Clouds 13 1019 71 10000 6.7 210 18:56 17.03.2020
893 Clouds 13 1019 71 10000 6.7 210 18:37 17.03.2020
894 Clouds 13 1019 71 10000 6.7 210 18:37 17.03.2020
895 Clouds 13 1019 71 10000 6.7 210 18:19 17.03.2020
896 Clouds 13 1020 76 10000 5.7 200 17:40 17.03.2020
897 Clouds 13 1020 76 10000 5.7 200 17:40 17.03.2020
898 Clouds 13 1020 71 10000 7.7 210 17:21 17.03.2020
899 Clouds 14 1021 67 10000 8.2 220 16:55 17.03.2020
900 Clouds 14 1021 67 10000 8.2 220 16:37 17.03.2020
901 Clouds 14 1021 71 10000 8.2 220 16:18 17.03.2020
902 Clouds 14 1021 67 10000 6.2 220 15:43 17.03.2020
903 Clouds 14 1021 67 10000 6.7 220 15:19 17.03.2020
904 Clouds 14 1022 62 10000 6.7 210 14:42 17.03.2020
905 Clouds 14 1022 67 10000 6.7 210 14:21 17.03.2020
906 Clouds 14 1022 67 10000 7.2 210 13:44 17.03.2020
907 Clouds 13 1023 67 10000 5.7 220 13:26 17.03.2020
908 Clouds 13 1023 67 10000 5.7 220 12:58 17.03.2020
909 Clouds 13 1023 67 10000 5.7 220 12:58 17.03.2020
910 Clouds 13 1022 71 10000 5.7 220 12:39 17.03.2020
911 Clouds 12 1023 76 10000 6.2 220 12:21 17.03.2020
912 Clouds 12 1023 81 10000 3.6 200 11:45 17.03.2020
913 Clouds 12 1022 81 10000 4.6 210 11:27 17.03.2020
914 Clouds 12 1022 81 10000 4.6 210 11:27 17.03.2020
915 Clouds 11 1022 81 10000 4.1 200 10:58 17.03.2020
916 Clouds 11 1022 81 10000 4.1 200 10:37 17.03.2020
917 Clouds 11 1022 87 10000 3.6 200 10:19 17.03.2020
918 Clouds 10 1022 87 10000 3.6 200 09:55 17.03.2020
919 Clouds 10 1022 93 10000 3.1 190 09:36 17.03.2020
920 Clouds 10 1022 87 10000 4.1 200 09:18 17.03.2020
921 Clouds 9 1022 87 10000 4.1 210 08:42 17.03.2020
922 Clouds 9 1022 87 10000 2.1 200 08:21 17.03.2020
923 Clouds 9 1021 87 10000 3.6 200 07:49 17.03.2020
924 Rain 9 1021 87 10000 3.6 200 07:24 17.03.2020
925 Rain 9 1021 87 10000 4.1 200 06:53 17.03.2020
926 Clouds 9 1021 87 10000 4.1 200 06:27 17.03.2020
927 Clouds 9 1020 87 10000 4.1 200 05:38 17.03.2020
928 Rain 8 1020 81 10000 5.1 210 03:36 17.03.2020
929 Clouds 8 1020 81 10000 4.6 200 02:31 17.03.2020
930 Clouds 8 1020 75 10000 4.1 200 01:39 17.03.2020
931 Clouds 8 1020 70 10000 4.1 200 00:54 17.03.2020
932 Clouds 8 1020 75 10000 4.1 190 00:19 17.03.2020
933 Clouds 8 1021 75 10000 4.1 200 23:38 16.03.2020
934 Clouds 8 1021 75 10000 4.1 200 23:19 16.03.2020
935 Clouds 8 1021 65 10000 3.6 190 22:38 16.03.2020
936 Clouds 8 1020 65 10000 3.6 190 22:20 16.03.2020
937 Clouds 8 1020 65 10000 3.6 190 22:20 16.03.2020
938 Clouds 8 1020 65 10000 4.6 200 21:45 16.03.2020
939 Clouds 8 1020 65 10000 4.6 200 21:27 16.03.2020
940 Clouds 8 1020 61 10000 4.6 200 20:59 16.03.2020
941 Clouds 8 1020 61 10000 3.1 200 20:39 16.03.2020
942 Clouds 8 1020 50 10000 5.1 210 20:20 16.03.2020
943 Clouds 8 1020 50 10000 4.6 210 19:46 16.03.2020
944 Clouds 9 1020 50 10000 4.6 220 19:24 16.03.2020
945 Clouds 9 1020 50 10000 5.1 220 18:59 16.03.2020
946 Clouds 9 1020 50 10000 5.1 220 18:39 16.03.2020
947 Clouds 9 1020 49 10000 6.2 220 18:19 16.03.2020
948 Clouds 10 1020 45 10000 5.7 220 17:46 16.03.2020
949 Clouds 10 1020 53 10000 5.7 210 17:25 16.03.2020
950 Clouds 10 1020 53 10000 4.6 220 16:56 16.03.2020
951 Clouds 10 1020 53 10000 4.6 220 16:37 16.03.2020
952 Clouds 10 1020 53 10000 3.6 200 16:19 16.03.2020
953 Clouds 10 1020 57 10000 4.6 210 15:42 16.03.2020
954 Clouds 10 1020 53 10000 5.7 210 15:23 16.03.2020
955 Clouds 10 1020 53 10000 5.7 210 15:23 16.03.2020
956 Clouds 11 1020 61 10000 5.1 220 14:45 16.03.2020
957 Clouds 10 1020 53 10000 4.1 220 14:20 16.03.2020
958 Clouds 10 1020 53 10000 4.6 250 13:45 16.03.2020
959 Clouds 10 1020 53 10000 4.6 250 13:26 16.03.2020
960 Clouds 10 1021 57 10000 5.1 250 12:56 16.03.2020
961 Clouds 9 1021 65 10000 3.6 260 12:37 16.03.2020
962 Clouds 9 1020 65 10000 4.1 230 12:19 16.03.2020
963 Clouds 9 1020 70 10000 4.1 240 11:42 16.03.2020
964 Clouds 8 1020 75 10000 3.6 260 11:20 16.03.2020
965 Clouds 8 1020 81 10000 3.6 240 10:43 16.03.2020
966 Clouds 7 1020 87 10000 2.6 240 10:24 16.03.2020
967 Clouds 6 1019 87 10000 3.1 240 09:47 16.03.2020
968 Clouds 6 1019 87 10000 3.1 240 09:28 16.03.2020
969 Clouds 5 1019 93 10000 3.6 240 08:59 16.03.2020
970 Clouds 5 1019 93 10000 1.5 220 08:27 16.03.2020
971 Clouds 5 1018 86 10000 2.1 220 07:56 16.03.2020
972 Clouds 5 1018 86 10000 2.6 240 07:38 16.03.2020
973 Clouds 5 1017 86 10000 2.1 250 07:18 16.03.2020
974 Rain 5 1017 81 10000 2.1 250 06:27 16.03.2020
975 Rain 5 1016 87 10000 2.6 250 05:54 16.03.2020
976 Clouds 6 1015 81 10000 3.6 280 03:31 16.03.2020
977 Clouds 6 1013 81 10000 4.6 300 01:20 16.03.2020
978 Clouds 6 1013 75 10000 4.6 300 00:43 16.03.2020
979 Clouds 6 1012 75 10000 5.1 290 23:49 15.03.2020
980 Clouds 6 1012 75 10000 3.6 290 23:21 15.03.2020
981 Clouds 6 1011 81 10000 3.6 280 22:56 15.03.2020
982 Clouds 6 1011 81 10000 3.6 280 22:37 15.03.2020
983 Clouds 6 1011 81 10000 4.1 280 22:19 15.03.2020
984 Clouds 6 1010 81 10000 4.6 270 21:39 15.03.2020
985 Clouds 6 1010 75 10000 3.6 270 21:19 15.03.2020
986 Clouds 6 1009 81 10000 3.6 270 20:43 15.03.2020
987 Clouds 7 1009 75 10000 4.6 290 20:22 15.03.2020
988 Clouds 7 1009 75 10000 4.6 290 19:58 15.03.2020
989 Clouds 7 1008 70 10000 5.1 290 19:40 15.03.2020
990 Clouds 7 1008 70 10000 6.2 290 19:22 15.03.2020
991 Clouds 8 1007 70 10000 6.2 270 18:57 15.03.2020
992 Clouds 8 1007 70 10000 6.2 270 18:38 15.03.2020
993 Clouds 8 1006 70 10000 6.7 260 18:20 15.03.2020
994 Rain 9 1006 66 10000 6.7 280 17:42 15.03.2020
995 Rain 9 1006 66 10000 5.7 290 17:22 15.03.2020
996 Clouds 9 1005 66 10000 6.2 280 16:59 15.03.2020
997 Clouds 9 1005 66 10000 6.2 280 16:41 15.03.2020
998 Clouds 9 1004 70 10000 6.2 270 16:22 15.03.2020
999 Clouds 9 1004 70 10000 6.2 270 15:56 15.03.2020
1000 Clouds 9 1004 70 10000 6.2 270 15:38 15.03.2020
1001 Clouds 8 1004 75 10000 5.7 270 15:19 15.03.2020
1002 Clouds 9 1004 75 10000 4.6 270 14:40 15.03.2020
1003 Rain 9 1003 70 10000 6.7 280 14:22 15.03.2020
1004 Rain 9 1003 70 10000 6.7 280 13:56 15.03.2020
1005 Rain 9 1003 76 10000 4.6 230 13:38 15.03.2020
1006 Rain 9 1003 76 10000 4.1 220 13:18 15.03.2020
1007 Clouds 9 1003 76 10000 4.1 210 12:40 15.03.2020
1008 Clouds 9 1002 87 10000 3.6 210 12:22 15.03.2020
1009 Rain 8 1002 87 10000 3.1 200 11:44 15.03.2020
1010 Rain 8 1002 81 10000 3.1 200 11:25 15.03.2020
1011 Clouds 8 1002 81 10000 3.6 190 10:59 15.03.2020
1012 Clouds 8 1002 81 10000 3.6 190 10:40 15.03.2020
1013 Clouds 8 1002 81 10000 3.6 200 10:22 15.03.2020
1014 Clouds 8 1002 81 10000 3.6 200 09:59 15.03.2020
1015 Clouds 8 1001 87 10000 3.6 200 09:38 15.03.2020
1016 Clouds 8 1001 93 10000 3.6 200 09:19 15.03.2020
1017 Clouds 8 1001 87 10000 3.1 200 08:41 15.03.2020
1018 Rain 7 1001 87 10000 3.6 200 08:19 15.03.2020
1019 Rain 7 1001 93 10000 3.6 200 07:48 15.03.2020
1020 Rain 7 1000 100 10000 3.6 200 07:22 15.03.2020
1021 Rain 7 1000 93 9000 3.1 190 06:43 15.03.2020
1022 Rain 8 1000 93 10000 3.6 200 05:48 15.03.2020
1023 Rain 8 1001 93 2300 5.1 200 04:56 15.03.2020
1024 Rain 9 1001 93 2300 5.1 200 04:37 15.03.2020
1025 Rain 9 1001 93 10000 4.1 190 04:18 15.03.2020
1026 Rain 10 1002 81 10000 5.1 190 02:54 15.03.2020
1027 Rain 10 1002 87 10000 5.7 190 02:21 15.03.2020
1028 Rain 10 1003 81 10000 6.2 190 00:57 15.03.2020
1029 Rain 10 1003 81 10000 6.2 190 00:39 15.03.2020
1030 Rain 10 1003 81 10000 5.7 190 00:18 15.03.2020
1031 Clouds 10 1003 76 10000 5.7 190 23:38 14.03.2020
1032 Clouds 10 1004 76 10000 5.1 190 23:19 14.03.2020
1033 Clouds 10 1004 76 10000 5.7 190 22:55 14.03.2020
1034 Clouds 10 1004 76 10000 5.7 190 22:55 14.03.2020
1035 Clouds 10 1004 76 10000 5.7 190 22:37 14.03.2020
1036 Clouds 10 1004 76 10000 3.6 190 22:19 14.03.2020
1037 Clouds 10 1004 76 10000 3.6 190 21:54 14.03.2020
1038 Clouds 10 1005 81 10000 4.1 190 21:36 14.03.2020
1039 Clouds 10 1005 81 10000 4.1 180 21:18 14.03.2020
1040 Clouds 10 1006 81 10000 5.1 180 20:55 14.03.2020
1041 Clouds 10 1006 81 10000 5.1 180 20:36 14.03.2020
1042 Clouds 10 1006 81 10000 4.6 200 20:18 14.03.2020
1043 Clouds 10 1006 81 10000 4.6 200 19:40 14.03.2020
1044 Clouds 10 1006 81 10000 4.6 200 19:20 14.03.2020
1045 Clouds 10 1006 81 10000 3.6 190 18:39 14.03.2020
1046 Rain 10 1007 81 10000 3.1 190 18:20 14.03.2020
1047 Rain 10 1007 87 10000 2.6 190 17:42 14.03.2020
1048 Rain 10 1008 87 10000 3.1 210 17:21 14.03.2020
1049 Rain 10 1008 76 10000 5.7 210 16:58 14.03.2020
1050 Rain 10 1008 76 10000 5.7 210 16:38 14.03.2020
1051 Clouds 11 1008 71 10000 6.2 220 16:18 14.03.2020
1052 Clouds 11 1008 76 10000 3.6 200 15:28 14.03.2020
1053 Clouds 11 1008 76 10000 4.1 190 14:59 14.03.2020
1054 Clouds 11 1008 76 10000 4.1 190 14:59 14.03.2020
1055 Clouds 11 1009 71 10000 4.1 210 14:39 14.03.2020
1056 Rain 11 1009 81 10000 6.2 220 14:20 14.03.2020
1057 Rain 11 1009 81 10000 6.2 220 13:56 14.03.2020
1058 Clouds 11 1009 71 10000 4.6 200 13:38 14.03.2020
1059 Clouds 11 1009 76 10000 3.6 200 13:19 14.03.2020
1060 Clouds 11 1010 76 10000 4.6 200 12:44 14.03.2020
1061 Clouds 10 1010 81 10000 3.6 200 12:25 14.03.2020
1062 Clouds 9 1010 87 10000 3.1 200 11:45 14.03.2020
1063 Clouds 9 1010 93 10000 3.1 190 11:25 14.03.2020
1064 Clouds 8 1010 93 10000 3.6 180 10:54 14.03.2020
1065 Clouds 8 1010 93 10000 3.6 180 10:54 14.03.2020
1066 Clouds 8 1010 93 10000 3.6 180 10:36 14.03.2020
1067 Clouds 8 1010 93 10000 2.1 180 10:18 14.03.2020
1068 Clouds 7 1010 93 10000 2.6 180 09:41 14.03.2020
1069 Rain 7 1010 93 10000 2.1 170 09:21 14.03.2020
1070 Rain 6 1010 100 10000 2.1 170 08:46 14.03.2020
1071 Rain 6 1010 100 10000 2.1 170 08:46 14.03.2020
1072 Rain 6 1010 100 10000 2.1 170 08:26 14.03.2020
1073 Clouds 6 1010 93 10000 2.6 150 07:40 14.03.2020
1074 Rain 6 1010 93 10000 3.6 140 07:21 14.03.2020
1075 Rain 6 1010 93 10000 3.1 150 06:55 14.03.2020
1076 Rain 6 1010 93 10000 3.1 150 06:34 14.03.2020
1077 Rain 5 1012 87 10000 2.6 140 04:55 14.03.2020
1078 Clouds 5 1012 81 10000 3.1 130 03:34 14.03.2020
1079 Clouds 5 1013 81 10000 2.6 120 02:48 14.03.2020
1080 Clouds 5 1014 81 10000 1.5 0 01:46 14.03.2020
1081 Clouds 5 1015 81 10000 2.1 0 00:34 14.03.2020
1082 Clouds 5 1015 86 10000 2.1 110 23:42 13.03.2020
1083 Clouds 5 1015 86 10000 2.1 110 23:23 13.03.2020
1084 Rain 5 1016 87 10000 2.6 0 22:44 13.03.2020
1085 Rain 5 1016 81 10000 2.6 110 22:22 13.03.2020
1086 Clouds 5 1016 87 10000 2.1 0 21:41 13.03.2020
1087 Clouds 6 1016 87 10000 2.6 90 21:19 13.03.2020
1088 Rain 6 1016 93 10000 2.1 100 20:42 13.03.2020
1089 Rain 6 1016 87 10000 1.5 0 20:22 13.03.2020
1090 Rain 6 1016 87 10000 1.5 0 19:57 13.03.2020
1091 Rain 6 1016 87 10000 1.5 0 19:39 13.03.2020
1092 Rain 7 1017 93 9000 1.5 0 19:18 13.03.2020
1093 Rain 7 1017 87 9000 2.1 210 18:40 13.03.2020
1094 Rain 7 1017 87 10000 2.1 210 18:22 13.03.2020
1095 Rain 8 1017 70 10000 3.1 210 17:42 13.03.2020
1096 Clouds 9 1017 55 10000 1 0 17:21 13.03.2020
1097 Clouds 9 1017 49 10000 1 0 16:56 13.03.2020
1098 Clouds 9 1017 49 10000 1 0 16:38 13.03.2020
1099 Clouds 9 1017 55 10000 1 0 16:20 13.03.2020
1100 Clouds 9 1017 55 10000 1 0 15:43 13.03.2020
1101 Clouds 9 1017 55 10000 1 0 15:22 13.03.2020
1102 Clouds 9 1018 57 10000 2.1 290 14:57 13.03.2020
1103 Clouds 9 1018 57 10000 2.1 290 14:38 13.03.2020
1104 Clouds 10 1018 57 10000 1.5 0 14:18 13.03.2020
1105 Clouds 9 1018 61 10000 2.6 260 13:42 13.03.2020
1106 Clouds 9 1017 65 10000 3.1 260 13:22 13.03.2020
1107 Clouds 9 1017 65 10000 3.1 260 12:58 13.03.2020
1108 Clouds 9 1017 65 10000 2.1 300 12:38 13.03.2020
1109 Clouds 8 1017 70 10000 3.6 340 12:19 13.03.2020
1110 Clouds 8 1017 70 10000 4.1 320 11:55 13.03.2020
1111 Clouds 8 1017 70 10000 4.6 290 11:36 13.03.2020
1112 Clouds 8 1017 70 10000 4.6 290 11:36 13.03.2020
1113 Clouds 8 1017 70 10000 4.6 290 11:18 13.03.2020
1114 Clouds 7 1016 75 10000 5.1 290 10:42 13.03.2020
1115 Clouds 7 1016 75 10000 3.1 290 10:24 13.03.2020
1116 Clouds 7 1015 81 10000 3.6 270 09:46 13.03.2020
1117 Clouds 6 1015 81 10000 3.6 270 09:27 13.03.2020
1118 Clouds 6 1015 86 10000 1.5 240 08:56 13.03.2020
1119 Clouds 6 1014 80 10000 1.5 0 08:37 13.03.2020
1120 Clouds 5 1013 80 10000 4.1 250 08:18 13.03.2020
1121 Clouds 6 1013 81 10000 4.6 270 07:43 13.03.2020
1122 Clouds 6 1012 87 10000 6.7 280 07:22 13.03.2020
1123 Rain 6 1011 87 10000 6.7 280 06:46 13.03.2020
1124 Rain 6 1011 87 10000 8.2 260 06:20 13.03.2020
1125 Rain 6 1010 81 10000 8.2 250 05:43 13.03.2020
1126 Clouds 6 1010 81 10000 8.7 260 04:39 13.03.2020
1127 Clouds 6 1010 81 10000 8.2 260 03:50 13.03.2020
1128 Clouds 6 1008 81 10000 8.7 260 01:49 13.03.2020
1129 Clouds 6 1008 81 10000 7.7 260 01:19 13.03.2020
1130 Clouds 6 1008 81 10000 8.2 260 00:56 13.03.2020
1131 Clouds 6 1008 81 10000 8.2 260 00:38 13.03.2020
1132 Clouds 6 1007 81 10000 8.2 260 00:18 13.03.2020
1133 Clouds 5 1006 86 10000 8.2 250 23:29 12.03.2020
1134 Clouds 5 1006 86 10000 8.2 250 22:59 12.03.2020
1135 Clouds 5 1006 86 10000 8.2 250 22:41 12.03.2020
1136 Rain 5 1006 93 10000 7.7 250 22:23 12.03.2020
1137 Rain 5 1005 80 10000 8.7 250 21:54 12.03.2020
1138 Rain 5 1005 80 10000 8.7 250 21:36 12.03.2020
1139 Rain 5 1005 80 10000 8.7 250 21:18 12.03.2020
1140 Rain 5 1004 80 10000 8.2 240 20:41 12.03.2020
1141 Rain 6 1004 75 10000 7.7 240 20:19 12.03.2020
1142 Rain 6 1004 80 10000 7.7 250 19:42 12.03.2020
1143 Rain 6 1003 70 10000 8.2 240 19:21 12.03.2020
1144 Rain 7 1003 70 10000 9.3 230 18:45 12.03.2020
1145 Clouds 7 1003 70 10000 11.3 230 18:25 12.03.2020
1146 Clouds 8 1003 65 10000 10.8 240 17:57 12.03.2020
1147 Clouds 8 1003 65 10000 10.8 240 17:39 12.03.2020
1148 Clouds 8 1002 61 10000 12.9 230 17:20 12.03.2020
1149 Clouds 8 1002 57 10000 11.8 240 16:56 12.03.2020
1150 Clouds 9 1002 57 10000 11.8 240 16:38 12.03.2020
1151 Clouds 9 1003 56 10000 11.3 240 16:19 12.03.2020
1152 Clouds 9 1003 56 10000 12.3 240 15:45 12.03.2020
1153 Clouds 9 1003 56 10000 12.3 240 15:27 12.03.2020
1154 Clouds 9 1003 56 10000 11.3 240 14:42 12.03.2020
1155 Clouds 9 1004 53 10000 10.8 230 14:24 12.03.2020
1156 Clouds 9 1004 53 10000 10.8 230 13:57 12.03.2020
1157 Clouds 9 1004 49 10000 10.8 240 13:36 12.03.2020
1158 Clouds 8 1004 49 10000 9.8 230 13:18 12.03.2020
1159 Clouds 8 1004 49 10000 11.3 240 12:41 12.03.2020
1160 Clouds 8 1004 49 10000 11.8 240 12:22 12.03.2020
1161 Clouds 7 1004 49 10000 9.8 240 11:57 12.03.2020
1162 Clouds 7 1004 49 10000 9.8 240 11:57 12.03.2020
1163 Clouds 7 1004 49 10000 9.8 240 11:38 12.03.2020
1164 Clouds 7 1004 60 10000 10.8 230 11:19 12.03.2020
1165 Clouds 6 1004 60 10000 9.8 230 10:58 12.03.2020
1166 Clouds 6 1004 60 10000 9.8 230 10:40 12.03.2020
1167 Clouds 6 1004 75 10000 6.2 210 10:22 12.03.2020
1168 Clouds 5 1004 60 10000 3.1 200 09:46 12.03.2020
1169 Clouds 5 1004 69 10000 2.6 180 09:25 12.03.2020
1170 Clouds 4 1004 74 10000 4.6 220 08:44 12.03.2020
1171 Snow 4 1004 69 10000 5.7 230 08:20 12.03.2020
1172 Snow 3 1004 69 10000 5.7 230 07:59 12.03.2020
1173 Clouds 3 1004 69 10000 4.1 220 07:40 12.03.2020
1174 Clouds 3 1004 69 10000 5.1 220 07:21 12.03.2020
1175 Snow 3 1003 69 10000 3.6 220 05:51 12.03.2020
1176 Snow 4 1002 64 10000 4.6 230 05:25 12.03.2020
1177 Snow 4 1001 60 10000 10.8 250 02:41 12.03.2020
1178 Clouds 5 999 71 10000 9.3 250 01:32 12.03.2020
1179 Rain 5 998 73 10000 10.3 260 00:47 12.03.2020
1180 Rain 5 997 75 10000 13.9 260 00:27 12.03.2020
1181 Rain 6 996 75 10000 11.3 230 23:47 11.03.2020
1182 Rain 7 996 81 10000 10.3 230 23:25 11.03.2020
1183 Rain 7 995 81 10000 9.3 220 22:48 11.03.2020
1184 Rain 8 995 81 10000 9.3 220 22:30 11.03.2020
1185 Rain 8 995 87 5000 6.2 220 21:59 11.03.2020
1186 Rain 8 996 81 10000 6.7 200 21:41 11.03.2020
1187 Rain 8 996 87 10000 6.7 200 21:22 11.03.2020
1188 Clouds 9 996 87 10000 6.7 200 20:58 11.03.2020
1189 Rain 9 997 76 10000 7.2 210 20:39 11.03.2020
1190 Rain 9 998 81 10000 6.2 210 20:20 11.03.2020
1191 Rain 9 998 81 10000 5.1 200 19:44 11.03.2020
1192 Clouds 9 998 81 10000 5.1 200 19:26 11.03.2020
1193 Rain 9 999 81 10000 5.7 210 18:59 11.03.2020
1194 Rain 9 1000 81 10000 7.2 220 18:40 11.03.2020
1195 Rain 9 1000 71 10000 9.8 230 18:22 11.03.2020
1196 Rain 10 1000 66 10000 8.2 240 17:58 11.03.2020
1197 Rain 10 1000 66 10000 8.2 240 17:58 11.03.2020
1198 Clouds 10 1000 66 10000 8.2 240 17:39 11.03.2020
1199 Clouds 11 1001 62 10000 9.8 230 17:20 11.03.2020
1200 Clouds 11 1001 62 10000 8.7 220 16:46 11.03.2020
1201 Rain 11 1002 54 10000 8.7 220 16:23 11.03.2020
1202 Rain 11 1002 54 10000 8.7 220 15:57 11.03.2020
1203 Rain 11 1002 62 10000 7.7 220 15:39 11.03.2020
1204 Clouds 11 1003 66 10000 6.2 210 15:21 11.03.2020
1205 Rain 11 1004 66 10000 5.7 210 14:42 11.03.2020
1206 Clouds 11 1004 58 10000 6.2 220 14:22 11.03.2020
1207 Rain 11 1005 66 10000 5.7 220 13:45 11.03.2020
1208 Rain 11 1005 66 10000 5.7 220 13:27 11.03.2020
1209 Clouds 11 1005 66 10000 6.2 220 12:58 11.03.2020
1210 Clouds 11 1005 66 10000 6.2 220 12:40 11.03.2020
1211 Rain 11 1005 76 10000 6.7 210 12:19 11.03.2020
1212 Clouds 11 1006 81 10000 5.1 210 11:55 11.03.2020
1213 Clouds 11 1006 81 10000 5.1 210 11:36 11.03.2020
1214 Clouds 10 1006 81 10000 4.6 200 11:18 11.03.2020
1215 Clouds 10 1006 81 10000 4.6 210 10:42 11.03.2020
1216 Clouds 9 1006 81 10000 3.1 180 10:18 11.03.2020
1217 Clouds 8 1006 81 10000 3.6 190 09:43 11.03.2020
1218 Clouds 8 1006 81 10000 3.6 190 09:25 11.03.2020
1219 Clouds 7 1006 87 10000 4.1 190 08:49 11.03.2020
1220 Clouds 6 1006 87 10000 4.1 190 08:31 11.03.2020
1221 Clouds 6 1006 93 10000 2.1 180 07:59 11.03.2020
1222 Clouds 5 1006 93 10000 2.6 180 07:38 11.03.2020
1223 Clouds 5 1007 93 10000 2.6 180 07:18 11.03.2020
1224 Clouds 4 1007 86 10000 2.1 180 06:37 11.03.2020
1225 Clouds 5 1006 80 10000 2.1 200 05:35 11.03.2020
1226 Clouds 5 1006 93 10000 2.6 220 04:18 11.03.2020
1227 Rain 6 1006 87 10000 4.1 240 02:19 11.03.2020
1228 Rain 6 1006 87 10000 3.6 240 01:27 11.03.2020
1229 Clouds 7 1006 81 10000 3.1 260 00:45 11.03.2020
1230 Rain 7 1005 75 10000 4.1 260 23:57 10.03.2020
1231 Rain 8 1005 75 10000 4.1 260 23:39 10.03.2020
1232 Clouds 8 1005 70 10000 5.1 260 23:20 10.03.2020
1233 Rain 8 1005 76 10000 4.1 270 22:38 10.03.2020
1234 Rain 9 1004 76 10000 4.6 260 22:20 10.03.2020
1235 Rain 9 1004 76 10000 4.6 260 21:57 10.03.2020
1236 Clouds 9 1004 81 10000 4.6 270 21:38 10.03.2020
1237 Clouds 9 1004 81 10000 4.6 270 21:38 10.03.2020
1238 Clouds 9 1004 76 10000 4.1 270 21:20 10.03.2020
1239 Clouds 9 1004 76 10000 4.1 270 20:57 10.03.2020
1240 Clouds 9 1003 76 10000 5.1 270 20:38 10.03.2020
1241 Clouds 9 1003 76 10000 5.7 270 20:18 10.03.2020
1242 Clouds 9 1003 76 10000 5.7 270 20:18 10.03.2020
1243 Clouds 9 1003 76 10000 5.7 270 19:56 10.03.2020
1244 Clouds 10 1002 76 10000 4.6 280 19:36 10.03.2020
1245 Clouds 10 1002 76 10000 6.7 280 19:18 10.03.2020
1246 Clouds 10 1001 66 10000 7.7 270 18:43 10.03.2020
1247 Clouds 10 1001 66 10000 9.3 270 18:25 10.03.2020
1248 Clouds 11 1001 62 10000 11.3 270 17:56 10.03.2020
1249 Clouds 11 1001 62 10000 11.3 270 17:38 10.03.2020
1250 Rain 11 1000 66 10000 9.8 260 17:20 10.03.2020
1251 Rain 11 1000 66 10000 7.7 250 16:38 10.03.2020
1252 Rain 11 1000 66 10000 7.7 250 16:38 10.03.2020
1253 Clouds 12 1000 66 10000 7.7 250 16:18 10.03.2020
1254 Clouds 11 999 66 10000 8.7 260 15:55 10.03.2020
1255 Clouds 12 999 66 10000 8.7 260 15:36 10.03.2020
1256 Rain 12 999 76 10000 8.2 250 15:18 10.03.2020
1257 Clouds 11 998 81 10000 8.2 250 14:40 10.03.2020
1258 Rain 12 999 87 10000 7.7 250 14:19 10.03.2020
1259 Rain 12 998 93 4500 8.2 260 13:54 10.03.2020
1260 Rain 12 998 93 4500 8.2 260 13:36 10.03.2020
1261 Rain 12 998 87 6000 7.2 250 13:18 10.03.2020
1262 Rain 12 998 82 10000 8.7 230 12:39 10.03.2020
1263 Rain 12 998 87 10000 8.2 230 12:19 10.03.2020
1264 Rain 12 998 87 10000 6.7 230 11:43 10.03.2020
1265 Rain 12 998 87 10000 6.7 230 11:25 10.03.2020
1266 Rain 11 998 93 10000 4.1 200 10:59 10.03.2020
1267 Rain 11 998 93 10000 4.1 200 10:41 10.03.2020
1268 Rain 11 998 93 10000 3.6 190 10:22 10.03.2020
1269 Rain 11 998 93 10000 3.6 190 09:56 10.03.2020
1270 Drizzle 11 998 93 4800 7.2 230 09:37 10.03.2020
1271 Rain 11 998 87 10000 5.7 220 09:18 10.03.2020
1272 Rain 11 998 87 10000 5.7 220 09:18 10.03.2020
1273 Rain 11 998 93 10000 5.7 210 08:45 10.03.2020
1274 Rain 11 998 93 10000 5.7 210 08:26 10.03.2020
1275 Rain 11 998 93 10000 5.7 220 07:46 10.03.2020
1276 Rain 11 998 93 10000 4.6 210 07:28 10.03.2020
1277 Rain 11 998 100 7000 3.1 210 06:42 10.03.2020
1278 Rain 10 998 100 10000 3.6 200 06:23 10.03.2020
1279 Rain 10 998 100 4100 3.6 200 05:38 10.03.2020
1280 Rain 10 998 100 3000 3.1 210 04:35 10.03.2020
1281 Rain 11 999 93 10000 5.1 220 03:34 10.03.2020
1282 Rain 11 998 93 10000 3.6 210 01:55 10.03.2020
1283 Clouds 11 998 93 10000 4.6 210 00:53 10.03.2020
1284 Rain 11 998 93 10000 5.1 200 00:30 10.03.2020
1285 Rain 10 998 93 10000 4.6 210 23:56 09.03.2020
1286 Rain 10 998 93 10000 4.6 210 23:37 09.03.2020
1287 Rain 10 998 100 10000 4.6 200 23:19 09.03.2020
1288 Rain 9 999 93 4000 4.6 200 22:40 09.03.2020
1289 Rain 9 999 100 10000 5.1 200 22:21 09.03.2020
1290 Rain 8 999 93 9000 5.1 190 21:47 09.03.2020
1291 Rain 8 999 100 4000 4.6 190 21:25 09.03.2020
1292 Rain 8 999 100 4000 4.6 190 20:59 09.03.2020
1293 Rain 7 1000 93 4000 5.1 180 20:41 09.03.2020
1294 Rain 7 1001 93 7000 5.1 190 20:23 09.03.2020
1295 Rain 7 1001 93 7000 5.1 190 19:59 09.03.2020
1296 Rain 6 1002 93 8000 5.7 180 19:41 09.03.2020
1297 Rain 6 1003 93 6000 5.1 190 19:19 09.03.2020
1298 Rain 6 1003 93 6000 5.7 180 18:56 09.03.2020
1299 Rain 6 1003 93 6000 5.7 180 18:56 09.03.2020
1300 Rain 6 1003 93 6000 5.7 180 18:38 09.03.2020
1301 Rain 6 1004 93 7000 4.6 170 18:18 09.03.2020
1302 Rain 6 1005 87 7000 3.6 170 17:55 09.03.2020
1303 Rain 6 1005 87 7000 3.6 170 17:37 09.03.2020
1304 Rain 6 1007 87 8000 3.1 180 17:19 09.03.2020
1305 Rain 6 1008 87 7000 3.1 180 16:55 09.03.2020
1306 Rain 6 1008 87 7000 3.1 180 16:36 09.03.2020
1307 Rain 7 1009 65 10000 7.2 230 16:18 09.03.2020
1308 Rain 7 1009 65 10000 7.2 230 15:55 09.03.2020
1309 Rain 7 1009 65 10000 7.2 230 15:55 09.03.2020
1310 Rain 7 1009 65 10000 7.7 230 15:37 09.03.2020
1311 Clouds 8 1009 65 10000 7.7 230 15:18 09.03.2020
1312 Clouds 8 1009 70 10000 7.2 230 14:39 09.03.2020
1313 Clouds 8 1010 70 10000 7.7 230 14:20 09.03.2020
1314 Clouds 8 1010 70 10000 5.1 240 13:58 09.03.2020
1315 Clouds 9 1010 66 10000 7.7 260 13:39 09.03.2020
1316 Clouds 9 1010 66 10000 7.7 260 13:20 09.03.2020
1317 Clouds 9 1010 70 10000 6.2 260 12:58 09.03.2020
1318 Clouds 9 1010 70 10000 6.2 260 12:39 09.03.2020
1319 Clouds 9 1010 70 10000 8.2 260 12:18 09.03.2020
1320 Clouds 8 1010 81 10000 5.7 260 11:40 09.03.2020
1321 Clouds 8 1010 75 10000 6.7 270 11:20 09.03.2020
1322 Clouds 8 1010 75 10000 6.7 270 11:20 09.03.2020
1323 Clouds 8 1010 87 10000 6.7 260 10:55 09.03.2020
1324 Clouds 8 1010 87 10000 6.7 260 10:37 09.03.2020
1325 Clouds 8 1010 87 10000 7.7 260 10:18 09.03.2020
1326 Clouds 7 1010 87 10000 7.2 260 09:42 09.03.2020
1327 Rain 7 1009 87 10000 7.7 260 09:24 09.03.2020
1328 Rain 7 1009 87 10000 7.7 260 09:24 09.03.2020
1329 Rain 7 1009 87 10000 6.7 260 08:45 09.03.2020
1330 Clouds 7 1008 81 10000 7.2 270 08:27 09.03.2020
1331 Clouds 6 1007 81 10000 5.7 270 07:44 09.03.2020
1332 Clouds 6 1007 87 10000 7.7 270 07:23 09.03.2020
1333 Clouds 6 1007 87 10000 7.2 260 06:59 09.03.2020
1334 Clouds 6 1007 87 10000 7.2 260 06:39 09.03.2020
1335 Clouds 6 1007 87 10000 7.2 260 06:39 09.03.2020
1336 Clouds 6 1006 87 10000 7.7 260 06:20 09.03.2020
1337 Clouds 6 1006 87 10000 9.3 260 05:41 09.03.2020
1338 Rain 6 1005 87 10000 8.7 260 04:48 09.03.2020
1339 Rain 6 1005 93 10000 8.7 250 04:24 09.03.2020
1340 Rain 6 1004 93 4800 8.7 250 03:46 09.03.2020
1341 Rain 5 1004 81 10000 4.6 220 02:37 09.03.2020
1342 Rain 5 1003 86 10000 3.6 210 00:42 09.03.2020
1343 Clouds 5 1003 80 10000 5.1 230 00:24 09.03.2020
1344 Rain 5 1003 93 10000 3.6 220 23:55 08.03.2020
1345 Clouds 5 1003 86 10000 4.1 210 23:29 08.03.2020
1346 Rain 5 1003 93 10000 3.6 220 22:59 08.03.2020
1347 Rain 5 1003 93 10000 3.6 220 22:40 08.03.2020
1348 Clouds 5 1002 93 10000 3.1 210 22:21 08.03.2020
1349 Rain 5 1002 93 10000 2.6 200 21:57 08.03.2020
1350 Rain 5 1002 93 10000 2.6 200 21:57 08.03.2020
1351 Clouds 5 1002 93 10000 2.6 210 21:39 08.03.2020
1352 Clouds 5 1002 93 10000 2.6 210 21:19 08.03.2020
1353 Clouds 5 1002 93 10000 2.6 210 21:19 08.03.2020
1354 Clouds 5 1002 100 10000 3.1 240 20:56 08.03.2020
1355 Rain 5 1002 87 10000 3.1 260 20:37 08.03.2020
1356 Rain 5 1002 87 10000 3.1 260 20:18 08.03.2020
1357 Rain 6 1001 70 10000 6.2 230 19:38 08.03.2020
1358 Rain 7 1001 70 10000 4.6 230 19:19 08.03.2020
1359 Fog 8 1001 70 10000 6.7 240 18:43 08.03.2020
1360 Fog 8 1001 70 10000 6.7 240 18:24 08.03.2020
1361 Fog 8 1001 70 10000 6.7 240 18:24 08.03.2020
1362 Clouds 9 1001 61 10000 7.2 230 17:57 08.03.2020
1363 Rain 9 1000 66 10000 6.7 250 17:39 08.03.2020
1364 Rain 10 1000 66 10000 6.7 250 17:20 08.03.2020
1365 Rain 10 1000 66 10000 6.7 250 16:47 08.03.2020
1366 Rain 10 1000 66 10000 6.7 250 16:28 08.03.2020
1367 Rain 10 1000 57 10000 8.7 240 15:59 08.03.2020
1368 Clouds 10 1000 61 10000 8.2 230 15:40 08.03.2020
1369 Clouds 10 1000 61 10000 8.2 230 15:21 08.03.2020
1370 Clouds 10 1000 61 10000 8.2 230 14:55 08.03.2020
1371 Rain 10 1000 62 10000 9.3 240 14:37 08.03.2020
1372 Rain 10 1000 62 10000 9.3 240 14:18 08.03.2020
1373 Rain 10 1000 66 10000 8.2 230 13:40 08.03.2020
1374 Rain 10 1000 71 10000 7.7 230 13:20 08.03.2020
1375 Rain 9 1000 71 10000 8.2 230 12:43 08.03.2020
1376 Rain 9 1000 71 10000 8.2 230 12:25 08.03.2020
1377 Clouds 9 1000 76 10000 6.2 220 11:57 08.03.2020
1378 Rain 9 1000 76 10000 6.7 240 11:39 08.03.2020
1379 Rain 9 1000 76 10000 6.7 240 11:39 08.03.2020
1380 Rain 9 1000 76 10000 6.7 240 11:21 08.03.2020
1381 Rain 9 1000 81 10000 5.1 240 10:42 08.03.2020
1382 Rain 8 1000 81 10000 5.1 240 10:23 08.03.2020
1383 Rain 8 1000 87 10000 3.1 200 09:57 08.03.2020
1384 Clouds 8 1000 93 10000 3.1 190 09:36 08.03.2020
1385 Clouds 7 999 100 10000 2.6 190 09:18 08.03.2020
1386 Clouds 7 999 100 10000 2.6 190 09:18 08.03.2020
1387 Clouds 7 999 93 10000 3.1 200 08:40 08.03.2020
1388 Rain 7 998 93 10000 6.2 240 08:19 08.03.2020
1389 Rain 7 998 87 10000 7.7 240 07:44 08.03.2020
1390 Rain 7 997 93 9000 6.2 220 07:25 08.03.2020
1391 Rain 8 997 87 10000 4.1 210 06:42 08.03.2020
1392 Rain 8 997 87 10000 4.1 210 06:22 08.03.2020
1393 Rain 8 996 87 10000 4.1 200 05:39 08.03.2020
1394 Rain 9 997 100 10000 5.1 190 03:52 08.03.2020
1395 Rain 9 998 93 5000 5.1 190 02:30 08.03.2020
1396 Rain 9 999 93 6000 5.7 190 01:34 08.03.2020
1397 Rain 9 999 93 10000 8.2 180 00:52 08.03.2020
1398 Rain 10 1000 93 7000 5.1 190 00:27 08.03.2020
1399 Clouds 10 1001 87 10000 6.2 200 23:46 07.03.2020
1400 Rain 10 1002 87 10000 6.2 190 23:24 07.03.2020
1401 Rain 10 1001 93 10000 7.2 170 22:54 07.03.2020
1402 Clouds 10 1003 81 10000 5.7 190 22:36 07.03.2020
1403 Clouds 10 1003 81 10000 5.7 190 22:18 07.03.2020
1404 Clouds 10 1004 81 10000 6.7 200 21:42 07.03.2020
1405 Clouds 10 1005 71 10000 6.7 210 21:19 07.03.2020
1406 Clouds 10 1005 76 10000 6.7 210 20:39 07.03.2020
1407 Clouds 11 1005 71 10000 5.1 200 20:19 07.03.2020
1408 Clouds 11 1006 71 10000 5.7 200 19:41 07.03.2020
1409 Clouds 11 1006 71 10000 7.2 210 19:22 07.03.2020
1410 Clouds 11 1006 71 10000 6.2 200 18:47 07.03.2020
1411 Clouds 12 1007 66 10000 4.6 210 18:28 07.03.2020
1412 Clouds 12 1007 71 10000 3.6 200 17:59 07.03.2020
1413 Clouds 12 1007 71 10000 3.6 200 17:40 07.03.2020
1414 Clouds 12 1007 71 10000 4.6 200 17:19 07.03.2020
1415 Clouds 12 1008 71 10000 5.7 200 16:55 07.03.2020
1416 Clouds 12 1008 66 10000 6.7 210 16:36 07.03.2020
1417 Clouds 12 1008 66 10000 6.7 210 16:18 07.03.2020
1418 Rain 12 1008 71 10000 5.7 210 15:41 07.03.2020
1419 Clouds 12 1009 76 10000 6.7 210 15:21 07.03.2020
1420 Clouds 12 1009 76 10000 4.1 190 14:58 07.03.2020
1421 Clouds 12 1009 76 10000 4.1 190 14:40 07.03.2020
1422 Clouds 12 1010 71 10000 4.1 200 14:21 07.03.2020
1423 Clouds 12 1010 76 10000 5.7 210 13:41 07.03.2020
1424 Clouds 12 1010 76 10000 6.7 220 13:21 07.03.2020
1425 Clouds 11 1010 76 10000 3.6 200 12:45 07.03.2020
1426 Clouds 11 1011 81 10000 5.1 200 12:23 07.03.2020
1427 Clouds 10 1011 81 10000 5.1 200 11:59 07.03.2020
1428 Clouds 10 1011 81 10000 5.1 200 11:41 07.03.2020
1429 Clouds 9 1011 81 10000 4.1 190 11:23 07.03.2020
1430 Rain 8 1011 87 10000 3.6 190 10:56 07.03.2020
1431 Rain 8 1011 87 10000 4.1 180 10:36 07.03.2020
1432 Rain 7 1011 87 10000 4.1 180 10:18 07.03.2020
1433 Rain 6 1011 87 10000 3.1 180 09:40 07.03.2020
1434 Rain 6 1012 87 10000 3.6 180 09:19 07.03.2020
1435 Clouds 5 1011 86 10000 3.6 190 08:44 07.03.2020
1436 Clouds 5 1011 86 10000 3.6 190 08:44 07.03.2020
1437 Rain 5 1011 86 10000 3.1 180 08:25 07.03.2020
1438 Rain 5 1012 86 10000 3.1 190 07:59 07.03.2020
1439 Rain 5 1012 86 10000 3.1 190 07:41 07.03.2020
1440 Clouds 5 1012 86 10000 3.1 180 07:20 07.03.2020
1441 Clouds 5 1010 81 0 0.89 309 06:37 07.03.2020
1442 Clouds 4 1011 81 0 1.34 310 05:57 07.03.2020
1443 Clouds 4 1012 86 10000 1.5 0 05:33 07.03.2020
1444 Clouds 4 1013 86 10000 2.1 170 02:58 07.03.2020
1445 Clouds 4 1013 86 10000 2.1 170 02:35 07.03.2020
1446 Rain 4 1013 93 10000 2.1 180 01:46 07.03.2020
1447 Clouds 4 1013 93 10000 1.5 150 00:41 07.03.2020
1448 Clouds 4 1012 93 10000 1.5 190 00:22 07.03.2020
1449 Clouds 4 1012 93 10000 2.1 190 23:54 06.03.2020
1450 Clouds 5 1012 93 10000 1.5 0 23:26 06.03.2020
1451 Clouds 5 1011 86 10000 2.1 180 22:58 06.03.2020
1452 Clouds 5 1011 86 10000 1.5 180 22:40 06.03.2020
1453 Clouds 5 1011 86 10000 1.5 180 22:18 06.03.2020
1454 Clouds 5 1011 80 10000 1 190 21:43 06.03.2020
1455 Clouds 5 1011 86 10000 1 0 21:19 06.03.2020
1456 Clouds 5 1010 75 10000 2.1 280 20:39 06.03.2020
1457 Clouds 5 1010 75 10000 2.1 270 20:21 06.03.2020
1458 Clouds 5 1010 75 10000 2.6 270 19:52 06.03.2020
1459 Clouds 6 1009 65 10000 3.1 280 19:33 06.03.2020
1460 Clouds 6 1008 74 10000 4.1 280 18:59 06.03.2020
1461 Clouds 7 1009 74 10000 4.1 290 18:40 06.03.2020
1462 Clouds 7 1008 74 10000 3.6 280 18:19 06.03.2020
1463 Clouds 7 1008 74 10000 3.6 280 18:19 06.03.2020
1464 Rain 8 1008 74 10000 2.6 280 17:42 06.03.2020
1465 Clouds 8 1007 52 10000 2.6 280 17:24 06.03.2020
1466 Clear 9 1007 49 10000 2.1 280 16:59 06.03.2020
1467 Clear 9 1007 49 10000 2.1 280 16:41 06.03.2020
1468 Clear 9 1007 49 10000 2.1 280 16:20 06.03.2020
1469 Clear 9 1006 51 10000 2.1 250 15:45 06.03.2020
1470 Clear 9 1006 51 10000 1.5 0 15:24 06.03.2020
1471 Clear 9 1006 51 9000 1.5 0 14:55 06.03.2020
1472 Clear 9 1006 65 10000 2.1 260 14:37 06.03.2020
1473 Clear 8 1006 65 10000 2.1 260 14:18 06.03.2020
1474 Clear 8 1006 70 10000 2.1 280 13:42 06.03.2020
1475 Clear 8 1006 70 10000 2.6 250 13:21 06.03.2020
1476 Clear 7 1005 70 10000 1.5 0 12:56 06.03.2020
1477 Clear 7 1005 70 10000 1.5 0 12:37 06.03.2020
1478 Clear 7 1005 70 10000 1 0 12:19 06.03.2020
1479 Clear 6 1005 75 10000 2.1 240 11:56 06.03.2020
1480 Clear 6 1005 75 10000 2.1 240 11:38 06.03.2020
1481 Clear 5 1004 56 10000 0.5 0 11:19 06.03.2020
1482 Clear 3 1003 80 10000 1 0 10:38 06.03.2020
1483 Rain 3 1003 80 10000 1 0 10:20 06.03.2020
1484 Rain 2 1003 56 10000 1.5 90 09:54 06.03.2020
1485 Rain 1 1002 86 10000 1 90 09:36 06.03.2020
1486 Clear 0 1002 86 10000 1 90 09:18 06.03.2020
1487 Clear -1 1002 100 10000 1.5 90 08:41 06.03.2020
1488 Clear -1 1002 92 10000 0.5 0 08:23 06.03.2020
1489 Clouds -1 1001 100 10000 0.5 120 07:47 06.03.2020
1490 Haze -1 1001 100 4900 0.5 0 07:26 06.03.2020
1491 Clouds -1 1000 92 10000 0.5 0 06:51 06.03.2020
1492 Clouds -1 1000 92 10000 1.5 250 06:33 06.03.2020
1493 Clouds -1 1000 92 10000 1.5 100 05:41 06.03.2020
1494 Clouds -1 1000 92 10000 1.5 100 05:20 06.03.2020
1495 Clouds -1 999 92 10000 1 80 04:53 06.03.2020
1496 Clouds 1 999 92 10000 1.5 80 01:56 06.03.2020
1497 Clouds 1 999 92 10000 1.5 80 01:38 06.03.2020
1498 Clouds 1 999 67 10000 1 80 01:18 06.03.2020
1499 Clouds 1 999 74 10000 0.5 0 00:32 06.03.2020
1500 Clouds 2 999 80 10000 1 110 23:47 05.03.2020
1501 Clouds 2 998 69 10000 1.5 100 23:29 05.03.2020
1502 Clear 2 998 69 10000 2.1 80 22:57 05.03.2020
1503 Clear 3 998 69 10000 2.1 80 22:38 05.03.2020
1504 Clear 3 998 64 10000 2.1 90 22:19 05.03.2020
1505 Clear 3 998 65 10000 1.5 90 21:56 05.03.2020
1506 Clear 4 998 65 10000 1.5 90 21:37 05.03.2020
1507 Clouds 4 998 68 10000 1.5 60 21:19 05.03.2020
1508 Clear 4 998 68 10000 2.1 50 20:55 05.03.2020
1509 Clear 4 998 60 10000 2.6 40 20:36 05.03.2020
1510 Clouds 5 998 60 10000 2.6 40 20:18 05.03.2020
1511 Clouds 5 998 60 10000 2.1 50 19:40 05.03.2020
1512 Clouds 5 998 60 10000 3.1 50 19:22 05.03.2020
1513 Clouds 6 997 52 10000 3.6 20 19:00 05.03.2020
1514 Clouds 6 997 52 10000 3.6 20 18:38 05.03.2020
1515 Clouds 7 997 48 10000 3.6 10 18:19 05.03.2020
1516 Clouds 7 997 48 10000 3.6 360 17:58 05.03.2020
1517 Clouds 7 997 52 10000 4.6 20 17:39 05.03.2020
1518 Clouds 7 997 52 10000 4.6 20 17:21 05.03.2020
1519 Clouds 7 997 49 10000 4.6 20 16:42 05.03.2020
1520 Clouds 8 997 49 10000 4.1 40 16:24 05.03.2020
1521 Clouds 8 997 52 10000 5.1 40 15:59 05.03.2020
1522 Clouds 8 997 52 10000 5.1 40 15:39 05.03.2020
1523 Clouds 8 997 56 10000 5.1 40 15:20 05.03.2020
1524 Clouds 7 997 60 10000 5.7 30 14:43 05.03.2020
1525 Clouds 7 998 56 10000 5.1 30 14:23 05.03.2020
1526 Clouds 7 998 67 10000 5.7 30 13:59 05.03.2020
1527 Clouds 7 998 67 10000 5.7 30 13:40 05.03.2020
1528 -273 0 0 0 0 0 13:21 05.03.2020
1529 Clouds 6 999 75 10000 6.7 20 12:56 05.03.2020
1530 Clouds 6 999 75 10000 6.7 20 12:38 05.03.2020
1531 Clouds 6 999 75 10000 6.7 20 12:38 05.03.2020
1532 Clouds 6 999 75 10000 7.7 50 12:18 05.03.2020
1533 Clouds 5 999 80 10000 6.2 40 11:56 05.03.2020
1534 Clouds 6 999 80 10000 6.2 40 11:56 05.03.2020
1535 Clouds 5 999 86 10000 5.1 30 11:37 05.03.2020
1536 Clouds 4 999 86 10000 5.1 30 11:18 05.03.2020
1537 Clouds 4 999 93 10000 5.7 40 10:55 05.03.2020
1538 Clouds 4 999 86 10000 3.6 40 10:37 05.03.2020
1539 Clouds 3 999 86 10000 3.6 40 10:19 05.03.2020
1540 Clouds 2 999 86 8000 2.6 40 09:41 05.03.2020
1541 Clouds 2 999 86 8000 2.6 40 09:23 05.03.2020
1542 Clouds 1 999 86 10000 4.1 40 08:43 05.03.2020
1543 Clouds 1 999 84 10000 2.1 60 08:25 05.03.2020
1544 Clear 1 999 92 10000 1 60 07:46 05.03.2020
1545 Clear 1 1000 92 10000 0.5 0 07:22 05.03.2020
1546 Clear 1 1000 93 10000 1 0 06:48 05.03.2020
1547 Clouds 1 1000 93 10000 3.1 10 06:22 05.03.2020
1548 Clear 1 1000 93 10000 2.1 10 05:39 05.03.2020
1549 Clear 1 1001 100 10000 2.6 50 04:45 05.03.2020
1550 Clouds 1 1002 92 10000 2.1 70 04:22 05.03.2020
1551 Clear 1 1002 92 10000 2.6 70 03:19 05.03.2020
1552 Clouds 2 1003 87 10000 0.5 0 01:46 05.03.2020
1553 Clouds 2 1004 93 10000 1.5 360 01:20 05.03.2020
1554 Clouds 2 1004 93 10000 1 0 00:25 05.03.2020
1555 Clouds 3 1004 93 10000 0.5 0 23:42 04.03.2020
1556 Clouds 3 1004 86 10000 1 100 23:22 04.03.2020
1557 Rain 3 1005 80 10000 1.5 50 22:57 04.03.2020
1558 Rain 4 1005 80 10000 1.5 50 22:39 04.03.2020
1559 Rain 4 1005 86 10000 1.5 40 22:19 04.03.2020
1560 Rain 5 1005 80 10000 0.5 80 21:57 04.03.2020
1561 Rain 5 1005 80 10000 0.5 80 21:38 04.03.2020
1562 Rain 5 1005 80 10000 0.5 80 21:38 04.03.2020
1563 Rain 5 1005 80 10000 0.5 0 21:18 04.03.2020
1564 Rain 5 1005 80 10000 0.11 110 20:41 04.03.2020
1565 Rain 5 1005 80 10000 0.5 230 20:23 04.03.2020
1566 Rain 5 1005 80 10000 0.5 0 19:58 04.03.2020
1567 Rain 6 1005 80 10000 0.5 0 19:40 04.03.2020
1568 Rain 6 1005 75 10000 1.5 0 19:22 04.03.2020
1569 Rain 6 1005 81 10000 1.5 0 18:42 04.03.2020
1570 Haze 6 1005 75 3100 2.1 190 18:24 04.03.2020
1571 Haze 7 1005 70 3100 1.5 0 17:59 04.03.2020
1572 Haze 7 1005 70 3100 1.5 0 17:39 04.03.2020
1573 Haze 7 1005 70 2800 1.5 0 17:20 04.03.2020
1574 Clouds 8 1005 65 10000 1.5 0 16:57 04.03.2020
1575 Clouds 8 1005 65 10000 1.5 0 16:38 04.03.2020
1576 Clouds 8 1006 61 10000 1.5 0 16:19 04.03.2020
1577 Clouds 8 1006 61 10000 2.1 200 15:45 04.03.2020
1578 Rain 8 1006 70 10000 1.5 0 15:26 04.03.2020
1579 Rain 8 1006 70 10000 1.5 0 15:26 04.03.2020
1580 Clouds 8 1006 70 10000 1.5 0 14:59 04.03.2020
1581 Clouds 8 1006 70 10000 1.5 0 14:40 04.03.2020
1582 Clouds 8 1007 75 10000 2.1 180 14:20 04.03.2020
1583 Clouds 7 1007 81 10000 2.1 200 13:58 04.03.2020
1584 Clouds 8 1007 81 10000 2.1 200 13:39 04.03.2020
1585 Clouds 7 1007 75 10000 2.1 200 13:20 04.03.2020
1586 Clouds 7 1007 81 10000 1.5 0 12:55 04.03.2020
1587 Clouds 7 1007 81 10000 1.5 0 12:55 04.03.2020
1588 Clouds 7 1007 81 10000 1.5 0 12:37 04.03.2020
1589 Clouds 6 1007 81 10000 1.5 0 12:19 04.03.2020
1590 Clouds 6 1007 81 10000 1.5 0 11:42 04.03.2020
1591 Clouds 6 1007 81 10000 1.5 0 11:42 04.03.2020
1592 Clouds 6 1007 80 10000 1.5 0 11:42 04.03.2020
1593 Clouds 5 1007 80 10000 1.5 0 11:23 04.03.2020
1594 Clouds 5 1007 86 10000 1.5 0 10:58 04.03.2020
1595 Clouds 5 1007 86 10000 1.5 0 10:58 04.03.2020
1596 Clouds 4 1007 86 10000 1.5 0 10:40 04.03.2020
1597 Clouds 4 1007 86 10000 1 0 10:21 04.03.2020
1598 Clouds 3 1008 86 10000 1 0 09:43 04.03.2020
1599 Clouds 3 1008 93 10000 1 0 09:21 04.03.2020
1600 Clouds 2 1007 74 10000 1 0 08:49 04.03.2020
1601 Clouds 2 1007 74 10000 1 140 08:28 04.03.2020
1602 Clouds 1 1007 88 10000 0.5 0 07:57 04.03.2020
1603 Clouds 1 1007 88 10000 0.5 0 07:39 04.03.2020
1604 Clouds 1 1007 88 10000 1 140 07:20 04.03.2020
1605 Clouds 1 1007 88 10000 1.5 0 06:44 04.03.2020
1606 Clouds 1 1008 88 10000 1 0 06:23 04.03.2020
1607 Clouds 2 1008 88 10000 1 0 05:50 04.03.2020
1608 Clouds 2 1008 92 10000 2.1 160 04:30 04.03.2020
1609 Clouds 2 1008 92 10000 2.1 130 03:44 04.03.2020
1610 Clouds 2 1008 92 10000 2.1 180 03:25 04.03.2020
1611 Clouds 3 1008 92 10000 1.5 0 02:55 04.03.2020
1612 Clouds 3 1008 92 10000 1.5 170 02:21 04.03.2020
1613 Clouds 3 1008 91 10000 1.5 0 01:54 04.03.2020
1614 Clouds 3 1008 88 10000 2.1 170 00:52 04.03.2020
1615 Clouds 3 1008 88 10000 2.1 170 00:52 04.03.2020
1616 Clouds 3 1008 88 10000 2.1 170 00:27 04.03.2020
1617 Clouds 3 1008 88 10000 2.1 170 00:27 04.03.2020
1618 Clouds 3 1008 88 10000 1.5 0 23:47 03.03.2020
1619 Clouds 3 1008 88 10000 2.1 220 23:28 03.03.2020
1620 Clouds 4 1007 80 10000 2.6 240 22:59 03.03.2020
1621 Clouds 4 1007 80 10000 2.6 240 22:40 03.03.2020
1622 Clouds 4 1007 86 10000 2.6 230 22:20 03.03.2020
1623 Clear 4 1007 80 10000 2.1 230 21:57 03.03.2020
1624 Clear 4 1006 80 10000 2.6 240 21:38 03.03.2020
1625 Clear 4 1006 80 10000 2.6 240 21:19 03.03.2020
1626 Clear 5 1006 80 10000 3.1 250 20:41 03.03.2020
1627 Clouds 5 1006 80 10000 3.6 250 20:21 03.03.2020
1628 Rain 5 1006 80 10000 5.1 270 19:59 03.03.2020
1629 Rain 6 1006 80 10000 5.1 270 19:37 03.03.2020
1630 Rain 6 1005 75 10000 5.7 270 19:19 03.03.2020
1631 Clouds 6 1004 70 10000 6.7 280 18:59 03.03.2020
1632 Clouds 7 1004 70 10000 6.7 280 18:41 03.03.2020
1633 Clouds 7 1004 70 10000 7.2 280 18:21 03.03.2020
1634 Clouds 7 1003 70 10000 7.7 280 17:57 03.03.2020
1635 Clouds 7 1003 70 10000 7.7 280 17:57 03.03.2020
1636 Clouds 7 1003 75 10000 8.2 280 17:39 03.03.2020
1637 Clouds 7 1003 75 10000 8.2 280 17:21 03.03.2020
1638 Clouds 7 1002 75 10000 7.7 280 16:57 03.03.2020
1639 Clouds 8 1002 75 10000 7.7 290 16:37 03.03.2020
1640 Clouds 8 1002 75 10000 7.7 290 16:18 03.03.2020
1641 Rain 7 1001 81 10000 7.7 290 15:43 03.03.2020
1642 Rain 7 1000 87 6000 6.7 280 15:21 03.03.2020
1643 Rain 7 1000 93 3500 8.2 290 14:56 03.03.2020
1644 Rain 7 1000 93 3500 8.2 290 14:37 03.03.2020
1645 Rain 6 1000 93 2700 6.7 290 14:19 03.03.2020
1646 Rain 6 999 93 10000 7.7 290 13:43 03.03.2020
1647 Rain 6 998 93 10000 8.2 280 13:24 03.03.2020
1648 Drizzle 6 998 93 4900 6.2 280 12:55 03.03.2020
1649 Drizzle 6 997 100 4500 5.7 250 12:37 03.03.2020
1650 Drizzle 6 997 100 4500 5.7 250 12:19 03.03.2020
1651 Drizzle 5 997 100 4000 3.6 210 11:55 03.03.2020
1652 Rain 5 997 100 4000 3.1 210 11:36 03.03.2020
1653 Rain 5 997 100 4000 3.1 210 11:18 03.03.2020
1654 Rain 5 996 93 9000 3.1 200 10:54 03.03.2020
1655 Rain 4 996 100 9000 3.1 190 10:36 03.03.2020
1656 Rain 4 996 100 9000 3.1 190 10:36 03.03.2020
1657 Rain 4 996 100 9000 3.1 190 10:18 03.03.2020
1658 Rain 4 996 100 9000 3.1 190 10:18 03.03.2020
1659 Rain 4 996 93 6000 1.5 0 09:41 03.03.2020
1660 Rain 3 995 93 8000 2.6 190 09:20 03.03.2020
1661 Rain 3 995 86 10000 2.1 170 08:42 03.03.2020
1662 Rain 2 995 93 10000 2.1 190 08:22 03.03.2020
1663 Rain 2 995 93 10000 2.6 190 07:56 03.03.2020
1664 Rain 2 994 93 10000 2.1 180 07:37 03.03.2020
1665 Rain 2 994 93 10000 2.1 180 07:18 03.03.2020
1666 Rain 2 994 94 10000 2.6 180 06:40 03.03.2020
1667 Snow 2 994 94 10000 3.1 190 06:20 03.03.2020
1668 Rain 2 994 94 10000 3.1 190 05:42 03.03.2020
1669 Rain 2 994 80 10000 1.5 0 04:51 03.03.2020
1670 Clouds 3 994 80 10000 2.6 180 02:38 03.03.2020
1671 Clouds 3 993 86 10000 3.6 200 01:27 03.03.2020
1672 Clouds 3 993 79 10000 3.1 190 00:41 03.03.2020
1673 Clouds 3 993 79 10000 3.1 190 00:22 03.03.2020
1674 Rain 3 993 79 10000 3.1 190 23:48 02.03.2020
1675 Rain 3 993 79 10000 3.1 190 23:23 02.03.2020
1676 Clouds 3 993 72 10000 3.1 190 22:57 02.03.2020
1677 Clouds 3 993 72 10000 3.1 190 22:38 02.03.2020
1678 Clouds 3 993 80 10000 2.6 180 22:19 02.03.2020
1679 Clouds 3 993 80 10000 3.1 190 21:55 02.03.2020
1680 Clouds 3 993 74 10000 2.6 180 21:36 02.03.2020
1681 Clouds 3 993 74 10000 2.6 180 21:18 02.03.2020
1682 Clouds 3 992 74 10000 2.6 180 20:41 02.03.2020
1683 Clouds 3 992 74 10000 2.6 190 20:22 02.03.2020
1684 Clouds 4 992 64 10000 2.1 210 19:58 02.03.2020
1685 Clouds 4 992 64 10000 2.1 210 19:39 02.03.2020
1686 Clouds 4 991 60 10000 4.1 250 19:20 02.03.2020
1687 Clouds 4 991 60 10000 4.6 250 18:56 02.03.2020
1688 Clouds 4 991 60 10000 4.6 250 18:56 02.03.2020
1689 Rain 5 991 60 10000 4.6 250 18:38 02.03.2020
1690 Rain 5 991 56 10000 4.6 260 18:18 02.03.2020
1691 Rain 5 990 60 10000 4.6 270 17:56 02.03.2020
1692 Rain 6 990 60 10000 4.6 270 17:38 02.03.2020
1693 Rain 6 990 56 10000 6.2 260 17:19 02.03.2020
1694 Rain 6 990 56 10000 6.2 260 16:42 02.03.2020
1695 Rain 6 990 56 10000 6.7 280 16:23 02.03.2020
1696 Clouds 6 989 60 10000 7.7 260 15:54 02.03.2020
1697 Clouds 7 989 60 10000 8.7 260 15:36 02.03.2020
1698 Rain 7 989 60 10000 8.7 260 15:18 02.03.2020
1699 Rain 7 989 60 10000 7.2 270 14:37 02.03.2020
1700 Rain 7 989 60 10000 7.2 270 14:37 02.03.2020
1701 Rain 7 989 56 10000 8.2 260 14:19 02.03.2020
1702 Rain 6 989 60 10000 6.7 260 13:44 02.03.2020
1703 Rain 6 989 52 10000 6.7 250 13:20 02.03.2020
1704 Rain 6 988 52 10000 7.2 260 12:59 02.03.2020
1705 Clouds 6 988 52 10000 7.2 260 12:40 02.03.2020
1706 Clouds 6 988 52 10000 7.2 260 12:18 02.03.2020
1707 Clouds 6 988 80 10000 5.7 250 11:38 02.03.2020
1708 Rain 5 987 75 10000 4.1 230 11:19 02.03.2020
1709 Rain 5 987 80 10000 2.6 200 10:55 02.03.2020
1710 Rain 5 987 80 10000 2.6 200 10:37 02.03.2020
1711 Clouds 4 987 93 10000 1.5 0 10:18 02.03.2020
1712 Clouds 3 987 82 10000 2.1 180 09:47 02.03.2020
1713 Clouds 2 986 82 10000 1.5 0 09:28 02.03.2020
1714 Clouds 1 986 82 10000 2.6 180 08:48 02.03.2020
1715 Clouds 0 985 82 10000 2.1 170 08:22 02.03.2020
1716 Clouds 0 985 100 10000 1.5 0 07:50 02.03.2020
1717 Clouds 0 985 91 10000 1.5 0 07:31 02.03.2020
1718 Clouds 0 985 91 10000 2.1 180 06:50 02.03.2020
1719 Clouds 0 984 91 10000 2.1 180 06:20 02.03.2020
1720 Clouds 0 984 91 10000 0.5 0 05:23 02.03.2020
1721 Clear 1 984 91 10000 2.6 200 03:25 02.03.2020
1722 Clear 1 984 91 10000 3.1 200 02:53 02.03.2020
1723 Clouds 2 984 93 10000 2.6 200 01:55 02.03.2020
1724 Clouds 2 984 93 10000 2.6 190 01:33 02.03.2020
1725 Clouds 2 984 86 10000 2.6 200 00:25 02.03.2020
1726 Clouds 3 985 86 10000 3.6 200 23:59 01.03.2020
1727 Clouds 3 985 86 10000 3.6 200 23:41 01.03.2020
1728 Snow 3 985 80 10000 2.6 180 23:21 01.03.2020
1729 Rain 3 985 80 10000 2.6 190 22:44 01.03.2020
1730 Snow 4 985 80 10000 3.1 190 22:21 01.03.2020
1731 Clouds 4 985 73 10000 2.6 190 21:57 01.03.2020
1732 Clouds 4 985 73 10000 2.1 180 21:39 01.03.2020
1733 Clouds 4 985 73 10000 2.1 180 21:20 01.03.2020
1734 Rain 4 984 69 10000 3.1 210 20:44 01.03.2020
1735 Rain 4 984 65 10000 3.1 210 20:25 01.03.2020
1736 Rain 5 984 65 10000 3.6 220 19:59 01.03.2020
1737 Snow 5 984 65 10000 3.6 220 19:59 01.03.2020
1738 Snow 5 984 65 10000 3.6 220 19:40 01.03.2020
1739 Snow 5 984 56 10000 5.1 230 19:21 01.03.2020
1740 Clouds 6 984 56 10000 7.2 250 18:41 01.03.2020
1741 Snow 6 984 56 10000 6.2 240 18:21 01.03.2020
1742 Snow 6 984 56 10000 6.2 240 18:21 01.03.2020
1743 Snow 6 983 52 10000 9.8 230 17:58 01.03.2020
1744 Snow 7 983 52 10000 9.8 230 17:40 01.03.2020
1745 Snow 7 983 52 10000 8.7 240 17:21 01.03.2020
1746 Snow 7 983 49 10000 9.8 230 16:58 01.03.2020
1747 Snow 7 983 49 10000 9.8 230 16:39 01.03.2020
1748 Snow 7 983 49 10000 9.8 230 16:39 01.03.2020
1749 Clouds 7 983 56 10000 8.7 240 16:19 01.03.2020
1750 Clouds 7 983 56 10000 10.3 230 15:58 01.03.2020
1751 Clouds 7 983 56 10000 10.3 230 15:40 01.03.2020
1752 Clouds 7 983 56 10000 9.3 240 15:20 01.03.2020
1753 Clouds 7 983 56 10000 9.3 240 14:57 01.03.2020
1754 Clouds 8 983 56 10000 9.3 240 14:39 01.03.2020
1755 Clouds 7 983 49 10000 9.8 240 14:20 01.03.2020
1756 Clouds 7 983 52 10000 9.3 230 13:56 01.03.2020
1757 Clouds 7 983 56 10000 10.8 240 13:37 01.03.2020
1758 Clouds 7 983 56 10000 10.8 240 13:19 01.03.2020
1759 Clouds 7 983 56 10000 10.3 240 12:43 01.03.2020
1760 Clouds 7 983 56 10000 11.3 230 12:21 01.03.2020
1761 Clouds 6 983 53 10000 10.8 240 11:58 01.03.2020
1762 Clouds 6 982 60 10000 10.8 240 11:39 01.03.2020
1763 Clouds 6 982 60 10000 10.8 240 11:18 01.03.2020
1764 Clouds 6 982 60 10000 10.8 230 10:55 01.03.2020
1765 Clouds 6 982 65 10000 9.3 230 10:36 01.03.2020
1766 Clouds 5 982 65 10000 9.3 230 10:18 01.03.2020
1767 Clouds 5 981 65 10000 9.3 230 09:41 01.03.2020
1768 Clouds 5 981 69 10000 9.8 230 09:22 01.03.2020
1769 Clouds 4 981 69 10000 8.7 230 08:46 01.03.2020
1770 Clouds 4 981 69 10000 7.2 230 08:26 01.03.2020
1771 Clouds 4 980 69 10000 8.2 230 07:45 01.03.2020
1772 Clouds 4 980 69 10000 8.7 230 07:27 01.03.2020
1773 Clouds 4 980 69 10000 9.8 230 06:58 01.03.2020
1774 Clouds 4 980 69 10000 9.8 230 06:40 01.03.2020
1775 Clouds 5 979 64 10000 7.2 220 04:40 01.03.2020
1776 Clouds 5 979 64 10000 8.7 230 02:58 01.03.2020
1777 Clouds 5 978 68 10000 8.7 230 02:18 01.03.2020
1778 Clouds 5 978 68 10000 8.2 230 01:34 01.03.2020
1779 Clouds 6 978 67 10000 6.7 220 00:48 01.03.2020
1780 Clouds 6 978 70 10000 9.3 220 00:25 01.03.2020
1781 Clouds 6 977 70 10000 9.3 220 23:54 29.02.2020
1782 Clouds 6 977 75 10000 9.8 230 23:35 29.02.2020
1783 Clouds 6 976 75 10000 7.7 220 22:46 29.02.2020
1784 Clouds 5 976 93 10000 6.2 200 22:26 29.02.2020
1785 Rain 5 975 86 10000 7.2 210 21:47 29.02.2020
1786 Rain 4 975 93 10000 9.3 210 21:27 29.02.2020
1787 Rain 4 974 93 5000 8.7 210 20:59 29.02.2020
1788 Rain 3 974 93 5000 8.7 210 20:40 29.02.2020
1789 Rain 3 974 93 10000 8.2 200 20:20 29.02.2020
1790 Rain 3 974 80 10000 9.8 200 19:45 29.02.2020
1791 Rain 3 975 80 10000 7.7 200 19:22 29.02.2020
1792 Rain 4 975 64 10000 8.7 200 18:59 29.02.2020
1793 Rain 4 975 64 10000 8.7 200 18:39 29.02.2020
1794 Clouds 4 976 64 10000 7.2 200 18:19 29.02.2020
1795 Clouds 5 976 64 10000 6.7 200 17:55 29.02.2020
1796 Clouds 5 977 64 10000 7.2 210 17:37 29.02.2020
1797 Clouds 5 977 50 10000 7.2 210 17:18 29.02.2020
1798 Clouds 6 977 50 10000 7.7 200 16:43 29.02.2020
1799 Clouds 6 977 50 10000 7.2 200 16:19 29.02.2020
1800 Snow 6 978 50 10000 8.2 210 15:54 29.02.2020
1801 Clouds 6 978 50 10000 7.7 210 15:36 29.02.2020
1802 Clouds 6 978 50 10000 7.7 210 15:18 29.02.2020
1803 Snow 5 978 50 10000 5.7 210 14:39 29.02.2020
1804 Clouds 5 978 46 10000 7.7 220 14:21 29.02.2020
1805 Rain 6 978 60 10000 9.8 250 13:44 29.02.2020
1806 Clouds 6 978 60 10000 10.8 240 13:26 29.02.2020
1807 Clouds 6 978 60 10000 7.2 240 12:55 29.02.2020
1808 Clouds 6 978 46 10000 8.2 240 12:36 29.02.2020
1809 Clouds 6 978 46 10000 8.2 240 12:18 29.02.2020
1810 Snow 5 978 46 10000 9.3 240 11:44 29.02.2020
1811 Snow 5 978 80 10000 7.2 230 11:25 29.02.2020
1812 Rain 5 978 93 10000 6.7 230 10:50 29.02.2020
1813 Rain 5 978 93 10000 4.1 250 10:29 29.02.2020
1814 Rain 5 978 100 10000 4.6 220 09:52 29.02.2020
1815 Rain 5 978 86 10000 6.2 260 09:27 29.02.2020
1816 Rain 5 978 93 10000 7.7 260 08:58 29.02.2020
1817 Rain 5 978 93 10000 7.7 260 08:38 29.02.2020
1818 Rain 6 977 100 10000 1.5 200 08:19 29.02.2020
1819 Rain 6 978 100 10000 2.1 230 07:45 29.02.2020
1820 Rain 6 978 100 10000 2.6 240 07:19 29.02.2020
1821 Rain 7 978 93 5000 5.7 260 06:53 29.02.2020
1822 Rain 7 977 93 10000 6.2 220 06:27 29.02.2020
1823 Rain 8 977 93 9000 7.7 220 05:49 29.02.2020
1824 Rain 9 977 87 10000 4.6 180 05:21 29.02.2020
1825 Rain 10 980 87 10000 4.6 170 03:44 29.02.2020
1826 Rain 10 981 93 10000 4.6 170 03:23 29.02.2020
1827 Rain 10 982 87 10000 4.6 170 02:47 29.02.2020
1828 Rain 10 985 93 10000 5.1 180 01:32 29.02.2020
1829 Clouds 10 985 93 10000 5.7 180 00:44 29.02.2020
1830 Clouds 10 986 93 10000 3.6 180 00:25 29.02.2020
1831 Clouds 10 987 93 10000 3.1 180 23:38 28.02.2020
1832 Clouds 10 987 93 10000 3.1 180 23:38 28.02.2020
1833 Clouds 10 988 93 10000 3.1 180 23:20 28.02.2020
1834 Clouds 10 988 93 10000 3.6 200 22:42 28.02.2020
1835 Clouds 10 988 87 10000 3.6 200 22:22 28.02.2020
1836 Clouds 10 989 93 10000 4.6 200 21:42 28.02.2020
1837 Clouds 9 989 93 10000 4.6 200 21:21 28.02.2020
1838 Clouds 9 990 93 10000 4.1 190 20:56 28.02.2020
1839 Clouds 10 990 93 10000 4.1 190 20:38 28.02.2020
1840 Clouds 9 990 93 10000 4.6 190 20:19 28.02.2020
1841 Clouds 9 990 93 10000 3.6 200 19:56 28.02.2020
1842 Clouds 9 990 93 10000 3.6 190 19:37 28.02.2020
1843 Clouds 9 990 93 10000 3.6 190 19:18 28.02.2020
1844 Clouds 9 991 93 10000 3.1 180 18:44 28.02.2020
1845 Clouds 9 991 93 10000 4.1 190 18:23 28.02.2020
1846 Rain 8 991 93 10000 4.1 190 17:41 28.02.2020
1847 Rain 8 991 100 10000 4.6 190 17:23 28.02.2020
1848 Rain 8 991 100 10000 4.6 190 17:23 28.02.2020
1849 Rain 7 992 93 10000 4.6 190 16:56 28.02.2020
1850 Rain 7 992 93 10000 4.1 190 16:37 28.02.2020
1851 Rain 7 992 93 10000 4.1 190 16:18 28.02.2020
1852 Rain 6 993 93 10000 4.1 180 15:42 28.02.2020
1853 Rain 5 993 93 10000 4.1 180 15:20 28.02.2020
1854 Rain 5 994 93 10000 4.6 160 14:59 28.02.2020
1855 Rain 5 994 93 10000 4.6 160 14:41 28.02.2020
1856 Rain 4 995 93 10000 4.6 170 14:19 28.02.2020
1857 Rain 4 996 93 10000 6.2 160 13:57 28.02.2020
1858 Rain 4 996 93 10000 6.2 160 13:57 28.02.2020
1859 Rain 4 996 93 10000 6.2 160 13:39 28.02.2020
1860 Rain 3 998 93 9000 5.1 150 13:19 28.02.2020
1861 Rain 3 999 93 7000 5.1 150 12:41 28.02.2020
1862 Rain 3 1000 93 10000 5.1 0 12:23 28.02.2020
1863 Rain 3 1001 93 10000 6.2 140 11:43 28.02.2020
1864 Rain 2 1002 86 10000 4.6 0 11:24 28.02.2020
1865 Rain 2 1003 93 8000 3.6 140 10:59 28.02.2020
1866 Rain 2 1003 93 8000 3.6 140 10:40 28.02.2020
1867 Rain 2 1005 93 7000 3.6 150 10:20 28.02.2020
1868 Rain 2 1006 93 7000 3.1 0 09:47 28.02.2020
1869 Rain 2 1006 86 10000 3.1 170 09:21 28.02.2020
1870 Snow 3 1007 94 10000 2.6 180 08:57 28.02.2020
1871 Snow 3 1008 94 10000 4.1 180 08:37 28.02.2020
1872 Clouds 3 1008 80 10000 4.1 180 08:18 28.02.2020
1873 Clouds 3 1008 74 10000 2.6 0 07:40 28.02.2020
1874 Clouds 2 1008 80 10000 2.1 160 07:20 28.02.2020
1875 Clouds 2 1009 80 10000 2.1 0 06:45 28.02.2020
1876 Clouds 2 1009 80 10000 2.1 160 06:19 28.02.2020
1877 Clouds 2 1010 86 10000 2.6 170 04:35 28.02.2020
1878 Clouds 2 1011 86 10000 3.1 190 03:51 28.02.2020
1879 Clouds 2 1011 86 10000 2.6 180 02:46 28.02.2020
1880 Clouds 1 1011 86 10000 2.6 170 02:25 28.02.2020
1881 Clouds 2 1012 86 10000 2.1 170 00:48 28.02.2020
1882 Clouds 2 1011 86 10000 2.6 170 00:26 28.02.2020
1883 Clouds 2 1011 86 10000 1.5 130 23:42 27.02.2020
1884 Clear 2 1011 80 10000 2.6 230 23:19 27.02.2020
1885 Clouds 2 1011 77 10000 2.6 220 22:43 27.02.2020
1886 Rain 3 1011 86 10000 2.6 230 22:25 27.02.2020
1887 Clouds 3 1011 93 10000 3.1 230 21:57 27.02.2020
1888 Clouds 3 1011 93 10000 3.1 230 21:39 27.02.2020
1889 Clear 3 1010 77 10000 2.6 230 21:19 27.02.2020
1890 Clear 3 1010 77 10000 2.6 250 20:56 27.02.2020
1891 Clear 3 1010 77 10000 2.6 250 20:38 27.02.2020
1892 Clear 4 1010 71 10000 3.6 260 20:19 27.02.2020
1893 Clouds 4 1009 71 10000 4.6 270 19:42 27.02.2020
1894 Clouds 4 1008 71 10000 5.7 270 19:24 27.02.2020
1895 Clouds 5 1008 71 10000 5.7 270 18:58 27.02.2020
1896 Clouds 5 1008 71 10000 5.7 270 18:40 27.02.2020
1897 Clouds 5 1007 71 10000 6.2 290 18:21 27.02.2020
1898 Clouds 5 1007 60 10000 7.7 290 17:57 27.02.2020
1899 Clouds 5 1007 60 10000 7.7 290 17:38 27.02.2020
1900 Clouds 6 1006 60 10000 9.3 290 17:19 27.02.2020
1901 Clouds 6 1006 60 10000 9.8 290 16:55 27.02.2020
1902 Clouds 6 1005 60 10000 9.8 290 16:36 27.02.2020
1903 Clouds 6 1005 60 10000 9.8 290 16:18 27.02.2020
1904 Clouds 6 1004 64 10000 8.2 300 15:54 27.02.2020
1905 Clouds 6 1004 65 10000 8.7 300 15:36 27.02.2020
1906 Clouds 6 1004 65 10000 8.7 300 15:18 27.02.2020
1907 Clouds 6 1003 75 10000 6.7 290 14:40 27.02.2020
1908 Clouds 5 1003 75 10000 6.7 280 14:21 27.02.2020
1909 Rain 5 1003 80 10000 9.8 310 13:55 27.02.2020
1910 Clouds 5 1002 68 10000 8.2 300 13:37 27.02.2020
1911 Clouds 5 1002 70 10000 8.2 300 13:19 27.02.2020
1912 Clouds 5 1001 70 10000 7.2 310 12:43 27.02.2020
1913 Clouds 5 1001 70 10000 5.1 320 12:19 27.02.2020
1914 Rain 5 1000 75 10000 6.2 310 11:46 27.02.2020
1915 Rain 4 1000 93 10000 4.6 320 11:23 27.02.2020
1916 Rain 4 999 93 10000 3.1 300 10:56 27.02.2020
1917 -273 0 0 0 0 0 10:37 27.02.2020
1918 Rain 3 999 100 10000 2.1 260 10:18 27.02.2020
1919 Rain 2 998 93 10000 1.5 220 09:41 27.02.2020
1920 Rain 2 998 100 8000 2.1 250 09:22 27.02.2020
1921 Snow 2 997 100 6000 2.6 250 08:44 27.02.2020
1922 Rain 2 997 93 6000 2.6 250 08:26 27.02.2020
1923 Rain 2 997 93 6000 1.5 260 07:51 27.02.2020
1924 Rain 2 997 93 6000 1 240 07:30 27.02.2020
1925 Rain 2 997 93 9000 2.6 250 06:59 27.02.2020
1926 Rain 2 997 100 6000 1 0 06:20 27.02.2020
1927 Rain 2 998 93 9000 2.6 190 04:22 27.02.2020
1928 Rain 3 1000 86 10000 2.1 180 02:54 27.02.2020
1929 Snow 3 1001 88 10000 2.6 190 00:47 27.02.2020
1930 Snow 3 1002 88 10000 2.6 190 00:29 27.02.2020
1931 Snow 3 1002 88 10000 3.1 190 23:41 26.02.2020
1932 Clouds 2 1003 75 10000 2.6 180 23:20 26.02.2020
1933 Clouds 2 1003 80 10000 2.6 180 22:59 26.02.2020
1934 Clouds 2 1003 80 10000 2.6 180 22:39 26.02.2020
1935 Clouds 2 1004 80 10000 2.6 190 22:21 26.02.2020
1936 Clouds 3 1004 80 10000 2.6 180 21:56 26.02.2020
1937 Clouds 3 1004 80 10000 2.6 180 21:38 26.02.2020
1938 Clouds 3 1005 74 10000 2.6 180 21:18 26.02.2020
1939 Clouds 3 1005 74 10000 2.1 200 20:55 26.02.2020
1940 Clouds 3 1005 74 10000 3.6 230 20:37 26.02.2020
1941 Clouds 3 1005 74 10000 3.6 230 20:18 26.02.2020
1942 Clouds 4 1005 63 10000 4.1 250 19:46 26.02.2020
1943 Clouds 4 1005 63 10000 5.1 260 19:21 26.02.2020
1944 Clouds 4 1005 63 10000 4.6 270 18:58 26.02.2020
1945 Clouds 4 1005 63 10000 4.6 270 18:40 26.02.2020
1946 Clouds 5 1006 63 10000 4.6 260 18:22 26.02.2020
1947 Clouds 5 1005 65 10000 6.7 270 17:56 26.02.2020
1948 Clouds 5 1005 63 10000 7.7 270 17:37 26.02.2020
1949 Clouds 5 1005 52 10000 7.7 270 17:18 26.02.2020
1950 Clouds 6 1005 52 10000 8.7 270 16:43 26.02.2020
1951 Clouds 6 1005 52 10000 9.3 280 16:22 26.02.2020
1952 Rain 6 1005 52 10000 8.7 270 15:54 26.02.2020
1953 Rain 6 1004 52 10000 9.8 280 15:36 26.02.2020
1954 Rain 6 1004 52 10000 9.8 280 15:18 26.02.2020
1955 Rain 6 1004 70 10000 7.7 290 14:42 26.02.2020
1956 Rain 6 1004 70 10000 8.7 300 14:22 26.02.2020
1957 Clouds 6 1004 70 10000 7.7 300 13:43 26.02.2020
1958 Clouds 6 1004 80 10000 7.7 290 13:22 26.02.2020
1959 Rain 5 1003 80 10000 6.7 300 12:42 26.02.2020
1960 Rain 4 1003 86 10000 5.1 280 12:22 26.02.2020
1961 Rain 4 1002 86 10000 6.2 270 11:59 26.02.2020
1962 Rain 4 1002 86 10000 5.7 280 11:40 26.02.2020
1963 Rain 4 1002 86 10000 5.7 280 11:22 26.02.2020
1964 Rain 4 1001 86 10000 4.6 280 10:43 26.02.2020
1965 Rain 4 1001 86 10000 4.1 290 10:24 26.02.2020
1966 Rain 3 1000 93 10000 4.6 290 09:58 26.02.2020
1967 Rain 3 1000 93 10000 4.6 290 09:40 26.02.2020
1968 Rain 3 1000 93 10000 4.6 290 09:40 26.02.2020
1969 -273 0 0 0 0 0 09:21 26.02.2020
1970 Rain 3 999 86 10000 4.1 290 08:40 26.02.2020
1971 Rain 2 999 93 10000 3.1 260 08:22 26.02.2020
1972 Rain 2 998 93 10000 5.7 290 07:59 26.02.2020
1973 Rain 2 998 93 10000 5.7 290 07:39 26.02.2020
1974 Clouds 2 998 93 10000 4.6 270 07:20 26.02.2020
1975 Clouds 2 997 93 10000 5.1 280 06:45 26.02.2020
1976 Rain 2 997 93 2500 6.2 280 06:22 26.02.2020
1977 Rain 2 997 86 10000 4.6 270 05:48 26.02.2020
1978 Rain 2 996 78 10000 4.6 260 05:18 26.02.2020
1979 Rain 3 996 78 10000 6.7 270 03:20 26.02.2020
1980 Rain 3 995 91 10000 6.7 270 01:57 26.02.2020
1981 Rain 2 994 93 10000 1.5 220 01:24 26.02.2020
1982 Rain 2 994 100 6000 2.6 260 00:38 26.02.2020
1983 Rain 2 994 95 4400 6.2 280 00:19 26.02.2020
1984 Rain 2 994 93 10000 5.7 260 23:41 25.02.2020
1985 Rain 2 993 86 10000 5.7 270 23:21 25.02.2020
1986 Rain 2 993 86 10000 6.2 260 22:43 25.02.2020
1987 Rain 3 993 86 10000 5.1 240 22:20 25.02.2020
1988 Rain 3 993 93 10000 2.6 240 21:59 25.02.2020
1989 Rain 3 993 93 10000 2.6 240 21:38 25.02.2020
1990 Rain 3 994 93 10000 5.7 270 21:20 25.02.2020
1991 Rain 3 993 93 10000 5.1 240 20:56 25.02.2020
1992 Rain 3 993 86 10000 6.7 250 20:37 25.02.2020
1993 Rain 3 993 86 10000 6.7 250 20:37 25.02.2020
1994 Rain 3 993 86 10000 6.7 250 20:19 25.02.2020
1995 Rain 3 993 86 10000 5.1 240 19:43 25.02.2020
1996 Rain 3 993 86 10000 4.1 240 19:22 25.02.2020
1997 Rain 3 993 86 10000 3.1 260 18:58 25.02.2020
1998 Rain 3 993 71 10000 4.1 240 18:39 25.02.2020
1999 Rain 4 993 71 10000 4.1 240 18:20 25.02.2020
2000 Rain 4 993 75 10000 5.1 300 17:55 25.02.2020
2001 Clouds 4 993 71 10000 6.7 280 17:36 25.02.2020
2002 Rain 5 993 65 10000 6.7 280 17:18 25.02.2020
2003 Rain 5 993 70 10000 4.6 270 16:42 25.02.2020
2004 Rain 5 994 80 10000 2.6 250 16:22 25.02.2020
2005 Rain 5 994 86 10000 3.6 280 15:59 25.02.2020
2006 Rain 5 994 86 10000 3.6 280 15:41 25.02.2020
2007 Rain 5 995 86 10000 2.6 270 15:20 25.02.2020
2008 Rain 5 995 65 2900 6.7 280 14:58 25.02.2020
2009 Rain 5 995 65 2900 6.7 280 14:38 25.02.2020
2010 Rain 6 995 70 10000 3.1 220 14:18 25.02.2020
2011 Clouds 6 996 65 10000 6.7 260 13:57 25.02.2020
2012 Snow 6 996 70 10000 6.7 260 13:38 25.02.2020
2013 Rain 6 996 70 10000 6.7 260 13:20 25.02.2020
2014 Rain 6 997 80 10000 5.1 290 12:42 25.02.2020
2015 Rain 6 997 75 10000 5.7 280 12:23 25.02.2020
2016 Rain 5 997 80 10000 7.2 260 11:59 25.02.2020
2017 Rain 5 997 80 10000 7.2 260 11:41 25.02.2020
2018 Rain 5 997 80 10000 5.7 230 11:20 25.02.2020
2019 Rain 5 997 86 10000 6.7 230 10:59 25.02.2020
2020 Rain 5 997 86 10000 6.7 230 10:40 25.02.2020
2021 Rain 4 997 86 10000 5.7 240 10:22 25.02.2020
2022 Rain 4 998 80 10000 5.1 230 09:42 25.02.2020
2023 Rain 4 998 80 10000 5.1 230 09:42 25.02.2020
2024 Rain 4 998 86 10000 6.7 240 09:22 25.02.2020
2025 Rain 3 998 86 10000 5.1 220 08:55 25.02.2020
2026 Rain 3 998 93 10000 3.1 210 08:37 25.02.2020
2027 Rain 3 998 93 10000 3.1 210 08:19 25.02.2020
2028 Rain 3 999 93 9000 5.1 240 07:40 25.02.2020
2029 Rain 3 999 80 9000 5.1 220 07:20 25.02.2020
2030 Rain 3 999 86 10000 2.1 170 06:37 25.02.2020
2031 Rain 4 1000 86 10000 3.1 210 05:29 25.02.2020
2032 Rain 4 1001 80 10000 5.1 240 03:30 25.02.2020
2033 Rain 5 1002 80 10000 7.7 260 01:32 25.02.2020
2034 Rain 5 1002 86 10000 7.2 270 00:43 25.02.2020
2035 Rain 5 1002 75 10000 8.2 260 00:25 25.02.2020
2036 Snow 5 1002 75 10000 6.2 260 23:42 24.02.2020
2037 Clouds 5 1002 75 10000 7.2 260 23:20 24.02.2020
2038 Clouds 6 1002 75 10000 8.7 260 22:41 24.02.2020
2039 Clouds 6 1002 75 10000 7.7 260 22:20 24.02.2020
2040 Clouds 6 1002 70 10000 7.7 260 21:57 24.02.2020
2041 Rain 6 1002 75 10000 8.2 260 21:39 24.02.2020
2042 Rain 6 1002 75 10000 8.2 260 21:19 24.02.2020
2043 Rain 7 1002 70 10000 9.8 270 20:58 24.02.2020
2044 Rain 6 1002 70 10000 9.8 270 20:39 24.02.2020
2045 Rain 7 1001 70 10000 9.3 260 20:19 24.02.2020
2046 Rain 7 1001 75 10000 9.8 260 19:56 24.02.2020
2047 Rain 7 1001 75 10000 9.8 260 19:56 24.02.2020
2048 Rain 7 1001 75 10000 9.8 260 19:38 24.02.2020
2049 Rain 7 1001 70 10000 9.8 260 19:19 24.02.2020
2050 Clouds 7 1001 70 10000 10.3 270 18:42 24.02.2020
2051 Clouds 7 1000 75 10000 11.3 280 18:24 24.02.2020
2052 Clouds 7 999 81 10000 11.8 270 17:57 24.02.2020
2053 Clouds 8 999 81 10000 11.8 270 17:39 24.02.2020
2054 Clouds 9 999 71 10000 10.8 270 17:19 24.02.2020
2055 Clouds 10 998 66 10000 12.9 270 16:55 24.02.2020
2056 Clouds 10 998 76 10000 10.3 260 16:37 24.02.2020
2057 Clouds 10 998 76 10000 10.3 260 16:19 24.02.2020
2058 Rain 11 998 71 10000 9.8 250 15:57 24.02.2020
2059 Rain 11 998 76 10000 7.7 250 15:38 24.02.2020
2060 Rain 12 998 76 10000 7.7 250 15:20 24.02.2020
2061 Clouds 12 998 76 10000 7.7 240 14:42 24.02.2020
2062 Clouds 12 998 81 10000 9.3 230 14:23 24.02.2020
2063 Clouds 12 998 81 10000 4.6 220 13:59 24.02.2020
2064 Clouds 12 998 81 10000 4.6 220 13:41 24.02.2020
2065 Clouds 11 999 87 10000 4.6 200 13:23 24.02.2020
2066 Clouds 11 999 87 10000 3.6 200 12:58 24.02.2020
2067 Clouds 11 999 87 10000 3.6 200 12:40 24.02.2020
2068 Clouds 11 999 87 10000 4.6 200 12:22 24.02.2020
2069 Clouds 10 1000 93 10000 5.1 200 11:48 24.02.2020
2070 Rain 10 1000 100 10000 5.1 200 11:29 24.02.2020
2071 Rain 9 1001 93 10000 5.1 200 10:52 24.02.2020
2072 Rain 8 1001 93 9000 5.1 200 10:31 24.02.2020
2073 Rain 7 1002 93 6000 4.6 190 09:58 24.02.2020
2074 Rain 6 1002 93 9000 4.1 180 09:39 24.02.2020
2075 Rain 6 1002 93 9000 4.1 180 09:19 24.02.2020
2076 Rain 5 1003 93 9000 3.1 170 08:48 24.02.2020
2077 Rain 4 1004 93 8000 3.6 170 08:28 24.02.2020
2078 Rain 4 1006 93 7000 3.6 0 07:52 24.02.2020
2079 Rain 4 1006 93 7000 3.6 0 07:52 24.02.2020
2080 Rain 4 1007 86 9000 4.1 150 07:31 24.02.2020
2081 Rain 3 1009 86 10000 4.1 140 06:48 24.02.2020
2082 Rain 3 1010 86 6000 2.6 150 06:22 24.02.2020
2083 Rain 3 1013 86 10000 3.1 0 05:33 24.02.2020
2084 Rain 3 1014 86 10000 3.6 130 04:49 24.02.2020
2085 Rain 4 1019 86 10000 2.1 160 02:57 24.02.2020
2086 Clouds 4 1020 80 10000 1 0 01:52 24.02.2020
2087 Clouds 4 1020 80 10000 1.5 0 01:28 24.02.2020
2088 Clouds 4 1021 80 10000 3.6 220 00:37 24.02.2020
2089 Clouds 4 1021 80 10000 3.6 220 00:19 24.02.2020
2090 Clouds 4 1021 78 10000 2.1 170 23:42 23.02.2020
2091 Clouds 4 1021 80 10000 1.5 170 23:20 23.02.2020
2092 Clouds 4 1022 80 10000 2.1 170 22:57 23.02.2020
2093 Clouds 4 1022 80 10000 2.1 170 22:39 23.02.2020
2094 Clouds 4 1022 80 10000 1.5 140 22:19 23.02.2020
2095 Clouds 5 1022 80 10000 1.5 0 21:46 23.02.2020
2096 Clouds 5 1022 80 10000 2.6 230 21:20 23.02.2020
2097 Clouds 5 1021 75 10000 4.1 250 20:57 23.02.2020
2098 Clouds 5 1021 75 10000 4.1 250 20:57 23.02.2020
2099 Clouds 5 1021 75 10000 4.1 250 20:57 23.02.2020
2100 Clouds 5 1021 75 10000 2.1 230 20:39 23.02.2020
2101 Clouds 5 1021 75 10000 2.1 230 20:20 23.02.2020
2102 Clouds 5 1021 70 10000 5.1 270 19:57 23.02.2020
2103 Clouds 5 1021 70 10000 4.6 270 19:39 23.02.2020
2104 Clouds 6 1021 70 10000 4.6 270 19:18 23.02.2020
2105 Clouds 6 1021 70 10000 4.6 270 19:18 23.02.2020
2106 Clouds 6 1020 70 10000 5.1 280 18:56 23.02.2020
2107 Clouds 6 1019 65 10000 6.2 280 18:37 23.02.2020
2108 Clouds 6 1019 65 10000 6.2 280 18:18 23.02.2020
2109 Clouds 6 1019 65 10000 7.7 290 17:56 23.02.2020
2110 Clouds 6 1019 65 10000 7.7 280 17:37 23.02.2020
2111 Clouds 7 1019 65 10000 7.7 280 17:18 23.02.2020
2112 Clouds 7 1018 65 10000 8.2 280 16:45 23.02.2020
2113 Clouds 7 1017 65 10000 9.8 290 16:26 23.02.2020
2114 Clouds 7 1017 50 10000 9.3 280 15:58 23.02.2020
2115 Clouds 7 1016 50 10000 10.8 300 15:38 23.02.2020
2116 Clouds 7 1016 50 10000 10.8 300 15:20 23.02.2020
2117 Clouds 7 1016 50 10000 10.8 300 15:20 23.02.2020
2118 Clouds 7 1015 50 10000 10.3 290 14:56 23.02.2020
2119 Clouds 7 1015 50 10000 10.3 290 14:38 23.02.2020
2120 Clouds 7 1015 61 10000 10.8 290 14:20 23.02.2020
2121 Clouds 7 1014 65 10000 9.3 290 13:56 23.02.2020
2122 Clouds 7 1014 65 10000 9.3 290 13:38 23.02.2020
2123 Clouds 7 1014 75 10000 8.7 290 13:19 23.02.2020
2124 Clouds 6 1013 87 10000 8.7 290 12:41 23.02.2020
2125 Rain 6 1012 87 10000 7.2 290 12:21 23.02.2020
2126 Rain 6 1010 93 6000 7.2 290 11:39 23.02.2020
2127 Rain 6 1009 93 5000 7.7 270 11:20 23.02.2020
2128 Drizzle 6 1008 93 5000 7.7 270 10:59 23.02.2020
2129 Drizzle 6 1008 93 5000 7.7 270 10:41 23.02.2020
2130 Rain 6 1007 93 10000 4.6 260 10:23 23.02.2020
2131 Rain 6 1006 100 5000 3.6 250 09:56 23.02.2020
2132 Rain 6 1006 100 5000 3.6 250 09:38 23.02.2020
2133 Drizzle 6 1006 100 5000 2.1 260 09:19 23.02.2020
2134 Rain 6 1005 100 10000 2.1 340 08:50 23.02.2020
2135 Rain 6 1004 93 3600 3.1 10 08:29 23.02.2020
2136 Drizzle 6 1004 100 3000 3.6 30 07:48 23.02.2020
2137 Rain 6 1004 100 2600 3.1 50 07:29 23.02.2020
2138 Rain 6 1005 100 2600 1.5 0 06:25 23.02.2020
2139 Rain 6 1007 100 7000 3.1 170 05:34 23.02.2020
2140 Rain 6 1009 93 6000 4.6 170 04:23 23.02.2020
2141 Rain 6 1013 93 6000 3.6 190 02:50 23.02.2020
2142 Rain 6 1014 93 10000 4.6 200 01:43 23.02.2020
2143 Rain 6 1014 93 10000 5.1 200 01:21 23.02.2020
2144 Rain 6 1015 93 10000 5.1 220 00:44 23.02.2020
2145 Rain 6 1015 87 10000 6.7 230 00:23 23.02.2020
2146 Rain 6 1016 87 10000 6.2 240 23:43 22.02.2020
2147 Rain 6 1016 81 9000 8.7 250 23:24 22.02.2020
2148 Rain 7 1016 81 10000 7.7 230 22:46 22.02.2020
2149 Rain 7 1016 81 10000 6.2 230 22:22 22.02.2020
2150 Rain 7 1016 81 10000 3.6 220 21:55 22.02.2020
2151 Rain 7 1016 87 10000 4.1 220 21:37 22.02.2020
2152 Rain 7 1016 87 10000 4.1 220 21:18 22.02.2020
2153 Clouds 7 1016 87 10000 3.6 220 20:41 22.02.2020
2154 Clouds 7 1016 87 10000 4.1 240 20:22 22.02.2020
2155 Rain 7 1016 87 10000 6.2 250 19:43 22.02.2020
2156 Rain 7 1016 75 10000 8.7 270 19:24 22.02.2020
2157 Rain 7 1016 75 10000 13.9 250 18:57 22.02.2020
2158 Rain 7 1016 75 10000 13.9 250 18:37 22.02.2020
2159 Rain 7 1015 70 10000 7.2 240 18:19 22.02.2020
2160 Clouds 7 1015 65 10000 10.3 260 17:44 22.02.2020
2161 Clouds 8 1015 73 10000 11.3 260 17:26 22.02.2020
2162 Rain 7 1015 61 10000 10.8 270 17:00 22.02.2020
2163 Rain 8 1015 61 10000 10.8 270 16:40 22.02.2020
2164 Rain 8 1014 61 10000 7.7 240 16:20 22.02.2020
2165 Clouds 8 1014 61 10000 9.8 240 15:56 22.02.2020
2166 Rain 8 1014 61 10000 9.8 240 15:38 22.02.2020
2167 Rain 9 1013 61 10000 10.3 250 15:20 22.02.2020
2168 Rain 9 1013 57 10000 11.8 250 14:42 22.02.2020
2169 Clouds 9 1013 61 10000 9.3 250 14:21 22.02.2020
2170 Clouds 9 1013 61 10000 11.8 240 13:43 22.02.2020
2171 Clouds 9 1013 61 10000 11.8 240 13:43 22.02.2020
2172 Clouds 9 1012 70 10000 9.3 250 13:20 22.02.2020
2173 Clouds 9 1012 66 10000 9.8 230 12:59 22.02.2020
2174 Clouds 9 1012 66 10000 9.8 230 12:39 22.02.2020
2175 Clouds 9 1012 57 10000 12.9 260 12:20 22.02.2020
2176 Clouds 9 1012 57 10000 12.9 260 12:20 22.02.2020
2177 Clouds 9 1011 66 10000 9.3 250 11:43 22.02.2020
2178 Clouds 8 1011 70 10000 9.8 250 11:25 22.02.2020
2179 Clouds 8 1010 75 10000 10.3 260 10:55 22.02.2020
2180 Rain 8 1010 75 10000 10.8 260 10:36 22.02.2020
2181 Rain 8 1010 75 10000 10.8 260 10:18 22.02.2020
2182 Rain 8 1009 75 10000 11.8 270 09:43 22.02.2020
2183 Rain 8 1008 76 10000 10.3 260 09:22 22.02.2020
2184 Rain 8 1008 81 10000 8.7 250 08:57 22.02.2020
2185 Rain 8 1008 81 10000 8.7 250 08:38 22.02.2020
2186 Rain 9 1007 81 10000 12.3 270 08:20 22.02.2020
2187 Rain 9 1007 71 10000 10.3 250 07:39 22.02.2020
2188 Clouds 10 1006 76 10000 10.3 250 07:18 22.02.2020
2189 Rain 10 1005 81 4000 12.3 250 06:43 22.02.2020
2190 Clouds 10 1005 81 10000 8.2 220 04:45 22.02.2020
2191 Clouds 10 1005 87 10000 7.7 210 04:25 22.02.2020
2192 Rain 10 1006 93 10000 7.2 200 02:42 22.02.2020
2193 Rain 9 1007 87 10000 7.2 210 01:49 22.02.2020
2194 Rain 9 1008 87 10000 7.7 210 01:29 22.02.2020
2195 Rain 9 1008 87 7000 7.7 210 00:49 22.02.2020
2196 Rain 9 1009 87 10000 6.7 210 00:31 22.02.2020
2197 Rain 9 1010 87 10000 7.2 210 23:54 21.02.2020
2198 Rain 9 1010 87 8000 6.7 210 23:26 21.02.2020
2199 Rain 9 1010 81 10000 6.7 210 22:59 21.02.2020
2200 Rain 9 1010 81 10000 6.7 210 22:41 21.02.2020
2201 Rain 9 1010 81 10000 6.7 210 22:41 21.02.2020
2202 Rain 9 1011 81 10000 7.7 210 22:23 21.02.2020
2203 Rain 9 1011 81 10000 7.2 210 21:56 21.02.2020
2204 Rain 9 1011 81 10000 6.7 210 21:37 21.02.2020
2205 Rain 9 1011 81 10000 6.7 210 21:37 21.02.2020
2206 Rain 9 1011 81 10000 6.7 210 21:18 21.02.2020
2207 Rain 10 1011 81 10000 7.2 210 20:41 21.02.2020
2208 Rain 10 1012 81 10000 6.2 210 20:23 21.02.2020
2209 Rain 9 1012 87 10000 5.1 210 19:39 21.02.2020
2210 Rain 10 1012 87 10000 4.6 210 19:19 21.02.2020
2211 Rain 9 1013 87 10000 5.1 200 18:43 21.02.2020
2212 Rain 9 1013 87 10000 5.1 200 18:23 21.02.2020
2213 Rain 9 1013 87 10000 5.7 200 17:57 21.02.2020
2214 Rain 9 1013 87 10000 6.2 210 17:37 21.02.2020
2215 Rain 9 1013 87 10000 6.2 210 17:19 21.02.2020
2216 Rain 9 1013 87 10000 6.7 220 16:44 21.02.2020
2217 Rain 9 1014 87 10000 4.6 210 16:22 21.02.2020
2218 Rain 9 1014 87 10000 5.7 210 15:58 21.02.2020
2219 Rain 9 1014 87 10000 5.7 210 15:38 21.02.2020
2220 Rain 9 1014 87 10000 5.7 220 15:18 21.02.2020
2221 Rain 9 1014 87 10000 5.7 220 14:42 21.02.2020
2222 Rain 9 1014 87 10000 5.7 220 14:21 21.02.2020
2223 Rain 9 1014 81 10000 6.7 220 13:58 21.02.2020
2224 Rain 9 1014 81 10000 6.7 220 13:38 21.02.2020
2225 Rain 9 1014 87 10000 6.2 220 13:20 21.02.2020
2226 Rain 9 1015 87 10000 6.7 210 12:42 21.02.2020
2227 Rain 9 1015 81 10000 6.2 210 12:24 21.02.2020
2228 Rain 8 1015 81 10000 6.2 210 11:55 21.02.2020
2229 Rain 8 1015 81 10000 6.2 210 11:55 21.02.2020
2230 Rain 8 1015 87 10000 5.7 210 11:36 21.02.2020
2231 Rain 8 1015 87 10000 5.7 210 11:18 21.02.2020
2232 Rain 7 1016 87 10000 5.1 210 10:41 21.02.2020
2233 Rain 7 1016 93 9000 5.1 210 10:20 21.02.2020
2234 Rain 7 1015 87 10000 4.6 210 09:58 21.02.2020
2235 Rain 7 1016 87 10000 4.6 210 09:38 21.02.2020
2236 Rain 7 1016 87 10000 4.6 210 09:20 21.02.2020
2237 Clouds 7 1016 81 10000 3.6 200 08:45 21.02.2020
2238 Clouds 7 1016 81 10000 3.6 200 08:22 21.02.2020
2239 Clouds 6 1016 80 10000 3.1 200 07:59 21.02.2020
2240 Clouds 6 1016 80 10000 3.1 200 07:41 21.02.2020
2241 Clouds 6 1016 80 10000 3.6 200 07:20 21.02.2020
2242 Rain 6 1016 80 10000 3.6 190 06:53 21.02.2020
2243 Rain 6 1017 75 10000 4.6 200 06:31 21.02.2020
2244 Rain 5 1017 75 10000 5.1 210 05:50 21.02.2020
2245 Clouds 5 1017 75 10000 5.1 210 04:38 21.02.2020
2246 Clouds 5 1017 75 10000 5.1 220 04:19 21.02.2020
2247 Clouds 4 1017 80 10000 4.6 210 03:42 21.02.2020
2248 Clouds 4 1017 80 10000 5.1 220 02:43 21.02.2020
2249 Snow 4 1017 68 10000 3.6 230 01:24 21.02.2020
2250 Clouds 4 1016 68 10000 3.1 210 00:46 21.02.2020
2251 Clouds 5 1016 68 10000 3.1 210 00:23 21.02.2020
2252 Clouds 5 1015 68 10000 5.1 230 23:46 20.02.2020
2253 Clouds 5 1015 68 10000 5.1 230 23:26 20.02.2020
2254 Clouds 5 1015 63 10000 4.6 230 22:57 20.02.2020
2255 Clouds 5 1015 63 10000 4.6 230 22:38 20.02.2020
2256 Clouds 4 1014 74 10000 4.6 220 22:20 20.02.2020
2257 Clouds 4 1014 74 10000 4.1 210 21:56 20.02.2020
2258 Clouds 4 1014 74 10000 4.1 210 21:56 20.02.2020
2259 Clouds 5 1013 69 10000 7.2 240 21:37 20.02.2020
2260 Clouds 5 1013 69 10000 7.2 240 21:37 20.02.2020
2261 Rain 5 1013 69 10000 7.2 240 21:19 20.02.2020
2262 Rain 5 1013 63 10000 6.2 240 20:54 20.02.2020
2263 Rain 5 1013 63 10000 7.2 250 20:36 20.02.2020
2264 Clouds 4 1013 57 10000 7.2 250 20:18 20.02.2020
2265 Clouds 4 1012 65 10000 6.7 250 19:56 20.02.2020
2266 -273 0 0 0 0 0 19:38 20.02.2020
2267 Clouds 4 1012 65 10000 6.7 250 19:38 20.02.2020
2268 Clouds 5 1011 57 10000 8.2 260 19:20 20.02.2020
2269 Rain 5 1010 65 10000 8.7 260 18:39 20.02.2020
2270 Rain 5 1009 65 10000 8.7 280 18:20 20.02.2020
2271 Rain 5 1008 57 10000 11.3 280 17:41 20.02.2020
2272 Rain 5 1008 57 10000 11.3 280 17:23 20.02.2020
2273 Rain 5 1008 57 10000 11.3 280 17:22 20.02.2020
2274 -273 0 0 0 0 0 17:22 20.02.2020
2275 Rain 5 1007 56 10000 9.8 270 16:59 20.02.2020
2276 Clouds 6 1006 70 10000 9.3 280 16:40 20.02.2020
2277 Clouds 6 1006 70 10000 9.3 280 16:20 20.02.2020
2278 Rain 6 1005 75 10000 9.8 270 15:58 20.02.2020
2279 Rain 6 1005 75 10000 9.8 270 15:39 20.02.2020
2280 Rain 5 1004 93 10000 6.7 250 15:20 20.02.2020
2281 Rain 5 1004 86 10000 7.2 260 14:54 20.02.2020
2282 Rain 5 1004 93 10000 5.7 290 14:36 20.02.2020
2283 Rain 5 1004 93 10000 5.7 290 14:18 20.02.2020
2284 Rain 5 1003 86 10000 4.1 290 13:43 20.02.2020
2285 Rain 5 1003 93 10000 6.2 300 13:19 20.02.2020
2286 Rain 5 1003 86 9000 8.7 300 12:43 20.02.2020
2287 Rain 5 1000 87 10000 13.4 280 12:22 20.02.2020
2288 Rain 5 1000 93 10000 5.7 260 11:59 20.02.2020
2289 Rain 6 1000 93 10000 5.7 260 11:41 20.02.2020
2290 Rain 7 999 93 8000 6.2 270 11:22 20.02.2020
2291 Rain 8 999 93 3000 6.7 240 10:57 20.02.2020
2292 Rain 8 998 93 9000 5.1 190 10:38 20.02.2020
2293 Rain 8 998 93 9000 5.1 190 10:20 20.02.2020
2294 Rain 9 999 81 10000 5.1 190 09:44 20.02.2020
2295 Rain 9 999 76 10000 6.2 190 09:24 20.02.2020
2296 Rain 9 999 76 10000 6.2 190 09:24 20.02.2020
2297 Clouds 9 999 76 10000 5.7 190 08:57 20.02.2020
2298 Clouds 9 999 76 10000 5.7 190 08:38 20.02.2020
2299 Clouds 10 1000 76 10000 5.1 190 08:19 20.02.2020
2300 Clouds 9 1000 81 10000 6.2 190 07:44 20.02.2020
2301 Clouds 9 1001 81 10000 5.1 190 07:21 20.02.2020
2302 Clouds 9 1002 81 10000 4.6 190 06:44 20.02.2020
2303 Clouds 9 1002 87 10000 5.1 190 06:25 20.02.2020
2304 Clouds 9 1003 81 10000 5.1 200 05:44 20.02.2020
2305 Clouds 9 1004 87 10000 5.1 210 04:50 20.02.2020
2306 Clouds 9 1004 87 10000 4.6 210 03:57 20.02.2020
2307 Clouds 9 1005 87 10000 5.7 200 03:20 20.02.2020
2308 Clouds 9 1006 87 10000 5.1 200 01:52 20.02.2020
2309 Clouds 9 1006 87 10000 5.7 210 00:56 20.02.2020
2310 Rain 9 1006 87 10000 8.7 220 00:26 20.02.2020
2311 Clouds 9 1006 87 10000 7.2 210 23:49 19.02.2020
2312 Clouds 9 1007 87 10000 6.2 210 23:22 19.02.2020
2313 Clouds 9 1007 87 10000 5.7 210 22:44 19.02.2020
2314 Clouds 9 1007 87 10000 4.1 210 22:25 19.02.2020
2315 Clouds 9 1008 87 10000 5.1 200 21:59 19.02.2020
2316 Clouds 9 1008 87 10000 5.1 200 21:40 19.02.2020
2317 Clouds 9 1008 87 10000 4.6 200 21:19 19.02.2020
2318 Rain 9 1008 93 10000 3.6 190 20:57 19.02.2020
2319 Rain 8 1009 93 10000 3.6 200 20:38 19.02.2020
2320 Rain 8 1008 93 10000 3.6 190 20:38 19.02.2020
2321 Rain 8 1009 93 10000 3.6 200 20:20 19.02.2020
2322 Rain 8 1009 93 10000 4.1 190 19:57 19.02.2020
2323 Rain 8 1009 93 10000 4.1 190 19:38 19.02.2020
2324 Rain 8 1009 87 10000 4.1 190 19:19 19.02.2020
2325 Rain 8 1009 93 9000 4.1 180 18:57 19.02.2020
2326 Rain 8 1010 93 10000 4.1 190 18:39 19.02.2020
2327 Rain 7 1010 93 10000 4.1 190 18:21 19.02.2020
2328 Rain 7 1010 93 8000 4.1 190 17:44 19.02.2020
2329 Rain 7 1011 93 10000 4.6 190 17:20 19.02.2020
2330 Rain 7 1011 93 10000 4.1 190 16:59 19.02.2020
2331 Rain 7 1011 93 10000 4.1 190 16:41 19.02.2020
2332 Rain 7 1012 87 10000 4.6 180 16:18 19.02.2020
2333 Rain 6 1013 93 9000 4.1 180 15:44 19.02.2020
2334 Rain 6 1014 87 10000 4.1 180 15:26 19.02.2020
2335 Rain 6 1014 87 10000 3.1 170 14:59 19.02.2020
2336 Rain 6 1015 93 10000 3.1 180 14:40 19.02.2020
2337 Rain 6 1015 93 10000 3.1 180 14:21 19.02.2020
2338 Rain 6 1016 93 10000 2.6 190 13:42 19.02.2020
2339 Rain 5 1016 86 10000 3.1 190 13:23 19.02.2020
2340 Rain 5 1017 86 10000 3.6 200 12:57 19.02.2020
2341 Rain 5 1017 80 10000 3.6 210 12:37 19.02.2020
2342 Rain 5 1017 80 10000 3.6 210 12:18 19.02.2020
2343 Clouds 5 1017 75 10000 3.6 200 11:39 19.02.2020
2344 Clouds 5 1017 80 10000 3.6 200 11:20 19.02.2020
2345 Clouds 5 1017 80 10000 3.1 200 10:58 19.02.2020
2346 Clouds 5 1017 80 10000 3.1 200 10:38 19.02.2020
2347 Clouds 5 1017 86 10000 2.6 190 10:20 19.02.2020
2348 Clouds 4 1017 76 10000 3.1 210 09:59 19.02.2020
2349 Clouds 4 1017 76 10000 3.1 210 09:38 19.02.2020
2350 Clouds 4 1017 76 10000 2.6 200 09:19 19.02.2020
2351 Clouds 3 1017 76 10000 4.1 220 08:47 19.02.2020
2352 Clouds 3 1017 76 10000 1.5 0 08:24 19.02.2020
2353 Clouds 4 1017 75 10000 4.6 240 07:47 19.02.2020
2354 Clouds 3 1017 80 10000 5.1 250 07:29 19.02.2020
2355 Clouds 4 1017 80 10000 7.2 250 06:57 19.02.2020
2356 Clouds 3 1017 86 10000 5.1 240 06:34 19.02.2020
2357 Clouds 4 1016 80 10000 6.7 250 04:49 19.02.2020
2358 Rain 4 1015 75 10000 7.2 270 03:22 19.02.2020
2359 Rain 4 1015 80 10000 6.7 270 02:33 19.02.2020
2360 Rain 4 1014 86 10000 6.2 260 01:33 19.02.2020
2361 Rain 4 1013 75 10000 6.2 270 00:53 19.02.2020
2362 Rain 4 1013 75 10000 7.7 280 00:34 19.02.2020
2363 Rain 4 1013 75 10000 7.2 270 23:57 18.02.2020
2364 Snow 4 1013 75 10000 7.2 270 23:39 18.02.2020
2365 Rain 4 1012 80 10000 5.7 260 23:19 18.02.2020
2366 Rain 4 1012 80 10000 6.7 260 22:45 18.02.2020
2367 Rain 4 1012 86 10000 4.6 240 22:20 18.02.2020
2368 Rain 4 1011 86 10000 5.7 240 21:58 18.02.2020
2369 Rain 4 1011 86 10000 5.7 240 21:38 18.02.2020
2370 Rain 4 1011 86 10000 5.7 240 21:38 18.02.2020
2371 Rain 4 1011 86 10000 6.7 240 21:19 18.02.2020
2372 Rain 4 1011 93 10000 4.6 250 20:58 18.02.2020
2373 Rain 4 1011 93 10000 4.6 250 20:38 18.02.2020
2374 Rain 4 1011 93 10000 5.1 280 20:20 18.02.2020
2375 Rain 4 1011 93 10000 7.2 290 19:55 18.02.2020
2376 Rain 4 1010 75 10000 6.2 250 19:36 18.02.2020
2377 Rain 5 1010 75 10000 6.2 250 19:18 18.02.2020
2378 Rain 6 1010 81 10000 3.1 230 18:41 18.02.2020
2379 Rain 6 1010 81 10000 4.6 230 18:21 18.02.2020
2380 Clouds 6 1010 75 10000 6.2 240 17:57 18.02.2020
2381 Clouds 6 1010 75 10000 6.2 240 17:38 18.02.2020
2382 Rain 6 1010 81 10000 12.3 260 17:19 18.02.2020
2383 Rain 7 1010 75 10000 8.2 230 16:40 18.02.2020
2384 Rain 7 1010 75 10000 8.2 230 16:40 18.02.2020
2385 Rain 7 1010 75 10000 8.2 230 16:20 18.02.2020
2386 Rain 8 1010 75 10000 8.7 230 15:41 18.02.2020
2387 Rain 8 1011 66 10000 9.3 240 15:20 18.02.2020
2388 Rain 8 1011 66 10000 5.7 220 14:58 18.02.2020
2389 Rain 8 1012 66 10000 6.7 220 14:39 18.02.2020
2390 Rain 9 1012 66 10000 6.7 220 14:20 18.02.2020
2391 Clouds 9 1012 66 10000 5.7 220 13:56 18.02.2020
2392 Clouds 9 1012 66 10000 6.7 230 13:37 18.02.2020
2393 Clouds 9 1012 66 10000 6.7 230 13:37 18.02.2020
2394 Clouds 9 1012 66 10000 6.7 230 13:19 18.02.2020
2395 Clouds 8 1013 70 10000 8.2 230 12:42 18.02.2020
2396 Clouds 8 1012 75 10000 5.7 220 12:23 18.02.2020
2397 Clouds 8 1013 81 10000 4.6 210 11:55 18.02.2020
2398 Clouds 7 1013 81 10000 4.1 200 11:37 18.02.2020
2399 Clouds 7 1013 81 10000 4.1 200 11:37 18.02.2020
2400 Clouds 7 1013 81 10000 4.1 200 11:18 18.02.2020
2401 Rain 6 1013 81 10000 4.6 200 10:41 18.02.2020
2402 Rain 6 1013 80 10000 5.1 210 10:18 18.02.2020
2403 Clouds 6 1013 80 10000 4.1 200 09:56 18.02.2020
2404 Clouds 6 1013 80 10000 4.1 200 09:38 18.02.2020
2405 Rain 6 1013 75 10000 6.2 220 09:19 18.02.2020
2406 Rain 5 1013 75 10000 6.2 210 08:44 18.02.2020
2407 Clouds 5 1013 75 10000 4.6 210 08:21 18.02.2020
2408 Clouds 5 1013 80 10000 4.6 210 07:59 18.02.2020
2409 Clouds 5 1013 80 10000 4.6 210 07:41 18.02.2020
2410 Clouds 4 1013 80 10000 5.7 220 07:22 18.02.2020
2411 Clouds 4 1013 80 10000 5.7 230 06:43 18.02.2020
2412 Clouds 4 1013 80 10000 5.1 220 06:25 18.02.2020
2413 Clouds 4 1013 72 10000 4.6 220 05:47 18.02.2020
2414 Clouds 4 1013 71 10000 4.1 210 04:43 18.02.2020
2415 Clouds 4 1013 71 10000 6.2 230 03:36 18.02.2020
2416 Clouds 4 1013 71 10000 5.1 230 02:49 18.02.2020
2417 Clouds 4 1013 74 10000 3.1 210 01:23 18.02.2020
2418 Clouds 5 1012 65 10000 8.2 250 00:22 18.02.2020
2419 Clouds 5 1012 65 10000 8.2 250 00:22 18.02.2020
2420 Clouds 5 1011 65 10000 9.3 250 23:57 17.02.2020
2421 Clouds 5 1011 65 10000 9.3 250 23:38 17.02.2020
2422 Rain 5 1011 58 10000 7.2 240 23:19 17.02.2020
2423 Rain 5 1010 58 10000 5.7 220 22:41 17.02.2020
2424 -273 0 0 0 0 0 22:21 17.02.2020
2425 Clouds 5 1010 80 10000 5.1 220 21:59 17.02.2020
2426 Clouds 5 1010 80 10000 5.1 220 21:38 17.02.2020
2427 Clouds 5 1010 80 10000 5.7 230 21:18 17.02.2020
2428 Clouds 5 1010 80 10000 5.7 230 21:18 17.02.2020
2429 Snow 5 1009 80 10000 4.6 230 20:42 17.02.2020
2430 Clouds 5 1009 75 10000 6.7 240 20:21 17.02.2020
2431 Rain 5 1008 80 10000 6.7 230 19:58 17.02.2020
2432 Rain 5 1008 80 10000 6.7 230 19:40 17.02.2020
2433 Rain 6 1008 81 10000 4.1 250 19:20 17.02.2020
2434 Rain 6 1008 81 10000 5.1 250 18:38 17.02.2020
2435 Clouds 6 1007 75 10000 7.7 230 18:20 17.02.2020
2436 Clouds 7 1007 70 10000 8.7 240 17:58 17.02.2020
2437 Rain 7 1006 65 10000 7.7 260 17:38 17.02.2020
2438 Rain 7 1006 65 10000 7.7 260 17:38 17.02.2020
2439 Rain 7 1006 65 10000 7.7 260 17:19 17.02.2020
2440 Rain 8 1005 61 10000 8.7 250 16:55 17.02.2020
2441 Clouds 8 1005 61 10000 9.3 260 16:37 17.02.2020
2442 Clouds 8 1005 61 10000 9.3 260 16:18 17.02.2020
2443 Clouds 9 1004 61 10000 9.3 260 15:44 17.02.2020
2444 Clouds 9 1004 61 10000 9.3 260 15:44 17.02.2020
2445 Clouds 9 1004 66 10000 9.3 270 15:26 17.02.2020
2446 Clouds 9 1004 61 10000 9.8 260 14:47 17.02.2020
2447 Clouds 9 1003 61 10000 9.3 260 14:29 17.02.2020
2448 Clouds 9 1003 70 10000 7.2 250 13:59 17.02.2020
2449 Clouds 9 1003 70 10000 7.2 250 13:40 17.02.2020
2450 Clouds 9 1003 75 10000 5.7 230 13:20 17.02.2020
2451 Clouds 9 1002 81 10000 5.1 210 12:56 17.02.2020
2452 Clouds 9 1002 81 10000 5.7 210 12:37 17.02.2020
2453 Clouds 9 1002 81 10000 5.7 210 12:19 17.02.2020
2454 Clouds 8 1001 81 10000 5.1 200 11:43 17.02.2020
2455 Clouds 8 1001 87 10000 5.1 190 11:24 17.02.2020
2456 Clouds 7 1000 87 10000 4.6 200 10:56 17.02.2020
2457 Clouds 7 1000 87 10000 4.6 200 10:38 17.02.2020
2458 Clouds 6 1000 86 10000 5.1 210 10:19 17.02.2020
2459 Clouds 6 999 86 10000 5.7 210 09:55 17.02.2020
2460 Clouds 6 999 80 10000 5.1 200 09:36 17.02.2020
2461 Clouds 6 999 80 10000 5.1 200 09:18 17.02.2020
2462 Clouds 5 998 80 10000 5.7 200 08:41 17.02.2020
2463 Clouds 5 998 75 10000 5.7 210 08:23 17.02.2020
2464 Clouds 6 998 75 10000 5.7 210 07:57 17.02.2020
2465 Clouds 5 997 75 10000 7.7 210 07:26 17.02.2020
2466 Clouds 5 997 75 10000 6.2 210 06:56 17.02.2020
2467 Clouds 5 997 75 10000 5.7 210 06:36 17.02.2020
2468 Clouds 5 997 75 10000 7.7 210 05:59 17.02.2020
2469 Clouds 5 997 75 10000 7.7 210 05:38 17.02.2020
2470 Clouds 6 997 75 10000 7.7 210 03:53 17.02.2020
2471 Clouds 6 996 75 10000 8.7 220 02:19 17.02.2020
2472 Clouds 5 994 56 10000 6.7 220 00:59 17.02.2020
2473 Clouds 5 994 56 10000 8.7 220 00:25 17.02.2020
2474 Clouds 5 994 56 10000 9.8 230 23:56 16.02.2020
2475 Snow 5 993 75 10000 8.2 220 23:34 16.02.2020
2476 Snow 5 993 75 10000 7.2 220 22:59 16.02.2020
2477 Snow 5 993 75 10000 7.2 220 22:39 16.02.2020
2478 Snow 5 993 75 10000 7.2 220 22:39 16.02.2020
2479 Clouds 5 992 80 10000 6.7 210 22:21 16.02.2020
2480 Clouds 5 992 75 10000 5.7 210 21:59 16.02.2020
2481 Clouds 5 992 75 10000 5.7 210 21:41 16.02.2020
2482 Clouds 5 991 75 10000 6.7 220 21:23 16.02.2020
2483 Snow 5 991 75 10000 6.7 220 20:58 16.02.2020
2484 Snow 5 991 75 10000 6.7 220 20:40 16.02.2020
2485 Rain 5 990 80 10000 10.3 230 20:22 16.02.2020
2486 Rain 5 989 80 10000 12.9 230 19:58 16.02.2020
2487 Rain 5 989 80 10000 12.9 230 19:39 16.02.2020
2488 Thunderstorm 5 990 86 6000 14.4 250 19:19 16.02.2020
2489 Rain 6 988 70 10000 6.2 210 18:45 16.02.2020
2490 Rain 6 988 65 10000 7.2 220 18:26 16.02.2020
2491 Snow 7 988 61 10000 11.3 230 17:58 16.02.2020
2492 Snow 7 988 61 10000 11.3 230 17:40 16.02.2020
2493 Clouds 7 987 70 10000 9.3 230 17:19 16.02.2020
2494 Clouds 7 987 75 10000 6.2 210 16:56 16.02.2020
2495 Rain 7 987 75 10000 6.2 210 16:37 16.02.2020
2496 Rain 7 987 75 10000 6.2 210 16:19 16.02.2020
2497 Rain 7 986 70 10000 6.2 220 15:41 16.02.2020
2498 Rain 7 986 70 10000 6.7 210 15:22 16.02.2020
2499 Clouds 7 986 70 10000 7.2 220 14:55 16.02.2020
2500 Clouds 7 986 75 10000 6.7 210 14:36 16.02.2020
2501 Clouds 7 986 75 10000 6.7 210 14:18 16.02.2020
2502 Clouds 7 986 70 10000 5.1 220 13:41 16.02.2020
2503 Clouds 7 986 70 10000 5.1 220 13:23 16.02.2020
2504 Rain 8 986 75 10000 6.2 220 12:40 16.02.2020
2505 Clouds 7 986 81 10000 6.2 220 12:20 16.02.2020
2506 Rain 7 987 75 10000 5.7 220 11:54 16.02.2020
2507 Clouds 7 986 75 10000 6.7 220 11:36 16.02.2020
2508 Clouds 7 986 75 10000 6.7 220 11:18 16.02.2020
2509 Clouds 7 986 75 10000 7.7 230 10:55 16.02.2020
2510 Clouds 7 986 75 10000 7.7 230 10:55 16.02.2020
2511 Clouds 7 985 75 10000 10.3 230 10:37 16.02.2020
2512 Rain 7 985 75 10000 10.3 230 10:18 16.02.2020
2513 Rain 7 984 81 10000 5.1 210 09:39 16.02.2020
2514 Rain 7 984 81 10000 5.1 210 09:20 16.02.2020
2515 Rain 7 983 81 10000 7.2 210 08:57 16.02.2020
2516 Rain 7 983 81 10000 7.2 210 08:57 16.02.2020
2517 Rain 7 983 81 10000 7.2 210 08:39 16.02.2020
2518 Clouds 7 984 87 10000 7.2 200 08:19 16.02.2020
2519 Rain 7 984 81 10000 9.3 210 07:42 16.02.2020
2520 Rain 8 983 87 10000 9.3 220 06:58 16.02.2020
2521 Rain 8 983 87 10000 7.2 210 06:29 16.02.2020
2522 Rain 9 983 93 10000 5.1 210 04:37 16.02.2020
2523 Rain 9 984 93 7000 5.1 210 03:20 16.02.2020
2524 Rain 9 985 93 4400 5.1 210 01:58 16.02.2020
2525 Rain 9 985 93 4400 5.1 210 01:58 16.02.2020
2526 Rain 10 985 93 5000 4.1 200 01:38 16.02.2020
2527 Rain 10 985 93 5000 4.1 200 01:19 16.02.2020
2528 Rain 10 986 93 10000 4.1 200 00:41 16.02.2020
2529 Rain 10 986 93 6000 6.2 200 00:22 16.02.2020
2530 Rain 10 987 93 9000 4.6 210 23:43 15.02.2020
2531 Rain 10 988 87 9000 6.7 210 23:25 15.02.2020
2532 Rain 10 988 87 9000 6.7 210 23:25 15.02.2020
2533 Rain 10 988 81 10000 6.2 210 22:57 15.02.2020
2534 Rain 10 988 81 10000 6.2 210 22:57 15.02.2020
2535 Rain 10 988 81 10000 6.2 210 22:39 15.02.2020
2536 Rain 10 988 76 10000 9.8 230 22:19 15.02.2020
2537 Rain 11 986 81 10000 8.7 240 21:44 15.02.2020
2538 Rain 11 986 81 10000 8.7 240 21:24 15.02.2020
2539 Rain 11 986 81 10000 8.7 240 21:24 15.02.2020
2540 Rain 11 986 87 10000 9.8 250 20:58 15.02.2020
2541 Rain 11 985 93 4600 9.3 210 20:37 15.02.2020
2542 Rain 11 985 93 4600 9.3 210 20:19 15.02.2020
2543 Rain 12 984 87 10000 8.7 200 19:42 15.02.2020
2544 Rain 11 984 93 10000 8.2 200 19:22 15.02.2020
2545 Rain 11 984 93 10000 8.2 200 19:22 15.02.2020
2546 Drizzle 11 984 93 5000 7.7 190 18:42 15.02.2020
2547 Rain 11 985 93 4700 7.2 180 18:21 15.02.2020
2548 Rain 11 986 87 8000 6.7 190 17:57 15.02.2020
2549 Rain 11 987 81 10000 7.7 180 17:37 15.02.2020
2550 Rain 11 987 81 10000 7.7 180 17:19 15.02.2020
2551 Rain 11 988 81 10000 7.2 190 16:41 15.02.2020
2552 Rain 11 989 76 10000 8.2 190 16:23 15.02.2020
2553 Rain 11 991 76 10000 9.3 210 15:56 15.02.2020
2554 Rain 11 991 76 10000 9.3 210 15:38 15.02.2020
2555 Rain 11 991 81 10000 7.2 190 15:20 15.02.2020
2556 Clouds 11 992 81 10000 7.2 190 14:43 15.02.2020
2557 Rain 11 993 81 10000 6.7 180 14:19 15.02.2020
2558 Rain 11 994 87 10000 7.2 190 13:43 15.02.2020
2559 Rain 11 995 93 10000 6.2 180 13:25 15.02.2020
2560 Rain 11 996 93 7000 5.7 190 12:59 15.02.2020
2561 Rain 11 996 93 7000 5.7 190 12:40 15.02.2020
2562 Rain 11 996 93 9000 5.1 180 12:22 15.02.2020
2563 Rain 11 997 93 6000 5.7 180 11:47 15.02.2020
2564 Rain 11 997 93 6000 5.7 180 11:47 15.02.2020
2565 Rain 11 998 93 5000 5.1 180 11:27 15.02.2020
2566 Rain 10 998 93 8000 3.6 170 10:49 15.02.2020
2567 Rain 10 999 93 8000 4.1 170 10:30 15.02.2020
2568 Rain 10 1000 93 6000 3.6 170 09:57 15.02.2020
2569 Rain 9 1001 87 10000 4.1 170 09:38 15.02.2020
2570 Clouds 9 1001 87 10000 4.1 170 09:20 15.02.2020
2571 Clouds 9 1002 93 10000 3.6 170 08:43 15.02.2020
2572 Clouds 8 1003 87 10000 4.1 170 08:23 15.02.2020
2573 Clouds 8 1003 87 10000 3.1 170 07:50 15.02.2020
2574 Clouds 8 1004 87 10000 3.1 180 07:30 15.02.2020
2575 Clouds 7 1005 87 10000 2.6 180 06:47 15.02.2020
2576 Clouds 7 1005 93 10000 1.5 0 06:28 15.02.2020
2577 Clouds 6 1007 93 10000 1.5 0 05:31 15.02.2020
2578 Clouds 6 1008 87 10000 2.6 170 04:45 15.02.2020
2579 Clouds 6 1009 87 10000 2.1 180 03:24 15.02.2020
2580 Clouds 6 1010 87 10000 1.5 0 02:42 15.02.2020
2581 Clouds 6 1010 87 10000 1.5 0 02:42 15.02.2020
2582 Clouds 6 1010 87 10000 2.6 180 02:19 15.02.2020
2583 Clouds 6 1011 87 10000 1.5 170 01:38 15.02.2020
2584 Clouds 7 1011 87 10000 1.5 0 00:38 15.02.2020
2585 Clouds 7 1011 87 10000 2.6 190 00:18 15.02.2020
2586 Clouds 8 1011 87 10000 2.1 200 23:39 14.02.2020
2587 Clouds 8 1011 87 10000 1.5 0 23:19 14.02.2020
2588 Clouds 8 1011 87 10000 2.1 180 22:43 14.02.2020
2589 Clouds 8 1011 87 10000 3.1 200 22:23 14.02.2020
2590 Clouds 8 1012 87 10000 2.6 190 21:51 14.02.2020
2591 Clouds 8 1012 87 10000 2.6 190 21:51 14.02.2020
2592 Clouds 8 1012 87 10000 2.6 190 21:33 14.02.2020
2593 Clouds 8 1011 81 10000 3.1 200 20:58 14.02.2020
2594 Clouds 8 1011 81 10000 3.1 200 20:39 14.02.2020
2595 Rain 8 1011 81 10000 3.1 200 20:19 14.02.2020
2596 Rain 8 1011 81 10000 3.1 190 19:42 14.02.2020
2597 Rain 9 1011 81 10000 3.1 200 19:24 14.02.2020
2598 Clouds 9 1010 87 10000 2.6 190 18:59 14.02.2020
2599 Rain 9 1010 87 10000 2.6 190 18:40 14.02.2020
2600 Rain 9 1010 87 10000 3.6 190 18:21 14.02.2020
2601 Rain 9 1009 93 10000 4.1 190 17:56 14.02.2020
2602 Rain 9 1009 93 10000 3.6 180 17:38 14.02.2020
2603 Clouds 9 1009 93 10000 3.6 180 17:18 14.02.2020
2604 Rain 9 1010 93 10000 3.1 180 16:41 14.02.2020
2605 Rain 9 1010 93 8000 4.1 190 16:23 14.02.2020
2606 Drizzle 9 1010 93 4500 4.6 190 15:56 14.02.2020
2607 Drizzle 9 1010 93 4500 4.6 190 15:38 14.02.2020
2608 -273 0 0 0 0 0 15:38 14.02.2020
2609 Drizzle 9 1009 93 4000 5.7 190 15:20 14.02.2020
2610 Rain 9 1009 81 10000 4.6 180 14:59 14.02.2020
2611 Clouds 8 1009 81 10000 4.6 180 14:40 14.02.2020
2612 Clouds 8 1010 76 10000 5.1 180 14:22 14.02.2020
2613 Clouds 8 1010 81 10000 5.7 180 13:55 14.02.2020
2614 Clouds 8 1010 81 10000 5.7 180 13:55 14.02.2020
2615 Clouds 8 1011 81 10000 5.1 190 13:37 14.02.2020
2616 Clouds 8 1011 81 10000 5.1 190 13:19 14.02.2020
2617 Clouds 7 1011 87 10000 4.1 180 12:56 14.02.2020
2618 Clouds 7 1012 81 10000 3.6 170 12:38 14.02.2020
2619 Clouds 7 1011 87 10000 4.1 180 12:38 14.02.2020
2620 Clouds 6 1012 81 10000 3.6 170 12:19 14.02.2020
2621 Clouds 6 1012 81 10000 4.1 180 11:55 14.02.2020
2622 Clouds 5 1011 81 10000 3.6 160 11:36 14.02.2020
2623 Clouds 5 1011 81 10000 3.6 160 11:18 14.02.2020
2624 Clouds 5 1012 86 10000 4.6 180 10:41 14.02.2020
2625 Clouds 5 1012 86 10000 3.1 170 10:22 14.02.2020
2626 Clouds 4 1012 86 10000 2.6 160 09:44 14.02.2020
2627 Clouds 3 1012 86 10000 2.6 160 09:23 14.02.2020
2628 Clouds 3 1012 86 10000 2.6 160 09:23 14.02.2020
2629 Clouds 3 1012 86 10000 3.1 160 08:57 14.02.2020
2630 Clouds 3 1012 86 10000 3.1 160 08:38 14.02.2020
2631 Clouds 3 1012 93 10000 2.6 150 08:20 14.02.2020
2632 Clouds 3 1013 93 10000 2.1 170 07:49 14.02.2020
2633 Clouds 3 1013 93 10000 2.1 170 07:49 14.02.2020
2634 Clouds 3 1013 93 10000 2.6 160 07:29 14.02.2020
2635 Clouds 2 1013 93 10000 1.5 0 06:38 14.02.2020
2636 Clouds 2 1013 93 10000 1.5 0 06:18 14.02.2020
2637 Clouds 2 1013 100 7000 1.5 0 05:28 14.02.2020
2638 Mist 2 1012 89 4400 1.5 0 03:31 14.02.2020
2639 Clouds 2 1012 89 10000 1.5 160 02:52 14.02.2020
2640 Clouds 2 1012 86 10000 1.5 150 01:54 14.02.2020
2641 Clouds 2 1011 89 10000 1.5 170 00:44 14.02.2020
2642 Clouds 2 1011 89 10000 1.5 170 00:44 14.02.2020
2643 Clouds 2 1010 89 10000 1.5 170 00:25 14.02.2020
2644 Clouds 3 1010 93 10000 1.5 230 23:52 13.02.2020
2645 Clouds 3 1009 93 10000 0.5 0 23:23 13.02.2020
2646 Clouds 3 1008 93 10000 1.5 0 22:56 13.02.2020
2647 Clouds 4 1008 93 10000 2.1 310 22:38 13.02.2020
2648 Clouds 4 1008 93 10000 2.1 310 22:18 13.02.2020
2649 Clouds 5 1007 86 10000 2.1 290 21:42 13.02.2020
2650 Clouds 5 1006 93 10000 2.1 290 21:23 13.02.2020
2651 Clouds 5 1004 87 10000 1.5 0 20:58 13.02.2020
2652 Clouds 5 1004 87 10000 1.5 0 20:40 13.02.2020
2653 Clouds 5 1003 93 10000 3.1 300 20:22 13.02.2020
2654 Rain 5 1003 93 10000 3.6 290 19:56 13.02.2020
2655 Clouds 6 1001 87 10000 4.1 290 19:37 13.02.2020
2656 Clouds 6 1001 87 10000 4.1 290 19:37 13.02.2020
2657 Clouds 6 1001 87 10000 4.1 290 19:19 13.02.2020
2658 Clouds 6 1001 87 10000 4.1 270 18:45 13.02.2020
2659 Rain 6 999 81 10000 3.6 280 18:24 13.02.2020
2660 Rain 6 998 81 10000 4.6 290 17:59 13.02.2020
2661 Rain 7 998 81 10000 4.6 290 17:40 13.02.2020
2662 Rain 7 997 81 10000 5.1 290 17:21 13.02.2020
2663 Rain 7 995 75 10000 5.7 290 16:58 13.02.2020
2664 Rain 7 994 81 10000 4.1 320 16:38 13.02.2020
2665 Clouds 7 994 81 10000 4.1 320 16:19 13.02.2020
2666 Clouds 7 994 81 10000 4.1 320 16:19 13.02.2020
2667 Rain 7 994 87 10000 5.1 300 15:56 13.02.2020
2668 Clouds 7 993 87 10000 5.1 290 15:38 13.02.2020
2669 Clouds 7 992 87 10000 4.6 280 15:19 13.02.2020
2670 Clouds 7 992 87 10000 4.6 280 14:57 13.02.2020
2671 Clouds 7 992 87 10000 4.6 280 14:38 13.02.2020
2672 Clouds 7 991 81 10000 3.6 280 14:20 13.02.2020
2673 Clouds 7 990 87 10000 2.6 260 13:46 13.02.2020
2674 Clouds 7 990 87 10000 2.1 230 13:18 13.02.2020
2675 Clouds 7 990 87 10000 2.1 230 13:18 13.02.2020
2676 Clouds 7 990 87 10000 2.1 230 13:18 13.02.2020
2677 Rain 7 989 87 10000 1.5 0 12:56 13.02.2020
2678 Rain 7 988 93 10000 1.5 0 12:37 13.02.2020
2679 Rain 6 988 93 10000 1.5 0 12:19 13.02.2020
2680 Rain 6 988 87 10000 3.1 220 11:43 13.02.2020
2681 Rain 6 988 87 10000 3.1 220 11:43 13.02.2020
2682 Rain 6 988 87 10000 2.1 190 11:20 13.02.2020
2683 Rain 5 987 93 8000 3.1 180 10:46 13.02.2020
2684 Clouds 5 987 87 10000 2.6 180 10:27 13.02.2020
2685 Clouds 4 987 86 10000 2.1 170 09:55 13.02.2020
2686 Rain 4 987 86 10000 2.6 170 09:36 13.02.2020
2687 Rain 4 987 86 10000 2.6 170 09:18 13.02.2020
2688 Rain 4 987 86 10000 2.1 170 08:37 13.02.2020
2689 Rain 4 987 86 10000 2.1 170 08:19 13.02.2020
2690 Rain 4 988 86 10000 3.1 140 07:39 13.02.2020
2691 Rain 4 988 86 10000 3.1 140 07:20 13.02.2020
2692 Rain 4 989 86 10000 5.1 140 06:44 13.02.2020
2693 Rain 4 989 86 10000 5.7 140 06:20 13.02.2020
2694 Rain 4 991 86 10000 4.6 130 05:33 13.02.2020
2695 Rain 4 994 93 10000 4.1 130 04:26 13.02.2020
2696 Rain 4 996 86 7000 4.6 130 03:52 13.02.2020
2697 Rain 4 997 86 10000 5.1 130 03:24 13.02.2020
2698 Rain 4 999 86 10000 4.6 140 02:50 13.02.2020
2699 Rain 4 1001 80 10000 4.1 140 02:19 13.02.2020
2700 Clouds 4 1003 80 10000 3.6 140 01:32 13.02.2020
2701 Clouds 3 1004 80 10000 3.1 150 00:39 13.02.2020
2702 Clouds 3 1005 80 10000 3.1 140 00:21 13.02.2020
2703 Clouds 3 1007 94 10000 2.6 150 23:40 12.02.2020
2704 Clouds 3 1007 80 10000 2.6 150 23:21 12.02.2020
2705 Clouds 3 1007 80 10000 2.6 140 22:45 12.02.2020
2706 Clouds 3 1008 80 10000 2.1 150 22:25 12.02.2020
2707 Clouds 2 1009 74 10000 1 0 21:58 12.02.2020
2708 Clouds 3 1009 74 10000 1 0 21:40 12.02.2020
2709 Clouds 3 1009 74 10000 1.5 0 21:19 12.02.2020
2710 Clouds 3 1010 74 10000 2.1 180 20:56 12.02.2020
2711 Clouds 3 1010 74 10000 1 0 20:37 12.02.2020
2712 Clouds 3 1010 74 10000 1 0 20:19 12.02.2020
2713 Clouds 3 1010 69 10000 2.6 210 19:45 12.02.2020
2714 Clouds 3 1010 69 10000 3.1 230 19:24 12.02.2020
2715 Clouds 4 1011 69 10000 5.7 240 18:56 12.02.2020
2716 Clouds 4 1011 65 10000 5.1 240 18:37 12.02.2020
2717 Clouds 5 1011 65 10000 5.1 240 18:18 12.02.2020
2718 Clouds 6 1011 56 10000 4.6 260 17:42 12.02.2020
2719 Snow 6 1011 56 10000 4.6 260 17:20 12.02.2020
2720 Snow 6 1011 56 10000 4.6 260 17:20 12.02.2020
2721 Snow 6 1011 56 10000 6.2 250 16:58 12.02.2020
2722 Snow 6 1011 60 10000 5.7 250 16:38 12.02.2020
2723 Snow 6 1011 60 10000 5.7 250 16:19 12.02.2020
2724 Snow 6 1011 60 10000 5.7 250 16:19 12.02.2020
2725 Rain 6 1011 56 10000 8.7 260 15:41 12.02.2020
2726 Rain 6 1011 56 10000 8.7 260 15:20 12.02.2020
2727 Snow 6 1011 56 10000 9.3 250 14:57 12.02.2020
2728 Snow 6 1011 56 10000 9.3 250 14:39 12.02.2020
2729 Snow 6 1011 56 10000 9.3 250 14:39 12.02.2020
2730 Rain 6 1012 56 10000 9.3 260 14:19 12.02.2020
2731 Rain 6 1012 56 10000 9.3 260 13:56 12.02.2020
2732 Rain 6 1012 56 10000 9.3 260 13:56 12.02.2020
2733 Rain 6 1012 60 10000 9.8 260 13:37 12.02.2020
2734 Clouds 6 1012 60 10000 9.8 260 13:18 12.02.2020
2735 Rain 6 1012 60 10000 9.8 260 13:18 12.02.2020
2736 Clouds 6 1012 60 10000 10.3 260 12:55 12.02.2020
2737 Clouds 6 1011 57 10000 9.3 260 12:36 12.02.2020
2738 Clouds 6 1011 57 10000 9.3 260 12:18 12.02.2020
2739 Clouds 6 1011 57 10000 9.3 260 12:18 12.02.2020
2740 Rain 5 1011 57 10000 7.7 260 11:54 12.02.2020
2741 Rain 5 1011 57 10000 7.2 250 11:36 12.02.2020
2742 Rain 5 1011 67 10000 7.2 250 11:18 12.02.2020
2743 Rain 4 1011 67 10000 8.7 250 10:42 12.02.2020
2744 Rain 4 1010 67 10000 7.7 250 10:21 12.02.2020
2745 Rain 3 1010 67 10000 5.1 230 09:57 12.02.2020
2746 Rain 3 1010 67 10000 5.1 230 09:57 12.02.2020
2747 Rain 3 1010 67 10000 4.6 220 09:39 12.02.2020
2748 Rain 3 1010 67 10000 4.6 220 09:19 12.02.2020
2749 Rain 3 1010 67 10000 4.6 220 09:19 12.02.2020
2750 Rain 3 1009 67 10000 6.2 230 08:55 12.02.2020
2751 Rain 3 1009 74 10000 5.7 230 08:37 12.02.2020
2752 Rain 3 1009 74 10000 5.7 230 08:19 12.02.2020
2753 Rain 3 1009 80 10000 3.6 220 07:42 12.02.2020
2754 Rain 3 1009 74 10000 4.6 220 07:22 12.02.2020
2755 Rain 3 1008 74 10000 5.7 230 06:52 12.02.2020
2756 Snow 3 1008 74 10000 4.1 230 06:20 12.02.2020
2757 Snow 3 1008 74 10000 4.1 230 06:20 12.02.2020
2758 Clouds 4 1008 74 10000 4.6 230 05:35 12.02.2020
2759 Clouds 4 1008 69 10000 4.6 230 04:43 12.02.2020
2760 Snow 4 1008 64 10000 5.1 230 04:24 12.02.2020
2761 Rain 4 1007 64 10000 6.7 250 03:31 12.02.2020
2762 Rain 4 1007 64 10000 9.8 250 02:54 12.02.2020
2763 Clouds 4 1007 69 10000 8.7 250 02:27 12.02.2020
2764 Rain 4 1007 64 10000 10.3 250 01:34 12.02.2020
2765 Rain 4 1007 64 10000 10.8 250 00:41 12.02.2020
2766 Rain 4 1006 64 10000 9.8 250 00:23 12.02.2020
2767 Rain 4 1006 64 10000 10.8 250 23:51 11.02.2020
2768 Rain 4 1006 64 10000 10.3 250 23:33 11.02.2020
2769 Snow 4 1006 64 10000 9.3 250 22:58 11.02.2020
2770 Snow 4 1006 64 10000 8.2 260 22:40 11.02.2020
2771 Snow 4 1006 64 10000 8.2 260 22:20 11.02.2020
2772 Snow 4 1005 64 10000 8.2 250 21:57 11.02.2020
2773 Snow 4 1005 69 10000 8.7 240 21:38 11.02.2020
2774 Snow 4 1005 69 10000 8.7 240 21:18 11.02.2020
2775 Clouds 4 1005 64 10000 9.8 250 20:58 11.02.2020
2776 Clouds 4 1005 64 10000 9.8 260 20:38 11.02.2020
2777 Clouds 4 1005 64 10000 9.8 260 20:19 11.02.2020
2778 Clouds 4 1005 64 10000 9.8 260 19:56 11.02.2020
2779 Clouds 4 1004 64 10000 10.8 250 19:38 11.02.2020
2780 Clouds 4 1004 64 10000 10.8 250 19:20 11.02.2020
2781 Clouds 4 1004 60 10000 10.3 250 18:44 11.02.2020
2782 Clouds 4 1004 60 10000 10.3 250 18:25 11.02.2020
2783 Rain 5 1004 60 10000 12.3 260 17:56 11.02.2020
2784 Rain 5 1004 60 10000 12.3 260 17:56 11.02.2020
2785 Rain 5 1004 60 10000 12.3 260 17:38 11.02.2020
2786 Rain 5 1004 60 10000 12.3 260 17:18 11.02.2020
2787 Rain 5 1003 65 10000 13.4 260 16:58 11.02.2020
2788 Rain 5 1003 56 10000 13.9 260 16:38 11.02.2020
2789 Rain 5 1003 56 10000 13.9 260 16:20 11.02.2020
2790 Rain 5 1003 60 10000 13.9 260 15:47 11.02.2020
2791 Snow 5 1002 60 10000 12.3 260 15:29 11.02.2020
2792 Rain 5 1002 65 10000 11.8 260 14:58 11.02.2020
2793 Rain 5 1002 65 10000 11.8 260 14:39 11.02.2020
2794 Rain 5 1002 65 10000 13.4 260 14:19 11.02.2020
2795 Rain 4 1002 65 10000 12.3 260 13:42 11.02.2020
2796 Rain 5 1002 69 10000 11.3 260 13:22 11.02.2020
2797 Rain 4 1001 65 10000 14.4 250 12:59 11.02.2020
2798 Rain 4 1001 65 10000 14.4 250 12:40 11.02.2020
2799 Rain 4 1001 60 10000 12.3 250 12:21 11.02.2020
2800 Rain 4 1001 64 10000 11.8 250 11:55 11.02.2020
2801 Rain 4 1001 64 10000 11.8 250 11:55 11.02.2020
2802 Rain 4 1001 69 10000 10.8 250 11:37 11.02.2020
2803 Rain 4 1001 69 10000 10.8 250 11:37 11.02.2020
2804 Rain 4 1001 69 10000 10.8 250 11:18 11.02.2020
2805 Rain 4 1000 69 10000 11.3 260 10:39 11.02.2020
2806 Rain 4 1000 69 10000 11.3 260 10:20 11.02.2020
2807 Rain 3 1000 64 10000 10.8 250 09:57 11.02.2020
2808 Rain 3 1000 64 10000 10.8 250 09:39 11.02.2020
2809 Rain 3 1000 64 10000 10.8 250 09:20 11.02.2020
2810 Rain 4 999 64 10000 8.7 250 08:48 11.02.2020
2811 Snow 4 999 64 10000 11.3 260 08:24 11.02.2020
2812 Rain 4 999 69 10000 8.7 250 07:49 11.02.2020
2813 Rain 4 999 65 10000 10.3 250 07:28 11.02.2020
2814 Clouds 4 998 65 10000 10.8 250 06:55 11.02.2020
2815 Clouds 4 998 65 10000 11.3 260 06:37 11.02.2020
2816 Clouds 4 998 65 10000 11.3 260 06:19 11.02.2020
2817 Rain 4 997 65 10000 10.8 260 05:26 11.02.2020
2818 Rain 4 997 65 10000 11.8 250 04:53 11.02.2020
2819 Clouds 4 996 65 10000 11.8 250 03:26 11.02.2020
2820 Snow 5 996 60 10000 10.8 240 02:33 11.02.2020
2821 Rain 4 995 60 10000 11.3 250 01:39 11.02.2020
2822 Clouds 5 994 60 10000 10.3 240 00:50 11.02.2020
2823 Clouds 4 994 60 10000 10.8 250 00:22 11.02.2020
2824 Clouds 4 994 60 10000 11.3 240 23:40 10.02.2020
2825 Clouds 4 993 60 10000 9.3 240 23:20 10.02.2020
2826 Rain 4 993 64 10000 9.8 240 22:43 10.02.2020
2827 Rain 4 993 60 10000 10.3 250 22:21 10.02.2020
2828 Rain 4 993 64 10000 9.3 250 21:57 10.02.2020
2829 Rain 4 993 64 10000 9.3 250 21:39 10.02.2020
2830 Rain 4 993 69 10000 9.8 250 21:21 10.02.2020
2831 Rain 4 992 64 10000 11.8 250 20:54 10.02.2020
2832 Rain 4 992 69 10000 8.7 250 20:36 10.02.2020
2833 Rain 4 992 69 10000 8.7 250 20:18 10.02.2020
2834 Rain 4 991 74 10000 8.7 240 19:56 10.02.2020
2835 Rain 4 991 56 10000 8.2 240 19:36 10.02.2020
2836 Rain 4 991 56 10000 8.2 240 19:36 10.02.2020
2837 Rain 4 991 56 10000 8.2 240 19:18 10.02.2020
2838 Rain 3 991 56 10000 8.7 250 18:41 10.02.2020
2839 Rain 3 991 56 10000 8.7 250 18:22 10.02.2020
2840 Thunderstorm 3 990 80 10000 6.2 220 17:59 10.02.2020
2841 Rain 4 991 80 10000 6.2 220 17:39 10.02.2020
2842 Clouds 4 991 80 10000 6.2 220 17:21 10.02.2020
2843 Clouds 4 991 80 10000 6.2 220 16:59 10.02.2020
2844 Clouds 4 991 80 10000 6.2 220 16:40 10.02.2020
2845 Clouds 5 990 86 10000 4.6 200 16:20 10.02.2020
2846 Clouds 4 990 95 10000 4.6 210 15:58 10.02.2020
2847 Clouds 4 990 95 10000 4.6 210 15:39 10.02.2020
2848 Clouds 4 991 95 10000 7.2 220 15:20 10.02.2020
2849 Snow 4 991 69 10000 8.7 230 14:56 10.02.2020
2850 Snow 4 992 69 10000 11.8 240 14:38 10.02.2020
2851 Snow 5 992 69 10000 11.8 240 14:18 10.02.2020
2852 Snow 5 991 56 10000 10.8 230 13:43 10.02.2020
2853 Rain 6 992 54 10000 9.3 230 13:24 10.02.2020
2854 Rain 6 993 50 10000 10.3 230 12:56 10.02.2020
2855 Rain 7 993 50 10000 7.2 240 12:37 10.02.2020
2856 Snow 7 993 50 10000 7.2 240 12:19 10.02.2020
2857 Clouds 6 993 70 10000 7.7 230 11:45 10.02.2020
2858 Clouds 6 993 55 10000 8.2 240 11:21 10.02.2020
2859 Clouds 5 993 55 10000 8.7 240 10:48 10.02.2020
2860 Snow 5 993 65 10000 9.8 250 10:29 10.02.2020
2861 Snow 5 993 65 10000 8.7 250 09:48 10.02.2020
2862 Snow 5 993 65 10000 10.8 250 09:27 10.02.2020
2863 Snow 5 992 65 10000 10.3 250 08:59 10.02.2020
2864 Rain 5 992 65 10000 10.3 250 08:59 10.02.2020
2865 Rain 5 992 65 10000 12.3 250 08:38 10.02.2020
2866 Rain 5 992 65 10000 12.3 250 08:19 10.02.2020
2867 Rain 5 992 55 10000 10.3 250 07:51 10.02.2020
2868 Rain 5 991 55 10000 10.3 250 07:32 10.02.2020
2869 Snow 5 990 70 10000 10.3 250 06:30 10.02.2020
2870 Snow 5 988 70 10000 10.8 270 04:47 10.02.2020
2871 Rain 6 986 75 10000 12.3 260 03:52 10.02.2020
2872 Rain 6 984 75 10000 10.8 260 02:56 10.02.2020
2873 Rain 6 983 75 10000 10.8 260 01:59 10.02.2020
2874 Rain 7 982 81 10000 9.8 250 00:55 10.02.2020
2875 Clouds 7 981 70 10000 9.8 260 00:36 10.02.2020
2876 Rain 7 981 70 10000 10.3 260 23:58 09.02.2020
2877 Rain 7 981 70 10000 10.3 260 23:58 09.02.2020
2878 Rain 7 981 70 10000 10.3 260 23:39 09.02.2020
2879 Rain 8 980 75 10000 9.3 250 23:21 09.02.2020
2880 Rain 8 980 81 9000 8.7 240 22:41 09.02.2020
2881 Rain 8 980 81 10000 9.3 230 22:21 09.02.2020
2882 Rain 8 979 81 10000 7.7 230 21:45 09.02.2020
2883 Rain 8 979 76 10000 8.7 240 21:25 09.02.2020
2884 Clouds 8 979 76 10000 9.3 240 20:58 09.02.2020
2885 Clouds 8 979 76 10000 9.3 240 20:40 09.02.2020
2886 Rain 8 978 70 10000 10.3 260 20:18 09.02.2020
2887 Rain 9 977 76 10000 9.3 240 19:40 09.02.2020
2888 Clouds 9 977 81 10000 10.3 240 19:21 09.02.2020
2889 Rain 8 977 87 10000 6.7 250 18:57 09.02.2020
2890 Rain 8 977 87 10000 6.7 250 18:39 09.02.2020
2891 Thunderstorm 9 976 76 10000 10.8 240 18:21 09.02.2020
2892 Rain 9 976 71 10000 9.3 230 17:42 09.02.2020
2893 Clouds 10 976 71 10000 11.8 230 17:23 09.02.2020
2894 Rain 11 976 66 10000 13.4 240 16:56 09.02.2020
2895 Rain 11 976 66 10000 13.4 240 16:56 09.02.2020
2896 Clouds 11 975 66 10000 12.3 230 16:37 09.02.2020
2897 Clouds 11 975 66 10000 12.3 230 16:18 09.02.2020
2898 Clouds 11 976 76 10000 11.8 230 15:54 09.02.2020
2899 Rain 11 976 76 10000 9.8 220 15:36 09.02.2020
2900 Rain 10 976 76 10000 9.8 220 15:18 09.02.2020
2901 Rain 10 976 76 8000 10.3 230 14:41 09.02.2020
2902 Rain 10 976 76 10000 11.8 230 14:23 09.02.2020
2903 Rain 10 976 81 10000 13.9 240 13:47 09.02.2020
2904 Rain 9 977 100 7000 12.3 260 13:28 09.02.2020
2905 Thunderstorm 9 978 87 10000 18 280 12:57 09.02.2020
2906 Thunderstorm 10 978 87 10000 18 280 12:39 09.02.2020
2907 Rain 10 976 93 10000 10.8 210 12:19 09.02.2020
2908 Rain 10 976 93 10000 10.8 210 12:19 09.02.2020
2909 Rain 10 976 93 10000 10.8 210 12:19 09.02.2020
2910 Rain 11 977 87 10000 11.3 220 11:42 09.02.2020
2911 Rain 12 977 87 9000 10.8 210 11:22 09.02.2020
2912 Rain 12 977 87 10000 11.8 210 10:59 09.02.2020
2913 Rain 11 977 87 10000 11.8 210 10:41 09.02.2020
2914 -273 0 0 0 0 0 10:21 09.02.2020
2915 Rain 11 979 87 10000 11.3 210 09:46 09.02.2020
2916 Rain 11 980 87 8000 10.3 210 09:27 09.02.2020
2917 Rain 11 980 81 10000 9.3 190 08:46 09.02.2020
2918 Rain 11 982 87 10000 8.7 190 08:28 09.02.2020
2919 Rain 11 983 87 10000 7.2 190 07:59 09.02.2020
2920 Rain 11 983 87 10000 7.2 190 07:41 09.02.2020
2921 Rain 10 988 87 5000 8.2 200 06:48 09.02.2020
2922 Rain 10 988 81 10000 7.2 200 06:28 09.02.2020
2923 Rain 10 989 81 10000 6.2 190 05:43 09.02.2020
2924 Rain 10 991 87 10000 6.7 190 05:18 09.02.2020
2925 Rain 9 993 93 10000 6.7 180 03:52 09.02.2020
2926 Rain 8 994 87 10000 7.7 190 02:45 09.02.2020
2927 Rain 8 995 87 9000 7.2 180 02:26 09.02.2020
2928 Rain 7 997 87 7000 6.7 180 01:35 09.02.2020
2929 Rain 7 999 87 8000 6.7 180 00:44 09.02.2020
2930 Rain 8 1000 87 10000 6.7 180 00:24 09.02.2020
2931 Rain 8 1001 81 10000 7.2 180 23:43 08.02.2020
2932 Rain 8 1002 81 10000 6.2 180 23:21 08.02.2020
2933 Clouds 8 1002 81 10000 6.2 180 22:43 08.02.2020
2934 Clouds 8 1003 81 10000 6.2 180 22:22 08.02.2020
2935 Clouds 8 1003 81 10000 6.2 180 22:22 08.02.2020
2936 Rain 8 1004 81 10000 5.1 180 21:59 08.02.2020
2937 Rain 8 1004 81 10000 5.1 180 21:40 08.02.2020
2938 Rain 8 1005 81 10000 5.7 180 21:21 08.02.2020
2939 Rain 8 1005 75 10000 5.7 180 20:57 08.02.2020
2940 Rain 8 1006 75 10000 5.1 180 20:38 08.02.2020
2941 Rain 8 1006 75 10000 5.1 180 20:19 08.02.2020
2942 Clouds 8 1006 70 10000 4.6 190 19:55 08.02.2020
2943 Rain 8 1007 70 10000 5.7 190 19:36 08.02.2020
2944 Rain 8 1007 70 10000 5.7 190 19:18 08.02.2020
2945 Rain 8 1007 70 10000 7.2 190 18:43 08.02.2020
2946 Clouds 8 1008 66 10000 6.2 190 18:23 08.02.2020
2947 Clouds 9 1008 66 10000 5.7 190 17:44 08.02.2020
2948 Clouds 9 1008 66 10000 6.2 190 17:21 08.02.2020
2949 Clouds 9 1009 61 10000 5.7 200 16:59 08.02.2020
2950 Clouds 9 1009 61 10000 5.7 200 16:39 08.02.2020
2951 Clouds 9 1009 61 10000 5.1 190 16:21 08.02.2020
2952 Clouds 9 1010 61 10000 6.2 200 15:43 08.02.2020
2953 Clouds 9 1010 61 10000 5.1 190 15:19 08.02.2020
2954 Clouds 9 1010 66 10000 5.7 190 14:59 08.02.2020
2955 Clouds 9 1010 66 10000 5.7 190 14:59 08.02.2020
2956 Clouds 9 1010 66 10000 5.7 190 14:39 08.02.2020
2957 Clouds 9 1011 66 10000 5.1 200 14:19 08.02.2020
2958 Clouds 9 1011 70 10000 4.6 190 13:43 08.02.2020
2959 Clouds 9 1012 70 10000 5.7 200 13:23 08.02.2020
2960 Clouds 8 1012 75 10000 5.1 200 12:57 08.02.2020
2961 Clouds 8 1012 75 10000 4.6 180 12:37 08.02.2020
2962 Clouds 7 1012 75 10000 4.6 180 12:19 08.02.2020
2963 Clouds 7 1012 75 10000 4.6 180 12:19 08.02.2020
2964 Clouds 7 1012 81 10000 4.1 190 11:43 08.02.2020
2965 Clouds 6 1012 80 10000 3.6 170 11:21 08.02.2020
2966 Clouds 5 1012 80 10000 2.1 170 10:55 08.02.2020
2967 Clouds 5 1012 80 10000 2.1 170 10:37 08.02.2020
2968 Clouds 5 1012 80 10000 2.1 170 10:19 08.02.2020
2969 Clouds 5 1012 80 10000 3.1 190 09:46 08.02.2020
2970 Clouds 5 1011 86 10000 2.6 190 09:23 08.02.2020
2971 Clouds 5 1011 80 10000 3.1 190 08:40 08.02.2020
2972 Clouds 5 1010 80 10000 2.6 190 08:22 08.02.2020
2973 Rain 5 1010 75 10000 2.1 200 07:51 08.02.2020
2974 Rain 5 1010 80 10000 4.1 220 07:32 08.02.2020
2975 Clouds 6 1009 75 10000 4.6 220 06:41 08.02.2020
2976 Clouds 6 1009 81 10000 4.1 210 06:18 08.02.2020
2977 Clouds 7 1008 75 10000 5.7 220 05:33 08.02.2020
2978 Clouds 7 1007 70 10000 5.1 220 04:53 08.02.2020
2979 Rain 8 1007 81 10000 5.7 220 04:18 08.02.2020
2980 Rain 8 1006 87 10000 4.1 190 03:35 08.02.2020
2981 Rain 9 1005 87 10000 4.6 190 02:28 08.02.2020
2982 Rain 9 1005 87 10000 4.6 190 02:28 08.02.2020
2983 Clouds 9 1005 81 10000 4.1 170 01:29 08.02.2020
2984 Clouds 9 1006 87 10000 3.6 170 00:46 08.02.2020
2985 Clouds 9 1006 87 10000 3.6 170 00:25 08.02.2020
2986 Clouds 8 1006 81 10000 3.1 160 23:57 07.02.2020
2987 Clouds 8 1006 81 10000 3.1 160 23:38 07.02.2020
2988 Clouds 8 1007 87 10000 3.6 140 23:19 07.02.2020
2989 Clouds 8 1007 81 10000 4.1 160 22:41 07.02.2020
2990 Clouds 8 1008 81 10000 3.1 160 22:19 07.02.2020
2991 Clouds 7 1008 81 10000 3.6 160 21:45 07.02.2020
2992 Clouds 7 1008 75 10000 3.6 170 21:23 07.02.2020
2993 Clouds 7 1009 75 10000 3.6 160 20:59 07.02.2020
2994 Clouds 7 1009 75 10000 3.6 160 20:39 07.02.2020
2995 Clouds 7 1009 75 10000 3.6 160 20:39 07.02.2020
2996 Clouds 7 1009 70 10000 3.1 160 20:18 07.02.2020
2997 Clouds 7 1009 70 10000 3.1 0 19:43 07.02.2020
2998 Clouds 7 1010 75 10000 3.1 150 19:22 07.02.2020
2999 Clouds 7 1010 75 10000 2.6 150 18:59 07.02.2020
3000 Clouds 7 1010 75 10000 2.6 150 18:59 07.02.2020
3001 Clouds 7 1010 75 10000 2.6 150 18:41 07.02.2020
3002 Clouds 7 1010 70 10000 2.1 160 18:22 07.02.2020
3003 Clouds 6 1011 70 10000 2.6 160 17:43 07.02.2020
3004 Clouds 7 1011 70 10000 3.1 0 17:22 07.02.2020
3005 Clouds 7 1011 70 10000 3.1 0 17:22 07.02.2020
3006 Clouds 7 1011 65 10000 3.1 0 16:57 07.02.2020
3007 Clouds 7 1012 70 10000 4.6 0 16:39 07.02.2020
3008 Clouds 7 1012 70 10000 4.6 0 16:20 07.02.2020
3009 Clouds 7 1012 65 10000 4.1 160 15:49 07.02.2020
3010 Clouds 7 1012 65 10000 4.6 140 15:27 07.02.2020
3011 Clouds 7 1013 61 10000 4.6 150 14:46 07.02.2020
3012 Clouds 7 1014 56 10000 3.1 150 14:27 07.02.2020
3013 Clear 6 1014 52 10000 3.1 150 13:59 07.02.2020
3014 Clear 6 1015 56 10000 2.1 140 13:40 07.02.2020
3015 Clear 5 1015 56 10000 2.1 140 13:21 07.02.2020
3016 Clear 5 1016 60 10000 3.1 140 12:56 07.02.2020
3017 Clear 5 1016 60 10000 3.1 140 12:38 07.02.2020
3018 Clear 5 1016 60 10000 3.1 140 12:38 07.02.2020
3019 Clear 4 1017 65 10000 2.6 140 12:20 07.02.2020
3020 Clear 4 1017 60 10000 2.6 160 11:42 07.02.2020
3021 Clear 3 1018 60 10000 1.5 0 11:21 07.02.2020
3022 Clear 2 1018 64 10000 2.1 130 10:42 07.02.2020
3023 Clear 2 1019 74 10000 2.1 140 10:24 07.02.2020
3024 Clear 1 1019 82 10000 1 0 09:58 07.02.2020
3025 Clear 1 1019 82 7000 1 0 09:38 07.02.2020
3026 Clear 1 1019 82 7000 1 0 09:19 07.02.2020
3027 Rain 1 1020 93 8000 1 0 08:43 07.02.2020
3028 Rain 1 1020 93 8000 2.1 130 08:21 07.02.2020
3029 Clear 1 1021 93 6000 2.6 130 07:46 07.02.2020
3030 Clear 1 1021 93 7000 1.5 0 07:28 07.02.2020
3031 Clear 1 1021 85 10000 1 0 06:47 07.02.2020
3032 Clear 1 1022 85 9000 2.1 270 06:26 07.02.2020
3033 Clear 1 1022 86 10000 1.5 80 05:56 07.02.2020
3034 Clear 1 1023 86 10000 1 0 04:43 07.02.2020
3035 Clear 2 1025 86 10000 2.1 90 02:51 07.02.2020
3036 Clear 2 1026 86 10000 1.5 110 01:51 07.02.2020
3037 Clear 2 1026 86 10000 2.1 130 00:48 07.02.2020
3038 Clear 2 1026 80 6000 1.5 150 00:21 07.02.2020
3039 Clear 2 1027 80 8000 1 130 23:37 06.02.2020
3040 Clear 2 1027 78 8000 1 130 23:19 06.02.2020
3041 Clear 3 1027 93 10000 1.5 120 22:44 06.02.2020
3042 Clear 3 1027 86 10000 1 100 22:25 06.02.2020
3043 Clear 3 1027 93 10000 1.5 100 21:38 06.02.2020
3044 Clear 3 1028 86 10000 1.5 110 21:20 06.02.2020
3045 Clear 3 1028 86 10000 1.5 110 20:58 06.02.2020
3046 Clear 3 1028 86 10000 1.5 110 20:39 06.02.2020
3047 Clear 4 1028 86 10000 1.5 110 20:19 06.02.2020
3048 Clear 4 1028 80 10000 1 130 19:59 06.02.2020
3049 Clear 4 1028 80 10000 1 130 19:41 06.02.2020
3050 Clear 4 1028 75 10000 0.5 140 19:22 06.02.2020
3051 Clear 5 1028 75 10000 0.5 160 18:58 06.02.2020
3052 Clear 5 1028 70 10000 0.5 180 18:40 06.02.2020
3053 Clear 6 1028 70 10000 0.5 180 18:20 06.02.2020
3054 Clear 7 1029 65 10000 1 0 17:44 06.02.2020
3055 Clear 7 1029 65 10000 1 0 17:44 06.02.2020
3056 Clear 8 1029 70 10000 1.5 0 17:21 06.02.2020
3057 Clear 8 1029 66 10000 1.5 0 16:59 06.02.2020
3058 Clear 8 1029 66 10000 1.5 0 16:40 06.02.2020
3059 Clear 9 1029 66 10000 1.5 0 16:22 06.02.2020
3060 Clear 9 1029 70 10000 1 0 15:42 06.02.2020
3061 Clear 8 1029 70 10000 1.5 0 15:22 06.02.2020
3062 Clear 8 1030 75 10000 1 0 14:49 06.02.2020
3063 Clear 8 1030 75 10000 0.5 0 14:27 06.02.2020
3064 Clear 8 1030 75 10000 1 0 13:55 06.02.2020
3065 Clear 7 1031 81 10000 1 0 13:37 06.02.2020
3066 Clear 7 1031 81 10000 1 0 13:19 06.02.2020
3067 Clear 6 1031 80 10000 1.5 0 12:43 06.02.2020
3068 Clear 6 1031 86 10000 1 0 12:43 06.02.2020
3069 Clear 5 1031 86 10000 1 0 12:18 06.02.2020
3070 Clear 5 1031 93 10000 0.5 0 11:56 06.02.2020
3071 Clear 4 1031 93 10000 1 0 11:37 06.02.2020
3072 Clear 4 1031 93 10000 1 0 11:18 06.02.2020
3073 Clear 3 1031 93 10000 1 0 11:18 06.02.2020
3074 Clear 3 1031 93 10000 1 100 10:54 06.02.2020
3075 Clear 2 1031 87 8000 1.5 120 10:36 06.02.2020
3076 Clear 1 1031 87 8000 1.5 120 10:18 06.02.2020
3077 Snow 0 1031 100 6000 1.5 100 09:42 06.02.2020
3078 Snow 0 1031 92 6000 1.5 120 09:20 06.02.2020
3079 Clear 0 1031 87 7000 1 0 08:47 06.02.2020
3080 Clouds 0 1031 85 8000 1 0 08:25 06.02.2020
3081 Clouds 0 1031 100 10000 1 130 07:57 06.02.2020
3082 Mist 0 1031 85 3300 0.5 0 07:33 06.02.2020
3083 Clouds 1 1032 85 10000 1 0 06:54 06.02.2020
3084 Clouds 0 1032 85 10000 1 0 06:19 06.02.2020
3085 Clouds 1 1032 85 10000 1.5 0 05:40 06.02.2020
3086 Clouds 1 1032 87 10000 1.5 160 04:18 06.02.2020
3087 Clouds 1 1033 87 10000 1 0 03:18 06.02.2020
3088 Clouds 1 1033 87 10000 1 0 03:18 06.02.2020
3089 Clouds 1 1033 89 10000 1.5 130 01:57 06.02.2020
3090 Clouds 2 1033 90 10000 1.5 0 01:24 06.02.2020
3091 Clouds 2 1034 90 10000 1.5 170 00:38 06.02.2020
3092 Clouds 2 1034 90 10000 1.5 170 00:19 06.02.2020
3093 Clouds 2 1034 93 10000 1.5 170 23:40 05.02.2020
3094 Clouds 2 1034 93 10000 1.5 170 23:22 05.02.2020
3095 Clouds 3 1034 86 10000 1 0 22:41 05.02.2020
3096 Clouds 3 1034 93 10000 1.5 150 22:23 05.02.2020
3097 Clouds 3 1034 93 10000 1 130 21:58 05.02.2020
3098 Clouds 3 1034 93 10000 1 130 21:40 05.02.2020
3099 Clouds 3 1034 93 10000 1.5 150 21:22 05.02.2020
3100 Clouds 4 1034 93 10000 1.5 150 20:54 05.02.2020
3101 Clouds 4 1034 86 10000 1 130 20:36 05.02.2020
3102 Clouds 4 1034 86 10000 1 130 20:18 05.02.2020
3103 Clouds 4 1034 86 10000 1 0 19:54 05.02.2020
3104 Clouds 4 1034 86 10000 1 190 19:36 05.02.2020
3105 Clouds 5 1034 86 10000 1 190 19:18 05.02.2020
3106 Clouds 5 1034 81 10000 1 210 18:42 05.02.2020
3107 Clouds 6 1034 81 10000 1 190 18:19 05.02.2020
3108 Clouds 6 1034 81 10000 1 190 18:19 05.02.2020
3109 Clouds 7 1035 75 10000 1.5 250 17:40 05.02.2020
3110 Clouds 7 1035 75 10000 2.1 240 17:20 05.02.2020
3111 Clouds 7 1035 75 10000 2.1 240 16:58 05.02.2020
3112 Clouds 8 1035 70 10000 3.1 250 16:40 05.02.2020
3113 Clouds 8 1035 70 10000 3.1 250 16:40 05.02.2020
3114 Clouds 8 1035 70 10000 3.1 250 16:22 05.02.2020
3115 Clouds 8 1036 75 10000 2.6 270 15:47 05.02.2020
3116 Clouds 8 1036 75 10000 2.6 270 15:20 05.02.2020
3117 Clouds 8 1036 75 10000 2.1 250 14:59 05.02.2020
3118 Clouds 8 1036 75 10000 2.1 250 14:41 05.02.2020
3119 Clouds 8 1036 87 10000 1 0 14:41 05.02.2020
3120 Clouds 8 1036 87 10000 1 0 14:21 05.02.2020
3121 Clouds 7 1037 100 10000 1.5 240 13:43 05.02.2020
3122 Clouds 7 1037 87 10000 2.1 250 13:43 05.02.2020
3123 Clouds 7 1037 100 10000 1.5 240 13:23 05.02.2020
3124 Clouds 7 1038 100 10000 1.5 0 12:59 05.02.2020
3125 Clouds 7 1038 93 8000 1 0 12:37 05.02.2020
3126 Clouds 6 1038 93 8000 1 0 12:18 05.02.2020
3127 Clouds 6 1037 100 6000 1.5 0 11:41 05.02.2020
3128 Mist 5 1037 93 1500 1.5 0 11:22 05.02.2020
3129 Fog 4 1037 93 450 1.5 0 10:57 05.02.2020
3130 Fog 3 1037 100 350 1 0 10:39 05.02.2020
3131 Fog 3 1037 100 350 1 0 10:39 05.02.2020
3132 Fog 3 1037 100 350 1 0 10:18 05.02.2020
3133 Fog 2 1036 100 200 1 0 09:39 05.02.2020
3134 Fog 2 1036 100 200 1 0 09:21 05.02.2020
3135 Fog 2 1036 100 150 0.5 0 08:48 05.02.2020
3136 Fog 2 1036 100 450 1.5 170 08:25 05.02.2020
3137 Mist 3 1036 100 1100 1 0 07:57 05.02.2020
3138 Mist 3 1036 93 5000 1.5 0 07:37 05.02.2020
3139 Mist 3 1036 93 5000 1 0 06:58 05.02.2020
3140 Mist 3 1036 93 5000 1 0 06:39 05.02.2020
3141 Clouds 3 1036 93 10000 2.1 270 06:19 05.02.2020
3142 Clouds 4 1036 93 10000 2.1 280 05:20 05.02.2020
3143 Clouds 4 1036 93 10000 0.5 0 04:54 05.02.2020
3144 Clouds 4 1035 100 10000 1 210 03:57 05.02.2020
3145 Clouds 4 1035 93 10000 0.5 0 02:31 05.02.2020
3146 Clouds 4 1035 93 10000 1 0 01:55 05.02.2020
3147 Clouds 5 1034 93 10000 1.5 240 00:53 05.02.2020
3148 Clouds 5 1033 93 10000 1 0 23:58 04.02.2020
3149 Clear 6 1033 87 10000 1.5 300 23:39 04.02.2020
3150 Clear 6 1033 87 10000 1.5 300 23:18 04.02.2020
3151 Clouds 6 1033 93 10000 3.1 290 22:56 04.02.2020
3152 Clouds 6 1032 93 10000 2.6 280 22:38 04.02.2020
3153 Clouds 6 1032 93 10000 2.6 280 22:19 04.02.2020
3154 Clouds 6 1032 87 10000 3.6 280 21:54 04.02.2020
3155 Clouds 6 1032 87 10000 3.6 280 21:54 04.02.2020
3156 Clouds 6 1032 87 10000 2.6 280 21:36 04.02.2020
3157 Clouds 6 1032 87 10000 2.6 280 21:18 04.02.2020
3158 Clouds 7 1030 87 10000 3.6 270 20:42 04.02.2020
3159 Clouds 7 1030 87 10000 3.6 270 20:21 04.02.2020
3160 Clouds 7 1030 87 10000 3.6 270 19:57 04.02.2020
3161 Clouds 7 1029 87 10000 4.1 260 19:39 04.02.2020
3162 Clouds 7 1029 87 10000 4.1 260 19:21 04.02.2020
3163 Clouds 7 1029 81 10000 4.1 290 18:55 04.02.2020
3164 Clouds 7 1028 81 10000 5.1 310 18:36 04.02.2020
3165 Clouds 7 1028 81 10000 5.1 310 18:36 04.02.2020
3166 Clouds 8 1028 81 10000 5.1 310 18:18 04.02.2020
3167 Clouds 8 1028 76 10000 5.7 310 17:42 04.02.2020
3168 Clouds 8 1027 81 10000 6.2 300 17:21 04.02.2020
3169 Rain 9 1026 81 10000 6.7 310 16:55 04.02.2020
3170 Clouds 9 1025 81 10000 7.2 300 16:36 04.02.2020
3171 Clouds 9 1025 81 10000 7.2 300 16:36 04.02.2020
3172 Clouds 9 1025 81 10000 7.2 300 16:18 04.02.2020
3173 Clouds 9 1025 81 10000 6.7 300 15:55 04.02.2020
3174 Rain 9 1024 81 10000 6.7 300 15:37 04.02.2020
3175 Rain 9 1024 81 10000 6.7 300 15:18 04.02.2020
3176 Clouds 9 1023 81 10000 8.7 300 14:41 04.02.2020
3177 Clouds 8 1023 81 10000 8.7 300 14:21 04.02.2020
3178 Clouds 8 1022 87 10000 8.2 300 13:56 04.02.2020
3179 Clouds 8 1022 87 10000 7.7 290 13:38 04.02.2020
3180 Clouds 8 1022 87 10000 7.7 290 13:18 04.02.2020
3181 Rain 8 1021 93 10000 7.2 290 12:43 04.02.2020
3182 -273 0 0 0 0 0 12:24 04.02.2020
3183 Drizzle 7 1020 93 4900 6.2 280 11:57 04.02.2020
3184 Drizzle 7 1019 93 4300 7.7 280 11:38 04.02.2020
3185 Drizzle 6 1019 93 4300 7.7 280 11:19 04.02.2020
3186 Drizzle 6 1019 93 5000 7.7 280 10:49 04.02.2020
3187 Rain 6 1017 81 9000 9.3 290 10:26 04.02.2020
3188 Rain 5 1016 70 10000 10.3 290 09:58 04.02.2020
3189 Clouds 5 1016 70 10000 10.3 280 09:39 04.02.2020
3190 Clouds 5 1016 70 10000 10.3 280 09:21 04.02.2020
3191 Clouds 6 1015 70 10000 9.3 280 08:46 04.02.2020
3192 Clouds 5 1015 70 10000 9.3 280 08:27 04.02.2020
3193 Clouds 5 1014 65 10000 11.8 280 07:53 04.02.2020
3194 Clouds 5 1013 70 10000 9.3 280 07:25 04.02.2020
3195 Clouds 5 1013 75 10000 8.2 270 06:58 04.02.2020
3196 Clouds 5 1013 75 10000 8.2 270 06:40 04.02.2020
3197 Clouds 5 1012 75 10000 9.3 280 05:34 04.02.2020
3198 Clouds 5 1012 75 10000 9.3 280 05:34 04.02.2020
3199 Rain 5 1011 75 10000 8.2 270 04:27 04.02.2020
3200 Snow 4 1011 80 10000 8.2 270 03:47 04.02.2020
3201 Clouds 4 1011 80 10000 7.7 260 03:29 04.02.2020
3202 Rain 5 1010 80 10000 9.3 260 02:38 04.02.2020
3203 Rain 5 1011 80 10000 8.7 260 02:18 04.02.2020
3204 Rain 5 1011 80 10000 10.3 260 01:44 04.02.2020
3205 Rain 5 1011 80 10000 6.2 280 00:55 04.02.2020
3206 Clouds 5 1011 75 10000 5.7 250 00:23 04.02.2020
3207 Clouds 5 1011 80 10000 6.2 270 23:49 03.02.2020
3208 Rain 5 1011 80 10000 7.7 280 23:30 03.02.2020
3209 Rain 5 1011 86 4400 5.7 260 22:58 03.02.2020
3210 Rain 4 1011 86 4400 5.7 260 22:38 03.02.2020
3211 Snow 4 1010 80 10000 7.2 260 22:19 03.02.2020
3212 Snow 5 1010 80 10000 7.2 260 21:41 03.02.2020
3213 Clouds 5 1010 86 10000 5.7 250 21:19 03.02.2020
3214 Rain 5 1010 86 10000 5.7 260 20:42 03.02.2020
3215 Rain 5 1011 80 7000 6.7 310 20:20 03.02.2020
3216 Clouds 5 1011 70 10000 5.7 250 19:59 03.02.2020
3217 Clouds 5 1011 70 10000 5.7 250 19:40 03.02.2020
3218 Clouds 5 1011 75 10000 5.1 250 19:21 03.02.2020
3219 Clouds 5 1011 70 10000 5.1 250 18:57 03.02.2020
3220 Clouds 6 1011 70 10000 5.1 250 18:38 03.02.2020
3221 Clouds 6 1010 70 10000 6.7 260 18:20 03.02.2020
3222 Clouds 6 1010 70 10000 6.7 270 17:55 03.02.2020
3223 Clouds 6 1010 65 10000 8.2 260 17:36 03.02.2020
3224 Clouds 6 1010 65 10000 8.2 260 17:18 03.02.2020
3225 Clouds 6 1010 65 10000 8.2 260 17:18 03.02.2020
3226 Clouds 7 1011 65 10000 6.7 280 16:40 03.02.2020
3227 Clouds 7 1011 65 10000 7.7 270 16:21 03.02.2020
3228 Clouds 7 1011 65 10000 7.7 270 16:21 03.02.2020
3229 Clouds 7 1011 65 10000 7.2 270 15:56 03.02.2020
3230 Clouds 7 1011 65 10000 6.7 270 15:38 03.02.2020
3231 Clouds 7 1011 65 10000 6.7 270 15:19 03.02.2020
3232 Clouds 7 1011 61 10000 8.2 260 14:43 03.02.2020
3233 Clouds 7 1011 65 10000 8.7 260 14:25 03.02.2020
3234 Clouds 8 1011 65 10000 8.2 270 13:58 03.02.2020
3235 Clouds 8 1011 65 10000 8.2 270 13:39 03.02.2020
3236 Clouds 8 1012 65 10000 6.7 260 13:19 03.02.2020
3237 Clouds 8 1012 65 10000 7.2 260 12:56 03.02.2020
3238 Clouds 8 1012 65 10000 5.1 260 12:36 03.02.2020
3239 Clouds 8 1012 65 10000 5.1 260 12:18 03.02.2020
3240 Rain 7 1011 70 10000 6.7 250 11:39 03.02.2020
3241 Rain 7 1011 70 10000 7.7 260 11:19 03.02.2020
3242 Rain 7 1011 70 10000 7.7 260 11:19 03.02.2020
3243 Rain 7 1011 70 10000 6.7 260 10:58 03.02.2020
3244 Rain 7 1011 70 10000 7.7 260 10:38 03.02.2020
3245 Rain 7 1011 70 10000 7.7 260 10:20 03.02.2020
3246 Rain 7 1010 75 10000 7.7 250 09:39 03.02.2020
3247 Rain 7 1010 75 10000 7.7 250 09:20 03.02.2020
3248 Rain 7 1010 70 10000 6.7 250 08:41 03.02.2020
3249 Rain 7 1009 70 10000 7.7 260 08:23 03.02.2020
3250 Clouds 8 1009 75 10000 6.2 250 07:56 03.02.2020
3251 Clouds 8 1009 75 10000 6.2 260 07:38 03.02.2020
3252 Clouds 8 1009 75 10000 6.2 260 07:19 03.02.2020
3253 Clouds 8 1009 76 10000 7.2 260 06:42 03.02.2020
3254 Clouds 8 1008 76 10000 5.1 260 06:24 03.02.2020
3255 Clouds 8 1007 87 10000 7.7 250 05:35 03.02.2020
3256 Rain 8 1007 93 10000 7.7 260 04:50 03.02.2020
3257 Clouds 9 1005 81 10000 7.2 240 02:53 03.02.2020
3258 Rain 9 1005 81 10000 6.2 240 02:32 03.02.2020
3259 Rain 9 1004 93 10000 3.1 190 00:50 03.02.2020
3260 Rain 9 1004 81 10000 3.6 200 00:30 03.02.2020
3261 Clouds 9 1004 81 10000 3.1 210 23:59 02.02.2020
3262 Rain 9 1004 81 10000 4.1 210 23:37 02.02.2020
3263 Rain 9 1004 81 10000 4.1 210 23:18 02.02.2020
3264 Rain 9 1004 81 10000 4.1 210 23:18 02.02.2020
3265 Clouds 9 1003 87 10000 3.6 200 22:40 02.02.2020
3266 Clouds 9 1003 87 10000 3.6 200 22:22 02.02.2020
3267 Clouds 9 1003 81 10000 3.1 200 21:58 02.02.2020
3268 Clouds 9 1003 81 10000 3.1 200 21:39 02.02.2020
3269 Clouds 9 1004 81 10000 4.1 210 21:20 02.02.2020
3270 Clouds 9 1004 81 10000 4.6 210 20:57 02.02.2020
3271 Clouds 9 1004 81 10000 4.6 210 20:39 02.02.2020
3272 Clouds 9 1004 81 10000 3.6 190 20:20 02.02.2020
3273 Rain 9 1003 81 10000 4.1 210 19:57 02.02.2020
3274 Rain 9 1003 81 10000 4.1 210 19:39 02.02.2020
3275 Rain 9 1003 81 10000 4.1 210 19:39 02.02.2020
3276 Rain 9 1003 87 10000 4.1 200 19:20 02.02.2020
3277 Rain 9 1003 87 10000 3.6 200 18:55 02.02.2020
3278 Rain 9 1003 81 10000 3.6 210 18:37 02.02.2020
3279 Rain 9 1003 81 10000 3.6 210 18:18 02.02.2020
3280 Rain 9 1003 76 10000 3.1 200 17:57 02.02.2020
3281 Rain 10 1003 71 10000 4.1 220 17:37 02.02.2020
3282 Rain 10 1003 71 10000 4.1 220 17:18 02.02.2020
3283 Rain 10 1003 71 10000 6.2 230 16:56 02.02.2020
3284 Rain 10 1003 71 10000 6.7 240 16:37 02.02.2020
3285 Rain 10 1003 71 10000 6.7 240 16:18 02.02.2020
3286 Rain 10 1003 76 10000 7.7 240 15:54 02.02.2020
3287 Rain 10 1003 76 10000 7.2 250 15:36 02.02.2020
3288 Rain 10 1003 76 10000 7.2 250 15:18 02.02.2020
3289 Rain 10 1003 76 10000 5.7 250 14:41 02.02.2020
3290 Rain 10 1003 87 10000 6.2 250 14:19 02.02.2020
3291 Rain 9 1003 93 10000 2.1 190 13:58 02.02.2020
3292 Rain 9 1003 93 10000 2.1 190 13:39 02.02.2020
3293 Clouds 9 1003 93 10000 2.1 210 13:20 02.02.2020
3294 Rain 8 1003 93 10000 2.1 220 12:55 02.02.2020
3295 Clouds 8 1002 93 10000 2.1 200 12:36 02.02.2020
3296 Clouds 7 1002 93 10000 2.1 200 12:18 02.02.2020
3297 Clouds 7 1002 93 10000 2.1 190 11:41 02.02.2020
3298 Clouds 7 1002 93 10000 2.1 190 11:41 02.02.2020
3299 Rain 6 1001 93 9000 1.5 0 11:19 02.02.2020
3300 Rain 6 1001 93 9000 0.5 0 10:57 02.02.2020
3301 Clouds 6 1001 100 6000 0.5 0 10:38 02.02.2020
3302 Rain 5 1001 100 6000 0.5 0 10:20 02.02.2020
3303 Rain 5 1001 100 4200 0.5 0 09:56 02.02.2020
3304 Rain 5 1001 100 4200 0.5 0 09:38 02.02.2020
3305 Rain 5 1001 100 6000 1.5 70 09:19 02.02.2020
3306 Rain 5 1001 100 3300 2.1 90 08:43 02.02.2020
3307 Drizzle 5 1001 100 3000 2.1 90 08:24 02.02.2020
3308 Drizzle 5 1001 100 2400 1.5 0 07:47 02.02.2020
3309 Drizzle 5 1002 100 2400 1.5 0 07:28 02.02.2020
3310 Rain 6 1003 93 2400 1 0 06:44 02.02.2020
3311 Rain 6 1002 93 5000 1.5 0 06:26 02.02.2020
3312 Rain 6 1002 100 4000 1.5 0 05:47 02.02.2020
3313 Rain 6 1003 93 6000 1.5 0 04:47 02.02.2020
3314 Rain 6 1006 87 10000 1 0 03:26 02.02.2020
3315 Rain 6 1006 93 10000 1 0 02:33 02.02.2020
3316 Clouds 6 1006 87 10000 2.1 170 01:54 02.02.2020
3317 Clouds 6 1006 87 10000 2.1 170 01:54 02.02.2020
3318 Clouds 6 1006 93 10000 1.5 140 01:23 02.02.2020
3319 Clouds 7 1006 87 10000 2.1 210 00:44 02.02.2020
3320 Clouds 7 1006 87 10000 3.1 260 00:22 02.02.2020
3321 Clouds 7 1006 87 10000 4.6 260 23:47 01.02.2020
3322 Clouds 7 1006 87 10000 3.6 250 23:22 01.02.2020
3323 Clouds 7 1006 81 10000 3.6 250 22:51 01.02.2020
3324 Clouds 8 1006 87 10000 4.1 260 22:20 01.02.2020
3325 Clouds 8 1006 87 10000 4.1 260 22:20 01.02.2020
3326 Clouds 8 1006 81 10000 4.6 270 21:59 01.02.2020
3327 Clouds 8 1005 81 10000 6.7 270 21:39 01.02.2020
3328 Clouds 8 1005 81 10000 6.7 270 21:18 01.02.2020
3329 Clouds 8 1005 81 10000 6.2 260 20:41 01.02.2020
3330 Clouds 8 1004 87 10000 6.7 270 20:20 01.02.2020
3331 Rain 8 1003 87 10000 7.7 260 19:57 01.02.2020
3332 Rain 8 1003 93 10000 6.7 250 19:39 01.02.2020
3333 Rain 9 1003 93 10000 6.7 250 19:19 01.02.2020
3334 Rain 9 1002 87 10000 8.2 250 18:57 01.02.2020
3335 Rain 8 1002 87 10000 8.2 250 18:39 01.02.2020
3336 Rain 8 1002 76 10000 9.8 260 18:21 01.02.2020
3337 Rain 8 1002 76 10000 9.8 260 18:21 01.02.2020
3338 Rain 8 1001 70 10000 8.7 240 17:56 01.02.2020
3339 Rain 8 1001 70 10000 8.7 240 17:38 01.02.2020
3340 Clouds 8 1000 70 10000 8.7 240 17:19 01.02.2020
3341 Clouds 8 1000 70 10000 9.3 250 16:42 01.02.2020
3342 Clouds 9 999 66 10000 9.3 240 16:23 01.02.2020
3343 Clouds 9 999 66 10000 9.3 240 15:58 01.02.2020
3344 Clouds 9 999 66 10000 9.3 240 15:38 01.02.2020
3345 Clouds 9 999 66 10000 9.8 250 15:18 01.02.2020
3346 Clouds 9 999 57 10000 10.3 250 14:40 01.02.2020
3347 Clouds 9 999 61 10000 10.3 240 14:21 01.02.2020
3348 Clouds 9 999 66 10000 9.3 240 13:45 01.02.2020
3349 Clouds 9 999 66 10000 9.8 240 13:24 01.02.2020
3350 Clouds 9 998 66 10000 10.3 240 12:57 01.02.2020
3351 Clouds 9 998 66 10000 10.3 240 12:39 01.02.2020
3352 Clouds 9 998 66 10000 8.7 240 12:21 01.02.2020
3353 Clouds 9 998 66 10000 9.3 250 11:44 01.02.2020
3354 Clouds 9 997 66 10000 7.2 240 11:23 01.02.2020
3355 Clouds 9 997 70 10000 8.2 240 10:59 01.02.2020
3356 Clouds 8 997 70 10000 8.2 240 10:40 01.02.2020
3357 Clouds 8 997 70 10000 7.2 230 10:22 01.02.2020
3358 Clouds 8 996 70 10000 5.7 230 09:58 01.02.2020
3359 Clouds 8 996 70 10000 5.7 230 09:40 01.02.2020
3360 Clouds 8 996 70 10000 5.7 230 09:20 01.02.2020
3361 Clouds 8 996 70 10000 7.2 230 08:48 01.02.2020
3362 Clouds 8 996 70 10000 6.7 230 07:51 01.02.2020
3363 Clouds 9 995 70 10000 5.1 220 07:27 01.02.2020
3364 Clouds 9 996 70 10000 5.7 220 06:58 01.02.2020
3365 Clouds 9 996 70 10000 5.7 220 06:38 01.02.2020
3366 Clouds 9 996 70 10000 5.7 230 05:52 01.02.2020
3367 Clouds 9 996 70 10000 5.7 230 05:52 01.02.2020
3368 Clouds 9 997 70 10000 6.7 230 04:20 01.02.2020
3369 Clouds 9 996 76 10000 4.6 210 03:23 01.02.2020
3370 Clouds 10 996 81 10000 3.6 210 02:47 01.02.2020
3371 Clouds 10 996 81 10000 3.1 200 02:28 01.02.2020
3372 Clouds 10 996 87 10000 3.1 200 01:55 01.02.2020
3373 Clouds 10 996 87 10000 3.6 200 01:33 01.02.2020
3374 Rain 10 996 87 10000 4.6 200 00:30 01.02.2020
3375 Clouds 10 997 87 10000 4.1 210 23:59 31.01.2020
3376 Clouds 10 997 81 10000 4.6 220 23:37 31.01.2020
3377 Clouds 10 997 81 10000 4.6 220 23:18 31.01.2020
3378 Clouds 11 997 76 10000 4.6 210 22:41 31.01.2020
3379 Clouds 11 997 76 10000 4.6 210 22:41 31.01.2020
3380 Clouds 11 997 76 10000 4.6 210 22:22 31.01.2020
3381 Clouds 11 997 76 10000 6.2 210 21:59 31.01.2020
3382 Clouds 11 997 76 10000 6.2 210 21:39 31.01.2020
3383 Clouds 11 997 81 10000 3.6 220 21:20 31.01.2020
3384 Clouds 11 997 87 10000 2.6 190 20:57 31.01.2020
3385 Clouds 11 997 87 10000 4.6 200 20:38 31.01.2020
3386 Rain 11 997 87 10000 4.6 200 20:20 31.01.2020
3387 Rain 11 997 93 10000 4.6 200 19:56 31.01.2020
3388 Clouds 11 998 93 10000 4.6 200 19:37 31.01.2020
3389 Clouds 11 998 93 10000 4.6 200 19:19 31.01.2020
3390 Clouds 11 998 87 10000 3.6 210 18:43 31.01.2020
3391 Clouds 12 998 87 10000 2.6 190 18:25 31.01.2020
3392 Clouds 12 998 87 10000 4.6 200 17:55 31.01.2020
3393 Clouds 12 998 87 10000 5.1 200 17:36 31.01.2020
3394 Clouds 12 998 87 10000 5.1 200 17:18 31.01.2020
3395 Clouds 12 998 87 10000 6.2 200 16:55 31.01.2020
3396 Clouds 12 998 87 10000 6.2 200 16:37 31.01.2020
3397 Clouds 12 998 87 10000 6.2 200 16:18 31.01.2020
3398 Clouds 12 998 87 10000 6.2 200 16:18 31.01.2020
3399 Rain 12 999 87 10000 4.6 200 15:41 31.01.2020
3400 Rain 12 1000 93 6000 4.1 200 15:21 31.01.2020
3401 Rain 11 999 81 10000 4.6 200 14:55 31.01.2020
3402 Rain 11 999 87 10000 5.1 190 14:36 31.01.2020
3403 Rain 11 999 87 10000 5.1 190 14:36 31.01.2020
3404 Rain 11 999 87 10000 5.1 190 14:18 31.01.2020
3405 Rain 11 1000 87 10000 4.6 190 13:43 31.01.2020
3406 Rain 11 1000 93 10000 4.6 190 13:25 31.01.2020
3407 Rain 11 1000 87 10000 5.1 190 12:45 31.01.2020
3408 Rain 10 1000 87 10000 5.7 190 12:24 31.01.2020
3409 Rain 11 1000 87 10000 4.6 190 11:56 31.01.2020
3410 Rain 11 1000 87 10000 4.6 190 11:38 31.01.2020
3411 Rain 11 1000 87 10000 4.6 200 11:19 31.01.2020
3412 Rain 11 1001 81 10000 5.7 200 10:55 31.01.2020
3413 Rain 11 1001 87 10000 4.1 200 10:37 31.01.2020
3414 Clouds 11 1001 87 10000 4.1 200 10:18 31.01.2020
3415 Clouds 11 1001 87 10000 4.1 190 09:42 31.01.2020
3416 Clouds 11 1001 87 10000 4.1 200 09:21 31.01.2020
3417 Clouds 11 1001 93 10000 3.6 210 08:56 31.01.2020
3418 Clouds 10 1001 93 10000 3.6 210 08:38 31.01.2020
3419 Clouds 10 1001 93 10000 3.6 210 08:19 31.01.2020
3420 Clouds 10 1001 87 10000 4.6 200 07:46 31.01.2020
3421 Clouds 10 1001 87 10000 4.1 190 07:18 31.01.2020
3422 Clouds 9 1001 87 10000 4.1 200 06:31 31.01.2020
3423 Clouds 9 1001 87 10000 3.6 210 05:54 31.01.2020
3424 Clouds 9 1001 87 10000 3.1 200 05:19 31.01.2020
3425 Clouds 7 1002 87 10000 2.1 180 03:47 31.01.2020
3426 Clouds 8 1002 75 10000 4.6 270 01:44 31.01.2020
3427 Clouds 8 1001 81 10000 3.1 220 00:47 31.01.2020
3428 Clouds 8 1000 76 10000 7.7 280 00:29 31.01.2020
3429 Clouds 8 1000 76 10000 8.2 260 23:58 30.01.2020
3430 Clouds 8 1000 76 10000 8.2 260 23:39 30.01.2020
3431 Clouds 9 1000 76 10000 6.7 270 23:20 30.01.2020
3432 Clouds 9 999 81 10000 7.2 270 22:38 30.01.2020
3433 Clouds 9 999 81 10000 7.2 270 22:19 30.01.2020
3434 Clouds 9 998 81 10000 7.2 250 21:57 30.01.2020
3435 Clouds 9 998 81 10000 7.2 250 21:39 30.01.2020
3436 Clouds 9 998 81 10000 9.3 260 21:18 30.01.2020
3437 Clouds 9 998 81 10000 9.3 260 21:18 30.01.2020
3438 Clouds 9 998 81 10000 9.3 260 21:18 30.01.2020
3439 Clouds 9 998 81 10000 10.3 270 20:42 30.01.2020
3440 Clouds 10 998 81 10000 8.7 270 20:22 30.01.2020
3441 Clouds 10 997 81 10000 7.2 260 19:58 30.01.2020
3442 Clouds 10 997 81 10000 8.2 250 19:40 30.01.2020
3443 Clouds 10 997 81 10000 8.2 250 19:19 30.01.2020
3444 Clouds 10 996 87 10000 9.8 240 18:42 30.01.2020
3445 Clouds 11 996 81 10000 8.7 240 18:23 30.01.2020
3446 Clouds 11 995 87 10000 3.6 220 17:58 30.01.2020
3447 Clouds 11 995 87 10000 3.6 220 17:39 30.01.2020
3448 Clouds 11 995 87 10000 5.1 210 17:19 30.01.2020
3449 Clouds 11 995 87 10000 3.6 210 16:58 30.01.2020
3450 Clouds 11 995 87 10000 3.6 210 16:39 30.01.2020
3451 Clouds 11 995 87 10000 4.1 200 16:20 30.01.2020
3452 Clouds 11 996 87 10000 3.6 200 15:44 30.01.2020
3453 Clouds 10 996 87 10000 4.1 200 15:21 30.01.2020
3454 Clouds 10 996 87 10000 4.1 200 14:50 30.01.2020
3455 Clouds 10 996 87 10000 4.1 190 14:28 30.01.2020
3456 Clouds 10 996 87 10000 4.6 190 13:59 30.01.2020
3457 Clouds 10 996 87 10000 4.6 190 13:39 30.01.2020
3458 Clouds 9 997 93 10000 4.6 190 13:20 30.01.2020
3459 Clouds 9 998 93 10000 4.1 180 12:54 30.01.2020
3460 Clouds 9 998 87 10000 4.1 180 12:36 30.01.2020
3461 Clouds 9 998 87 10000 4.1 180 12:18 30.01.2020
3462 Clouds 9 998 93 10000 3.6 180 11:40 30.01.2020
3463 Clouds 8 999 87 10000 3.1 180 11:21 30.01.2020
3464 Clouds 8 1000 87 10000 3.6 190 10:44 30.01.2020
3465 Clouds 7 1000 87 10000 4.1 190 10:26 30.01.2020
3466 Clouds 7 1000 81 10000 2.6 190 09:58 30.01.2020
3467 Clouds 7 1000 81 10000 2.6 190 09:39 30.01.2020
3468 Clouds 7 1000 81 10000 3.1 190 09:19 30.01.2020
3469 Clouds 7 1001 81 10000 3.1 190 08:42 30.01.2020
3470 Clouds 7 1001 81 10000 2.6 190 08:22 30.01.2020
3471 Clouds 7 1002 81 10000 2.6 180 07:52 30.01.2020
3472 Clouds 7 1002 81 10000 2.6 190 07:32 30.01.2020
3473 Clouds 7 1003 81 10000 2.1 180 06:47 30.01.2020
3474 Clouds 7 1003 81 10000 3.1 180 06:29 30.01.2020
3475 Clouds 7 1003 81 10000 2.1 180 05:47 30.01.2020
3476 Clouds 7 1004 81 10000 2.1 180 05:25 30.01.2020
3477 Clouds 8 1005 81 10000 5.7 230 03:56 30.01.2020
3478 Clouds 8 1005 81 10000 2.6 200 03:37 30.01.2020
3479 Clouds 8 1005 81 10000 1.5 0 02:48 30.01.2020
3480 Clouds 8 1005 76 10000 4.6 240 00:53 30.01.2020
3481 Clouds 8 1005 81 10000 4.6 230 00:21 30.01.2020
3482 Clouds 8 1004 81 10000 4.1 220 23:47 29.01.2020
3483 Clouds 8 1004 81 10000 4.1 220 23:22 29.01.2020
3484 Clouds 8 1005 76 10000 5.1 230 22:58 29.01.2020
3485 Clouds 8 1005 76 10000 5.1 230 22:39 29.01.2020
3486 Clouds 8 1004 76 10000 7.7 240 22:19 29.01.2020
3487 Clouds 8 1004 76 10000 7.2 230 21:58 29.01.2020
3488 Clouds 8 1004 76 10000 7.2 230 21:38 29.01.2020
3489 Clouds 8 1004 76 10000 7.2 230 21:38 29.01.2020
3490 Clouds 8 1005 81 10000 6.7 230 21:19 29.01.2020
3491 Clouds 8 1005 81 10000 6.2 230 20:58 29.01.2020
3492 Clouds 8 1005 81 10000 5.1 220 20:38 29.01.2020
3493 Clouds 8 1005 81 10000 5.1 220 20:38 29.01.2020
3494 Clouds 8 1005 81 10000 5.1 220 20:19 29.01.2020
3495 Clouds 8 1005 81 10000 6.2 220 19:56 29.01.2020
3496 Clouds 8 1005 70 10000 6.7 230 19:37 29.01.2020
3497 Clouds 8 1005 70 10000 6.7 230 19:37 29.01.2020
3498 Clouds 8 1005 70 10000 6.7 230 19:18 29.01.2020
3499 Rain 8 1005 75 10000 7.2 220 18:46 29.01.2020
3500 Rain 8 1005 75 10000 5.7 220 18:19 29.01.2020
3501 Rain 8 1005 75 10000 5.7 220 17:57 29.01.2020
3502 Rain 8 1005 81 10000 4.6 220 17:38 29.01.2020
3503 Rain 8 1005 81 10000 4.6 220 17:20 29.01.2020
3504 Rain 8 1005 75 10000 6.7 230 16:41 29.01.2020
3505 Rain 8 1005 75 10000 6.7 230 16:23 29.01.2020
3506 Clouds 8 1005 70 10000 8.2 240 15:55 29.01.2020
3507 Clouds 8 1005 75 10000 6.7 240 15:36 29.01.2020
3508 Clouds 8 1005 75 10000 6.7 240 15:18 29.01.2020
3509 Clouds 8 1006 70 10000 7.7 240 14:41 29.01.2020
3510 Clouds 8 1006 70 10000 7.7 240 14:20 29.01.2020
3511 Clouds 8 1006 66 10000 5.7 250 13:41 29.01.2020
3512 Clouds 8 1006 70 10000 4.6 250 13:22 29.01.2020
3513 Clouds 7 1006 70 10000 7.2 260 12:58 29.01.2020
3514 Clouds 7 1006 70 10000 7.2 260 12:39 29.01.2020
3515 Clouds 7 1006 70 10000 7.2 260 12:39 29.01.2020
3516 Clouds 7 1006 75 10000 6.7 250 12:21 29.01.2020
3517 Clouds 6 1005 81 10000 6.7 240 11:56 29.01.2020
3518 Clouds 6 1005 80 10000 5.1 240 11:38 29.01.2020
3519 Clouds 6 1005 81 10000 6.7 240 11:38 29.01.2020
3520 Clouds 6 1005 80 10000 5.1 240 11:19 29.01.2020
3521 Clouds 5 1005 80 10000 5.1 240 10:46 29.01.2020
3522 Clouds 5 1005 80 10000 5.7 240 10:22 29.01.2020
3523 Rain 4 1004 86 10000 4.1 250 09:40 29.01.2020
3524 Rain 4 1004 86 10000 4.1 250 09:22 29.01.2020
3525 Rain 4 1004 86 6000 5.1 250 08:59 29.01.2020
3526 Rain 4 1004 86 6000 5.1 250 08:40 29.01.2020
3527 Rain 4 1003 80 10000 6.7 250 08:22 29.01.2020
3528 Rain 4 1003 86 10000 7.2 260 07:45 29.01.2020
3529 Rain 4 1003 75 10000 8.2 260 07:25 29.01.2020
3530 Snow 4 1002 80 10000 6.7 260 06:55 29.01.2020
3531 Snow 4 1002 80 10000 6.7 260 06:55 29.01.2020
3532 Snow 4 1002 80 10000 7.2 260 06:37 29.01.2020
3533 Snow 4 1002 80 10000 7.2 260 06:18 29.01.2020
3534 Rain 4 1002 86 10000 7.2 250 05:46 29.01.2020
3535 Rain 4 1001 86 10000 4.1 260 05:27 29.01.2020
3536 Clouds 4 1001 80 10000 4.1 230 04:38 29.01.2020
3537 Rain 4 1001 80 10000 6.2 240 03:50 29.01.2020
3538 Rain 4 999 80 10000 7.2 250 02:33 29.01.2020
3539 Rain 5 998 80 10000 7.7 260 00:44 29.01.2020
3540 Rain 5 998 80 10000 7.7 250 00:25 29.01.2020
3541 Rain 5 998 80 10000 7.2 250 23:58 28.01.2020
3542 Rain 5 998 80 10000 6.2 230 23:37 28.01.2020
3543 Rain 5 998 80 10000 6.2 230 23:18 28.01.2020
3544 Rain 4 998 80 10000 3.6 230 22:41 28.01.2020
3545 Clouds 4 997 75 10000 4.6 240 22:21 28.01.2020
3546 Clouds 5 997 80 10000 5.1 230 21:42 28.01.2020
3547 Clouds 4 997 80 10000 5.1 240 21:24 28.01.2020
3548 Clouds 4 997 80 10000 5.7 240 20:59 28.01.2020
3549 Clouds 4 997 80 10000 5.7 240 20:59 28.01.2020
3550 Clouds 4 997 80 10000 5.7 240 20:40 28.01.2020
3551 Clouds 4 996 75 10000 5.7 250 20:21 28.01.2020
3552 Clouds 5 996 75 10000 5.1 240 19:39 28.01.2020
3553 Clouds 5 996 75 10000 5.1 240 19:39 28.01.2020
3554 Clouds 4 995 80 10000 6.2 240 19:21 28.01.2020
3555 Clouds 4 994 80 10000 6.2 250 18:58 28.01.2020
3556 Clouds 4 994 80 10000 6.2 250 18:40 28.01.2020
3557 Rain 4 994 80 10000 6.2 250 18:21 28.01.2020
3558 Rain 4 994 93 10000 6.7 250 17:57 28.01.2020
3559 Rain 4 993 80 10000 8.7 250 17:37 28.01.2020
3560 Rain 5 993 80 10000 8.7 250 17:19 28.01.2020
3561 Rain 5 993 80 10000 8.2 250 16:54 28.01.2020
3562 Rain 5 992 80 10000 7.7 250 16:36 28.01.2020
3563 Rain 5 992 80 10000 7.7 250 16:18 28.01.2020
3564 Rain 5 992 80 10000 7.7 270 15:41 28.01.2020
3565 Clouds 5 992 75 10000 7.2 250 15:19 28.01.2020
3566 Clouds 5 992 75 10000 7.2 250 15:19 28.01.2020
3567 Snow 6 992 70 10000 8.7 250 14:46 28.01.2020
3568 Rain 6 992 70 10000 8.7 240 14:20 28.01.2020
3569 Rain 6 992 70 10000 6.7 240 13:58 28.01.2020
3570 Rain 6 992 75 10000 5.7 230 13:39 28.01.2020
3571 Rain 6 992 75 10000 5.7 230 13:39 28.01.2020
3572 Clouds 6 992 75 10000 5.7 230 13:20 28.01.2020
3573 Clouds 5 992 80 10000 4.6 220 12:42 28.01.2020
3574 Clouds 5 991 86 10000 5.1 220 12:42 28.01.2020
3575 Clouds 5 991 86 10000 5.1 220 12:22 28.01.2020
3576 Rain 4 991 93 10000 4.6 220 11:48 28.01.2020
3577 Rain 4 991 86 10000 4.6 220 11:23 28.01.2020
3578 Rain 3 991 93 10000 4.1 220 10:58 28.01.2020
3579 Rain 3 991 68 10000 3.6 200 10:39 28.01.2020
3580 Rain 3 991 68 10000 3.6 200 10:20 28.01.2020
3581 Clouds 2 990 68 10000 3.6 230 09:43 28.01.2020
3582 Clouds 2 990 68 10000 3.6 230 09:21 28.01.2020
3583 Clouds 2 990 68 10000 4.1 240 08:57 28.01.2020
3584 Clouds 2 990 68 10000 4.1 240 08:38 28.01.2020
3585 Clouds 2 990 93 10000 4.1 250 08:18 28.01.2020
3586 Snow 2 989 93 4200 5.1 240 07:36 28.01.2020
3587 Rain 2 988 94 10000 3.6 260 06:49 28.01.2020
3588 Rain 2 988 93 10000 5.1 280 06:25 28.01.2020
3589 Rain 2 987 93 10000 6.2 240 05:53 28.01.2020
3590 Rain 2 987 93 10000 5.7 240 05:25 28.01.2020
3591 Rain 3 986 93 10000 2.6 200 03:57 28.01.2020
3592 Clouds 3 986 93 10000 3.1 210 02:58 28.01.2020
3593 Rain 4 986 93 10000 2.6 200 02:25 28.01.2020
3594 Rain 4 986 93 10000 3.6 210 01:57 28.01.2020
3595 Rain 4 986 93 7000 5.1 200 01:22 28.01.2020
3596 Rain 4 986 86 10000 3.1 190 00:45 28.01.2020
3597 Rain 4 987 93 10000 2.6 170 00:24 28.01.2020
3598 Rain 4 987 80 10000 3.1 180 23:46 27.01.2020
3599 Rain 4 987 86 10000 3.1 190 23:28 27.01.2020
3600 Rain 4 987 86 10000 3.1 190 23:28 27.01.2020
3601 Rain 4 988 86 10000 3.1 180 22:46 27.01.2020
3602 Clouds 4 988 86 10000 2.6 160 22:22 27.01.2020
3603 Clouds 4 988 86 10000 2.6 160 22:22 27.01.2020
3604 Clouds 4 989 86 10000 2.1 160 21:59 27.01.2020
3605 Clouds 4 989 86 10000 2.1 160 21:39 27.01.2020
3606 Clouds 4 989 86 10000 2.1 150 21:19 27.01.2020
3607 Rain 4 990 93 10000 2.1 0 20:59 27.01.2020
3608 Rain 4 990 93 10000 2.1 0 20:38 27.01.2020
3609 Clouds 4 990 86 10000 1 0 20:20 27.01.2020
3610 Clouds 4 991 86 10000 1 0 19:57 27.01.2020
3611 Clouds 4 991 86 10000 1.5 0 19:39 27.01.2020
3612 Clouds 4 991 86 10000 1.5 0 19:21 27.01.2020
3613 Clouds 4 992 86 10000 1 0 18:54 27.01.2020
3614 Clouds 5 992 86 10000 0.5 0 18:36 27.01.2020
3615 Clouds 5 992 86 10000 0.5 0 18:18 27.01.2020
3616 Clouds 5 993 81 10000 2.1 180 17:39 27.01.2020
3617 Rain 6 994 75 10000 2.1 170 17:39 27.01.2020
3618 Clouds 5 993 81 10000 2.1 180 17:39 27.01.2020
3619 Rain 6 994 75 10000 2.1 170 17:19 27.01.2020
3620 Rain 6 994 75 10000 2.1 170 16:56 27.01.2020
3621 Clouds 6 994 75 10000 2.6 180 16:37 27.01.2020
3622 Clouds 6 994 75 10000 2.6 180 16:19 27.01.2020
3623 Rain 7 994 81 10000 3.6 180 15:42 27.01.2020
3624 Clouds 7 995 75 10000 2.6 180 15:20 27.01.2020
3625 Clouds 6 996 81 10000 3.1 190 14:59 27.01.2020
3626 Rain 6 996 81 10000 3.6 180 14:40 27.01.2020
3627 Clouds 6 996 81 10000 3.6 180 14:21 27.01.2020
3628 Clouds 6 997 81 10000 3.6 190 13:46 27.01.2020
3629 Clouds 6 997 81 10000 3.1 200 13:23 27.01.2020
3630 Clouds 6 998 81 10000 3.6 190 12:58 27.01.2020
3631 Clouds 6 998 81 10000 3.6 190 12:39 27.01.2020
3632 Clouds 6 998 81 10000 3.1 190 12:21 27.01.2020
3633 Rain 5 998 80 10000 3.6 190 11:43 27.01.2020
3634 Clouds 5 998 80 10000 4.1 190 11:22 27.01.2020
3635 Snow 5 998 80 10000 2.1 180 10:56 27.01.2020
3636 Clouds 4 998 86 10000 2.1 180 10:38 27.01.2020
3637 Clouds 4 998 86 10000 2.1 180 10:20 27.01.2020
3638 Snow 4 998 86 10000 2.6 180 09:39 27.01.2020
3639 Snow 4 998 86 10000 2.6 180 09:19 27.01.2020
3640 Clouds 4 998 86 10000 3.1 190 08:48 27.01.2020
3641 Clouds 4 998 86 10000 2.6 190 08:23 27.01.2020
3642 Clouds 4 998 86 10000 3.1 190 07:56 27.01.2020
3643 Clouds 4 998 86 10000 3.6 190 07:37 27.01.2020
3644 Clouds 4 998 86 10000 3.6 190 07:19 27.01.2020
3645 Rain 5 998 93 10000 3.1 190 06:37 27.01.2020
3646 Rain 5 998 93 10000 3.1 190 06:37 27.01.2020
3647 Clouds 5 998 93 10000 3.1 190 05:38 27.01.2020
3648 Clouds 5 998 93 10000 3.1 190 05:38 27.01.2020
3649 Clouds 5 999 87 10000 3.1 170 04:37 27.01.2020
3650 Rain 5 999 100 10000 4.6 170 03:35 27.01.2020
3651 Clouds 4 1001 86 10000 2.1 160 01:47 27.01.2020
3652 Clouds 4 1001 86 10000 2.1 170 01:22 27.01.2020
3653 Clouds 4 1002 93 10000 1 0 00:40 27.01.2020
3654 Clouds 3 1002 93 10000 1 0 00:21 27.01.2020
3655 Clouds 3 1002 93 10000 1.5 0 23:43 26.01.2020
3656 Clouds 3 1002 100 10000 1.5 0 23:21 26.01.2020
3657 Clouds 3 1002 100 9000 2.1 170 22:57 26.01.2020
3658 Clouds 3 1002 100 9000 2.1 170 22:38 26.01.2020
3659 Clouds 3 1002 93 10000 1 0 22:19 26.01.2020
3660 Clouds 4 1002 100 10000 1 0 21:57 26.01.2020
3661 Clouds 4 1003 93 10000 1 0 21:38 26.01.2020
3662 Clouds 4 1003 93 10000 1 0 21:20 26.01.2020
3663 Clouds 4 1003 100 10000 1 0 20:56 26.01.2020
3664 Clouds 4 1003 93 10000 1.5 0 20:38 26.01.2020
3665 Clouds 5 1003 93 10000 1.5 0 20:18 26.01.2020
3666 Clouds 5 1003 93 10000 2.1 180 19:57 26.01.2020
3667 Clouds 5 1003 93 10000 1.5 160 19:37 26.01.2020
3668 Clouds 5 1003 93 10000 1.5 160 19:18 26.01.2020
3669 Clouds 6 1003 93 10000 1.5 0 18:41 26.01.2020
3670 Clouds 6 1003 93 10000 1.5 0 18:22 26.01.2020
3671 Clouds 6 1003 100 10000 2.1 180 17:59 26.01.2020
3672 Clouds 6 1003 100 10000 2.1 180 17:59 26.01.2020
3673 Clouds 7 1003 93 10000 1 0 17:39 26.01.2020
3674 Clouds 7 1003 93 10000 1 0 17:20 26.01.2020
3675 Clouds 7 1003 93 10000 1.5 190 16:58 26.01.2020
3676 Clouds 7 1003 93 10000 1.5 190 16:39 26.01.2020
3677 Rain 7 1003 93 10000 2.1 210 16:21 26.01.2020
3678 Rain 8 1003 93 0 1.34 282 15:58 26.01.2020
3679 Rain 8 1002 94 0 2.68 275 15:39 26.01.2020
3680 Rain 8 1003 93 0 0.45 300 15:18 26.01.2020
3681 Rain 8 1004 83 0 1.79 241 14:40 26.01.2020
3682 Rain 8 1003 93 0 1.34 254 14:40 26.01.2020
3683 Rain 8 1003 93 0 2.68 261 14:20 26.01.2020
3684 Rain 8 1003 92 0 1.79 220 13:43 26.01.2020
3685 Rain 8 1003 93 0 2.68 235 13:21 26.01.2020
3686 Rain 7 1003 92 0 0.89 239 12:58 26.01.2020
3687 Rain 7 1003 92 0 2.68 199 12:40 26.01.2020
3688 Rain 7 1003 92 0 1.34 217 12:21 26.01.2020
3689 Rain 7 1003 92 0 1.34 229 11:57 26.01.2020
3690 Rain 7 1004 92 0 1.79 207 11:39 26.01.2020
3691 Rain 7 1005 81 10000 3.1 170 11:18 26.01.2020
3692 Rain 7 1005 81 10000 3.1 170 10:58 26.01.2020
3693 Clouds 7 1005 81 10000 3.1 170 10:38 26.01.2020
3694 Clouds 7 1005 81 10000 3.1 170 10:20 26.01.2020
3695 Clouds 7 1005 81 10000 3.6 170 09:56 26.01.2020
3696 Clouds 7 1006 87 10000 4.1 180 09:38 26.01.2020
3697 Clouds 6 1006 87 10000 4.1 180 09:20 26.01.2020
3698 Clouds 7 1005 87 10000 4.1 170 08:42 26.01.2020
3699 Clouds 7 1006 87 10000 3.6 180 08:22 26.01.2020
3700 Clouds 7 1006 81 10000 4.1 180 07:54 26.01.2020
3701 Clouds 7 1006 93 10000 2.6 180 07:36 26.01.2020
3702 Clouds 7 1006 93 10000 2.6 180 07:36 26.01.2020
3703 Clouds 7 1006 93 10000 2.6 180 07:18 26.01.2020
3704 Clouds 7 1007 93 10000 3.6 180 06:26 26.01.2020
3705 Clouds 7 1007 93 10000 3.1 170 05:29 26.01.2020
3706 Clouds 6 1008 93 10000 2.6 0 04:43 26.01.2020
3707 Clouds 6 1009 93 8000 3.1 180 02:38 26.01.2020
3708 Clouds 6 1010 93 8000 3.1 170 01:46 26.01.2020
3709 Clouds 6 1011 93 10000 2.1 170 01:23 26.01.2020
3710 Clouds 6 1011 93 10000 2.1 190 00:43 26.01.2020
3711 Clouds 6 1011 93 10000 2.6 190 00:25 26.01.2020
3712 Clouds 6 1011 93 0 0.45 187 23:40 25.01.2020
3713 Clouds 6 1011 93 0 3.11 186 23:21 25.01.2020
3714 Clouds 6 1012 93 0 3.11 186 22:56 25.01.2020
3715 Clouds 6 1012 93 0 3.11 186 22:56 25.01.2020
3716 Clouds 6 1012 93 0 0.45 226 22:36 25.01.2020
3717 Clouds 6 1012 93 0 3.11 186 22:18 25.01.2020
3718 Clouds 6 1012 93 0 0.45 204 21:41 25.01.2020
3719 Clouds 6 1012 93 0 1.34 207 21:23 25.01.2020
3720 Clouds 5 1012 93 0 3.11 186 20:56 25.01.2020
3721 Clouds 5 1012 93 0 3.11 186 20:38 25.01.2020
3722 Clouds 6 1013 93 0 0.45 221 20:20 25.01.2020
3723 Clouds 5 1013 83 0 3.23 196 19:44 25.01.2020
3724 Clouds 6 1014 92 0 0.89 193 19:20 25.01.2020
3725 Clouds 6 1014 92 0 0.89 193 18:57 25.01.2020
3726 Clouds 6 1013 92 0 0.89 204 18:39 25.01.2020
3727 Clouds 6 1013 92 0 0.89 202 18:20 25.01.2020
3728 Clouds 6 1013 91 0 2.68 167 17:42 25.01.2020
3729 Clouds 6 1013 91 0 1.79 166 17:23 25.01.2020
3730 Clouds 6 1014 91 0 4.91 213 16:58 25.01.2020
3731 Clouds 6 1014 90 0 0.45 214 16:39 25.01.2020
3732 Clouds 6 1014 89 0 3.83 205 16:19 25.01.2020
3733 Clouds 6 1013 90 0 2.24 175 15:47 25.01.2020
3734 Clouds 6 1014 89 0 1.79 179 15:25 25.01.2020
3735 Clouds 6 1015 90 0 2.24 237 14:59 25.01.2020
3736 Clouds 6 1015 90 0 2.24 237 14:59 25.01.2020
3737 Clouds 6 1015 91 0 3.83 205 14:40 25.01.2020
3738 Clouds 6 1015 91 0 0.89 213 14:18 25.01.2020
3739 Clouds 6 1015 90 0 3.58 172 13:42 25.01.2020
3740 Clouds 6 1015 90 0 3.58 172 13:42 25.01.2020
3741 Clouds 6 1016 93 0 0.89 242 13:23 25.01.2020
3742 Clouds 6 1017 93 10000 3.6 190 12:45 25.01.2020
3743 Clouds 6 1017 93 10000 3.6 190 12:26 25.01.2020
3744 Clouds 6 1017 93 10000 3.6 190 11:45 25.01.2020
3745 Clouds 6 1017 93 10000 3.1 190 11:22 25.01.2020
3746 Clouds 5 1017 93 10000 3.1 200 10:59 25.01.2020
3747 Clouds 6 1017 93 10000 3.1 200 10:40 25.01.2020
3748 Clouds 5 1017 93 10000 3.1 200 10:20 25.01.2020
3749 Clouds 5 1017 93 10000 2.1 200 09:41 25.01.2020
3750 Rain 5 1017 100 10000 3.1 200 09:22 25.01.2020
3751 Clouds 5 1017 100 10000 2.6 200 08:47 25.01.2020
3752 Rain 5 1017 93 10000 2.6 200 08:28 25.01.2020
3753 Drizzle 6 1017 100 3700 2.1 210 07:50 25.01.2020
3754 Drizzle 6 1017 100 3000 2.1 210 06:53 25.01.2020
3755 Rain 6 1017 100 4000 2.1 210 06:28 25.01.2020
3756 Drizzle 6 1017 100 2700 2.1 210 05:48 25.01.2020
3757 Drizzle 6 1017 100 2500 2.1 200 05:18 25.01.2020
3758 Mist 6 1018 100 2200 1.5 0 03:52 25.01.2020
3759 Mist 6 1018 100 1600 1.5 0 03:19 25.01.2020
3760 Rain 6 1019 100 1000 1.5 0 02:20 25.01.2020
3761 Mist 6 1019 100 1000 1 0 01:48 25.01.2020
3762 Drizzle 6 1020 100 1200 1 0 00:44 25.01.2020
3763 Rain 6 1020 100 2000 1 0 00:26 25.01.2020
3764 Mist 6 1020 100 3200 0.5 0 23:58 24.01.2020
3765 Mist 6 1020 100 3200 0.5 0 23:39 24.01.2020
3766 Mist 6 1020 100 3200 0.5 0 23:39 24.01.2020
3767 Mist 6 1020 100 3700 1 0 23:21 24.01.2020
3768 Mist 6 1020 100 3700 1 220 22:44 24.01.2020
3769 Mist 6 1020 100 5000 1 0 22:25 24.01.2020
3770 Clouds 6 1020 100 6000 1 0 21:43 24.01.2020
3771 Clouds 6 1020 100 6000 1 0 21:43 24.01.2020
3772 Clouds 6 1021 93 10000 0.5 0 21:21 24.01.2020
3773 Clouds 6 1021 93 10000 0.5 0 21:21 24.01.2020
3774 Clouds 6 1021 87 10000 1.5 290 20:57 24.01.2020
3775 Clouds 6 1021 87 10000 1.5 290 20:39 24.01.2020
3776 Clouds 6 1021 93 7000 2.1 310 20:20 24.01.2020
3777 Clouds 7 1021 93 7000 1.5 290 19:57 24.01.2020
3778 Clouds 7 1021 93 7000 1.5 290 19:57 24.01.2020
3779 Clouds 7 1021 93 9000 1.5 280 19:38 24.01.2020
3780 Clouds 7 1021 93 9000 1.5 280 19:38 24.01.2020
3781 Clouds 7 1021 93 9000 1.5 280 19:20 24.01.2020
3782 Drizzle 7 1020 93 6000 2.1 260 18:43 24.01.2020
3783 Clouds 7 1020 93 10000 2.1 250 18:23 24.01.2020
3784 Clouds 7 1020 93 10000 1.5 270 17:46 24.01.2020
3785 Drizzle 7 1021 93 10000 2.1 280 17:23 24.01.2020
3786 Drizzle 7 1021 93 8000 2.1 270 16:59 24.01.2020
3787 Drizzle 7 1021 93 8000 2.1 270 16:39 24.01.2020
3788 Clouds 7 1021 93 10000 2.1 270 16:20 24.01.2020
3789 Rain 7 1021 93 10000 2.1 280 15:43 24.01.2020
3790 Rain 7 1021 93 10000 3.1 290 15:22 24.01.2020
3791 Rain 7 1021 93 10000 3.1 290 15:22 24.01.2020
3792 Clouds 7 1021 87 10000 2.6 290 14:56 24.01.2020
3793 Rain 7 1022 93 10000 3.1 300 14:38 24.01.2020
3794 Rain 7 1022 93 10000 3.1 300 14:19 24.01.2020
3795 Drizzle 7 1022 100 8000 3.1 290 13:42 24.01.2020
3796 Rain 7 1022 100 10000 3.1 300 13:22 24.01.2020
3797 Rain 7 1023 93 8000 3.1 290 12:44 24.01.2020
3798 Rain 7 1023 93 8000 3.1 290 12:44 24.01.2020
3799 Clouds 7 1023 100 9000 2.6 290 12:21 24.01.2020
3800 Clouds 7 1023 100 7000 3.1 300 11:45 24.01.2020
3801 Mist 7 1023 100 4500 2.6 270 11:19 24.01.2020
3802 Mist 7 1023 100 4500 2.6 270 11:19 24.01.2020
3803 Drizzle 7 1023 93 2000 2.6 250 10:58 24.01.2020
3804 Drizzle 7 1023 93 2000 2.6 250 10:40 24.01.2020
3805 Drizzle 7 1023 93 2800 2.1 240 10:19 24.01.2020
3806 Drizzle 7 1023 93 2800 2.1 240 10:19 24.01.2020
3807 Drizzle 7 1023 93 4500 1.5 260 09:42 24.01.2020
3808 Mist 7 1022 93 5000 2.6 260 09:23 24.01.2020
3809 Rain 7 1022 93 6000 2.6 260 08:41 24.01.2020
3810 Rain 7 1022 93 6000 2.1 250 08:21 24.01.2020
3811 Rain 7 1022 93 6000 2.6 260 08:00 24.01.2020
3812 Clouds 7 1022 93 6000 2.6 260 07:41 24.01.2020
3813 Mist 7 1022 93 4100 2.1 240 06:55 24.01.2020
3814 Mist 7 1023 93 3900 2.6 250 06:35 24.01.2020
3815 Mist 7 1023 93 3500 2.6 240 05:59 24.01.2020
3816 Rain 7 1023 93 2200 2.6 250 05:18 24.01.2020
3817 Mist 7 1025 100 4400 2.1 240 02:54 24.01.2020
3818 Clouds 6 1025 100 6000 1 230 02:28 24.01.2020
3819 Clouds 6 1025 100 6000 1 0 01:56 24.01.2020
3820 Clouds 6 1026 100 6000 1 240 01:35 24.01.2020
3821 Mist 6 1026 100 4800 2.6 260 00:33 24.01.2020
3822 Clouds 6 1026 100 6000 2.6 270 23:58 23.01.2020
3823 Clouds 6 1026 100 6000 2.6 270 23:40 23.01.2020
3824 Mist 6 1027 93 3500 3.1 270 23:20 23.01.2020
3825 Clouds 6 1027 93 6000 2.6 280 22:39 23.01.2020
3826 Mist 6 1027 93 5000 3.6 290 22:19 23.01.2020
3827 Fog 7 1027 100 700 2.1 250 21:58 23.01.2020
3828 Fog 6 1027 93 700 1.5 0 21:39 23.01.2020
3829 Fog 7 1027 93 700 1.5 0 21:21 23.01.2020
3830 Mist 7 1027 93 1600 2.1 230 20:59 23.01.2020
3831 Mist 7 1027 93 1600 2.1 230 20:39 23.01.2020
3832 Mist 7 1027 93 2900 1 0 20:20 23.01.2020
3833 Mist 7 1028 93 3400 1 0 19:56 23.01.2020
3834 Mist 7 1028 93 3400 1 0 19:38 23.01.2020
3835 Mist 7 1028 93 3600 1 0 19:19 23.01.2020
3836 Mist 7 1028 93 3700 1 0 18:55 23.01.2020
3837 Mist 7 1028 93 4000 1 0 18:37 23.01.2020
3838 Mist 7 1028 93 4000 1 0 18:18 23.01.2020
3839 Mist 7 1028 93 3500 1.5 260 17:43 23.01.2020
3840 Mist 7 1029 93 4000 2.1 280 17:20 23.01.2020
3841 Mist 8 1029 93 4500 1.5 0 16:57 23.01.2020
3842 Mist 8 1029 93 4900 1 300 16:37 23.01.2020
3843 Mist 8 1029 93 4900 1 300 16:18 23.01.2020
3844 Clouds 8 1029 100 7000 1 0 15:56 23.01.2020
3845 Mist 8 1030 100 4500 1 0 15:37 23.01.2020
3846 Mist 8 1030 100 4500 1 0 15:18 23.01.2020
3847 Mist 8 1030 100 4500 0.5 0 14:55 23.01.2020
3848 Mist 8 1030 100 4500 0.5 0 14:55 23.01.2020
3849 Clouds 8 1031 100 6000 1.5 0 14:37 23.01.2020
3850 Clouds 8 1031 100 6000 1.5 0 14:19 23.01.2020
3851 Clouds 8 1031 100 8000 0.5 0 13:43 23.01.2020
3852 Mist 8 1032 100 4500 1 0 13:20 23.01.2020
3853 Mist 8 1032 100 4500 0.5 0 12:47 23.01.2020
3854 Mist 8 1032 100 3500 1 0 12:26 23.01.2020
3855 Mist 7 1032 100 2200 0.5 0 11:59 23.01.2020
3856 Mist 7 1032 100 2200 0.5 0 11:59 23.01.2020
3857 Mist 7 1032 100 2200 0.5 0 11:39 23.01.2020
3858 Rain 7 1033 100 2000 0.5 0 11:20 23.01.2020
3859 Mist 7 1033 100 2000 0.5 0 11:20 23.01.2020
3860 Rain 6 1033 100 2000 0.5 0 10:45 23.01.2020
3861 Mist 6 1033 100 1500 0.5 0 10:23 23.01.2020
3862 Mist 6 1033 100 1200 0.5 0 09:59 23.01.2020
3863 Mist 6 1033 100 1100 1 0 09:39 23.01.2020
3864 Mist 6 1033 100 1100 1 0 09:20 23.01.2020
3865 Fog 6 1033 100 900 1 0 08:42 23.01.2020
3866 Mist 6 1033 100 1400 1 0 08:24 23.01.2020
3867 Mist 6 1033 100 1400 1 0 08:24 23.01.2020
3868 Fog 6 1033 93 900 1 0 07:48 23.01.2020
3869 Fog 6 1033 93 900 1 0 07:27 23.01.2020
3870 Fog 6 1034 93 650 1 0 06:54 23.01.2020
3871 Fog 6 1034 93 650 1 0 06:23 23.01.2020
3872 Rain 6 1034 93 1200 1.5 210 05:58 23.01.2020
3873 Fog 6 1035 100 150 0.5 0 04:24 23.01.2020
3874 Fog 6 1035 100 100 0.5 0 02:45 23.01.2020
3875 Fog 6 1036 100 100 1 0 01:44 23.01.2020
3876 Fog 6 1036 100 150 2.1 280 00:28 23.01.2020
3877 Fog 6 1037 100 250 1.5 310 23:54 22.01.2020
3878 Fog 6 1037 93 150 2.1 290 23:36 22.01.2020
3879 Fog 6 1037 93 150 2.1 290 23:18 22.01.2020
3880 Fog 6 1036 100 250 1.5 0 22:41 22.01.2020
3881 Fog 7 1036 100 750 1.5 0 22:23 22.01.2020
3882 Fog 7 1037 100 600 1.5 290 21:42 22.01.2020
3883 Fog 7 1037 93 600 1.5 290 21:22 22.01.2020
3884 Fog 7 1037 100 400 1.5 300 20:59 22.01.2020
3885 Fog 7 1037 100 400 1.5 300 20:41 22.01.2020
3886 Fog 7 1037 100 400 1 0 20:23 22.01.2020
3887 Fog 7 1037 100 500 1.5 280 19:57 22.01.2020
3888 Fog 7 1037 100 500 1.5 280 19:39 22.01.2020
3889 Fog 7 1037 100 700 0.5 0 19:19 22.01.2020
3890 Fog 8 1037 100 250 1 260 18:57 22.01.2020
3891 Fog 8 1037 100 250 1 260 18:38 22.01.2020
3892 Mist 8 1037 100 1200 1 0 18:20 22.01.2020
3893 Mist 8 1037 93 4600 1.5 0 17:55 22.01.2020
3894 Mist 8 1037 93 4100 0.5 0 17:37 22.01.2020
3895 Mist 8 1037 93 4100 0.5 0 17:18 22.01.2020
3896 Mist 9 1037 100 2200 1.5 260 16:43 22.01.2020
3897 Mist 9 1037 100 4200 1 250 16:23 22.01.2020
3898 Mist 9 1037 100 3900 0.5 0 15:58 22.01.2020
3899 Mist 9 1037 93 3100 1.5 280 15:39 22.01.2020
3900 Fog 9 1038 93 800 1.5 250 15:21 22.01.2020
3901 Fog 9 1038 93 800 1.5 250 14:56 22.01.2020
3902 Mist 9 1038 100 1300 1.5 240 14:36 22.01.2020
3903 Mist 9 1038 100 1300 1.5 240 14:18 22.01.2020
3904 Mist 9 1038 93 1400 2.1 270 13:54 22.01.2020
3905 Fog 9 1038 93 1900 1.5 290 13:36 22.01.2020
3906 Fog 9 1038 93 1900 1.5 290 13:18 22.01.2020
3907 Fog 9 1038 100 2500 2.1 280 12:54 22.01.2020
3908 Mist 9 1038 93 2500 1.5 0 12:36 22.01.2020
3909 Mist 9 1038 93 2500 1.5 0 12:18 22.01.2020
3910 Mist 9 1038 100 1800 1 330 11:54 22.01.2020
3911 Rain 8 1038 100 600 1.5 340 11:36 22.01.2020
3912 Rain 8 1038 100 600 1.5 340 11:18 22.01.2020
3913 Rain 8 1038 100 400 1 0 10:41 22.01.2020
3914 Fog 8 1038 100 400 1 0 10:19 22.01.2020
3915 Fog 8 1038 93 300 1 0 09:42 22.01.2020
3916 Fog 8 1038 100 500 1 0 09:24 22.01.2020
3917 Fog 7 1038 100 150 1.5 260 08:57 22.01.2020
3918 Fog 8 1038 100 150 1.5 260 08:39 22.01.2020
3919 Fog 8 1038 100 300 0.87 219 08:20 22.01.2020
3920 Fog 7 1038 100 150 0.5 0 07:46 22.01.2020
3921 Fog 7 1038 100 200 1 240 07:28 22.01.2020
3922 Rain 7 1038 100 150 0.87 219 06:38 22.01.2020
3923 Rain 7 1038 100 150 0.5 0 06:20 22.01.2020
3924 Fog 7 1038 100 150 1 0 05:21 22.01.2020
3925 Fog 7 1039 100 100 0.5 0 03:30 22.01.2020
3926 Fog 7 1039 100 100 1 240 02:50 22.01.2020
3927 Fog 7 1039 100 100 0.5 0 01:42 22.01.2020
3928 Fog 7 1040 100 200 1 270 00:44 22.01.2020
3929 Fog 7 1039 100 800 1 300 00:25 22.01.2020
3930 Mist 7 1040 100 2600 1 320 23:38 21.01.2020
3931 Mist 7 1040 100 2900 1 0 23:20 21.01.2020
3932 Drizzle 7 1040 100 2200 2.1 330 22:55 21.01.2020
3933 Mist 7 1040 100 1900 1 0 22:36 21.01.2020
3934 Mist 7 1040 100 1900 1 0 22:36 21.01.2020
3935 Mist 7 1040 100 1900 1 0 22:18 21.01.2020
3936 Mist 7 1040 100 1700 1 330 21:55 21.01.2020
3937 Mist 7 1040 100 1700 2.1 330 21:36 21.01.2020
3938 Mist 7 1040 100 1700 2.1 330 21:18 21.01.2020
3939 Mist 7 1040 100 2400 1.5 320 20:39 21.01.2020
3940 Mist 7 1040 100 2700 1 320 20:20 21.01.2020
3941 Mist 7 1040 100 4100 1.5 320 19:59 21.01.2020
3942 Mist 7 1040 100 4100 1.5 320 19:40 21.01.2020
3943 Mist 7 1040 100 2700 2.1 320 19:21 21.01.2020
3944 Mist 7 1039 100 1100 2.6 300 18:57 21.01.2020
3945 Rain 7 1039 100 1100 2.6 300 18:39 21.01.2020
3946 Rain 7 1040 93 1100 1.5 0 18:21 21.01.2020
3947 Rain 7 1040 100 400 1 240 17:57 21.01.2020
3948 Fog 7 1040 100 400 1 240 17:38 21.01.2020
3949 Fog 7 1040 100 600 1 0 17:18 21.01.2020
3950 Rain 7 1040 93 1000 0.5 0 16:38 21.01.2020
3951 Rain 7 1040 93 1000 0.5 0 16:19 21.01.2020
3952 Rain 7 1040 93 1400 1 0 15:59 21.01.2020
3953 Mist 7 1041 93 1600 1 210 15:38 21.01.2020
3954 Mist 7 1041 93 1600 1 210 15:19 21.01.2020
3955 Haze 7 1041 100 2900 1 0 14:40 21.01.2020
3956 Clouds 7 1041 93 7000 1 0 14:21 21.01.2020
3957 Haze 7 1041 93 4200 1.5 0 13:43 21.01.2020
3958 Clouds 7 1042 93 10000 1.5 0 13:20 21.01.2020
3959 Haze 7 1042 93 4100 1.5 0 12:58 21.01.2020
3960 Haze 7 1042 93 3900 1.5 0 12:39 21.01.2020
3961 Haze 7 1042 93 3900 1.5 0 12:21 21.01.2020
3962 Clouds 6 1042 93 10000 1.5 0 11:55 21.01.2020
3963 Clouds 6 1042 93 10000 1.5 160 11:36 21.01.2020
3964 Clouds 6 1042 93 10000 1.5 160 11:18 21.01.2020
3965 Clouds 5 1041 86 10000 1 160 10:42 21.01.2020
3966 Clouds 5 1041 93 10000 1 190 10:22 21.01.2020
3967 Clouds 5 1041 93 10000 1.5 0 09:43 21.01.2020
3968 Clouds 5 1041 93 10000 1.5 0 09:23 21.01.2020
3969 Haze 5 1041 93 4700 1 0 08:58 21.01.2020
3970 Haze 5 1041 93 4700 1 0 08:40 21.01.2020
3971 Haze 4 1041 93 3700 1.5 150 08:19 21.01.2020
3972 Clouds 4 1042 93 10000 0.5 0 07:42 21.01.2020
3973 Clouds 4 1042 93 10000 0.5 0 07:42 21.01.2020
3974 Clouds 4 1042 93 10000 0.5 0 07:23 21.01.2020
3975 Clouds 4 1041 93 10000 1 0 06:55 21.01.2020
3976 Clouds 4 1041 93 10000 1.5 0 06:37 21.01.2020
3977 Clouds 4 1041 93 10000 1.5 0 05:44 21.01.2020
3978 Mist 4 1042 93 4200 1.5 0 04:41 21.01.2020
3979 Clouds 4 1043 100 10000 1.5 180 02:58 21.01.2020
3980 Mist 3 1043 100 3000 2.1 180 02:19 21.01.2020
3981 Clouds 3 1043 93 7000 1.5 200 01:26 21.01.2020
3982 Clouds 4 1044 93 7000 1.5 200 00:38 21.01.2020
3983 Clouds 4 1044 100 8000 1.5 200 23:59 20.01.2020
3984 Clouds 4 1044 93 10000 1.5 200 23:41 20.01.2020
3985 Clouds 4 1044 93 10000 1.5 200 23:19 20.01.2020
3986 Clouds 4 1045 93 8000 1.5 200 22:58 20.01.2020
3987 Clouds 4 1045 93 8000 1.5 200 22:38 20.01.2020
3988 Clouds 4 1045 93 10000 1.5 240 22:20 20.01.2020
3989 Clouds 4 1045 93 10000 1.5 240 22:20 20.01.2020
3990 Clouds 4 1045 93 10000 1.5 0 21:58 20.01.2020
3991 Clouds 4 1045 93 10000 1.5 230 21:37 20.01.2020
3992 Clouds 4 1045 93 10000 1.5 230 21:19 20.01.2020
3993 Clouds 4 1045 93 10000 2.1 210 20:56 20.01.2020
3994 Clouds 4 1045 93 10000 1.5 200 20:38 20.01.2020
3995 Clouds 4 1045 93 10000 1.5 200 20:18 20.01.2020
3996 Clouds 4 1045 93 10000 1.5 190 19:56 20.01.2020
3997 Clouds 4 1045 93 10000 1 190 19:38 20.01.2020
3998 Clouds 4 1045 93 10000 1 190 19:18 20.01.2020
3999 Clouds 4 1045 93 10000 1 0 18:44 20.01.2020
4000 Clouds 5 1045 86 10000 1 0 18:22 20.01.2020
4001 Clouds 6 1045 81 10000 1 0 17:41 20.01.2020
4002 Clouds 6 1045 81 10000 1 230 17:20 20.01.2020
4003 Clouds 7 1045 81 10000 1.5 260 16:59 20.01.2020
4004 Clouds 7 1045 81 10000 1.5 260 16:39 20.01.2020
4005 Clouds 7 1045 75 10000 2.1 270 16:19 20.01.2020
4006 Clouds 7 1045 75 10000 2.1 270 16:19 20.01.2020
4007 Clouds 7 1045 75 10000 2.1 270 16:19 20.01.2020
4008 Clouds 7 1045 75 10000 2.1 270 16:19 20.01.2020
4009 Clouds 7 1045 75 10000 2.1 270 16:19 20.01.2020
4010 Clouds 7 1045 75 10000 2.6 250 15:56 20.01.2020
4011 Clouds 7 1046 75 10000 3.1 250 15:38 20.01.2020
4012 Clouds 7 1046 75 10000 2.1 260 15:20 20.01.2020
4013 Clouds 7 1046 75 10000 1 0 14:41 20.01.2020
4014 Clouds 7 1046 75 10000 1 0 14:22 20.01.2020
4015 Clouds 6 1047 81 10000 1.5 210 13:58 20.01.2020
4016 Clouds 6 1047 86 10000 1.5 0 13:40 20.01.2020
4017 Clouds 6 1047 86 10000 1.5 0 13:21 20.01.2020
4018 Clouds 5 1047 86 10000 1.5 0 12:46 20.01.2020
4019 Clouds 5 1048 86 10000 2.1 180 12:28 20.01.2020
4020 Clouds 4 1048 93 10000 2.1 180 11:57 20.01.2020
4021 Clouds 4 1048 93 10000 2.1 180 11:38 20.01.2020
4022 Clouds 3 1048 93 10000 2.1 180 11:19 20.01.2020
4023 Clouds 2 1047 93 10000 2.1 170 10:48 20.01.2020
4024 Clouds 1 1047 93 10000 2.6 180 10:22 20.01.2020
4025 Clouds 1 1047 93 10000 1 0 09:54 20.01.2020
4026 Clouds 1 1047 100 10000 1 0 09:36 20.01.2020
4027 Clouds 1 1047 100 10000 1 0 09:18 20.01.2020
4028 Clouds 1 1047 100 10000 2.1 180 08:42 20.01.2020
4029 Clouds 1 1047 91 10000 1.5 190 08:24 20.01.2020
4030 Clouds 1 1047 93 10000 1.5 0 07:43 20.01.2020
4031 Clouds 1 1047 93 10000 2.1 180 07:23 20.01.2020
4032 Clouds 1 1047 93 10000 2.1 170 06:45 20.01.2020
4033 Clouds 1 1047 93 10000 2.1 170 06:25 20.01.2020
4034 Clear 1 1047 93 10000 1.5 0 05:41 20.01.2020
4035 Clear 1 1047 89 10000 1 160 05:21 20.01.2020
4036 Clear 1 1047 89 10000 1 220 04:34 20.01.2020
4037 Clear 1 1048 89 10000 1.5 160 02:55 20.01.2020
4038 Clear 1 1048 89 10000 1.5 160 02:55 20.01.2020
4039 Mist 1 1048 94 4800 0.5 0 01:42 20.01.2020
4040 Mist 1 1048 94 4800 0.5 0 01:23 20.01.2020
4041 Clouds 1 1048 100 7000 0.5 0 00:43 20.01.2020
4042 Clouds 2 1047 100 9000 1 0 00:22 20.01.2020
4043 Clouds 2 1047 100 7000 1.5 200 23:39 19.01.2020
4044 Clouds 2 1047 100 7000 1.5 0 23:19 19.01.2020
4045 Mist 2 1047 100 5000 1 0 22:56 19.01.2020
4046 Mist 2 1047 100 1500 1 0 22:37 19.01.2020
4047 Mist 2 1047 100 1500 1 0 22:37 19.01.2020
4048 Mist 2 1047 100 1500 1 0 22:19 19.01.2020
4049 Fog 2 1047 100 700 1 0 21:56 19.01.2020
4050 Fog 2 1047 100 400 1 0 21:38 19.01.2020
4051 Fog 2 1047 100 400 1 0 21:19 19.01.2020
4052 Fog 2 1048 100 600 0.5 0 20:57 19.01.2020
4053 Fog 2 1047 100 600 1 0 20:38 19.01.2020
4054 Fog 2 1047 100 600 1 0 20:20 19.01.2020
4055 Fog 2 1048 98 600 0.5 0 19:56 19.01.2020
4056 Fog 2 1047 98 300 1 0 19:37 19.01.2020
4057 Fog 2 1047 98 300 1 0 19:19 19.01.2020
4058 Fog 2 1047 98 300 1 0 19:19 19.01.2020
4059 Fog 2 1047 98 300 1 0 19:19 19.01.2020
4060 Fog 2 1047 100 250 1 0 18:55 19.01.2020
4061 Fog 2 1047 100 100 1 0 18:37 19.01.2020
4062 Fog 3 1047 100 100 1 0 18:19 19.01.2020
4063 Fog 3 1047 100 250 1 0 17:57 19.01.2020
4064 Fog 3 1047 100 250 1 0 17:39 19.01.2020
4065 Fog 3 1047 100 200 1.5 0 17:20 19.01.2020
4066 Fog 3 1047 93 200 0.5 0 16:57 19.01.2020
4067 Fog 4 1047 93 200 1 0 16:38 19.01.2020
4068 Fog 4 1047 93 200 1 0 16:19 19.01.2020
4069 Fog 4 1046 100 250 1 0 15:57 19.01.2020
4070 Fog 4 1046 93 200 1 0 15:37 19.01.2020
4071 Fog 4 1046 93 200 1 0 15:19 19.01.2020
4072 Fog 4 1046 100 250 1.5 240 14:56 19.01.2020
4073 Fog 4 1046 100 250 1.5 240 14:56 19.01.2020
4074 Fog 4 1046 100 400 1.5 0 14:37 19.01.2020
4075 Rain 4 1046 100 400 1.5 0 14:18 19.01.2020
4076 Rain 4 1046 100 400 1.5 0 14:18 19.01.2020
4077 Rain 4 1046 75 600 1 0 13:54 19.01.2020
4078 Rain 3 1046 100 200 1.5 0 13:36 19.01.2020
4079 Fog 3 1046 100 200 1.5 0 13:18 19.01.2020
4080 Fog 3 1046 100 200 2.1 90 12:42 19.01.2020
4081 Fog 3 1046 100 200 2.1 70 12:23 19.01.2020
4082 Fog 2 1046 100 200 0.5 0 11:57 19.01.2020
4083 Rain 1 1046 100 200 0.5 0 11:39 19.01.2020
4084 Rain 0 1046 100 200 0.5 0 11:18 19.01.2020
4085 Fog -1 1045 92 200 0.5 0 10:41 19.01.2020
4086 Fog -1 1044 100 150 1 0 10:21 19.01.2020
4087 Fog -2 1044 100 150 1 260 09:58 19.01.2020
4088 Fog -2 1044 100 150 1 260 09:39 19.01.2020
4089 Fog -1 1044 92 250 0.5 0 09:21 19.01.2020
4090 Fog -2 1043 92 700 1 0 08:56 19.01.2020
4091 Fog -1 1043 100 200 0.5 0 08:38 19.01.2020
4092 Fog -1 1043 100 200 0.5 0 08:19 19.01.2020
4093 Fog -1 1042 100 100 0.5 0 07:30 19.01.2020
4094 Fog -1 1041 100 100 0.5 350 06:56 19.01.2020
4095 Fog -1 1041 92 50 0.5 0 06:23 19.01.2020
4096 Fog 0 1040 100 50 1.5 100 04:19 19.01.2020
4097 Fog 1 1038 100 350 1.5 140 02:35 19.01.2020
4098 Mist 1 1038 86 1400 0.5 0 01:45 19.01.2020
4099 Mist 1 1037 100 3300 1 160 01:22 19.01.2020
4100 Clouds 2 1037 85 10000 1 210 00:45 19.01.2020
4101 Clouds 2 1036 85 10000 1 0 00:25 19.01.2020
4102 Clouds 2 1036 85 10000 1 0 23:55 18.01.2020
4103 Clouds 2 1035 93 10000 1.5 270 23:36 18.01.2020
4104 Clouds 2 1035 93 10000 1.5 270 23:18 18.01.2020
4105 Clouds 2 1035 93 10000 1 0 22:43 18.01.2020
4106 Clouds 2 1034 93 10000 0.5 0 22:24 18.01.2020
4107 Clouds 3 1034 93 10000 1 0 21:58 18.01.2020
4108 Clouds 3 1034 93 10000 1 0 21:39 18.01.2020
4109 Clouds 3 1034 93 10000 1 230 21:21 18.01.2020
4110 Clouds 3 1034 86 10000 2.1 290 20:59 18.01.2020
4111 Clouds 3 1034 86 10000 2.1 290 20:41 18.01.2020
4112 Clouds 4 1033 86 10000 2.6 290 20:19 18.01.2020
4113 Clouds 4 1033 86 10000 2.1 270 19:43 18.01.2020
4114 Clouds 4 1032 80 10000 1.5 300 19:24 18.01.2020
4115 Clouds 4 1032 80 10000 3.1 300 18:54 18.01.2020
4116 Clouds 5 1031 80 10000 2.1 300 18:36 18.01.2020
4117 Clouds 5 1031 80 10000 2.1 300 18:18 18.01.2020
4118 Clouds 5 1030 75 10000 1.5 320 17:41 18.01.2020
4119 Clouds 5 1030 75 10000 3.1 290 17:21 18.01.2020
4120 Clouds 5 1030 75 10000 3.1 290 16:57 18.01.2020
4121 Clouds 6 1029 70 10000 4.6 290 16:38 18.01.2020
4122 Clouds 6 1029 70 10000 4.6 290 16:38 18.01.2020
4123 Clouds 6 1029 70 10000 4.6 290 16:19 18.01.2020
4124 Clouds 6 1029 70 10000 4.1 300 15:47 18.01.2020
4125 Clouds 6 1029 70 10000 4.1 300 15:47 18.01.2020
4126 Clouds 7 1028 70 10000 5.1 300 15:26 18.01.2020
4127 Clouds 7 1028 70 10000 6.7 290 14:59 18.01.2020
4128 Clouds 7 1028 70 10000 6.7 290 14:40 18.01.2020
4129 Clouds 7 1028 70 10000 4.6 290 14:19 18.01.2020
4130 Clouds 7 1027 75 10000 4.6 290 13:56 18.01.2020
4131 Clear 6 1027 81 10000 1.5 280 13:36 18.01.2020
4132 Clear 6 1027 81 10000 1.5 280 13:18 18.01.2020
4133 Clear 6 1027 81 10000 1.5 280 13:18 18.01.2020
4134 Clear 6 1027 86 10000 2.6 240 12:41 18.01.2020
4135 Clear 6 1027 86 10000 1.5 220 12:21 18.01.2020
4136 Clear 5 1026 93 10000 1.5 0 11:56 18.01.2020
4137 Clear 5 1026 93 10000 2.1 180 11:37 18.01.2020
4138 Clear 4 1026 93 10000 2.1 180 11:19 18.01.2020
4139 Clear 3 1026 84 10000 1 0 10:41 18.01.2020
4140 Clear 3 1025 84 10000 1.5 0 10:20 18.01.2020
4141 Clear 3 1025 84 10000 1.5 0 10:20 18.01.2020
4142 Clouds 2 1025 84 10000 2.1 200 09:50 18.01.2020
4143 Clear 2 1024 84 10000 2.1 150 09:32 18.01.2020
4144 Clear 2 1024 84 10000 2.1 220 08:58 18.01.2020
4145 Clear 2 1024 84 10000 2.1 220 08:39 18.01.2020
4146 Clouds 3 1023 81 10000 1.5 190 08:19 18.01.2020
4147 Clear 3 1023 86 10000 2.1 170 07:52 18.01.2020
4148 Clear 3 1022 80 10000 2.6 230 07:32 18.01.2020
4149 Clear 3 1022 80 10000 2.6 240 06:48 18.01.2020
4150 Clear 3 1021 80 10000 2.6 240 06:18 18.01.2020
4151 Clouds 3 1021 80 10000 2.6 260 05:25 18.01.2020
4152 Clear 3 1020 93 10000 3.6 260 03:25 18.01.2020
4153 Clouds 4 1018 100 10000 3.1 230 01:56 18.01.2020
4154 Rain 4 1018 100 10000 2.6 220 01:35 18.01.2020
4155 Clouds 4 1017 93 10000 2.1 200 00:37 18.01.2020
4156 Clouds 4 1017 93 10000 2.1 200 00:18 18.01.2020
4157 Rain 4 1016 86 10000 3.6 230 23:44 17.01.2020
4158 Rain 4 1016 93 10000 3.1 210 23:20 17.01.2020
4159 Clouds 3 1015 93 10000 2.6 210 22:46 17.01.2020
4160 Rain 4 1015 86 10000 3.1 270 22:22 17.01.2020
4161 Rain 4 1015 86 10000 3.1 270 22:22 17.01.2020
4162 Rain 4 1015 86 8000 8.7 240 21:59 17.01.2020
4163 Rain 4 1015 86 8000 8.7 240 21:41 17.01.2020
4164 Rain 4 1014 86 9000 3.1 190 21:22 17.01.2020
4165 Rain 4 1014 86 10000 3.1 190 20:58 17.01.2020
4166 Rain 4 1014 86 10000 3.1 190 20:38 17.01.2020
4167 Clouds 4 1014 86 10000 2.6 190 20:20 17.01.2020
4168 Clouds 4 1013 80 10000 2.1 200 19:55 17.01.2020
4169 Clouds 4 1013 80 10000 2.1 200 19:55 17.01.2020
4170 Clouds 4 1013 80 10000 4.1 220 19:37 17.01.2020
4171 Clouds 4 1013 80 10000 4.1 220 19:37 17.01.2020
4172 Clouds 4 1013 80 10000 4.1 220 19:18 17.01.2020
4173 Clouds 4 1012 86 10000 2.1 190 18:47 17.01.2020
4174 Clouds 5 1012 86 10000 2.1 190 18:28 17.01.2020
4175 Clouds 5 1011 86 10000 2.6 210 17:56 17.01.2020
4176 Clouds 5 1011 86 10000 2.6 210 17:38 17.01.2020
4177 Rain 5 1011 80 10000 4.1 230 17:20 17.01.2020
4178 Clouds 6 1011 81 10000 4.1 240 16:43 17.01.2020
4179 Clouds 6 1010 81 10000 4.6 230 16:20 17.01.2020
4180 Rain 6 1010 81 10000 4.6 230 15:49 17.01.2020
4181 Rain 6 1010 81 10000 4.6 240 15:28 17.01.2020
4182 Clouds 6 1009 81 10000 3.1 260 14:57 17.01.2020
4183 Clouds 6 1009 81 10000 3.1 260 14:38 17.01.2020
4184 Clouds 5 1009 93 10000 2.1 210 14:20 17.01.2020
4185 Clouds 5 1009 93 10000 2.1 210 14:20 17.01.2020
4186 Rain 5 1009 86 10000 1.5 0 13:41 17.01.2020
4187 -273 0 0 0 0 0 13:22 17.01.2020
4188 Rain 5 1008 93 10000 2.6 250 12:46 17.01.2020
4189 Rain 4 1008 93 10000 4.1 260 12:23 17.01.2020
4190 Rain 4 1008 93 10000 4.1 260 12:23 17.01.2020
4191 Rain 4 1007 93 10000 5.7 300 11:41 17.01.2020
4192 Drizzle 5 1006 93 10000 6.2 300 11:20 17.01.2020
4193 Drizzle 5 1005 100 4500 7.2 300 10:55 17.01.2020
4194 Rain 5 1005 93 7000 3.1 230 10:36 17.01.2020
4195 Rain 6 1005 93 7000 3.1 230 10:18 17.01.2020
4196 Rain 6 1004 93 10000 1.5 200 09:42 17.01.2020
4197 Rain 6 1004 93 10000 2.1 210 09:20 17.01.2020
4198 Rain 7 1004 93 10000 1.5 0 08:55 17.01.2020
4199 Rain 7 1004 93 10000 2.6 190 08:37 17.01.2020
4200 Rain 7 1004 93 10000 2.6 190 08:18 17.01.2020
4201 Rain 7 1004 93 5000 3.1 200 07:43 17.01.2020
4202 Rain 7 1004 87 4400 2.1 170 07:24 17.01.2020
4203 Rain 7 1004 87 10000 1.5 0 06:47 17.01.2020
4204 Clouds 7 1004 93 10000 1.5 0 06:29 17.01.2020
4205 Rain 7 1005 93 4900 1.5 0 04:26 17.01.2020
4206 Clouds 7 1008 86 0 3.15 186 02:55 17.01.2020
4207 Clouds 7 1005 89 0 0.89 201 02:30 17.01.2020
4208 Clouds 8 1005 90 0 0.45 228 01:32 17.01.2020
4209 Clouds 8 1008 84 0 4.42 210 00:59 17.01.2020
4210 Clouds 8 1004 84 0 3.13 176 00:59 17.01.2020
4211 Clouds 8 1008 83 0 4.42 210 00:35 17.01.2020
4212 Clouds 8 1005 81 10000 4.1 220 23:56 16.01.2020
4213 Clouds 8 1005 81 10000 4.1 220 23:38 16.01.2020
4214 Rain 9 1005 81 10000 4.1 220 23:19 16.01.2020
4215 Rain 9 1004 81 10000 5.1 220 22:40 16.01.2020
4216 Rain 9 1004 81 10000 5.7 210 22:21 16.01.2020
4217 Clouds 10 1003 76 10000 5.1 200 21:56 16.01.2020
4218 Rain 10 1002 76 10000 5.1 200 21:37 16.01.2020
4219 Rain 10 1002 76 10000 5.1 200 21:18 16.01.2020
4220 Rain 11 1002 87 10000 5.1 190 20:56 16.01.2020
4221 Rain 11 1001 87 10000 5.1 180 20:37 16.01.2020
4222 Rain 11 1001 87 10000 5.1 180 20:18 16.01.2020
4223 Clouds 11 1001 87 10000 5.1 180 19:54 16.01.2020
4224 Clouds 11 1001 87 10000 5.1 180 19:54 16.01.2020
4225 Rain 11 1000 87 10000 5.1 180 19:36 16.01.2020
4226 Rain 10 1000 87 10000 5.1 180 19:18 16.01.2020
4227 Rain 10 1000 93 6000 3.6 180 18:54 16.01.2020
4228 Rain 10 1001 93 2000 5.1 180 18:36 16.01.2020
4229 Rain 10 1001 93 2000 5.1 180 18:18 16.01.2020
4230 Rain 10 1001 81 10000 6.2 170 17:41 16.01.2020
4231 Clouds 11 1001 81 10000 5.7 170 17:21 16.01.2020
4232 Clouds 11 1001 81 10000 7.2 180 16:56 16.01.2020
4233 Clouds 10 1001 81 10000 6.2 170 16:37 16.01.2020
4234 Clouds 10 1001 81 10000 6.2 170 16:18 16.01.2020
4235 Rain 10 1002 81 10000 6.2 150 15:44 16.01.2020
4236 Rain 9 1002 81 10000 5.7 150 15:21 16.01.2020
4237 Rain 9 1003 87 10000 6.2 140 14:55 16.01.2020
4238 Rain 9 1005 81 10000 6.2 160 14:37 16.01.2020
4239 Rain 9 1005 81 10000 6.2 160 14:18 16.01.2020
4240 Clouds 9 1006 76 10000 5.7 150 13:43 16.01.2020
4241 Clouds 8 1006 81 10000 6.7 140 13:24 16.01.2020
4242 Clouds 8 1008 75 10000 5.1 0 12:45 16.01.2020
4243 Clouds 8 1009 75 10000 4.6 160 12:27 16.01.2020
4244 Clouds 8 1009 75 10000 4.6 150 11:54 16.01.2020
4245 Clouds 8 1010 75 10000 5.1 0 11:36 16.01.2020
4246 Clouds 8 1010 75 10000 5.1 0 11:18 16.01.2020
4247 Clouds 7 1011 81 10000 4.1 150 10:38 16.01.2020
4248 Clouds 7 1011 81 10000 4.1 150 10:20 16.01.2020
4249 Clouds 7 1011 87 10000 3.6 160 09:56 16.01.2020
4250 Clouds 7 1011 87 10000 4.1 0 09:37 16.01.2020
4251 Clouds 7 1011 87 10000 4.1 0 09:19 16.01.2020
4252 Clouds 7 1012 87 10000 3.6 0 08:48 16.01.2020
4253 Clouds 7 1012 87 10000 3.6 170 08:29 16.01.2020
4254 Clouds 6 1012 87 10000 3.1 160 07:49 16.01.2020
4255 Clouds 6 1012 87 10000 3.6 170 07:25 16.01.2020
4256 Clouds 6 1013 87 10000 2.6 170 06:59 16.01.2020
4257 Clouds 6 1013 93 10000 3.1 160 06:37 16.01.2020
4258 Clouds 5 1013 86 10000 2.1 160 05:58 16.01.2020
4259 Clouds 5 1013 86 10000 2.1 160 05:39 16.01.2020
4260 Clouds 5 1014 87 10000 3.1 180 04:37 16.01.2020
4261 Clouds 5 1014 87 10000 3.1 180 04:37 16.01.2020
4262 Clouds 5 1013 81 10000 3.6 180 03:28 16.01.2020
4263 Clear 5 1013 81 10000 3.1 180 02:36 16.01.2020
4264 Clouds 5 1013 81 10000 3.1 180 00:53 16.01.2020
4265 Clouds 5 1012 81 10000 3.6 180 00:24 16.01.2020
4266 Clouds 5 1012 81 10000 3.6 180 23:48 15.01.2020
4267 Clouds 5 1012 81 10000 3.6 190 23:23 15.01.2020
4268 Clouds 6 1011 81 10000 3.1 190 22:57 15.01.2020
4269 Clouds 6 1011 81 10000 3.1 190 22:57 15.01.2020
4270 Clouds 6 1011 81 10000 3.1 190 22:39 15.01.2020
4271 Clouds 6 1011 81 10000 3.6 190 22:19 15.01.2020
4272 Clouds 6 1010 75 10000 3.6 190 21:57 15.01.2020
4273 Clouds 6 1010 80 10000 3.1 190 21:37 15.01.2020
4274 Clouds 6 1010 80 10000 3.1 190 21:19 15.01.2020
4275 Clouds 6 1009 75 10000 3.1 180 20:57 15.01.2020
4276 Clouds 6 1009 75 10000 3.1 180 20:39 15.01.2020
4277 Clouds 6 1009 75 10000 3.1 180 20:39 15.01.2020
4278 Clouds 6 1009 75 10000 3.6 190 20:20 15.01.2020
4279 Clouds 6 1008 75 10000 3.6 190 19:55 15.01.2020
4280 Clouds 6 1008 75 10000 3.6 200 19:37 15.01.2020
4281 Clouds 6 1008 75 10000 3.6 200 19:37 15.01.2020
4282 Clouds 6 1008 75 10000 3.6 200 19:18 15.01.2020
4283 Clouds 6 1007 75 10000 3.6 200 18:56 15.01.2020
4284 Clouds 6 1007 75 10000 3.6 200 18:56 15.01.2020
4285 Clouds 6 1007 75 10000 4.1 200 18:38 15.01.2020
4286 Clouds 7 1007 75 10000 4.1 200 18:19 15.01.2020
4287 Clouds 7 1006 70 10000 4.1 200 17:56 15.01.2020
4288 Clouds 7 1005 70 10000 3.1 200 17:37 15.01.2020
4289 Clouds 7 1005 70 10000 3.1 200 17:18 15.01.2020
4290 Clouds 8 1004 70 10000 4.6 210 16:40 15.01.2020
4291 Clouds 8 1004 70 10000 4.6 210 16:22 15.01.2020
4292 Rain 8 1003 70 10000 5.1 210 15:57 15.01.2020
4293 Clouds 8 1003 70 10000 4.1 210 15:39 15.01.2020
4294 Clouds 8 1003 70 10000 4.1 210 15:18 15.01.2020
4295 Clouds 8 1003 70 10000 4.1 200 14:43 15.01.2020
4296 Clouds 8 1002 70 10000 4.6 210 14:20 15.01.2020
4297 Clouds 8 1002 70 10000 4.6 210 13:46 15.01.2020
4298 Clouds 8 1002 75 10000 4.6 210 13:26 15.01.2020
4299 Clouds 7 1001 75 10000 4.6 210 12:59 15.01.2020
4300 Clouds 7 1000 75 10000 3.6 200 12:39 15.01.2020
4301 Clouds 7 1000 75 10000 3.6 200 12:19 15.01.2020
4302 Clouds 7 1000 75 10000 3.6 200 12:19 15.01.2020
4303 Clouds 7 1000 81 10000 2.6 190 11:56 15.01.2020
4304 Clouds 6 999 81 10000 3.1 190 11:37 15.01.2020
4305 Clouds 6 999 81 10000 3.1 190 11:19 15.01.2020
4306 Clouds 6 999 81 10000 3.1 190 10:43 15.01.2020
4307 Clouds 6 998 81 10000 3.1 190 10:25 15.01.2020
4308 Clouds 6 998 81 10000 3.6 200 09:44 15.01.2020
4309 Clouds 5 997 81 10000 3.6 200 09:23 15.01.2020
4310 Clouds 5 997 75 10000 3.1 190 08:56 15.01.2020
4311 Clouds 5 997 81 10000 3.6 200 08:38 15.01.2020
4312 Clouds 5 997 81 10000 3.6 200 08:19 15.01.2020
4313 Clouds 5 996 81 10000 3.6 200 07:51 15.01.2020
4314 Clouds 5 996 86 10000 4.1 200 07:31 15.01.2020
4315 Clouds 5 996 80 10000 3.6 210 06:45 15.01.2020
4316 Clouds 5 995 80 10000 3.1 200 06:19 15.01.2020
4317 Rain 6 994 81 10000 3.6 190 04:36 15.01.2020
4318 Rain 6 993 81 10000 4.6 210 02:32 15.01.2020
4319 Clouds 6 992 81 10000 3.1 210 01:27 15.01.2020
4320 Clouds 6 992 81 10000 2.6 220 00:45 15.01.2020
4321 Rain 6 992 75 10000 4.1 220 00:26 15.01.2020
4322 Rain 6 991 75 10000 4.6 230 23:48 14.01.2020
4323 Clouds 7 991 81 10000 6.2 230 23:29 14.01.2020
4324 Clouds 7 990 75 10000 5.1 220 22:59 14.01.2020
4325 Clouds 7 990 81 10000 4.6 220 22:40 14.01.2020
4326 Clouds 7 990 81 10000 4.6 220 22:19 14.01.2020
4327 Clouds 7 989 81 10000 4.1 220 21:58 14.01.2020
4328 Clouds 7 988 81 10000 7.7 240 21:39 14.01.2020
4329 Clouds 7 988 81 10000 7.7 240 21:20 14.01.2020
4330 Clouds 7 987 87 10000 3.6 220 20:57 14.01.2020
4331 Clouds 8 987 87 10000 3.6 220 20:39 14.01.2020
4332 Clouds 7 986 87 10000 4.1 240 20:19 14.01.2020
4333 Clouds 7 986 87 10000 4.1 240 19:55 14.01.2020
4334 Clouds 8 985 87 10000 6.2 260 19:37 14.01.2020
4335 Clouds 8 985 87 10000 6.2 260 19:18 14.01.2020
4336 Clouds 9 984 81 10000 10.3 240 18:41 14.01.2020
4337 Rain 9 981 81 10000 9.3 210 18:20 14.01.2020
4338 Rain 10 981 81 10000 9.3 210 17:58 14.01.2020
4339 Clouds 11 981 82 10000 8.7 210 17:37 14.01.2020
4340 Clouds 11 981 82 10000 8.7 210 17:18 14.01.2020
4341 Rain 11 980 87 10000 7.7 200 16:44 14.01.2020
4342 Rain 10 980 87 10000 7.7 190 16:23 14.01.2020
4343 Rain 9 980 87 10000 5.7 190 15:58 14.01.2020
4344 Rain 8 981 87 7000 5.1 170 15:40 14.01.2020
4345 Rain 8 981 87 7000 5.1 170 15:19 14.01.2020
4346 Rain 7 982 93 5000 4.1 140 14:45 14.01.2020
4347 Rain 7 984 93 4500 3.1 130 14:21 14.01.2020
4348 Rain 7 987 87 8000 3.1 0 13:57 14.01.2020
4349 Rain 6 988 87 10000 3.6 160 13:38 14.01.2020
4350 Rain 6 988 87 10000 3.6 160 13:18 14.01.2020
4351 Rain 7 990 81 10000 5.1 180 12:42 14.01.2020
4352 Rain 7 990 81 10000 5.1 180 12:22 14.01.2020
4353 Clouds 7 990 81 10000 4.6 180 11:56 14.01.2020
4354 Clouds 7 990 81 10000 3.6 170 11:36 14.01.2020
4355 Clouds 6 990 81 10000 3.6 170 11:18 14.01.2020
4356 Clouds 6 991 87 10000 3.1 0 10:40 14.01.2020
4357 Clouds 6 991 87 10000 3.1 0 10:20 14.01.2020
4358 Rain 5 992 87 10000 3.1 180 09:58 14.01.2020
4359 Rain 6 992 87 10000 3.1 180 09:58 14.01.2020
4360 Rain 5 992 81 10000 3.1 180 09:40 14.01.2020
4361 Rain 5 992 81 10000 4.1 180 09:21 14.01.2020
4362 Rain 5 992 81 10000 4.1 180 08:48 14.01.2020
4363 Clouds 5 991 81 10000 3.6 180 08:25 14.01.2020
4364 Rain 5 992 81 10000 2.6 170 07:56 14.01.2020
4365 Rain 5 992 86 10000 2.1 180 07:34 14.01.2020
4366 Clouds 5 992 86 10000 3.1 180 06:57 14.01.2020
4367 Clouds 5 992 86 10000 4.1 190 06:34 14.01.2020
4368 Clouds 5 992 81 10000 4.6 200 05:28 14.01.2020
4369 Clouds 5 991 86 10000 4.1 190 03:52 14.01.2020
4370 Clouds 5 991 86 10000 4.1 190 03:52 14.01.2020
4371 Clouds 5 991 86 10000 4.6 200 02:50 14.01.2020
4372 Rain 5 991 86 10000 8.2 230 01:56 14.01.2020
4373 Clouds 6 990 75 10000 6.2 210 00:52 14.01.2020
4374 Clouds 6 989 75 10000 5.7 210 00:33 14.01.2020
4375 Clouds 6 989 75 10000 5.7 210 00:33 14.01.2020
4376 Clouds 6 989 81 10000 5.7 200 23:55 13.01.2020
4377 Clouds 6 989 81 10000 5.1 190 23:37 13.01.2020
4378 Clouds 6 989 81 10000 5.1 190 23:18 13.01.2020
4379 Clouds 6 989 81 10000 4.1 200 22:42 13.01.2020
4380 Clouds 6 989 81 10000 4.1 190 22:21 13.01.2020
4381 Clouds 6 989 81 10000 4.1 190 21:57 13.01.2020
4382 Clouds 6 989 81 10000 4.1 190 21:38 13.01.2020
4383 Clouds 6 989 81 10000 4.1 190 21:38 13.01.2020
4384 Clouds 5 989 81 10000 5.1 200 21:19 13.01.2020
4385 Rain 5 988 86 10000 5.1 190 20:58 13.01.2020
4386 Clouds 5 988 86 10000 4.6 190 20:40 13.01.2020
4387 Clouds 5 988 86 10000 4.6 190 20:22 13.01.2020
4388 Rain 5 988 87 10000 4.6 190 19:58 13.01.2020
4389 Rain 5 988 87 10000 4.6 190 19:58 13.01.2020
4390 Rain 6 988 87 10000 4.6 190 19:39 13.01.2020
4391 Rain 6 988 87 10000 4.6 190 19:39 13.01.2020
4392 Rain 6 989 81 10000 8.2 240 19:19 13.01.2020
4393 Rain 6 988 81 10000 9.8 220 18:56 13.01.2020
4394 Rain 7 987 81 10000 7.2 170 18:37 13.01.2020
4395 Rain 7 987 81 10000 7.2 170 18:18 13.01.2020
4396 Rain 7 987 81 10000 7.2 170 18:18 13.01.2020
4397 Rain 8 988 81 9000 6.7 170 17:40 13.01.2020
4398 Rain 8 989 87 10000 6.2 170 17:22 13.01.2020
4399 Rain 8 989 87 10000 6.2 170 17:22 13.01.2020
4400 Rain 8 991 81 10000 6.2 160 16:56 13.01.2020
4401 Rain 8 990 89 0 4.92 212 16:38 13.01.2020
4402 Rain 8 990 88 0 6.26 207 16:19 13.01.2020
4403 Rain 8 992 88 0 4.02 198 15:44 13.01.2020
4404 Rain 8 996 85 0 10.01 182 15:23 13.01.2020
4405 Rain 8 994 90 0 5.81 158 14:58 13.01.2020
4406 Rain 8 999 84 0 10.01 182 14:38 13.01.2020
4407 Clouds 8 995 85 0 7.6 161 14:19 13.01.2020
4408 Clouds 8 998 87 0 5.36 222 13:41 13.01.2020
4409 Clouds 7 1001 86 0 7.93 192 13:23 13.01.2020
4410 Clouds 7 999 89 0 2.68 207 12:58 13.01.2020
4411 Clouds 6 1004 81 10000 3.6 170 12:40 13.01.2020
4412 Clouds 6 1004 81 10000 3.6 170 12:22 13.01.2020
4413 Clouds 6 1004 81 10000 3.6 170 11:56 13.01.2020
4414 Clouds 6 1005 81 10000 3.6 170 11:37 13.01.2020
4415 Clouds 6 1005 81 10000 3.6 170 11:18 13.01.2020
4416 Clouds 5 1006 86 10000 3.6 160 10:55 13.01.2020
4417 Clouds 5 1007 86 10000 3.6 160 10:36 13.01.2020
4418 Clouds 5 1007 86 10000 3.6 160 10:18 13.01.2020
4419 Clouds 4 1008 86 10000 2.6 170 09:40 13.01.2020
4420 Clouds 4 1008 86 10000 2.6 170 09:22 13.01.2020
4421 Clouds 4 1009 86 10000 3.1 170 08:42 13.01.2020
4422 Clouds 4 1009 93 10000 3.6 160 08:21 13.01.2020
4423 Clouds 4 1010 86 10000 2.6 160 07:59 13.01.2020
4424 Clouds 4 1010 86 10000 2.6 160 07:40 13.01.2020
4425 Clear 4 1010 93 10000 2.1 170 07:18 13.01.2020
4426 Clear 4 1011 86 10000 2.1 0 06:36 13.01.2020
4427 Clear 4 1012 86 10000 3.6 180 05:36 13.01.2020
4428 Clear 4 1013 93 10000 3.1 190 04:25 13.01.2020
4429 Clear 4 1013 86 10000 3.6 190 03:31 13.01.2020
4430 Clouds 4 1014 86 10000 4.1 200 02:47 13.01.2020
4431 Clear 5 1014 86 10000 4.1 190 02:29 13.01.2020
4432 Clouds 5 1015 86 10000 3.6 190 01:23 13.01.2020
4433 Rain 5 1015 87 10000 3.6 200 00:42 13.01.2020
4434 Clouds 4 1015 86 10000 3.1 190 00:24 13.01.2020
4435 Clouds 5 1015 86 10000 2.1 180 23:55 12.01.2020
4436 Clouds 5 1016 86 10000 2.6 180 23:36 12.01.2020
4437 Rain 5 1016 86 10000 2.6 180 23:18 12.01.2020
4438 Rain 5 1016 86 10000 2.6 180 23:18 12.01.2020
4439 Rain 4 1016 93 10000 2.6 190 22:42 12.01.2020
4440 Rain 4 1016 93 10000 2.1 190 22:24 12.01.2020
4441 Clouds 4 1016 86 10000 2.6 190 21:57 12.01.2020
4442 Clouds 4 1016 86 10000 2.6 190 21:38 12.01.2020
4443 Clouds 4 1016 86 10000 1.5 0 21:19 12.01.2020
4444 Rain 4 1016 86 10000 2.6 180 20:56 12.01.2020
4445 Clouds 4 1017 86 10000 2.6 200 20:38 12.01.2020
4446 Clouds 5 1017 86 10000 2.6 200 20:20 12.01.2020
4447 Clouds 5 1017 81 10000 2.6 210 19:56 12.01.2020
4448 Clouds 5 1016 81 10000 2.1 210 19:37 12.01.2020
4449 Clouds 5 1016 81 10000 2.1 210 19:18 12.01.2020
4450 Clouds 5 1017 87 10000 2.6 220 18:57 12.01.2020
4451 Clouds 5 1017 87 10000 2.6 220 18:57 12.01.2020
4452 Clouds 6 1017 87 10000 2.6 220 18:39 12.01.2020
4453 Clouds 6 1017 93 10000 2.1 220 18:21 12.01.2020
4454 Clouds 6 1016 87 10000 1 0 17:54 12.01.2020
4455 Clouds 6 1016 87 10000 3.1 250 17:36 12.01.2020
4456 Rain 7 1016 87 10000 3.1 250 17:18 12.01.2020
4457 Rain 7 1016 81 10000 3.6 240 16:54 12.01.2020
4458 Rain 7 1016 87 10000 5.1 250 16:36 12.01.2020
4459 Clouds 7 1016 87 10000 5.1 250 16:18 12.01.2020
4460 Rain 7 1015 81 10000 7.2 260 15:40 12.01.2020
4461 Rain 7 1015 81 10000 7.2 260 15:21 12.01.2020
4462 Clouds 8 1015 75 10000 8.2 260 14:44 12.01.2020
4463 Clouds 8 1015 81 10000 8.2 250 14:25 12.01.2020
4464 Clouds 8 1015 87 10000 6.7 250 13:58 12.01.2020
4465 Clouds 7 1015 87 10000 6.7 250 13:40 12.01.2020
4466 Rain 7 1015 93 10000 5.1 250 13:22 12.01.2020
4467 Clouds 7 1014 87 10000 4.6 260 12:58 12.01.2020
4468 Rain 7 1014 87 10000 3.6 290 12:38 12.01.2020
4469 Rain 7 1014 87 10000 3.6 290 12:19 12.01.2020
4470 Rain 6 1013 93 10000 4.6 280 11:42 12.01.2020
4471 Rain 6 1013 93 10000 4.6 270 11:22 12.01.2020
4472 Rain 6 1012 93 10000 3.6 260 10:58 12.01.2020
4473 Rain 7 1011 93 7000 10.3 240 10:40 12.01.2020
4474 Rain 7 1011 93 7000 10.3 240 10:20 12.01.2020
4475 Rain 7 1010 93 6000 5.7 230 09:43 12.01.2020
4476 Rain 7 1010 93 7000 3.6 210 09:24 12.01.2020
4477 Rain 7 1010 100 9000 3.6 200 08:48 12.01.2020
4478 Rain 8 1010 100 9000 2.6 190 08:25 12.01.2020
4479 Rain 8 1010 100 10000 2.1 190 07:58 12.01.2020
4480 Clouds 8 1011 100 10000 2.1 190 07:38 12.01.2020
4481 Clouds 7 1011 100 10000 2.1 190 07:19 12.01.2020
4482 Rain 7 1011 100 8000 1 0 06:40 12.01.2020
4483 Rain 7 1011 100 10000 1 0 05:58 12.01.2020
4484 Clouds 8 1012 100 10000 1.5 0 04:56 12.01.2020
4485 Clouds 8 1012 93 10000 1.5 0 03:43 12.01.2020
4486 Rain 8 1012 100 10000 1 0 02:48 12.01.2020
4487 Rain 8 1012 100 8000 1 0 02:24 12.01.2020
4488 Rain 8 1013 93 10000 2.1 220 01:34 12.01.2020
4489 Rain 8 1013 93 10000 2.6 210 00:46 12.01.2020
4490 Rain 8 1013 100 8000 2.1 180 00:22 12.01.2020
4491 Rain 8 1013 100 10000 1 0 23:57 11.01.2020
4492 Rain 8 1013 100 10000 1 0 23:39 11.01.2020
4493 Rain 8 1013 100 10000 1.5 0 23:18 11.01.2020
4494 Rain 8 1013 100 10000 1 0 22:56 11.01.2020
4495 Rain 8 1013 100 10000 2.1 230 22:38 11.01.2020
4496 Rain 9 1013 100 10000 2.1 230 22:19 11.01.2020
4497 Rain 9 1013 93 6000 2.6 240 21:44 11.01.2020
4498 Rain 9 1013 93 4000 4.6 250 21:19 11.01.2020
4499 Rain 9 1013 93 4000 6.2 270 20:57 11.01.2020
4500 Rain 10 1013 87 4000 7.2 280 20:39 11.01.2020
4501 Rain 10 1013 87 4000 7.2 280 20:19 11.01.2020
4502 Rain 10 1012 81 10000 6.2 200 19:56 11.01.2020
4503 Rain 10 1012 81 10000 6.7 200 19:38 11.01.2020
4504 Rain 10 1012 81 10000 6.7 200 19:20 11.01.2020
4505 Rain 11 1012 81 10000 5.7 200 18:55 11.01.2020
4506 Rain 11 1012 81 10000 5.7 0 18:36 11.01.2020
4507 Rain 11 1012 81 10000 5.7 0 18:18 11.01.2020
4508 Rain 11 1012 81 10000 5.7 0 18:18 11.01.2020
4509 Rain 11 1012 81 10000 5.7 0 18:18 11.01.2020
4510 Rain 11 1012 81 10000 5.7 0 18:18 11.01.2020
4511 Rain 11 1012 81 10000 5.7 200 17:56 11.01.2020
4512 Rain 11 1012 81 10000 5.7 200 17:56 11.01.2020
4513 Rain 11 1013 81 10000 5.7 190 17:37 11.01.2020
4514 Rain 12 1013 81 10000 5.7 190 17:18 11.01.2020
4515 Clouds 12 1013 81 10000 5.7 190 16:43 11.01.2020
4516 Clouds 12 1013 81 10000 6.7 200 16:23 11.01.2020
4517 Clouds 12 1013 81 10000 6.2 200 15:43 11.01.2020
4518 Clouds 11 1013 76 10000 5.7 190 15:24 11.01.2020
4519 Clouds 11 1013 81 10000 6.2 200 14:59 11.01.2020
4520 Clouds 11 1014 81 10000 7.2 190 14:41 11.01.2020
4521 Clouds 11 1014 81 10000 7.2 190 14:22 11.01.2020
4522 Clouds 11 1015 81 10000 6.2 190 13:56 11.01.2020
4523 Clouds 11 1015 81 10000 5.7 200 13:37 11.01.2020
4524 Clouds 11 1015 81 10000 5.7 200 13:19 11.01.2020
4525 Clouds 11 1016 81 10000 7.7 200 12:44 11.01.2020
4526 Clouds 11 1016 76 10000 5.1 200 12:26 11.01.2020
4527 Clouds 10 1016 81 10000 5.7 190 11:55 11.01.2020
4528 Clouds 10 1016 81 10000 7.2 200 11:37 11.01.2020
4529 Clouds 10 1016 81 10000 7.2 200 11:18 11.01.2020
4530 Clouds 10 1016 81 10000 7.2 200 11:18 11.01.2020
4531 Clouds 10 1016 81 10000 7.2 200 11:18 11.01.2020
4532 Clouds 10 1016 81 10000 6.7 200 10:43 11.01.2020
4533 Clouds 10 1017 81 10000 6.2 200 10:24 11.01.2020
4534 Clouds 10 1016 76 10000 5.1 200 09:40 11.01.2020
4535 Clouds 10 1016 76 10000 5.1 200 09:21 11.01.2020
4536 Clouds 9 1017 76 10000 6.2 200 08:43 11.01.2020
4537 Clouds 9 1017 76 10000 6.2 200 08:43 11.01.2020
4538 Clouds 9 1017 76 10000 6.2 200 08:23 11.01.2020
4539 Clouds 9 1017 76 10000 6.2 200 07:45 11.01.2020
4540 Clouds 9 1017 81 10000 6.2 200 07:26 11.01.2020
4541 Clouds 9 1018 81 10000 4.1 190 06:56 11.01.2020
4542 Clouds 9 1018 81 10000 5.1 190 06:22 11.01.2020
4543 Clouds 9 1019 81 10000 5.7 190 04:48 11.01.2020
4544 Clouds 9 1020 76 10000 3.6 190 04:30 11.01.2020
4545 Clouds 9 1020 76 10000 3.6 180 03:49 11.01.2020
4546 Clouds 8 1019 81 10000 5.7 180 02:41 11.01.2020
4547 Clouds 8 1021 81 10000 4.1 180 01:44 11.01.2020
4548 Clouds 7 1022 81 10000 3.6 180 01:20 11.01.2020
4549 Clouds 7 1022 75 10000 4.1 180 00:46 11.01.2020
4550 Rain 7 1022 75 10000 3.1 170 00:20 11.01.2020
4551 Rain 6 1022 81 10000 3.6 180 23:41 10.01.2020
4552 Clouds 6 1022 81 10000 3.1 180 23:22 10.01.2020
4553 Clouds 6 1022 75 10000 3.1 180 22:59 10.01.2020
4554 Clouds 6 1022 75 10000 3.1 180 22:40 10.01.2020
4555 Clouds 6 1023 75 10000 4.1 190 22:21 10.01.2020
4556 Clouds 6 1023 75 10000 4.1 180 21:57 10.01.2020
4557 Clouds 6 1023 75 10000 4.1 180 21:38 10.01.2020
4558 Clouds 6 1023 75 10000 3.6 190 21:19 10.01.2020
4559 Clouds 5 1024 70 10000 2.6 170 20:43 10.01.2020
4560 Clouds 5 1024 70 10000 2.6 170 20:25 10.01.2020
4561 Clouds 5 1024 70 10000 2.6 170 20:25 10.01.2020
4562 Clouds 5 1024 70 10000 3.6 180 19:59 10.01.2020
4563 Clouds 5 1024 75 10000 2.6 180 19:38 10.01.2020
4564 Clouds 5 1024 75 10000 2.6 180 19:19 10.01.2020
4565 Clouds 5 1024 75 10000 2.1 180 18:44 10.01.2020
4566 Clouds 6 1024 75 10000 3.1 200 18:19 10.01.2020
4567 Clouds 5 1024 75 10000 3.1 190 17:58 10.01.2020
4568 Clouds 6 1024 75 10000 2.6 200 17:39 10.01.2020
4569 Clouds 6 1024 75 10000 2.6 200 17:20 10.01.2020
4570 Clouds 6 1024 75 10000 2.1 180 16:58 10.01.2020
4571 Clouds 7 1025 75 10000 3.1 220 16:39 10.01.2020
4572 Clouds 7 1025 75 10000 3.1 220 16:20 10.01.2020
4573 Clouds 7 1024 70 10000 4.1 230 15:56 10.01.2020
4574 Clouds 7 1024 75 10000 3.1 210 15:37 10.01.2020
4575 Clouds 8 1024 75 10000 3.1 210 15:18 10.01.2020
4576 Clouds 7 1024 81 10000 3.1 240 14:55 10.01.2020
4577 Clouds 7 1024 81 10000 4.1 230 14:37 10.01.2020
4578 Clouds 7 1024 81 10000 4.1 230 14:18 10.01.2020
4579 Clouds 7 1024 87 10000 2.1 200 13:44 10.01.2020
4580 Clouds 7 1024 87 10000 2.1 200 13:44 10.01.2020
4581 Clouds 7 1024 87 10000 1.5 0 13:26 10.01.2020
4582 Clouds 6 1024 93 10000 1.5 0 12:59 10.01.2020
4583 Clouds 6 1024 93 10000 1.5 0 12:39 10.01.2020
4584 Clouds 6 1024 93 10000 1.5 0 12:19 10.01.2020
4585 Clouds 5 1023 93 10000 1.5 160 11:56 10.01.2020
4586 Rain 5 1023 86 10000 1.5 0 11:38 10.01.2020
4587 Rain 5 1023 86 10000 1.5 0 11:38 10.01.2020
4588 Rain 5 1023 86 10000 1.5 0 11:38 10.01.2020
4589 Rain 4 1023 86 10000 1.5 0 11:18 10.01.2020
4590 Clouds 4 1023 93 10000 1.5 150 10:57 10.01.2020
4591 Clouds 3 1022 93 10000 1 180 10:36 10.01.2020
4592 Clouds 3 1022 93 10000 1 180 10:18 10.01.2020
4593 Clouds 3 1022 86 10000 1 0 09:42 10.01.2020
4594 Clouds 2 1021 93 10000 1.5 190 09:23 10.01.2020
4595 Clouds 2 1021 93 10000 1 200 08:43 10.01.2020
4596 Clouds 3 1020 86 10000 1 0 08:24 10.01.2020
4597 Clouds 3 1020 80 10000 0.5 0 07:47 10.01.2020
4598 Clouds 3 1020 86 10000 0.5 0 07:28 10.01.2020
4599 Clouds 3 1019 86 10000 1.5 290 06:55 10.01.2020
4600 Clouds 3 1019 86 10000 1.5 280 06:27 10.01.2020
4601 Clouds 4 1018 86 10000 2.1 280 05:52 10.01.2020
4602 Clouds 4 1015 80 10000 2.6 340 03:46 10.01.2020
4603 Clouds 4 1014 75 10000 3.1 360 03:27 10.01.2020
4604 Clouds 4 1014 75 10000 3.1 330 02:50 10.01.2020
4605 Clouds 5 1013 75 10000 4.6 340 01:47 10.01.2020
4606 Clouds 5 1012 80 10000 5.1 320 01:28 10.01.2020
4607 Clouds 5 1011 86 10000 4.6 330 00:44 10.01.2020
4608 Clouds 5 1010 86 10000 4.1 320 00:19 10.01.2020
4609 Clouds 5 1009 86 10000 4.1 310 23:39 09.01.2020
4610 Clouds 5 1009 86 10000 4.1 310 23:39 09.01.2020
4611 Clouds 5 1009 86 10000 4.1 310 23:20 09.01.2020
4612 Clouds 5 1009 86 10000 3.6 320 22:57 09.01.2020
4613 Clouds 5 1009 86 10000 3.6 320 22:39 09.01.2020
4614 Clouds 5 1008 86 10000 3.6 320 22:19 09.01.2020
4615 Clouds 5 1007 86 10000 3.1 330 21:57 09.01.2020
4616 Clouds 5 1007 86 10000 2.6 310 21:38 09.01.2020
4617 Clouds 5 1007 80 10000 2.6 300 21:19 09.01.2020
4618 Rain 5 1007 80 10000 2.6 300 20:57 09.01.2020
4619 Rain 5 1007 80 10000 2.6 300 20:39 09.01.2020
4620 Rain 5 1006 86 10000 3.1 320 20:19 09.01.2020
4621 Clouds 5 1006 86 10000 3.1 320 19:57 09.01.2020
4622 Clouds 5 1006 80 10000 2.1 340 19:37 09.01.2020
4623 Clouds 5 1006 80 10000 1 0 19:19 09.01.2020
4624 Clouds 5 1006 80 10000 1 0 18:55 09.01.2020
4625 Clouds 5 1005 80 10000 2.1 360 18:36 09.01.2020
4626 Clouds 5 1005 80 10000 1 0 18:18 09.01.2020
4627 Clouds 5 1004 86 10000 2.1 20 17:41 09.01.2020
4628 Clouds 5 1003 80 10000 4.6 340 17:18 09.01.2020
4629 Clouds 5 1004 80 10000 5.1 340 16:49 09.01.2020
4630 Clouds 5 1004 86 10000 2.6 310 16:24 09.01.2020
4631 Clouds 5 1004 86 10000 2.6 310 15:59 09.01.2020
4632 Clouds 5 1004 86 10000 3.1 280 15:40 09.01.2020
4633 Clouds 5 1003 86 10000 3.1 290 15:19 09.01.2020
4634 Clouds 5 1004 80 10000 5.1 280 14:42 09.01.2020
4635 Clouds 5 1004 86 10000 5.7 270 14:22 09.01.2020
4636 Clouds 5 1004 86 10000 7.7 260 13:57 09.01.2020
4637 Clouds 5 1004 86 10000 7.7 260 13:39 09.01.2020
4638 Clouds 5 1004 86 10000 7.7 260 13:39 09.01.2020
4639 Clouds 6 1004 86 10000 6.7 260 13:20 09.01.2020
4640 Clouds 6 1004 81 10000 8.2 260 12:58 09.01.2020
4641 Clouds 6 1004 86 10000 6.7 260 12:58 09.01.2020
4642 Clouds 6 1004 81 10000 8.2 260 12:38 09.01.2020
4643 Clouds 6 1004 87 10000 8.7 260 12:19 09.01.2020
4644 Clouds 6 1003 81 10000 9.3 260 11:55 09.01.2020
4645 Clouds 7 1003 81 10000 9.3 260 11:37 09.01.2020
4646 Clouds 7 1002 81 10000 6.7 260 11:19 09.01.2020
4647 Clouds 7 1002 87 10000 8.2 270 10:42 09.01.2020
4648 -273 0 0 0 0 0 10:22 09.01.2020
4649 Clouds 9 999 81 10000 5.7 200 09:55 09.01.2020
4650 Clouds 9 999 81 10000 5.7 200 09:37 09.01.2020
4651 Clouds 9 998 81 10000 4.6 200 09:18 09.01.2020
4652 Clouds 9 998 81 10000 5.7 200 08:41 09.01.2020
4653 Clouds 9 999 76 10000 5.7 200 08:22 09.01.2020
4654 Clouds 9 999 76 10000 5.7 200 07:57 09.01.2020
4655 Clouds 8 999 81 10000 5.7 200 07:38 09.01.2020
4656 Clouds 8 999 87 10000 3.6 180 07:19 09.01.2020
4657 Clouds 8 1000 87 10000 4.6 190 06:38 09.01.2020
4658 Clouds 7 1000 93 10000 2.6 0 06:18 09.01.2020
4659 Rain 7 1001 93 10000 3.6 0 05:40 09.01.2020
4660 Clouds 6 1003 93 10000 1 0 04:42 09.01.2020
4661 Rain 5 1006 93 6000 3.6 60 03:28 09.01.2020
4662 Rain 5 1007 100 5000 5.1 50 02:47 09.01.2020
4663 Rain 5 1007 100 5000 5.1 50 02:47 09.01.2020
4664 Rain 5 1012 97 0 3.77 79 01:53 09.01.2020
4665 Rain 5 1013 87 7000 2.6 130 01:33 09.01.2020
4666 Rain 6 1013 87 7000 2.6 130 00:40 09.01.2020
4667 Rain 6 1014 93 10000 2.6 140 00:19 09.01.2020
4668 Rain 6 1015 87 7000 2.6 140 23:41 08.01.2020
4669 Rain 6 1016 87 6000 1.5 0 23:23 08.01.2020
4670 Rain 7 1017 87 7000 1.5 0 22:56 08.01.2020
4671 Rain 7 1017 87 7000 1.5 0 22:38 08.01.2020
4672 Clouds 7 1017 81 10000 1 0 22:19 08.01.2020
4673 Clouds 7 1017 81 10000 0.5 0 21:55 08.01.2020
4674 Clouds 7 1017 81 10000 0.5 0 21:37 08.01.2020
4675 Clouds 7 1017 81 10000 1 0 21:18 08.01.2020
4676 Clouds 7 1018 81 10000 1 0 20:41 08.01.2020
4677 Clouds 7 1019 81 10000 2.1 190 20:21 08.01.2020
4678 Clouds 7 1019 87 10000 1.5 170 19:59 08.01.2020
4679 Clouds 7 1019 87 10000 1.5 170 19:38 08.01.2020
4680 Clouds 7 1020 87 10000 1 0 19:20 08.01.2020
4681 Clouds 7 1020 87 10000 1 0 18:58 08.01.2020
4682 Clouds 7 1020 81 10000 1 0 18:39 08.01.2020
4683 Clouds 7 1020 81 10000 2.1 200 18:19 08.01.2020
4684 Clouds 7 1020 81 10000 2.1 210 17:57 08.01.2020
4685 Clouds 8 1020 81 10000 2.1 210 17:38 08.01.2020
4686 Clouds 8 1020 75 10000 1.5 190 17:19 08.01.2020
4687 Clouds 8 1020 75 10000 1.5 190 17:19 08.01.2020
4688 Clouds 8 1021 75 10000 2.6 210 16:56 08.01.2020
4689 Clouds 8 1021 75 10000 2.6 210 16:38 08.01.2020
4690 Clouds 8 1021 75 10000 3.1 220 16:18 08.01.2020
4691 Clouds 9 1020 75 10000 3.1 220 15:44 08.01.2020
4692 Clouds 9 1020 66 10000 2.1 220 15:21 08.01.2020
4693 Clouds 9 1020 66 10000 2.1 220 14:58 08.01.2020
4694 Clouds 9 1021 66 10000 4.1 240 14:40 08.01.2020
4695 Clouds 9 1021 66 10000 4.1 240 14:21 08.01.2020
4696 Clouds 9 1021 66 10000 3.1 260 13:41 08.01.2020
4697 Clouds 9 1021 66 10000 4.6 250 13:21 08.01.2020
4698 Clouds 9 1021 66 10000 4.6 250 13:21 08.01.2020
4699 Clouds 9 1021 66 10000 4.1 250 12:54 08.01.2020
4700 Clouds 9 1021 66 10000 4.1 250 12:36 08.01.2020
4701 Clouds 9 1021 66 10000 4.6 250 12:18 08.01.2020
4702 Clouds 9 1021 66 10000 5.1 260 11:47 08.01.2020
4703 Clouds 8 1020 70 10000 4.6 250 11:19 08.01.2020
4704 Clouds 8 1020 70 10000 4.6 250 10:57 08.01.2020
4705 Clouds 8 1020 75 10000 5.7 260 10:39 08.01.2020
4706 Clouds 8 1019 75 10000 4.6 260 10:19 08.01.2020
4707 Clouds 8 1019 70 10000 3.1 250 09:42 08.01.2020
4708 Clouds 8 1019 75 10000 5.1 270 09:20 08.01.2020
4709 Clouds 8 1018 76 10000 6.7 280 08:57 08.01.2020
4710 Clouds 8 1018 76 10000 6.7 280 08:38 08.01.2020
4711 Clouds 9 1018 76 10000 5.7 280 08:20 08.01.2020
4712 Clouds 9 1017 76 10000 5.7 290 07:50 08.01.2020
4713 Clouds 9 1017 76 10000 5.7 290 07:32 08.01.2020
4714 Rain 9 1016 76 10000 7.2 280 06:49 08.01.2020
4715 Rain 10 1016 76 10000 7.2 280 06:25 08.01.2020
4716 Clouds 10 1016 76 10000 5.7 250 05:53 08.01.2020
4717 Clouds 11 1016 76 10000 6.2 240 04:59 08.01.2020
4718 Clouds 11 1015 76 10000 5.7 250 04:27 08.01.2020
4719 Rain 11 1014 81 10000 6.2 240 02:45 08.01.2020
4720 Clouds 11 1013 87 10000 5.1 220 02:23 08.01.2020
4721 Clouds 12 1013 87 10000 5.7 220 01:50 08.01.2020
4722 Clouds 12 1013 87 10000 5.1 210 01:25 08.01.2020
4723 Clouds 12 1013 87 10000 4.6 210 00:40 08.01.2020
4724 Clouds 12 1012 87 10000 5.1 210 00:20 08.01.2020
4725 Clouds 12 1012 93 10000 4.6 210 23:44 07.01.2020
4726 Rain 12 1012 93 10000 4.6 220 23:20 07.01.2020
4727 Rain 12 1012 93 10000 4.6 220 23:20 07.01.2020
4728 Clouds 12 1012 93 10000 6.2 220 22:40 07.01.2020
4729 Rain 12 1011 82 9000 7.2 220 22:20 07.01.2020
4730 Rain 13 1011 82 9000 7.2 220 21:57 07.01.2020
4731 Clouds 13 1011 82 10000 7.2 210 21:38 07.01.2020
4732 Clouds 13 1011 82 10000 6.2 220 21:20 07.01.2020
4733 Clouds 13 1011 82 10000 6.2 220 20:55 07.01.2020
4734 Clouds 13 1010 82 10000 6.7 210 20:37 07.01.2020
4735 Clouds 13 1011 87 10000 7.7 200 20:19 07.01.2020
4736 Clouds 13 1011 87 10000 4.6 200 19:38 07.01.2020
4737 Clouds 13 1011 87 10000 5.7 210 19:20 07.01.2020
4738 Clouds 13 1011 87 10000 5.7 210 18:58 07.01.2020
4739 Clouds 13 1011 87 10000 4.6 200 18:40 07.01.2020
4740 Clouds 13 1011 82 10000 4.6 190 18:19 07.01.2020
4741 Clouds 13 1011 82 10000 4.6 190 17:59 07.01.2020
4742 Clouds 12 1012 87 10000 5.7 190 17:39 07.01.2020
4743 Clouds 12 1012 87 10000 5.7 190 17:39 07.01.2020
4744 Rain 12 1011 87 10000 5.7 200 17:20 07.01.2020
4745 Rain 12 1011 87 10000 5.7 200 16:56 07.01.2020
4746 Rain 12 1010 87 10000 6.2 190 16:37 07.01.2020
4747 Rain 12 1010 87 10000 6.2 190 16:37 07.01.2020
4748 Rain 11 1011 87 10000 5.1 190 16:19 07.01.2020
4749 Rain 11 1011 87 10000 5.1 190 15:57 07.01.2020
4750 Rain 11 1011 87 10000 4.6 180 15:37 07.01.2020
4751 Rain 11 1012 87 10000 4.1 180 15:18 07.01.2020
4752 Rain 10 1013 87 10000 4.6 180 14:42 07.01.2020
4753 Rain 10 1014 81 10000 4.1 170 14:23 07.01.2020
4754 Rain 10 1014 81 10000 4.1 170 14:23 07.01.2020
4755 Rain 10 1014 81 10000 4.1 170 13:56 07.01.2020
4756 Clouds 10 1015 87 10000 5.7 180 13:56 07.01.2020
4757 Clouds 10 1015 87 10000 5.7 180 13:37 07.01.2020
4758 Clouds 9 1016 87 10000 4.1 180 13:18 07.01.2020
4759 Rain 9 1016 87 10000 4.1 190 12:40 07.01.2020
4760 Rain 9 1016 87 10000 4.1 190 12:40 07.01.2020
4761 Rain 9 1016 81 10000 4.1 180 12:19 07.01.2020
4762 Rain 9 1016 81 10000 3.6 180 11:43 07.01.2020
4763 Rain 9 1016 76 10000 3.6 180 11:23 07.01.2020
4764 Rain 9 1016 76 10000 3.6 180 10:58 07.01.2020
4765 Rain 9 1017 76 10000 3.1 180 10:40 07.01.2020
4766 Rain 8 1017 81 10000 3.6 180 10:22 07.01.2020
4767 Rain 8 1017 81 10000 3.6 180 09:56 07.01.2020
4768 Rain 8 1017 81 10000 2.6 170 09:37 07.01.2020
4769 Rain 8 1018 81 10000 3.1 170 09:19 07.01.2020
4770 Rain 8 1018 81 10000 3.1 180 08:41 07.01.2020
4771 Clouds 7 1018 81 10000 3.1 180 08:18 07.01.2020
4772 Clouds 7 1018 87 10000 3.1 190 07:49 07.01.2020
4773 Clouds 7 1018 87 10000 3.6 190 07:23 07.01.2020
4774 Clouds 7 1019 87 10000 3.6 200 06:50 07.01.2020
4775 Clouds 7 1019 87 10000 3.6 200 06:30 07.01.2020
4776 Clouds 6 1019 87 10000 3.6 200 05:41 07.01.2020
4777 Clouds 5 1020 86 10000 2.6 180 03:52 07.01.2020
4778 Clouds 5 1020 86 10000 2.6 180 03:52 07.01.2020
4779 Clouds 5 1020 86 10000 2.6 180 03:25 07.01.2020
4780 Clouds 5 1020 93 10000 2.6 170 02:20 07.01.2020
4781 Clouds 5 1020 93 10000 2.1 190 01:40 07.01.2020
4782 Clouds 5 1020 93 10000 2.1 190 01:40 07.01.2020
4783 Clouds 5 1020 93 10000 2.1 190 01:40 07.01.2020
4784 Clouds 5 1020 93 10000 2.1 190 01:40 07.01.2020
4785 Clouds 5 1019 93 10000 2.6 190 00:59 07.01.2020
4786 Clouds 6 1019 86 10000 3.1 200 00:21 07.01.2020
4787 Clouds 6 1019 86 10000 3.1 200 23:57 06.01.2020
4788 Clouds 6 1018 93 10000 2.6 210 23:38 06.01.2020
4789 Rain 6 1018 86 10000 2.6 210 23:20 06.01.2020
4790 Clouds 7 1017 81 10000 2.1 220 22:44 06.01.2020
4791 Clouds 7 1017 81 10000 2.1 220 22:44 06.01.2020
4792 Clouds 7 1017 81 10000 2.1 220 22:25 06.01.2020
4793 Rain 7 1017 87 10000 2.6 230 21:59 06.01.2020
4794 Clouds 7 1017 81 10000 2.6 220 21:40 06.01.2020
4795 Rain 7 1016 87 10000 2.6 210 21:21 06.01.2020
4796 Rain 7 1016 87 10000 2.6 210 20:58 06.01.2020
4797 Rain 8 1016 81 10000 4.1 230 20:40 06.01.2020
4798 Clouds 8 1015 81 10000 3.6 240 20:21 06.01.2020
4799 Clouds 8 1015 81 10000 3.6 240 19:57 06.01.2020
4800 Clouds 8 1015 81 10000 3.6 240 19:39 06.01.2020
4801 Clouds 8 1014 87 10000 3.6 250 19:20 06.01.2020
4802 Rain 8 1013 81 7000 6.7 280 18:48 06.01.2020
4803 Rain 8 1013 87 10000 4.1 230 18:25 06.01.2020
4804 Rain 8 1013 87 10000 4.1 230 18:00 06.01.2020
4805 Clouds 8 1012 87 10000 4.1 220 17:39 06.01.2020
4806 Clouds 8 1012 87 10000 4.1 220 17:39 06.01.2020
4807 Rain 9 1012 93 10000 5.1 220 17:19 06.01.2020
4808 Rain 9 1011 93 10000 6.2 210 16:55 06.01.2020
4809 Rain 9 1011 93 10000 6.2 210 16:36 06.01.2020
4810 Rain 9 1011 87 10000 6.7 210 16:18 06.01.2020
4811 Rain 9 1010 87 10000 6.2 190 15:42 06.01.2020
4812 Clouds 9 1010 81 10000 5.1 180 15:20 06.01.2020
4813 Clouds 8 1010 81 10000 5.1 180 14:59 06.01.2020
4814 Rain 8 1010 81 10000 5.1 190 14:40 06.01.2020
4815 Clouds 8 1011 75 10000 4.1 170 14:20 06.01.2020
4816 Clouds 8 1011 75 10000 4.1 170 13:57 06.01.2020
4817 Clouds 8 1012 75 10000 4.6 180 13:57 06.01.2020
4818 Clouds 8 1012 75 10000 4.6 180 13:37 06.01.2020
4819 Clouds 8 1012 75 10000 4.6 180 13:19 06.01.2020
4820 Clouds 8 1013 75 10000 4.6 190 12:43 06.01.2020
4821 Clouds 8 1014 75 10000 4.6 180 12:20 06.01.2020
4822 Clouds 8 1014 75 10000 4.6 180 11:58 06.01.2020
4823 Clouds 8 1014 75 10000 5.7 180 11:39 06.01.2020
4824 Clouds 8 1014 75 10000 4.1 180 11:20 06.01.2020
4825 Clouds 8 1015 75 10000 3.1 170 10:46 06.01.2020
4826 Clouds 8 1015 75 10000 3.1 170 10:28 06.01.2020
4827 Clouds 8 1015 75 10000 3.6 170 09:59 06.01.2020
4828 Clouds 8 1016 75 10000 3.6 160 09:37 06.01.2020
4829 Clouds 8 1016 75 10000 4.1 180 09:19 06.01.2020
4830 Clouds 8 1017 75 10000 3.6 180 08:43 06.01.2020
4831 Clouds 8 1017 75 10000 3.6 180 08:24 06.01.2020
4832 Clouds 8 1018 75 10000 4.1 190 07:51 06.01.2020
4833 Clouds 8 1018 75 10000 4.1 190 07:26 06.01.2020
4834 Clouds 8 1019 81 10000 2.1 170 06:45 06.01.2020
4835 Clouds 8 1020 75 10000 2.6 190 06:18 06.01.2020
4836 Clouds 7 1020 75 10000 2.6 190 05:40 06.01.2020
4837 Clouds 8 1021 75 10000 3.6 200 04:30 06.01.2020
4838 Clouds 8 1022 75 10000 3.6 200 03:58 06.01.2020
4839 Clouds 8 1023 75 10000 4.1 200 02:40 06.01.2020
4840 Clouds 8 1023 75 10000 3.1 190 02:21 06.01.2020
4841 Clouds 8 1024 75 10000 2.6 190 01:41 06.01.2020
4842 Clouds 8 1024 81 10000 3.6 200 01:20 06.01.2020
4843 Clouds 8 1025 81 10000 3.6 190 00:40 06.01.2020
4844 Clouds 7 1025 81 10000 2.6 190 00:19 06.01.2020
4845 Clouds 7 1025 81 10000 2.6 190 00:19 06.01.2020
4846 Clouds 7 1025 87 10000 3.6 190 23:41 05.01.2020
4847 Clouds 8 1025 87 10000 3.1 190 23:21 05.01.2020
4848 Clouds 8 1025 87 10000 3.1 190 22:55 05.01.2020
4849 Clouds 7 1026 87 10000 2.1 180 22:37 05.01.2020
4850 Clouds 8 1026 87 10000 2.1 180 22:18 05.01.2020
4851 Clouds 8 1026 87 10000 3.1 180 21:41 05.01.2020
4852 Clouds 8 1027 87 10000 2.6 180 21:21 05.01.2020
4853 Clouds 8 1027 87 10000 2.6 180 20:58 05.01.2020
4854 Clouds 8 1027 87 10000 1.5 0 20:39 05.01.2020
4855 Clouds 8 1027 87 10000 2.1 170 20:20 05.01.2020
4856 Clouds 8 1027 87 10000 2.1 170 19:59 05.01.2020
4857 Clouds 8 1027 87 10000 1 0 19:40 05.01.2020
4858 Clouds 8 1027 87 10000 3.1 190 19:21 05.01.2020
4859 Clouds 9 1027 87 10000 3.1 190 18:56 05.01.2020
4860 Clouds 9 1027 87 10000 2.6 200 18:38 05.01.2020
4861 Clouds 9 1027 81 10000 3.6 210 18:19 05.01.2020
4862 Clouds 9 1027 81 10000 3.6 210 18:19 05.01.2020
4863 Clouds 9 1027 81 10000 3.6 210 17:58 05.01.2020
4864 Clouds 9 1027 81 10000 3.6 210 17:39 05.01.2020
4865 Clouds 9 1028 87 10000 4.6 210 17:20 05.01.2020
4866 Clouds 9 1028 87 10000 4.6 210 16:57 05.01.2020
4867 Clouds 9 1028 87 10000 4.6 210 16:57 05.01.2020
4868 Clouds 9 1028 81 10000 3.6 200 16:39 05.01.2020
4869 Clouds 10 1028 81 10000 3.6 210 16:19 05.01.2020
4870 Clouds 10 1028 81 10000 3.6 210 16:19 05.01.2020
4871 Clouds 10 1028 81 10000 3.6 200 15:39 05.01.2020
4872 Clouds 10 1028 81 10000 3.6 210 15:20 05.01.2020
4873 Clouds 10 1028 81 10000 4.6 210 14:56 05.01.2020
4874 Clouds 10 1028 81 10000 4.6 210 14:38 05.01.2020
4875 Clouds 10 1028 81 10000 4.1 210 14:20 05.01.2020
4876 Clouds 10 1028 81 10000 4.1 210 13:56 05.01.2020
4877 Clouds 9 1028 87 10000 3.6 210 13:38 05.01.2020
4878 Clouds 9 1029 87 10000 3.1 200 13:19 05.01.2020
4879 Clouds 9 1029 87 10000 3.1 200 12:56 05.01.2020
4880 Clouds 9 1029 87 10000 4.1 200 12:37 05.01.2020
4881 Clouds 8 1029 93 10000 4.1 200 12:19 05.01.2020
4882 Clouds 8 1029 93 10000 3.6 200 11:44 05.01.2020
4883 Clouds 8 1029 93 10000 3.6 200 11:44 05.01.2020
4884 Rain 7 1029 93 10000 3.6 190 11:20 05.01.2020
4885 Rain 7 1029 93 10000 3.6 190 11:20 05.01.2020
4886 Rain 7 1029 93 10000 3.6 190 10:58 05.01.2020
4887 Rain 7 1029 93 10000 3.6 200 10:40 05.01.2020
4888 Rain 7 1029 93 10000 3.6 200 10:19 05.01.2020
4889 Clouds 7 1030 93 10000 3.6 200 09:42 05.01.2020
4890 Clouds 7 1030 93 10000 3.6 190 09:22 05.01.2020
4891 Clouds 7 1030 93 10000 3.1 190 08:51 05.01.2020
4892 Clouds 7 1030 93 10000 3.1 190 08:32 05.01.2020
4893 Clouds 7 1030 93 10000 2.6 190 07:59 05.01.2020
4894 Rain 7 1030 93 10000 2.6 200 07:39 05.01.2020
4895 Rain 7 1030 93 10000 2.1 200 07:20 05.01.2020
4896 Drizzle 7 1031 93 4700 2.6 200 06:21 05.01.2020
4897 Clouds 7 1031 87 10000 3.1 200 05:34 05.01.2020
4898 Clouds 7 1031 87 10000 3.1 200 05:34 05.01.2020
4899 Clouds 6 1031 93 10000 2.6 200 04:48 05.01.2020
4900 Clouds 6 1031 93 10000 2.1 200 04:18 05.01.2020
4901 Clouds 6 1031 93 10000 2.1 200 04:18 05.01.2020
4902 Clouds 6 1031 93 10000 2.6 180 02:50 05.01.2020
4903 Clouds 6 1031 93 10000 2.6 180 02:32 05.01.2020
4904 Clouds 6 1032 87 10000 2.1 200 01:49 05.01.2020
4905 Clouds 6 1032 93 10000 2.1 210 01:19 05.01.2020
4906 Clouds 6 1032 93 10000 2.1 210 00:55 05.01.2020
4907 Clouds 6 1032 93 10000 2.6 200 00:36 05.01.2020
4908 Clouds 6 1032 93 10000 2.6 200 00:18 05.01.2020
4909 Clouds 6 1033 93 10000 2.6 190 23:40 04.01.2020
4910 Clouds 6 1033 87 10000 2.1 180 23:20 04.01.2020
4911 Clouds 6 1033 87 10000 2.1 200 22:40 04.01.2020
4912 Rain 6 1033 87 10000 2.6 200 22:22 04.01.2020
4913 Rain 6 1033 87 10000 2.6 200 21:58 04.01.2020
4914 Rain 6 1033 87 10000 2.6 200 21:39 04.01.2020
4915 Rain 6 1033 87 10000 2.6 200 21:20 04.01.2020
4916 Clouds 6 1033 87 10000 2.6 200 20:59 04.01.2020
4917 Clouds 7 1033 87 10000 2.1 210 20:40 04.01.2020
4918 Clouds 7 1033 87 10000 1.5 0 20:21 04.01.2020
4919 Clouds 7 1033 87 10000 1.5 0 19:56 04.01.2020
4920 Clouds 7 1033 87 10000 1.5 220 19:38 04.01.2020
4921 Clouds 7 1033 87 10000 1 0 19:19 04.01.2020
4922 Clouds 7 1032 87 10000 1.5 250 18:54 04.01.2020
4923 Clouds 7 1032 87 10000 1.5 250 18:36 04.01.2020
4924 Clouds 7 1032 87 10000 3.1 260 18:18 04.01.2020
4925 Clouds 7 1032 87 10000 3.1 260 18:18 04.01.2020
4926 Clouds 7 1032 87 10000 3.6 250 17:41 04.01.2020
4927 Clouds 7 1032 81 10000 3.6 260 17:23 04.01.2020
4928 Clouds 8 1032 81 10000 3.6 260 16:57 04.01.2020
4929 Clouds 8 1032 81 10000 4.1 270 16:39 04.01.2020
4930 Clouds 8 1032 81 10000 4.1 270 16:39 04.01.2020
4931 Clouds 8 1032 81 10000 4.1 270 16:39 04.01.2020
4932 Clouds 8 1032 81 10000 5.7 290 16:21 04.01.2020
4933 Clouds 8 1032 81 10000 6.2 290 15:43 04.01.2020
4934 Clouds 8 1032 81 10000 4.6 290 15:20 04.01.2020
4935 Clouds 8 1032 81 10000 4.6 290 14:59 04.01.2020
4936 Clouds 8 1032 81 10000 6.7 280 14:41 04.01.2020
4937 Clouds 8 1032 81 10000 6.7 280 14:20 04.01.2020
4938 Clouds 8 1032 76 10000 7.2 280 13:58 04.01.2020
4939 Clouds 8 1032 76 10000 7.2 280 13:37 04.01.2020
4940 Rain 8 1032 81 10000 7.7 270 13:19 04.01.2020
4941 Rain 8 1032 81 10000 7.7 270 12:56 04.01.2020
4942 Rain 7 1032 81 10000 7.2 270 12:38 04.01.2020
4943 Clouds 7 1032 87 10000 6.2 270 12:18 04.01.2020
4944 Clouds 7 1032 87 10000 6.2 270 11:55 04.01.2020
4945 Clouds 7 1032 81 10000 6.2 280 11:36 04.01.2020
4946 Clouds 7 1032 81 10000 6.2 270 11:18 04.01.2020
4947 Clouds 7 1031 81 10000 6.2 270 10:40 04.01.2020
4948 Clouds 7 1031 87 10000 5.7 260 10:21 04.01.2020
4949 Rain 7 1031 87 10000 6.7 260 09:44 04.01.2020
4950 Rain 7 1031 87 10000 6.7 260 09:25 04.01.2020
4951 Clouds 7 1031 87 10000 6.7 260 08:49 04.01.2020
4952 Clouds 7 1031 87 10000 6.7 260 08:29 04.01.2020
4953 Rain 7 1031 87 10000 7.2 260 07:55 04.01.2020
4954 Rain 7 1031 87 10000 7.2 260 07:55 04.01.2020
4955 Rain 7 1031 81 10000 6.7 260 07:37 04.01.2020
4956 Clouds 7 1030 81 10000 6.7 260 06:43 04.01.2020
4957 Clouds 7 1030 81 10000 5.1 250 05:57 04.01.2020
4958 Clouds 7 1030 81 10000 4.6 250 04:50 04.01.2020
4959 Clouds 7 1030 81 10000 4.6 250 04:29 04.01.2020
4960 Clouds 7 1030 87 10000 3.6 230 03:28 04.01.2020
4961 Rain 7 1030 86 10000 2.6 190 02:46 04.01.2020
4962 Rain 6 1030 81 10000 4.1 220 02:18 04.01.2020
4963 Rain 6 1030 81 10000 4.6 220 01:37 04.01.2020
4964 Clouds 6 1030 86 10000 3.1 210 01:19 04.01.2020
4965 Clouds 6 1030 80 10000 3.6 210 00:29 04.01.2020
4966 Clouds 6 1030 80 10000 3.6 210 23:57 03.01.2020
4967 Clouds 6 1030 86 10000 2.6 210 23:29 03.01.2020
4968 Clouds 5 1030 93 10000 3.6 210 22:57 03.01.2020
4969 Clouds 5 1030 93 10000 3.6 210 22:57 03.01.2020
4970 Clouds 6 1029 86 10000 5.1 240 22:39 03.01.2020
4971 Clouds 5 1029 86 10000 5.7 240 22:18 03.01.2020
4972 Clouds 6 1029 86 10000 5.7 240 21:56 03.01.2020
4973 Clouds 6 1029 93 10000 5.1 250 21:37 03.01.2020
4974 Clouds 5 1029 86 10000 4.6 250 21:18 03.01.2020
4975 Clouds 5 1029 86 10000 4.6 250 20:54 03.01.2020
4976 Clouds 6 1028 86 10000 4.1 250 20:36 03.01.2020
4977 Clouds 6 1028 81 10000 4.1 260 20:18 03.01.2020
4978 Clouds 6 1028 81 10000 3.6 260 19:41 03.01.2020
4979 Clouds 6 1027 81 10000 4.6 270 19:23 03.01.2020
4980 Clouds 6 1027 75 10000 4.6 270 18:47 03.01.2020
4981 Clouds 6 1027 75 10000 4.6 270 18:27 03.01.2020
4982 Clouds 6 1027 81 10000 4.6 270 17:58 03.01.2020
4983 Clouds 6 1026 75 10000 4.1 270 17:40 03.01.2020
4984 Clouds 6 1026 75 10000 4.6 280 17:21 03.01.2020
4985 Clouds 6 1026 75 10000 4.6 280 17:21 03.01.2020
4986 Clouds 7 1025 75 10000 6.2 280 16:44 03.01.2020
4987 Clouds 7 1025 75 10000 6.2 280 16:24 03.01.2020
4988 Clouds 7 1025 75 10000 7.2 280 15:59 03.01.2020
4989 Clouds 7 1024 70 10000 6.7 290 15:41 03.01.2020
4990 Clouds 7 1024 70 10000 7.2 290 15:19 03.01.2020
4991 Clouds 7 1024 75 10000 5.7 290 14:39 03.01.2020
4992 Clouds 7 1024 75 10000 6.7 290 14:20 03.01.2020
4993 Clouds 7 1024 75 10000 6.7 290 13:57 03.01.2020
4994 Clouds 7 1023 81 10000 4.6 300 13:38 03.01.2020
4995 Clouds 7 1022 75 10000 5.7 290 13:20 03.01.2020
4996 Clouds 7 1022 75 10000 4.1 290 12:40 03.01.2020
4997 Clouds 6 1022 75 10000 4.6 310 12:21 03.01.2020
4998 Clouds 6 1021 81 10000 3.6 290 11:49 03.01.2020
4999 Clouds 6 1021 81 10000 3.6 290 11:30 03.01.2020
5000 Clouds 6 1019 80 10000 2.1 290 10:48 03.01.2020
5001 Clouds 5 1019 80 10000 2.1 290 10:28 03.01.2020
5002 Clouds 5 1019 75 10000 2.6 300 09:59 03.01.2020
5003 Clouds 5 1018 75 10000 3.6 320 09:41 03.01.2020
5004 Clouds 5 1017 80 10000 3.6 310 09:23 03.01.2020
5005 Clouds 5 1017 80 10000 3.6 310 08:57 03.01.2020
5006 Clouds 5 1016 80 10000 3.6 320 08:39 03.01.2020
5007 Clouds 5 1015 75 10000 4.1 310 08:20 03.01.2020
5008 Clouds 6 1014 81 10000 4.6 300 07:41 03.01.2020
5009 Clouds 6 1013 81 10000 5.7 300 07:19 03.01.2020
5010 Clouds 6 1012 81 10000 5.1 300 06:51 03.01.2020
5011 Clouds 7 1012 81 10000 5.1 300 06:33 03.01.2020
5012 Clouds 7 1011 93 10000 5.7 290 05:47 03.01.2020
5013 Drizzle 8 1009 100 2200 3.6 230 04:27 03.01.2020
5014 Rain 10 1008 93 10000 3.1 190 02:59 03.01.2020
5015 Rain 10 1008 93 10000 3.1 200 02:41 03.01.2020
5016 Rain 10 1008 93 10000 4.1 190 01:45 03.01.2020
5017 Clouds 10 1009 93 10000 4.1 210 00:53 03.01.2020
5018 Clouds 10 1009 93 10000 4.1 210 00:31 03.01.2020
5019 Rain 10 1009 93 10000 4.6 200 23:57 02.01.2020
5020 Rain 10 1008 93 10000 3.6 200 23:38 02.01.2020
5021 Rain 10 1008 93 10000 3.1 180 23:19 02.01.2020
5022 Rain 10 1008 93 10000 3.1 180 22:57 02.01.2020
5023 Clouds 10 1009 93 10000 4.1 190 22:38 02.01.2020
5024 Clouds 10 1009 93 10000 4.1 190 22:18 02.01.2020
5025 Rain 9 1009 93 10000 4.6 200 21:41 02.01.2020
5026 Rain 9 1009 93 10000 4.1 180 21:23 02.01.2020
5027 Rain 9 1009 93 10000 4.1 180 20:59 02.01.2020
5028 Rain 9 1009 93 10000 4.1 180 20:59 02.01.2020
5029 Rain 9 1009 93 10000 4.1 180 20:59 02.01.2020
5030 Rain 9 1009 93 10000 4.1 180 20:59 02.01.2020
5031 Rain 9 1009 93 10000 4.1 180 20:59 02.01.2020
5032 Rain 9 1009 93 10000 4.6 190 20:39 02.01.2020
5033 Rain 9 1009 87 9000 4.6 190 20:21 02.01.2020
5034 Rain 9 1009 87 9000 4.6 190 20:21 02.01.2020
5035 Rain 9 1009 87 9000 4.6 190 19:56 02.01.2020
5036 Rain 9 1009 81 10000 5.1 190 19:38 02.01.2020
5037 Rain 9 1009 81 10000 4.6 190 19:19 02.01.2020
5038 Rain 9 1009 81 10000 4.6 190 18:58 02.01.2020
5039 Rain 9 1009 81 10000 4.6 190 18:58 02.01.2020
5040 Clouds 9 1009 81 10000 5.7 190 18:39 02.01.2020
5041 Clouds 9 1009 76 10000 4.6 190 18:21 02.01.2020
5042 Clouds 9 1009 76 10000 4.6 190 17:56 02.01.2020
5043 Clouds 9 1009 81 10000 5.7 190 17:37 02.01.2020
5044 Clouds 9 1010 81 10000 4.1 190 17:19 02.01.2020
5045 Clouds 9 1010 81 10000 4.1 190 16:56 02.01.2020
5046 Clouds 9 1011 81 10000 3.6 190 16:38 02.01.2020
5047 Clouds 9 1011 81 10000 3.6 190 16:20 02.01.2020
5048 Clouds 9 1011 76 10000 4.6 180 15:45 02.01.2020
5049 Clouds 9 1012 81 10000 3.6 180 15:24 02.01.2020
5050 Clouds 8 1012 81 10000 3.6 180 14:58 02.01.2020
5051 Clouds 8 1012 81 10000 3.6 180 14:38 02.01.2020
5052 Clouds 8 1013 81 10000 3.6 180 14:20 02.01.2020
5053 Clouds 8 1014 81 10000 3.6 190 13:58 02.01.2020
5054 Clouds 8 1014 81 10000 3.6 190 13:39 02.01.2020
5055 Clouds 8 1014 81 10000 4.1 180 13:18 02.01.2020
5056 Clouds 8 1014 81 10000 4.1 180 12:42 02.01.2020
5057 Clouds 7 1015 81 10000 4.1 180 12:21 02.01.2020
5058 Clouds 7 1015 81 10000 4.1 180 11:42 02.01.2020
5059 Clouds 7 1016 81 10000 3.6 170 11:21 02.01.2020
5060 Clouds 6 1016 81 10000 3.6 170 10:46 02.01.2020
5061 Clouds 6 1016 81 10000 3.6 170 10:27 02.01.2020
5062 Clouds 6 1017 87 10000 3.6 160 09:56 02.01.2020
5063 Clouds 5 1017 87 10000 3.1 180 09:35 02.01.2020
5064 Clouds 5 1017 87 10000 3.1 180 08:58 02.01.2020
5065 Clouds 5 1017 87 10000 2.6 180 08:39 02.01.2020
5066 Clouds 5 1018 87 10000 2.6 170 08:19 02.01.2020
5067 Clouds 5 1018 87 10000 2.6 170 07:47 02.01.2020
5068 Clouds 5 1018 87 10000 2.6 170 07:26 02.01.2020
5069 Clouds 5 1018 87 10000 3.1 180 06:41 02.01.2020
5070 Clouds 6 1019 87 10000 2.6 180 05:38 02.01.2020
5071 Clouds 6 1020 87 10000 2.6 160 04:34 02.01.2020
5072 Clouds 6 1021 87 10000 3.1 180 03:23 02.01.2020
5073 Clouds 6 1022 81 10000 3.1 190 02:20 02.01.2020
5074 Clouds 6 1022 87 10000 3.1 190 01:48 02.01.2020
5075 Clouds 6 1022 87 10000 2.6 180 01:23 02.01.2020
5076 Clouds 6 1023 87 10000 2.6 190 00:38 02.01.2020
5077 Clouds 6 1023 87 10000 2.6 190 00:38 02.01.2020
5078 Clouds 6 1023 93 10000 2.6 180 00:19 02.01.2020
5079 Clouds 6 1023 87 10000 3.1 180 23:41 01.01.2020
5080 Clouds 6 1024 87 10000 2.6 180 23:21 01.01.2020
5081 Clouds 6 1024 87 7000 2.1 180 22:38 01.01.2020
5082 Clouds 6 1024 93 7000 1.5 0 22:20 01.01.2020
5083 Clouds 6 1024 93 7000 1.5 0 21:57 01.01.2020
5084 Clouds 6 1025 93 6000 1.5 0 21:38 01.01.2020
5085 Clouds 5 1025 87 6000 1.5 0 21:20 01.01.2020
5086 Clouds 5 1025 93 6000 1 0 20:56 01.01.2020
5087 Clouds 5 1025 87 6000 1.5 0 20:56 01.01.2020
5088 Clouds 5 1025 93 6000 1 0 20:38 01.01.2020
5089 Clouds 5 1025 93 6000 1 0 20:38 01.01.2020
5090 Clouds 5 1025 86 6000 1 0 20:19 01.01.2020
5091 Clouds 5 1025 86 6000 1 0 20:19 01.01.2020
5092 Clouds 5 1025 86 6000 1 0 19:55 01.01.2020
5093 Clouds 5 1026 93 6000 1 0 19:55 01.01.2020
5094 Clouds 5 1025 86 6000 1 0 19:55 01.01.2020
5095 Clouds 5 1026 93 6000 1 0 19:55 01.01.2020
5096 Clouds 5 1026 93 6000 1 0 19:37 01.01.2020
5097 Clouds 5 1026 93 6000 1.5 0 19:19 01.01.2020
5098 Clouds 5 1026 93 6000 1.5 0 18:55 01.01.2020
5099 Clouds 4 1026 93 7000 1.5 0 18:36 01.01.2020
5100 Clouds 4 1026 86 7000 1 0 18:18 01.01.2020
5101 Clouds 5 1026 86 7000 1 0 17:56 01.01.2020
5102 Clouds 5 1026 86 7000 1 0 17:56 01.01.2020
5103 Clouds 5 1026 86 9000 0.5 0 17:37 01.01.2020
5104 Clouds 5 1026 81 10000 1 0 17:18 01.01.2020
5105 Clouds 5 1026 81 10000 1.5 0 16:40 01.01.2020
5106 Clouds 5 1026 81 10000 1.5 0 16:40 01.01.2020
5107 Clouds 6 1026 81 9000 2.1 170 16:21 01.01.2020
5108 Clouds 6 1026 81 9000 2.1 170 15:57 01.01.2020
5109 Clouds 6 1026 81 9000 2.1 170 15:57 01.01.2020
5110 Clouds 6 1026 81 10000 2.1 190 15:39 01.01.2020
5111 Clouds 6 1026 81 10000 2.1 190 15:20 01.01.2020
5112 Clouds 6 1027 81 10000 1.5 0 14:58 01.01.2020
5113 Clouds 6 1026 81 10000 2.1 190 14:58 01.01.2020
5114 Clouds 6 1027 81 10000 1.5 0 14:40 01.01.2020
5115 Clouds 6 1027 81 10000 2.1 160 14:21 01.01.2020
5116 Clouds 6 1027 81 10000 2.1 160 13:56 01.01.2020
5117 Clouds 6 1028 86 10000 2.6 180 13:37 01.01.2020
5118 Clouds 6 1029 81 10000 3.1 210 13:18 01.01.2020
5119 Clouds 6 1029 81 10000 3.1 210 12:55 01.01.2020
5120 Clouds 6 1029 81 10000 3.6 210 12:37 01.01.2020
5121 Clear 6 1028 81 10000 2.6 210 12:18 01.01.2020
5122 Clear 5 1028 81 10000 1.5 0 11:43 01.01.2020
5123 Clear 5 1028 86 10000 1.5 0 11:22 01.01.2020
5124 Clear 5 1028 86 10000 1.5 0 10:58 01.01.2020
5125 Clear 4 1028 80 10000 1.5 0 10:39 01.01.2020
5126 Clear 4 1028 80 10000 1.5 0 10:20 01.01.2020
5127 Clouds 4 1028 75 10000 1 0 09:55 01.01.2020
5128 Clouds 4 1028 75 10000 1 0 09:36 01.01.2020
5129 Clouds 4 1028 75 10000 1 0 09:36 01.01.2020
5130 Clouds 5 1028 81 10000 1.5 0 09:18 01.01.2020
5131 Clouds 5 1029 81 10000 1 0 08:54 01.01.2020
5132 Clouds 5 1029 81 10000 1 0 08:36 01.01.2020
5133 Clouds 5 1029 81 10000 0.5 0 08:18 01.01.2020
5134 Clouds 5 1029 81 10000 0.5 0 07:43 01.01.2020
5135 Clouds 5 1029 75 10000 1 0 07:24 01.01.2020
5136 Clouds 5 1029 81 10000 1 0 06:44 01.01.2020
5137 Clouds 6 1029 75 10000 1.5 0 06:19 01.01.2020
5138 Clouds 6 1029 81 10000 1.5 0 04:36 01.01.2020
5139 Clouds 6 1029 81 10000 1 0 03:41 01.01.2020
5140 Clouds 6 1030 87 10000 1 0 03:22 01.01.2020
5141 Clouds 6 1030 87 10000 1 0 02:54 01.01.2020
5142 Clouds 6 1030 87 10000 1 0 02:30 01.01.2020
5143 Clouds 6 1031 87 10000 1 0 01:45 01.01.2020
5144 Clouds 6 1031 87 10000 1.5 0 01:23 01.01.2020
5145 Clouds 6 1031 87 10000 1.5 0 00:45 01.01.2020
5146 Clouds 6 1031 87 10000 1.5 0 00:26 01.01.2020
5147 Clouds 6 1031 87 10000 2.1 120 23:58 31.12.2019
5148 Clouds 6 1031 87 10000 1.5 0 23:38 31.12.2019
5149 Clouds 6 1031 87 10000 2.1 130 23:18 31.12.2019
5150 Clouds 6 1031 87 10000 2.1 130 22:56 31.12.2019
5151 Clouds 6 1031 87 10000 1 0 22:37 31.12.2019
5152 Clouds 6 1032 87 10000 1.5 0 22:18 31.12.2019
5153 Clouds 6 1032 87 10000 2.6 130 21:43 31.12.2019
5154 Clouds 6 1032 87 10000 2.6 130 21:25 31.12.2019
5155 Clouds 6 1032 87 10000 1.5 0 20:57 31.12.2019
5156 Clouds 6 1032 87 10000 1.5 0 20:39 31.12.2019
5157 Clouds 6 1032 87 10000 1.5 0 20:20 31.12.2019
5158 Clouds 6 1032 87 10000 1.5 0 19:57 31.12.2019
5159 Clouds 5 1032 86 10000 1.5 0 19:39 31.12.2019
5160 Clouds 5 1032 86 10000 1.5 80 19:20 31.12.2019
5161 Clouds 5 1032 86 10000 1.5 80 18:56 31.12.2019
5162 Clouds 5 1032 86 10000 1 0 18:38 31.12.2019
5163 Clouds 5 1032 86 10000 2.1 60 18:19 31.12.2019
5164 Clouds 5 1032 75 10000 1 120 17:55 31.12.2019
5165 Clouds 5 1032 75 10000 1 120 17:36 31.12.2019
5166 Clouds 6 1032 80 10000 1.5 0 17:18 31.12.2019
5167 Clouds 6 1032 80 10000 1.5 0 16:56 31.12.2019
5168 Clouds 6 1032 81 10000 2.1 80 16:37 31.12.2019
5169 Clouds 6 1032 75 10000 2.1 100 16:18 31.12.2019
5170 Clouds 7 1032 65 10000 2.1 0 15:56 31.12.2019
5171 Clouds 7 1032 65 10000 2.1 0 15:37 31.12.2019
5172 Clear 7 1033 65 10000 2.1 0 15:19 31.12.2019
5173 Clear 7 1033 70 10000 1.5 0 14:55 31.12.2019
5174 Clear 7 1033 70 10000 1.5 0 14:37 31.12.2019
5175 Clouds 7 1033 70 10000 3.1 90 14:18 31.12.2019
5176 Clouds 7 1033 70 10000 3.1 90 13:55 31.12.2019
5177 Clouds 6 1034 75 10000 2.1 90 13:37 31.12.2019
5178 Clouds 6 1034 75 10000 2.1 100 13:19 31.12.2019
5179 Clouds 6 1034 75 10000 2.1 100 12:54 31.12.2019
5180 Clouds 6 1034 75 10000 2.1 0 12:36 31.12.2019
5181 Clouds 6 1034 75 10000 2.1 0 12:36 31.12.2019
5182 Clouds 6 1034 81 10000 2.1 100 12:18 31.12.2019
5183 Clouds 5 1034 81 10000 2.1 100 11:54 31.12.2019
5184 Clouds 5 1034 87 10000 2.6 90 11:36 31.12.2019
5185 Clouds 5 1034 87 10000 2.6 90 11:36 31.12.2019
5186 Clouds 5 1033 86 10000 2.6 60 11:18 31.12.2019
5187 Clouds 4 1033 93 10000 1.5 80 10:54 31.12.2019
5188 Clouds 4 1033 93 10000 1.5 80 10:36 31.12.2019
5189 Clouds 4 1033 93 10000 1.5 80 10:36 31.12.2019
5190 Clouds 4 1033 93 10000 2.1 70 10:18 31.12.2019
5191 Clouds 4 1033 93 10000 2.1 70 10:18 31.12.2019
5192 Clouds 4 1033 86 10000 2.1 90 09:54 31.12.2019
5193 Clouds 4 1033 86 10000 2.1 90 09:36 31.12.2019
5194 Clouds 4 1032 86 10000 1.5 0 09:18 31.12.2019
5195 Clouds 4 1032 86 10000 1.5 90 08:42 31.12.2019
5196 Clouds 4 1032 93 10000 2.1 60 08:21 31.12.2019
5197 Clouds 4 1032 93 10000 2.1 100 07:44 31.12.2019
5198 Clouds 4 1031 100 10000 1 0 07:22 31.12.2019
5199 Clouds 4 1031 93 10000 0.5 0 06:51 31.12.2019
5200 Clouds 4 1031 93 10000 1.5 100 06:23 31.12.2019
5201 Fog 5 1031 93 350 1.5 70 04:54 31.12.2019
5202 Fog 5 1031 100 100 2.1 50 04:21 31.12.2019
5203 Mist 6 1031 93 3700 1 0 02:56 31.12.2019
5204 Clouds 6 1030 100 8000 1 0 02:19 31.12.2019
5205 Mist 6 1030 100 3400 0.5 250 01:48 31.12.2019
5206 Mist 6 1030 100 3400 0.5 250 01:29 31.12.2019
5207 Rain 7 1030 100 150 0.5 0 00:48 31.12.2019
5208 Fog 7 1029 93 150 1 0 00:23 31.12.2019
5209 Fog 7 1029 93 150 1 0 23:58 30.12.2019
5210 Mist 7 1029 100 2200 0.5 0 23:38 30.12.2019
5211 Mist 8 1030 100 1500 1.5 260 23:20 30.12.2019
5212 Mist 8 1030 100 1500 1.5 260 22:58 30.12.2019
5213 Mist 8 1029 100 1700 1.5 0 22:40 30.12.2019
5214 Mist 8 1029 100 1300 1 0 22:20 30.12.2019
5215 Mist 8 1029 100 1300 1 0 21:57 30.12.2019
5216 Mist 8 1028 93 1200 1.5 0 21:38 30.12.2019
5217 Haze 8 1028 93 1200 1 0 21:19 30.12.2019
5218 Rain 8 1028 93 1200 1 0 20:56 30.12.2019
5219 Rain 8 1028 93 4700 1 230 20:38 30.12.2019
5220 Rain 8 1028 87 7000 1 0 20:20 30.12.2019
5221 Clouds 8 1028 87 7000 1 0 19:57 30.12.2019
5222 Clouds 8 1028 87 10000 0.5 190 19:38 30.12.2019
5223 Clouds 8 1027 87 10000 1.5 190 19:19 30.12.2019
5224 Clouds 8 1027 87 10000 1.5 190 18:56 30.12.2019
5225 Clouds 8 1027 87 10000 1 170 18:38 30.12.2019
5226 Clouds 8 1027 87 10000 1.5 0 18:20 30.12.2019
5227 Clouds 8 1026 87 10000 1.5 0 17:55 30.12.2019
5228 Clouds 8 1026 87 10000 1.5 0 17:37 30.12.2019
5229 Clouds 8 1026 81 10000 1.5 0 17:18 30.12.2019
5230 Clear 8 1026 81 10000 1.5 0 16:55 30.12.2019
5231 Clear 8 1026 81 10000 1.5 0 16:36 30.12.2019
5232 Clear 9 1026 76 10000 1.5 0 16:18 30.12.2019
5233 Clear 9 1026 76 10000 1.5 0 15:54 30.12.2019
5234 Clear 9 1025 81 10000 1.5 0 15:36 30.12.2019
5235 Clear 9 1026 81 10000 2.1 210 15:18 30.12.2019
5236 Clear 9 1026 81 10000 2.1 210 15:18 30.12.2019
5237 Clear 9 1025 76 10000 2.1 200 14:42 30.12.2019
5238 Clear 9 1025 76 10000 2.1 200 14:42 30.12.2019
5239 Clouds 9 1026 76 10000 3.1 220 14:19 30.12.2019
5240 Clouds 9 1026 76 10000 3.1 220 13:55 30.12.2019
5241 Clouds 8 1025 81 10000 2.6 180 13:37 30.12.2019
5242 Clouds 8 1026 81 10000 3.1 190 13:18 30.12.2019
5243 Clouds 8 1025 75 10000 3.6 190 12:42 30.12.2019
5244 Clouds 7 1026 81 10000 3.6 190 12:20 30.12.2019
5245 Clouds 7 1026 87 10000 2.6 180 11:58 30.12.2019
5246 Clouds 6 1026 87 10000 2.6 180 11:40 30.12.2019
5247 Clouds 5 1026 81 10000 3.1 190 11:19 30.12.2019
5248 Clouds 5 1026 86 10000 2.6 180 10:44 30.12.2019
5249 Clouds 4 1026 86 10000 2.6 180 10:21 30.12.2019
5250 Clouds 4 1026 86 10000 2.6 180 09:58 30.12.2019
5251 Clouds 4 1025 86 10000 2.6 170 09:39 30.12.2019
5252 Clouds 4 1026 86 10000 1.5 0 09:19 30.12.2019
5253 Clouds 4 1026 86 10000 1.5 0 08:50 30.12.2019
5254 Clouds 4 1026 86 10000 1.5 0 08:50 30.12.2019
5255 Clouds 4 1026 86 10000 1.5 0 08:23 30.12.2019
5256 Clouds 4 1026 86 10000 1 0 07:55 30.12.2019
5257 Clouds 4 1026 86 10000 1 0 07:34 30.12.2019
5258 Clouds 4 1026 81 10000 1.5 0 06:52 30.12.2019
5259 Clouds 4 1026 86 10000 1.5 0 04:57 30.12.2019
5260 Clouds 4 1026 93 10000 3.1 180 03:55 30.12.2019
5261 Clouds 4 1027 93 10000 2.1 170 02:56 30.12.2019
5262 Clouds 5 1027 86 10000 2.1 180 02:37 30.12.2019
5263 Clouds 5 1027 87 10000 1.5 0 01:50 30.12.2019
5264 Clouds 5 1027 87 10000 3.6 180 01:20 30.12.2019
5265 Clouds 5 1027 87 10000 2.6 180 00:44 30.12.2019
5266 Clouds 5 1027 87 10000 2.6 170 00:18 30.12.2019
5267 Clouds 6 1028 87 10000 1.5 0 23:39 29.12.2019
5268 Clouds 6 1028 87 10000 1.5 0 23:21 29.12.2019
5269 Clouds 6 1028 93 10000 2.6 190 22:42 29.12.2019
5270 Clouds 6 1028 93 10000 1.5 0 22:23 29.12.2019
5271 Clouds 6 1028 93 10000 1.5 0 21:58 29.12.2019
5272 Clouds 6 1028 87 10000 2.1 160 21:40 29.12.2019
5273 Clouds 6 1028 87 10000 1.5 0 21:20 29.12.2019
5274 Clouds 6 1028 87 10000 1.5 0 20:57 29.12.2019
5275 Clouds 6 1028 87 10000 3.1 190 20:38 29.12.2019
5276 Clouds 6 1028 87 10000 3.1 180 20:20 29.12.2019
5277 Clouds 6 1028 93 10000 1 0 19:58 29.12.2019
5278 Clouds 6 1028 93 10000 1 0 19:39 29.12.2019
5279 Clouds 7 1028 87 10000 1 0 19:20 29.12.2019
5280 Clouds 7 1028 87 10000 1 0 18:55 29.12.2019
5281 Clouds 7 1028 87 10000 1 0 18:37 29.12.2019
5282 Clouds 7 1028 87 10000 2.1 190 18:19 29.12.2019
5283 Clouds 8 1028 87 10000 2.1 190 18:19 29.12.2019
5284 Clouds 8 1028 87 10000 2.1 190 17:56 29.12.2019
5285 Clouds 8 1028 87 10000 3.6 180 17:38 29.12.2019
5286 Clouds 8 1028 87 10000 3.6 180 17:38 29.12.2019
5287 Clouds 8 1028 87 10000 2.6 170 17:19 29.12.2019
5288 Clouds 8 1028 87 10000 2.6 170 16:56 29.12.2019
5289 Clouds 8 1028 87 10000 2.1 160 16:36 29.12.2019
5290 Clouds 8 1028 87 10000 2.1 160 16:36 29.12.2019
5291 Clouds 8 1028 87 10000 2.1 170 16:18 29.12.2019
5292 Clouds 9 1029 87 10000 2.1 180 15:56 29.12.2019
5293 Clouds 9 1029 87 10000 2.1 180 15:38 29.12.2019
5294 Clouds 9 1028 87 10000 3.6 190 15:19 29.12.2019
5295 Clouds 9 1028 87 10000 3.6 190 14:55 29.12.2019
5296 Clouds 9 1028 81 10000 3.6 170 14:37 29.12.2019
5297 Clouds 9 1028 81 10000 3.6 170 14:37 29.12.2019
5298 Clouds 9 1029 87 10000 2.6 190 14:18 29.12.2019
5299 Clouds 9 1029 87 10000 2.6 190 13:55 29.12.2019
5300 Clouds 9 1029 87 10000 2.6 190 13:37 29.12.2019
5301 Clouds 9 1029 87 10000 3.1 170 13:18 29.12.2019
5302 Clouds 8 1030 87 10000 3.1 170 12:41 29.12.2019
5303 Clouds 8 1030 87 10000 3.6 190 12:23 29.12.2019
5304 Clouds 8 1030 87 10000 3.6 190 11:54 29.12.2019
5305 Clouds 8 1030 87 10000 2.1 180 11:36 29.12.2019
5306 Clouds 8 1030 93 10000 2.6 170 11:18 29.12.2019
5307 Clouds 8 1030 93 9000 2.6 180 10:41 29.12.2019
5308 Clouds 8 1030 93 8000 2.6 180 10:20 29.12.2019
5309 Clouds 8 1030 93 10000 2.6 170 09:54 29.12.2019
5310 Clouds 8 1030 93 10000 2.6 170 09:36 29.12.2019
5311 Clouds 8 1030 93 10000 2.6 180 09:18 29.12.2019
5312 Clouds 8 1030 93 10000 2.1 0 08:44 29.12.2019
5313 Clouds 8 1029 93 10000 2.6 180 08:24 29.12.2019
5314 Clouds 8 1029 93 10000 3.1 170 07:49 29.12.2019
5315 Clouds 8 1029 93 10000 2.6 150 07:27 29.12.2019
5316 Clouds 8 1030 93 10000 2.1 160 06:52 29.12.2019
5317 Clouds 8 1030 93 10000 1.5 0 06:22 29.12.2019
5318 Clouds 8 1031 93 10000 2.6 170 05:45 29.12.2019
5319 Clouds 8 1031 87 10000 2.6 170 04:33 29.12.2019
5320 Clouds 8 1031 87 10000 3.1 180 03:40 29.12.2019
5321 Clouds 8 1032 93 10000 3.1 180 02:49 29.12.2019
5322 Clouds 7 1032 87 10000 2.1 180 02:19 29.12.2019
5323 Clouds 8 1032 87 10000 2.6 180 01:31 29.12.2019
5324 Clouds 8 1032 87 10000 2.6 180 01:31 29.12.2019
5325 Clouds 8 1032 87 10000 2.6 180 00:51 29.12.2019
5326 Clouds 8 1032 87 10000 2.6 180 00:25 29.12.2019
5327 Clouds 8 1032 87 10000 2.6 180 23:56 28.12.2019
5328 Clouds 8 1032 87 10000 2.6 180 23:56 28.12.2019
5329 Clouds 8 1032 87 10000 2.1 210 23:37 28.12.2019
5330 Clouds 8 1032 93 10000 2.1 160 23:18 28.12.2019
5331 Clouds 8 1032 93 10000 2.1 160 23:18 28.12.2019
5332 Clouds 8 1032 93 10000 2.1 160 23:18 28.12.2019
5333 Clouds 8 1032 93 10000 2.6 170 22:38 28.12.2019
5334 Clouds 8 1032 93 10000 2.1 170 22:19 28.12.2019
5335 Clouds 8 1032 93 10000 2.1 170 21:57 28.12.2019
5336 Clouds 8 1032 93 10000 2.6 190 21:38 28.12.2019
5337 Clouds 8 1032 87 10000 2.6 170 21:19 28.12.2019
5338 Clouds 8 1032 93 10000 2.6 170 20:54 28.12.2019
5339 Clouds 8 1032 93 10000 2.6 170 20:36 28.12.2019
5340 Clouds 8 1032 93 10000 3.1 180 20:18 28.12.2019
5341 Clouds 8 1032 93 10000 2.1 170 19:43 28.12.2019
5342 Clouds 8 1032 93 10000 2.6 160 19:24 28.12.2019
5343 Clouds 8 1032 93 10000 2.6 160 18:59 28.12.2019
5344 Clouds 8 1032 93 10000 2.6 160 18:41 28.12.2019
5345 Clouds 8 1033 93 10000 2.1 160 18:20 28.12.2019
5346 Clouds 8 1033 93 10000 2.1 160 17:58 28.12.2019
5347 Clouds 8 1033 87 10000 2.6 190 17:39 28.12.2019
5348 Clouds 8 1032 93 10000 3.1 180 17:20 28.12.2019
5349 Clouds 8 1032 87 10000 2.6 180 16:48 28.12.2019
5350 Clouds 9 1032 87 10000 2.6 180 16:26 28.12.2019
5351 Clouds 9 1032 87 10000 2.6 160 15:57 28.12.2019
5352 Clouds 9 1032 87 10000 2.6 160 15:39 28.12.2019
5353 Clouds 9 1033 87 10000 2.1 160 15:20 28.12.2019
5354 Clouds 9 1033 87 10000 2.6 190 14:45 28.12.2019
5355 Clouds 9 1033 87 10000 2.6 190 14:24 28.12.2019
5356 Clouds 9 1032 87 10000 2.1 180 13:57 28.12.2019
5357 Clouds 9 1033 87 10000 2.1 170 13:38 28.12.2019
5358 Clouds 9 1033 87 10000 2.1 0 13:19 28.12.2019
5359 Clouds 8 1033 93 10000 1.5 0 12:44 28.12.2019
5360 Clouds 8 1033 93 10000 2.6 170 12:24 28.12.2019
5361 Clouds 8 1033 93 10000 2.6 170 11:58 28.12.2019
5362 Clouds 8 1034 93 10000 1 0 11:39 28.12.2019
5363 Clouds 8 1033 93 10000 3.1 190 11:20 28.12.2019
5364 Clouds 8 1033 93 10000 3.1 190 10:46 28.12.2019
5365 Clouds 8 1033 93 10000 2.1 170 10:22 28.12.2019
5366 Clouds 8 1033 93 10000 2.1 170 10:22 28.12.2019
5367 Clouds 8 1033 93 10000 2.1 170 10:22 28.12.2019
5368 Clouds 8 1033 93 10000 2.1 170 09:58 28.12.2019
5369 Clouds 8 1033 93 10000 2.6 170 09:40 28.12.2019
5370 Clouds 8 1032 87 10000 2.1 160 09:20 28.12.2019
5371 Clouds 8 1032 93 10000 3.1 180 08:44 28.12.2019
5372 Clouds 8 1032 93 10000 3.1 180 08:26 28.12.2019
5373 Clouds 8 1032 93 9000 3.1 170 07:55 28.12.2019
5374 Clouds 8 1032 93 10000 3.6 180 07:31 28.12.2019
5375 Rain 8 1032 93 7000 2.6 150 06:41 28.12.2019
5376 Clouds 8 1032 93 8000 2.1 150 04:51 28.12.2019
5377 Clouds 8 1032 93 9000 2.1 170 03:47 28.12.2019
5378 Clouds 8 1032 100 7000 2.1 160 02:48 28.12.2019
5379 Clouds 8 1032 100 7000 2.1 160 01:59 28.12.2019
5380 Clouds 8 1032 100 8000 2.6 150 01:30 28.12.2019
5381 Clouds 8 1032 93 9000 1.5 0 00:58 28.12.2019
5382 Clouds 8 1032 100 6000 1.5 0 00:38 28.12.2019
5383 Mist 8 1032 100 5000 1.5 0 00:19 28.12.2019
5384 Mist 8 1032 93 5000 1.5 0 23:43 27.12.2019
5385 Mist 7 1031 93 4300 2.1 170 23:20 27.12.2019
5386 Mist 7 1031 93 4300 2.1 170 22:58 27.12.2019
5387 Mist 7 1031 93 4800 2.6 170 22:38 27.12.2019
5388 Clouds 7 1031 100 6000 2.1 160 22:20 27.12.2019
5389 Clouds 7 1031 100 6000 2.1 160 22:20 27.12.2019
5390 Clouds 7 1031 100 6000 2.1 160 21:55 27.12.2019
5391 Clouds 7 1031 100 6000 2.6 150 21:37 27.12.2019
5392 Clouds 7 1031 93 7000 2.1 160 21:18 27.12.2019
5393 Clouds 7 1030 93 8000 2.1 0 20:41 27.12.2019
5394 Clouds 7 1030 93 10000 2.6 160 20:22 27.12.2019
5395 Clouds 7 1030 93 10000 2.1 180 19:43 27.12.2019
5396 Clouds 7 1030 93 10000 2.6 0 19:21 27.12.2019
5397 Clouds 7 1030 93 10000 2.6 0 18:59 27.12.2019
5398 Clouds 7 1030 93 10000 2.6 170 18:39 27.12.2019
5399 Clouds 7 1030 93 9000 2.6 170 18:21 27.12.2019
5400 Clouds 7 1030 93 9000 2.6 170 17:57 27.12.2019
5401 Clouds 7 1029 93 10000 2.6 170 17:39 27.12.2019
5402 Clouds 7 1029 93 10000 2.6 180 17:19 27.12.2019
5403 Clouds 7 1029 93 10000 2.6 180 16:58 27.12.2019
5404 Clouds 7 1029 93 10000 2.6 170 16:38 27.12.2019
5405 Clouds 7 1029 93 10000 2.1 150 16:19 27.12.2019
5406 Clouds 7 1029 93 9000 2.1 140 15:44 27.12.2019
5407 Clouds 7 1029 93 10000 2.1 150 15:22 27.12.2019
5408 Clouds 7 1029 93 10000 2.1 150 14:57 27.12.2019
5409 Clouds 7 1029 93 10000 2.1 160 14:39 27.12.2019
5410 Clouds 7 1028 93 10000 2.1 160 14:20 27.12.2019
5411 Clouds 7 1028 93 10000 2.1 160 14:20 27.12.2019
5412 Clouds 7 1028 93 10000 2.1 150 13:48 27.12.2019
5413 Clouds 7 1028 93 10000 2.1 150 13:25 27.12.2019
5414 Clouds 6 1027 93 10000 2.1 0 12:58 27.12.2019
5415 Clouds 6 1027 100 10000 2.1 150 12:40 27.12.2019
5416 Clouds 6 1028 100 10000 1.5 0 12:21 27.12.2019
5417 Clouds 6 1027 100 9000 4.6 130 11:45 27.12.2019
5418 Clouds 6 1027 100 9000 4.6 130 11:26 27.12.2019
5419 Fog 6 1027 100 8000 5.1 140 10:56 27.12.2019
5420 Fog 5 1027 100 8000 5.1 130 10:38 27.12.2019
5421 Fog 5 1027 100 3000 2.6 120 10:20 27.12.2019
5422 Fog 5 1026 100 1000 3.6 120 09:43 27.12.2019
5423 Fog 5 1026 100 500 2.6 130 09:21 27.12.2019
5424 Clouds 4 1026 93 10000 1 0 08:58 27.12.2019
5425 Fog 4 1025 100 6000 3.6 160 08:36 27.12.2019
5426 Clouds 4 1025 95 10000 0.5 0 07:51 27.12.2019
5427 Clouds 4 1025 95 10000 0.5 0 07:32 27.12.2019
5428 Fog 4 1024 100 50 3.1 150 06:37 27.12.2019
5429 Drizzle 4 1023 100 5000 2.1 110 05:37 27.12.2019
5430 Mist 4 1023 100 5000 1 0 03:40 27.12.2019
5431 Drizzle 4 1021 100 5000 3.1 80 02:20 27.12.2019
5432 Fog 5 1021 93 900 1 0 01:37 27.12.2019
5433 Mist 5 1020 93 1300 1 0 01:18 27.12.2019
5434 Mist 5 1020 93 10000 2.1 50 00:41 27.12.2019
5435 Mist 5 1019 93 10000 2.1 40 00:23 27.12.2019
5436 Mist 5 1019 100 10000 1.5 60 23:41 26.12.2019
5437 Mist 5 1018 100 3500 1.5 50 23:22 26.12.2019
5438 Mist 5 1018 100 4900 1 50 22:47 26.12.2019
5439 Clouds 5 1017 100 10000 0.5 50 22:23 26.12.2019
5440 Clouds 5 1017 100 10000 0.5 50 21:59 26.12.2019
5441 Mist 5 1016 100 5000 2.1 60 21:39 26.12.2019
5442 Drizzle 5 1016 100 3500 2.1 60 21:20 26.12.2019
5443 Drizzle 5 1016 93 3000 2.6 50 20:46 26.12.2019
5444 Rain 5 1015 93 10000 2.1 60 20:23 26.12.2019
5445 Rain 5 1015 93 10000 2.1 60 19:59 26.12.2019
5446 Rain 5 1015 93 10000 1.5 60 19:40 26.12.2019
5447 Drizzle 5 1014 93 10000 1.5 60 19:21 26.12.2019
5448 Drizzle 5 1014 93 10000 1.5 60 18:58 26.12.2019
5449 Drizzle 5 1014 93 8000 1.5 60 18:39 26.12.2019
5450 Rain 5 1013 93 9000 1 70 18:19 26.12.2019
5451 Clouds 5 1013 93 10000 1.5 60 17:55 26.12.2019
5452 Clouds 5 1013 93 10000 1.5 60 17:37 26.12.2019
5453 Rain 5 1013 93 10000 1 0 17:18 26.12.2019
5454 Rain 5 1013 93 10000 1.5 330 16:41 26.12.2019
5455 Rain 6 1012 93 10000 0.5 0 16:22 26.12.2019
5456 Rain 6 1012 93 10000 0.5 0 15:55 26.12.2019
5457 Rain 6 1012 93 6000 0.5 0 15:37 26.12.2019
5458 Rain 6 1011 93 10000 1.5 0 15:18 26.12.2019
5459 Rain 5 1012 93 3600 2.1 90 14:39 26.12.2019
5460 Rain 5 1012 87 7000 2.1 90 14:21 26.12.2019
5461 Rain 5 1012 87 10000 2.6 90 13:43 26.12.2019
5462 Rain 5 1013 87 6000 2.1 100 13:21 26.12.2019
5463 Rain 5 1013 87 6000 2.1 100 12:58 26.12.2019
5464 Rain 5 1012 87 10000 3.1 100 12:38 26.12.2019
5465 Rain 5 1013 87 10000 2.6 110 12:19 26.12.2019
5466 Rain 5 1013 87 10000 2.6 110 11:57 26.12.2019
5467 Rain 5 1013 81 10000 3.6 110 11:38 26.12.2019
5468 Rain 5 1013 75 10000 3.6 130 11:19 26.12.2019
5469 Rain 5 1013 75 10000 2.6 0 10:42 26.12.2019
5470 Rain 5 1014 75 10000 3.1 0 10:18 26.12.2019
5471 Rain 5 1014 81 10000 4.6 110 09:49 26.12.2019
5472 Rain 5 1014 81 10000 4.6 110 09:31 26.12.2019
5473 Rain 5 1016 81 10000 3.6 120 08:42 26.12.2019
5474 Rain 5 1016 81 10000 3.6 120 08:24 26.12.2019
5475 Clouds 5 1016 81 10000 3.1 120 07:53 26.12.2019
5476 Clouds 5 1016 81 10000 3.1 120 07:26 26.12.2019
5477 Clouds 5 1017 75 10000 3.1 120 06:53 26.12.2019
5478 Clouds 5 1017 75 10000 3.1 120 06:32 26.12.2019
5479 Clouds 4 1018 80 10000 3.6 130 05:45 26.12.2019
5480 Clouds 5 1019 80 10000 3.1 120 04:48 26.12.2019
5481 Clouds 5 1019 80 10000 3.1 120 04:29 26.12.2019
5482 Clouds 5 1020 86 10000 2.1 120 02:54 26.12.2019
5483 Clouds 5 1020 86 10000 2.1 110 02:32 26.12.2019
5484 Clouds 5 1021 86 10000 1 0 01:46 26.12.2019
5485 Clouds 5 1021 86 10000 1 0 01:27 26.12.2019
5486 Clouds 5 1022 86 10000 2.6 90 00:48 26.12.2019
5487 Clouds 5 1022 86 10000 2.6 90 00:25 26.12.2019
5488 Clouds 5 1022 86 10000 1 0 23:58 25.12.2019
5489 Clouds 5 1023 87 10000 1 0 23:38 25.12.2019
5490 Clouds 5 1023 87 10000 1.5 0 23:20 25.12.2019
5491 Clouds 5 1023 87 10000 1.5 0 22:58 25.12.2019
5492 Clouds 5 1023 87 10000 1.5 0 22:38 25.12.2019
5493 Clouds 5 1023 87 10000 1 0 22:19 25.12.2019
5494 Clouds 5 1023 87 10000 1 0 21:57 25.12.2019
5495 Clouds 5 1023 93 10000 1 0 21:39 25.12.2019
5496 Clouds 5 1023 93 10000 1 0 21:19 25.12.2019
5497 Clouds 5 1023 93 10000 1 0 20:41 25.12.2019
5498 Clouds 5 1023 93 10000 1 0 20:41 25.12.2019
5499 Clouds 5 1023 93 10000 1 0 20:21 25.12.2019
5500 Clouds 5 1023 93 10000 1 0 19:59 25.12.2019
5501 Clouds 5 1023 93 10000 1 110 19:41 25.12.2019
5502 Clouds 6 1023 93 10000 1 0 19:22 25.12.2019
5503 Clouds 6 1024 93 10000 1 0 18:41 25.12.2019
5504 Clouds 6 1024 93 10000 1.5 0 18:21 25.12.2019
5505 Clouds 6 1024 93 10000 1.5 0 17:59 25.12.2019
5506 Clouds 6 1024 93 10000 1.5 0 17:39 25.12.2019
5507 Clouds 7 1024 93 10000 1 0 17:18 25.12.2019
5508 Clouds 7 1024 93 10000 1 0 16:55 25.12.2019
5509 Clouds 7 1024 93 10000 1 0 16:55 25.12.2019
5510 Clouds 7 1024 93 10000 1.5 0 16:36 25.12.2019
5511 Clouds 7 1024 93 10000 1.5 0 16:18 25.12.2019
5512 Clouds 7 1024 93 10000 1.5 0 15:55 25.12.2019
5513 Clouds 7 1024 93 10000 1.5 0 15:36 25.12.2019
5514 Clouds 7 1024 100 10000 1.5 0 15:18 25.12.2019
5515 Clouds 7 1024 93 10000 1.5 0 14:42 25.12.2019
5516 Clouds 7 1024 100 10000 1 0 14:23 25.12.2019
5517 Clouds 7 1024 100 10000 1 0 13:58 25.12.2019
5518 Clouds 7 1024 93 10000 1 0 13:40 25.12.2019
5519 Rain 7 1024 93 10000 1 0 13:20 25.12.2019
5520 Clouds 7 1024 93 10000 1 0 12:43 25.12.2019
5521 Clouds 6 1024 100 10000 1 0 12:22 25.12.2019
5522 Clouds 6 1024 100 10000 1 0 11:58 25.12.2019
5523 Clouds 5 1023 100 10000 1.5 0 11:39 25.12.2019
5524 Clouds 5 1023 93 10000 1.5 0 11:20 25.12.2019
5525 Clouds 5 1023 93 10000 1.5 170 10:39 25.12.2019
5526 Clouds 5 1023 93 10000 1.5 170 10:39 25.12.2019
5527 Clouds 4 1022 93 10000 1.5 0 10:21 25.12.2019
5528 Clouds 4 1022 93 10000 0.5 0 09:51 25.12.2019
5529 Clouds 4 1022 93 10000 0.5 0 09:33 25.12.2019
5530 Clouds 4 1021 100 10000 1 0 08:51 25.12.2019
5531 Clouds 4 1021 100 10000 1 0 08:32 25.12.2019
5532 Clouds 4 1021 93 10000 3.1 260 07:59 25.12.2019
5533 Clouds 4 1021 93 10000 3.1 260 07:59 25.12.2019
5534 Clouds 5 1020 93 10000 1.5 0 07:37 25.12.2019
5535 Clouds 5 1020 93 10000 3.1 270 07:19 25.12.2019
5536 Clouds 5 1019 93 10000 4.1 250 06:23 25.12.2019
5537 Clouds 5 1019 93 10000 3.6 240 05:43 25.12.2019
5538 Clouds 5 1018 87 10000 2.1 270 04:39 25.12.2019
5539 Clouds 6 1018 93 10000 2.1 280 04:20 25.12.2019
5540 Clouds 6 1018 93 10000 2.1 280 04:20 25.12.2019
5541 Clouds 6 1018 93 10000 2.1 280 03:43 25.12.2019
5542 Clouds 6 1017 87 10000 4.1 260 02:56 25.12.2019
5543 Clouds 6 1017 87 10000 3.6 270 02:27 25.12.2019
5544 Clouds 6 1016 93 10000 5.1 280 01:26 25.12.2019
5545 Rain 6 1016 93 10000 2.6 270 00:56 25.12.2019
5546 Rain 6 1015 100 10000 2.6 260 00:33 25.12.2019
5547 Clouds 6 1015 93 10000 3.1 280 23:58 24.12.2019
5548 Rain 6 1014 93 10000 4.6 290 23:39 24.12.2019
5549 Rain 6 1014 93 10000 5.1 290 23:20 24.12.2019
5550 Rain 6 1013 87 10000 4.1 280 22:41 24.12.2019
5551 Clouds 6 1013 87 10000 3.6 280 22:23 24.12.2019
5552 Clouds 6 1012 87 10000 3.1 290 21:44 24.12.2019
5553 Clouds 6 1012 87 10000 3.1 290 21:44 24.12.2019
5554 Clouds 6 1011 93 10000 2.6 290 21:23 24.12.2019
5555 Clouds 6 1011 93 10000 2.6 290 20:59 24.12.2019
5556 Clouds 6 1011 87 10000 3.6 300 20:40 24.12.2019
5557 Clouds 6 1010 87 10000 3.6 300 20:19 24.12.2019
5558 Clouds 7 1009 93 10000 3.1 290 19:45 24.12.2019
5559 Clouds 7 1008 93 10000 3.1 280 19:21 24.12.2019
5560 Clouds 7 1008 93 10000 3.1 280 18:57 24.12.2019
5561 Drizzle 7 1008 93 3000 4.6 250 18:38 24.12.2019
5562 Rain 7 1007 93 10000 3.6 280 18:18 24.12.2019
5563 Rain 7 1007 93 10000 4.6 270 17:39 24.12.2019
5564 Rain 8 1006 93 10000 5.7 280 17:21 24.12.2019
5565 Rain 8 1006 93 10000 5.7 280 16:55 24.12.2019
5566 Drizzle 8 1005 93 7000 5.1 270 16:37 24.12.2019
5567 Rain 8 1005 81 10000 6.7 280 16:19 24.12.2019
5568 Rain 8 1005 81 10000 6.7 280 15:55 24.12.2019
5569 Rain 8 1004 81 10000 6.2 270 15:36 24.12.2019
5570 Rain 9 1004 87 10000 4.1 260 15:18 24.12.2019
5571 Rain 9 1004 87 10000 4.1 260 14:55 24.12.2019
5572 Rain 9 1003 87 10000 4.1 270 14:37 24.12.2019
5573 Rain 9 1003 81 10000 3.6 230 14:19 24.12.2019
5574 Rain 9 1003 81 10000 3.6 230 13:55 24.12.2019
5575 Clouds 9 1003 93 10000 2.6 210 13:37 24.12.2019
5576 Clouds 9 1003 93 10000 2.6 210 13:37 24.12.2019
5577 Clouds 9 1003 93 10000 2.6 210 13:37 24.12.2019
5578 Clouds 9 1003 87 10000 3.6 220 13:19 24.12.2019
5579 Clouds 9 1002 93 10000 3.1 200 12:55 24.12.2019
5580 Clouds 8 1002 93 10000 3.1 200 12:36 24.12.2019
5581 Rain 8 1002 87 10000 2.6 200 12:18 24.12.2019
5582 Rain 8 1002 87 10000 2.6 200 11:55 24.12.2019
5583 Rain 8 1002 93 10000 2.6 190 11:36 24.12.2019
5584 Rain 7 1002 93 10000 2.6 190 11:18 24.12.2019
5585 Rain 7 1002 93 10000 2.6 190 10:55 24.12.2019
5586 Rain 7 1002 93 10000 2.1 180 10:36 24.12.2019
5587 Rain 7 1001 93 6000 2.6 210 10:18 24.12.2019
5588 Rain 7 1001 93 6000 2.6 210 09:54 24.12.2019
5589 Rain 6 1001 93 10000 2.6 190 09:36 24.12.2019
5590 Rain 6 1001 100 10000 2.6 170 09:18 24.12.2019
5591 Rain 6 1001 93 10000 1.5 0 08:42 24.12.2019
5592 Rain 6 1001 93 10000 1.5 0 08:42 24.12.2019
5593 Rain 6 1001 100 10000 2.1 210 08:19 24.12.2019
5594 Rain 6 1001 100 8000 2.6 200 07:45 24.12.2019
5595 Drizzle 6 1001 93 3700 2.6 190 07:24 24.12.2019
5596 Drizzle 6 1001 93 3700 2.6 190 07:24 24.12.2019
5597 Rain 5 1001 93 10000 1 0 06:44 24.12.2019
5598 Clouds 5 1001 100 10000 1.5 0 06:22 24.12.2019
5599 Rain 5 1001 100 10000 1.5 0 05:57 24.12.2019
5600 Rain 5 1003 100 3900 1.5 0 05:20 24.12.2019
5601 Rain 5 1004 93 6000 1.5 0 04:33 24.12.2019
5602 Rain 5 1004 87 10000 2.6 170 03:50 24.12.2019
5603 Rain 5 1005 93 10000 2.6 180 02:59 24.12.2019
5604 Rain 6 1005 93 10000 1.5 0 02:18 24.12.2019
5605 Clouds 6 1006 87 10000 2.1 180 01:42 24.12.2019
5606 Clouds 6 1006 87 10000 2.1 170 01:19 24.12.2019
5607 Rain 6 1007 87 10000 2.6 180 00:41 24.12.2019
5608 Rain 5 1007 87 10000 1.5 0 00:22 24.12.2019
5609 Clouds 5 1007 93 10000 1.5 0 23:43 23.12.2019
5610 Clouds 5 1007 93 10000 1.5 0 23:24 23.12.2019
5611 Clouds 5 1007 93 10000 2.6 190 22:58 23.12.2019
5612 Clouds 5 1007 93 10000 2.6 190 22:58 23.12.2019
5613 Clouds 5 1007 86 10000 3.1 190 22:38 23.12.2019
5614 Clouds 5 1007 86 10000 4.1 190 22:20 23.12.2019
5615 Clouds 5 1007 86 10000 4.1 190 21:57 23.12.2019
5616 Clouds 5 1008 80 10000 1.5 0 21:37 23.12.2019
5617 Clouds 5 1008 80 10000 1.5 0 21:37 23.12.2019
5618 Clouds 5 1008 86 10000 3.1 190 21:19 23.12.2019
5619 Clouds 5 1008 86 10000 3.1 190 20:59 23.12.2019
5620 Clouds 6 1008 80 10000 2.6 190 20:41 23.12.2019
5621 Clouds 6 1008 86 10000 1.5 0 20:19 23.12.2019
5622 Clouds 6 1008 86 10000 1.5 0 19:59 23.12.2019
5623 Clouds 6 1008 81 10000 2.6 220 19:41 23.12.2019
5624 Clouds 6 1008 81 10000 4.6 230 19:22 23.12.2019
5625 Clouds 7 1007 81 10000 6.7 240 18:59 23.12.2019
5626 Clouds 7 1007 81 10000 6.7 240 18:39 23.12.2019
5627 Clouds 7 1007 87 10000 4.1 220 18:21 23.12.2019
5628 Clouds 7 1007 81 10000 4.6 240 17:59 23.12.2019
5629 Clouds 7 1007 81 10000 4.6 240 17:40 23.12.2019
5630 Clouds 7 1007 70 10000 5.1 250 17:20 23.12.2019
5631 Clouds 8 1007 70 10000 5.1 250 16:58 23.12.2019
5632 Clouds 8 1007 70 10000 5.1 250 16:40 23.12.2019
5633 Clouds 8 1006 70 10000 7.2 260 16:19 23.12.2019
5634 Clouds 8 1006 70 10000 7.2 260 15:58 23.12.2019
5635 Clouds 8 1006 66 10000 8.2 260 15:37 23.12.2019
5636 Clouds 8 1006 70 10000 9.3 260 15:19 23.12.2019
5637 Clouds 8 1006 70 10000 9.3 260 14:56 23.12.2019
5638 Clouds 8 1005 70 10000 7.7 260 14:38 23.12.2019
5639 Clouds 8 1005 70 10000 8.2 250 14:19 23.12.2019
5640 Rain 8 1005 70 10000 7.2 260 13:56 23.12.2019
5641 Rain 8 1005 70 10000 7.2 260 13:38 23.12.2019
5642 Clouds 8 1005 75 10000 7.7 260 13:20 23.12.2019
5643 Clouds 8 1005 75 10000 7.7 260 12:55 23.12.2019
5644 Clouds 8 1005 75 10000 8.2 250 12:36 23.12.2019
5645 Rain 8 1005 75 10000 7.7 250 12:18 23.12.2019
5646 Rain 8 1005 75 10000 7.7 250 12:18 23.12.2019
5647 Rain 7 1004 81 10000 8.2 250 11:42 23.12.2019
5648 Rain 7 1004 81 10000 8.2 250 11:42 23.12.2019
5649 Rain 7 1003 75 10000 8.2 250 11:24 23.12.2019
5650 Rain 7 1003 75 10000 8.2 250 10:56 23.12.2019
5651 Rain 7 1003 81 10000 8.2 250 10:38 23.12.2019
5652 Rain 7 1002 81 10000 6.2 240 10:20 23.12.2019
5653 Rain 7 1002 81 10000 6.2 240 09:58 23.12.2019
5654 Rain 7 1002 87 10000 3.6 230 09:39 23.12.2019
5655 Rain 7 1001 87 10000 4.1 210 09:19 23.12.2019
5656 Clouds 7 1001 87 10000 3.6 200 08:42 23.12.2019
5657 Clouds 6 1001 87 10000 2.6 210 08:23 23.12.2019
5658 Clouds 6 1001 87 10000 2.6 210 07:57 23.12.2019
5659 Clouds 6 1000 93 10000 4.6 250 07:38 23.12.2019
5660 Clouds 6 1000 87 10000 5.7 250 07:19 23.12.2019
5661 Clouds 6 999 87 10000 5.1 260 06:39 23.12.2019
5662 Clouds 7 999 87 10000 6.2 260 06:21 23.12.2019
5663 Rain 7 998 93 10000 6.7 270 05:45 23.12.2019
5664 Rain 7 997 93 5000 6.2 250 04:44 23.12.2019
5665 Rain 7 996 93 9000 4.6 230 03:58 23.12.2019
5666 Rain 6 994 86 10000 3.1 210 02:47 23.12.2019
5667 Clouds 6 994 87 10000 4.1 220 02:20 23.12.2019
5668 Clouds 6 994 87 10000 3.1 210 01:50 23.12.2019
5669 Clouds 6 994 87 10000 3.1 210 01:31 23.12.2019
5670 Clouds 6 993 87 10000 3.1 190 00:48 23.12.2019
5671 Clouds 6 993 87 10000 3.1 190 00:27 23.12.2019
5672 Clouds 6 993 87 10000 2.6 190 23:56 22.12.2019
5673 Clouds 6 992 87 10000 2.6 200 23:37 22.12.2019
5674 Rain 6 992 87 10000 2.6 190 23:19 22.12.2019
5675 Rain 6 991 87 10000 2.6 180 22:42 22.12.2019
5676 Rain 6 991 87 10000 2.6 180 22:42 22.12.2019
5677 Clouds 6 991 87 10000 2.6 180 22:42 22.12.2019
5678 Rain 6 991 87 10000 2.6 200 22:23 22.12.2019
5679 Rain 6 991 87 10000 2.6 200 21:59 22.12.2019
5680 Rain 6 990 87 10000 2.6 220 21:41 22.12.2019
5681 Rain 6 990 87 10000 2.6 240 21:22 22.12.2019
5682 Rain 6 990 87 10000 2.6 240 20:59 22.12.2019
5683 Rain 6 989 87 10000 3.1 230 20:40 22.12.2019
5684 Clouds 6 989 87 10000 3.1 230 20:19 22.12.2019
5685 Clouds 7 989 87 10000 3.1 230 19:57 22.12.2019
5686 Rain 7 988 87 10000 3.1 220 19:39 22.12.2019
5687 Clouds 7 988 87 10000 3.1 220 19:20 22.12.2019
5688 Clouds 7 987 87 10000 3.6 220 18:43 22.12.2019
5689 Clouds 7 987 87 10000 3.6 220 18:25 22.12.2019
5690 Rain 7 987 87 10000 3.1 210 17:57 22.12.2019
5691 Rain 7 987 87 10000 3.1 210 17:57 22.12.2019
5692 Clouds 7 986 87 10000 2.6 190 17:39 22.12.2019
5693 Clouds 7 986 87 10000 2.1 190 17:19 22.12.2019
5694 Clouds 7 986 87 10000 2.1 190 17:19 22.12.2019
5695 Clouds 7 985 87 10000 1.5 0 16:58 22.12.2019
5696 Clouds 7 985 87 10000 1.5 0 16:40 22.12.2019
5697 Clouds 7 985 87 10000 1.5 0 16:40 22.12.2019
5698 Clouds 7 985 87 10000 1.5 0 16:22 22.12.2019
5699 Clouds 8 985 87 10000 1.5 0 15:56 22.12.2019
5700 Rain 8 985 87 10000 2.1 200 15:38 22.12.2019
5701 Rain 8 985 81 10000 2.6 200 15:20 22.12.2019
5702 Rain 7 985 81 10000 2.6 200 14:55 22.12.2019
5703 Rain 7 985 81 10000 2.6 200 14:55 22.12.2019
5704 Clouds 8 984 87 10000 2.6 200 14:37 22.12.2019
5705 Clouds 7 984 87 10000 2.1 200 14:18 22.12.2019
5706 Clouds 7 984 87 10000 2.1 200 14:18 22.12.2019
5707 Clouds 7 984 87 10000 2.1 200 14:18 22.12.2019
5708 Clouds 7 984 87 10000 2.1 200 13:55 22.12.2019
5709 Clouds 7 984 87 10000 2.6 210 13:36 22.12.2019
5710 Clouds 7 984 87 10000 1.5 0 13:18 22.12.2019
5711 Clouds 7 984 87 10000 1.5 0 12:55 22.12.2019
5712 Clouds 7 984 87 10000 1.5 0 12:55 22.12.2019
5713 Clouds 7 984 93 10000 1.5 0 12:37 22.12.2019
5714 Clouds 7 984 93 10000 1 0 12:18 22.12.2019
5715 Clouds 6 984 93 10000 1 0 11:55 22.12.2019
5716 Clouds 6 984 93 10000 1.5 230 11:36 22.12.2019
5717 Clouds 6 983 93 10000 2.6 230 11:18 22.12.2019
5718 Clouds 6 983 87 10000 2.1 230 10:54 22.12.2019
5719 Clouds 6 983 87 10000 2.1 230 10:36 22.12.2019
5720 Clouds 6 982 93 10000 1.5 220 10:18 22.12.2019
5721 Rain 6 982 93 10000 2.6 270 09:41 22.12.2019
5722 Clouds 6 981 93 10000 3.6 250 09:22 22.12.2019
5723 Clouds 6 981 93 10000 3.6 250 08:59 22.12.2019
5724 Clouds 6 981 93 10000 2.1 230 08:38 22.12.2019
5725 Clouds 6 981 93 10000 2.1 230 08:38 22.12.2019
5726 Clouds 6 980 93 10000 3.1 250 08:20 22.12.2019
5727 Rain 6 980 100 10000 2.6 250 07:39 22.12.2019
5728 Rain 6 980 100 9000 2.1 260 07:20 22.12.2019
5729 Rain 6 979 93 5000 1.5 210 06:41 22.12.2019
5730 Rain 6 978 93 4300 0.5 240 05:54 22.12.2019
5731 Rain 6 978 93 4700 1.5 0 05:23 22.12.2019
5732 Rain 6 978 93 4100 1.5 270 04:29 22.12.2019
5733 Rain 6 977 100 8000 2.1 330 03:53 22.12.2019
5734 Clouds 6 976 100 10000 2.1 350 02:40 22.12.2019
5735 Clouds 6 975 100 10000 2.1 50 01:47 22.12.2019
5736 Clouds 6 975 100 10000 2.1 50 01:28 22.12.2019
5737 Rain 6 974 100 8000 1.5 110 00:47 22.12.2019
5738 Rain 6 974 100 7000 1.5 80 00:23 22.12.2019
5739 Rain 6 974 100 7000 1.5 80 23:56 21.12.2019
5740 Rain 6 974 93 8000 2.1 60 23:38 21.12.2019
5741 Rain 6 974 93 8000 1.5 70 23:19 21.12.2019
5742 Clouds 6 974 93 10000 2.1 50 22:41 21.12.2019
5743 Clouds 6 974 93 10000 2.1 60 22:19 21.12.2019
5744 Clouds 6 974 93 10000 2.1 60 21:57 21.12.2019
5745 Rain 6 974 100 10000 2.6 80 21:38 21.12.2019
5746 Rain 6 974 93 10000 1 0 21:19 21.12.2019
5747 Rain 6 974 93 10000 1 0 20:58 21.12.2019
5748 Rain 6 974 93 10000 1 0 20:39 21.12.2019
5749 Rain 6 974 93 10000 1 0 20:39 21.12.2019
5750 Rain 6 974 87 7000 2.1 0 20:21 21.12.2019
5751 Rain 6 974 87 7000 2.1 0 19:58 21.12.2019
5752 Clouds 6 973 93 10000 1.5 0 19:40 21.12.2019
5753 Clouds 6 974 87 10000 1 0 19:19 21.12.2019
5754 Clouds 6 974 87 10000 1 0 19:19 21.12.2019
5755 Clouds 6 974 93 10000 1.5 0 18:44 21.12.2019
5756 Clouds 6 974 93 10000 2.1 130 18:24 21.12.2019
5757 Clouds 6 974 93 10000 2.1 130 17:57 21.12.2019
5758 Clouds 6 974 87 10000 2.1 140 17:39 21.12.2019
5759 Clouds 7 974 87 10000 2.1 140 17:21 21.12.2019
5760 Clouds 7 974 81 10000 2.1 140 16:58 21.12.2019
5761 Clouds 7 974 81 10000 2.1 140 16:39 21.12.2019
5762 Clouds 7 974 81 10000 2.1 150 16:18 21.12.2019
5763 Clouds 7 974 81 10000 2.1 150 15:56 21.12.2019
5764 Clouds 7 975 81 10000 1.5 0 15:38 21.12.2019
5765 Clouds 7 975 81 10000 2.6 160 15:19 21.12.2019
5766 Clouds 7 975 81 10000 2.6 180 14:45 21.12.2019
5767 Clouds 7 975 81 10000 2.6 180 14:26 21.12.2019
5768 Clouds 7 975 81 10000 3.1 180 13:59 21.12.2019
5769 Clouds 7 976 81 10000 2.1 170 13:40 21.12.2019
5770 Clouds 7 976 87 10000 2.6 180 13:20 21.12.2019
5771 Clouds 7 976 87 10000 2.6 180 12:58 21.12.2019
5772 Clouds 7 976 87 10000 2.6 170 12:39 21.12.2019
5773 Clouds 6 977 87 10000 2.6 170 12:21 21.12.2019
5774 Clouds 6 977 87 10000 2.6 170 11:57 21.12.2019
5775 Clouds 6 977 87 10000 2.6 0 11:39 21.12.2019
5776 Clouds 6 977 93 10000 2.6 160 11:21 21.12.2019
5777 Clouds 5 977 93 10000 2.1 0 10:42 21.12.2019
5778 Rain 5 977 93 10000 2.6 0 10:23 21.12.2019
5779 Rain 5 977 93 10000 2.6 0 09:59 21.12.2019
5780 Rain 5 977 93 10000 1.5 0 09:41 21.12.2019
5781 Rain 5 977 93 10000 2.1 0 09:20 21.12.2019
5782 Rain 5 977 93 10000 2.6 0 08:53 21.12.2019
5783 Rain 5 977 93 10000 2.6 0 08:27 21.12.2019
5784 Clouds 5 978 87 10000 2.1 140 07:59 21.12.2019
5785 Clouds 5 978 93 10000 2.6 150 07:41 21.12.2019
5786 Clouds 5 978 87 10000 2.1 150 07:21 21.12.2019
5787 Clouds 5 978 93 10000 1 0 06:42 21.12.2019
5788 Clouds 5 979 93 10000 1.5 0 06:24 21.12.2019
5789 Clouds 5 979 87 10000 2.1 150 05:43 21.12.2019
5790 Clouds 4 979 93 10000 1.5 0 04:55 21.12.2019
5791 Clouds 4 980 93 10000 1 0 03:56 21.12.2019
5792 Clouds 4 980 93 10000 2.1 160 02:26 21.12.2019
5793 Clouds 4 980 93 10000 1.5 0 01:50 21.12.2019
5794 Clouds 4 980 93 10000 1.5 0 01:25 21.12.2019
5795 Clouds 4 981 93 10000 1.5 0 00:49 21.12.2019
5796 Clouds 4 981 93 10000 1.5 0 00:28 21.12.2019
5797 Clouds 4 980 93 10000 2.1 180 23:39 20.12.2019
5798 Clouds 4 980 93 10000 2.6 180 23:21 20.12.2019
5799 Clouds 4 980 93 10000 2.6 180 22:59 20.12.2019
5800 Clouds 4 980 100 10000 2.6 180 22:39 20.12.2019
5801 Clouds 4 980 93 10000 2.6 180 22:19 20.12.2019
5802 Clouds 4 980 93 10000 2.6 180 21:54 20.12.2019
5803 Clouds 5 980 93 10000 2.6 180 21:36 20.12.2019
5804 Clouds 5 980 93 10000 2.6 190 21:18 20.12.2019
5805 Clouds 5 980 93 10000 2.6 190 21:18 20.12.2019
5806 Clouds 5 979 93 10000 2.6 190 20:38 20.12.2019
5807 Clouds 5 979 93 10000 2.6 190 20:38 20.12.2019
5808 Clouds 6 979 93 10000 2.1 200 20:19 20.12.2019
5809 Clouds 6 979 93 10000 2.1 200 19:56 20.12.2019
5810 Rain 6 979 93 10000 3.1 220 19:38 20.12.2019
5811 Rain 6 978 87 10000 4.1 240 19:18 20.12.2019
5812 Rain 6 978 93 10000 4.1 250 18:41 20.12.2019
5813 Rain 6 977 100 10000 5.1 250 18:23 20.12.2019
5814 Rain 7 976 93 10000 5.1 250 17:58 20.12.2019
5815 Rain 7 976 93 10000 5.1 250 17:39 20.12.2019
5816 Rain 7 976 93 10000 5.1 250 17:20 20.12.2019
5817 Drizzle 7 976 93 5000 4.6 240 16:56 20.12.2019
5818 Rain 7 976 87 10000 4.6 250 16:38 20.12.2019
5819 Rain 7 976 87 10000 4.6 250 16:38 20.12.2019
5820 Rain 7 976 87 10000 4.6 250 16:38 20.12.2019
5821 Rain 7 976 87 10000 4.6 250 16:19 20.12.2019
5822 Rain 7 976 87 10000 4.1 260 15:54 20.12.2019
5823 Clouds 7 976 87 10000 4.1 260 15:36 20.12.2019
5824 Clouds 7 976 87 10000 4.1 260 15:18 20.12.2019
5825 Clouds 7 976 93 10000 4.6 270 14:42 20.12.2019
5826 Rain 7 976 93 10000 3.1 280 14:23 20.12.2019
5827 Rain 7 976 93 10000 2.6 270 13:57 20.12.2019
5828 Drizzle 7 976 93 6000 2.1 250 13:37 20.12.2019
5829 Drizzle 7 976 93 6000 2.1 250 13:18 20.12.2019
5830 Drizzle 7 976 93 6000 2.1 250 13:18 20.12.2019
5831 Drizzle 7 976 93 7000 2.1 270 12:55 20.12.2019
5832 Rain 7 977 93 10000 1 280 12:36 20.12.2019
5833 Rain 7 977 93 10000 1 280 12:18 20.12.2019
5834 Clouds 7 977 93 10000 1 0 11:57 20.12.2019
5835 Clouds 7 977 93 10000 1.5 290 11:38 20.12.2019
5836 Clouds 7 977 93 10000 1.5 290 11:18 20.12.2019
5837 Clouds 7 977 93 10000 1.5 0 10:55 20.12.2019
5838 Rain 7 977 93 10000 0.5 0 10:37 20.12.2019
5839 Rain 7 977 93 10000 0.5 0 10:18 20.12.2019
5840 Clouds 7 978 93 10000 1 0 09:42 20.12.2019
5841 Clouds 7 978 93 10000 1 0 09:21 20.12.2019
5842 Clouds 7 978 93 10000 1 0 08:54 20.12.2019
5843 Clouds 7 978 93 10000 1 0 08:36 20.12.2019
5844 Clouds 7 978 93 10000 1 0 08:18 20.12.2019
5845 Clouds 7 979 93 10000 1.5 0 07:41 20.12.2019
5846 Clouds 7 979 87 10000 2.1 130 07:22 20.12.2019
5847 Rain 8 979 93 10000 2.1 140 06:52 20.12.2019
5848 Clouds 8 980 87 10000 3.6 140 06:33 20.12.2019
5849 Clouds 8 980 87 10000 3.1 140 05:57 20.12.2019
5850 Clouds 8 980 93 10000 2.1 140 05:38 20.12.2019
5851 Clouds 8 981 87 10000 2.6 150 04:34 20.12.2019
5852 Clouds 8 982 81 10000 2.1 0 03:32 20.12.2019
5853 Clouds 9 982 87 10000 3.1 160 02:45 20.12.2019
5854 Clouds 9 983 87 10000 2.6 150 01:54 20.12.2019
5855 Clouds 9 983 87 10000 3.1 150 01:34 20.12.2019
5856 Clouds 9 984 81 10000 3.6 170 00:49 20.12.2019
5857 Clouds 9 983 81 10000 3.6 0 00:30 20.12.2019
5858 Clouds 9 983 76 10000 4.6 170 23:56 19.12.2019
5859 Clouds 9 983 76 10000 5.1 170 23:38 19.12.2019
5860 Clouds 9 983 76 10000 5.1 170 23:18 19.12.2019
5861 Clouds 9 984 76 10000 4.1 160 22:38 19.12.2019
5862 Clouds 9 984 76 10000 4.1 160 22:20 19.12.2019
5863 Clouds 9 984 76 10000 4.6 160 21:56 19.12.2019
5864 Clouds 9 984 76 10000 4.1 160 21:37 19.12.2019
5865 Clouds 9 984 76 10000 4.1 160 21:19 19.12.2019
5866 Clouds 9 985 76 10000 3.6 160 20:56 19.12.2019
5867 Clouds 9 985 81 10000 5.1 0 20:37 19.12.2019
5868 Clouds 9 985 81 10000 5.1 0 20:18 19.12.2019
5869 Clouds 10 985 87 10000 3.6 160 19:57 19.12.2019
5870 Clouds 10 985 87 10000 3.6 160 19:57 19.12.2019
5871 Clouds 10 985 87 10000 3.6 160 19:39 19.12.2019
5872 Clouds 10 985 87 10000 3.6 160 19:39 19.12.2019
5873 Rain 10 985 81 10000 4.6 150 19:19 19.12.2019
5874 Rain 10 985 81 10000 4.6 150 19:19 19.12.2019
5875 Rain 10 986 87 3500 2.6 160 18:41 19.12.2019
5876 Rain 10 986 87 3500 2.6 160 18:23 19.12.2019
5877 Rain 10 987 87 10000 3.1 130 17:58 19.12.2019
5878 Rain 10 987 87 10000 3.1 130 17:40 19.12.2019
5879 Rain 10 988 87 6000 2.6 120 17:19 19.12.2019
5880 Rain 10 988 87 6000 2.6 120 17:19 19.12.2019
5881 Rain 10 988 87 10000 2.6 0 16:59 19.12.2019
5882 Rain 10 988 87 10000 2.6 0 16:41 19.12.2019
5883 Rain 10 989 87 10000 3.1 110 16:22 19.12.2019
5884 Rain 10 990 87 10000 2.6 0 15:59 19.12.2019
5885 Rain 11 990 87 10000 2.6 0 15:40 19.12.2019
5886 Clouds 11 991 87 10000 3.1 130 15:20 19.12.2019
5887 Clouds 11 992 81 10000 3.1 130 14:59 19.12.2019
5888 Clouds 11 992 81 10000 3.1 130 14:41 19.12.2019
5889 Clouds 11 992 81 10000 3.1 130 14:41 19.12.2019
5890 Clouds 11 993 81 10000 2.6 0 14:19 19.12.2019
5891 Clouds 11 993 81 10000 2.6 160 13:57 19.12.2019
5892 Clouds 11 994 81 10000 3.1 170 13:37 19.12.2019
5893 Clouds 11 994 81 10000 3.1 170 13:18 19.12.2019
5894 Clouds 11 994 81 10000 4.1 170 12:55 19.12.2019
5895 Clouds 11 994 81 10000 4.1 170 12:55 19.12.2019
5896 Clouds 11 994 81 10000 3.1 170 12:37 19.12.2019
5897 Clouds 11 994 81 10000 3.1 170 12:18 19.12.2019
5898 Clouds 11 994 87 10000 3.6 170 12:18 19.12.2019
5899 Clouds 11 994 87 10000 3.6 170 12:18 19.12.2019
5900 Clouds 11 994 87 10000 3.6 170 11:57 19.12.2019
5901 Clouds 10 994 87 10000 2.6 170 11:38 19.12.2019
5902 Clouds 10 994 87 10000 2.6 170 11:18 19.12.2019
5903 Clouds 10 994 87 10000 2.6 160 10:39 19.12.2019
5904 Clouds 10 994 87 10000 2.6 160 10:20 19.12.2019
5905 Clouds 10 994 87 10000 2.1 170 09:59 19.12.2019
5906 Rain 10 994 87 10000 4.1 180 09:38 19.12.2019
5907 Rain 10 994 87 10000 4.1 180 09:20 19.12.2019
5908 Rain 10 994 87 10000 4.1 180 09:20 19.12.2019
5909 Rain 10 994 87 10000 4.1 180 08:57 19.12.2019
5910 Rain 10 993 87 10000 3.6 170 08:39 19.12.2019
5911 Rain 10 993 87 10000 3.6 170 08:19 19.12.2019
5912 Clouds 10 994 87 10000 3.6 160 07:56 19.12.2019
5913 Rain 10 994 93 9000 3.1 160 07:37 19.12.2019
5914 Rain 10 994 93 9000 3.1 160 07:19 19.12.2019
5915 Rain 10 994 93 10000 4.6 160 06:45 19.12.2019
5916 Rain 10 994 93 10000 3.6 150 06:26 19.12.2019
5917 Rain 10 994 93 9000 3.1 150 05:49 19.12.2019
5918 Rain 10 995 93 10000 3.1 150 05:28 19.12.2019
5919 Rain 10 995 87 10000 4.1 150 04:43 19.12.2019
5920 Clouds 10 995 87 10000 3.6 160 02:48 19.12.2019
5921 Clouds 10 995 87 10000 5.1 160 01:46 19.12.2019
5922 Clouds 10 996 87 10000 4.6 160 01:21 19.12.2019
5923 Clouds 9 996 87 10000 4.1 160 00:39 19.12.2019
5924 Clouds 9 996 87 10000 4.1 160 00:39 19.12.2019
5925 Clouds 9 996 87 10000 4.1 160 00:39 19.12.2019
5926 Clouds 9 996 87 10000 4.1 160 00:39 19.12.2019
5927 Clouds 9 996 87 10000 4.1 160 00:39 19.12.2019
5928 Clouds 9 996 87 10000 4.1 160 00:20 19.12.2019
5929 Clouds 9 996 87 10000 5.1 150 23:45 18.12.2019
5930 Clouds 8 996 87 10000 6.7 150 23:19 18.12.2019
5931 Clouds 8 996 81 10000 5.7 150 22:58 18.12.2019
5932 Clouds 8 996 81 10000 5.7 150 22:40 18.12.2019
5933 Clouds 8 996 87 10000 5.7 0 22:22 18.12.2019
5934 Rain 8 996 87 10000 6.2 140 21:59 18.12.2019
5935 Rain 7 996 87 10000 6.2 140 21:41 18.12.2019
5936 Rain 7 997 87 10000 5.7 0 21:21 18.12.2019
5937 Rain 7 997 87 10000 5.7 0 21:21 18.12.2019
5938 Rain 7 997 87 10000 6.2 140 20:58 18.12.2019
5939 Rain 7 996 93 10000 7.7 130 20:39 18.12.2019
5940 Rain 7 996 93 10000 7.7 130 20:20 18.12.2019
5941 Rain 7 998 87 6000 6.2 130 19:57 18.12.2019
5942 Rain 7 999 81 10000 5.7 140 19:39 18.12.2019
5943 Rain 7 999 81 10000 5.7 140 19:19 18.12.2019
5944 Clouds 7 1000 81 10000 5.1 140 18:56 18.12.2019
5945 Rain 7 1000 81 10000 5.7 140 18:38 18.12.2019
5946 Rain 7 1000 81 10000 5.7 140 18:20 18.12.2019
5947 Clouds 7 1001 81 10000 4.6 140 17:55 18.12.2019
5948 Clouds 7 1001 81 10000 4.6 140 17:55 18.12.2019
5949 Clouds 7 1001 81 10000 4.1 140 17:37 18.12.2019
5950 Clouds 7 1001 81 10000 4.1 140 17:19 18.12.2019
5951 Clouds 7 1002 81 10000 4.1 130 16:42 18.12.2019
5952 Clouds 7 1002 75 10000 5.1 130 16:24 18.12.2019
5953 Clouds 6 1002 75 10000 5.1 130 15:59 18.12.2019
5954 Clouds 6 1003 75 10000 4.6 140 15:39 18.12.2019
5955 Clouds 6 1003 81 10000 5.1 150 15:21 18.12.2019
5956 Clouds 6 1003 81 10000 5.1 150 14:57 18.12.2019
5957 Clouds 5 1004 81 10000 4.1 0 14:39 18.12.2019
5958 Clouds 5 1005 87 10000 4.6 140 14:19 18.12.2019
5959 Clouds 5 1005 87 10000 4.1 140 13:55 18.12.2019
5960 Clouds 4 1005 87 10000 4.1 140 13:37 18.12.2019
5961 Clouds 4 1005 87 10000 4.6 140 13:18 18.12.2019
5962 Clouds 3 1006 86 10000 4.1 140 12:41 18.12.2019
5963 Clouds 2 1006 86 10000 2.6 120 12:22 18.12.2019
5964 Clouds 2 1006 86 10000 2.6 120 11:57 18.12.2019
5965 Clouds 2 1007 93 10000 3.1 130 11:39 18.12.2019
5966 Rain 2 1007 86 10000 2.1 140 11:20 18.12.2019
5967 Clouds 2 1007 93 10000 1.5 0 10:58 18.12.2019
5968 Clouds 1 1007 93 10000 1.5 0 10:39 18.12.2019
5969 Clouds 1 1007 90 10000 1.5 0 10:21 18.12.2019
5970 Clouds 1 1007 90 10000 1.5 0 09:59 18.12.2019
5971 Fog 1 1007 90 10000 2.1 170 09:59 18.12.2019
5972 Clouds 1 1007 90 10000 1.5 0 09:21 18.12.2019
5973 Clouds 0 1007 90 10000 1.5 0 08:55 18.12.2019
5974 Clouds 0 1007 90 10000 1.5 0 08:37 18.12.2019
5975 Clouds 0 1007 84 10000 1.5 0 08:19 18.12.2019
5976 Clouds 0 1007 86 10000 1.5 0 07:42 18.12.2019
5977 Clouds 0 1007 86 10000 1.5 0 07:21 18.12.2019
5978 Clouds 0 1007 84 10000 1 0 06:52 18.12.2019
5979 Clouds 0 1006 84 10000 1 0 06:26 18.12.2019
5980 Clouds 0 1006 84 10000 1.5 0 05:39 18.12.2019
5981 Clouds 1 1006 88 10000 1.5 0 04:35 18.12.2019
5982 Clouds 1 1005 88 10000 1.5 0 02:50 18.12.2019
5983 Clouds 1 1005 88 10000 1.5 0 02:30 18.12.2019
5984 Clouds 1 1005 93 10000 2.1 190 01:46 18.12.2019
5985 Clouds 1 1005 90 10000 2.1 190 01:27 18.12.2019
5986 Clouds 1 1004 90 10000 1.5 0 00:59 18.12.2019
5987 Clouds 1 1004 90 10000 1.5 0 00:39 18.12.2019
5988 Clouds 1 1004 90 10000 1.5 190 00:21 18.12.2019
5989 Clouds 1 1004 93 10000 1.5 0 23:44 17.12.2019
5990 Clouds 2 1004 93 10000 2.1 180 23:24 17.12.2019
5991 Clouds 2 1004 93 10000 2.1 180 22:57 17.12.2019
5992 Clouds 2 1003 93 10000 2.1 180 22:39 17.12.2019
5993 Clear 2 1003 93 10000 2.1 170 22:20 17.12.2019
5994 Clear 2 1003 93 10000 2.1 170 21:57 17.12.2019
5995 Clouds 2 1002 93 10000 2.1 180 21:39 17.12.2019
5996 Clouds 2 1002 93 10000 2.6 190 21:20 17.12.2019
5997 Clear 2 1002 86 10000 2.6 200 20:59 17.12.2019
5998 Clear 2 1002 86 10000 2.6 200 20:40 17.12.2019
5999 Clouds 2 1001 86 10000 2.6 210 20:19 17.12.2019
6000 Clouds 2 1001 86 10000 2.6 210 19:58 17.12.2019
6001 Rain 2 1001 86 10000 2.6 210 19:39 17.12.2019
6002 Rain 2 1001 93 10000 2.6 190 19:20 17.12.2019
6003 Rain 2 1001 93 10000 2.6 190 18:57 17.12.2019
6004 Clouds 3 1000 93 10000 2.6 200 18:38 17.12.2019
6005 Clouds 3 1000 93 10000 2.6 180 18:20 17.12.2019
6006 Clouds 3 1000 93 10000 2.1 170 17:55 17.12.2019
6007 Clouds 3 1000 93 10000 2.1 170 17:37 17.12.2019
6008 Clouds 3 1000 93 10000 1.5 0 17:18 17.12.2019
6009 Clouds 3 1000 86 10000 2.1 180 16:55 17.12.2019
6010 Clouds 4 1000 86 10000 2.1 180 16:36 17.12.2019
6011 Clouds 4 1000 93 10000 2.1 190 16:18 17.12.2019
6012 Clouds 4 1000 93 10000 2.1 190 16:18 17.12.2019
6013 Clouds 4 1000 93 10000 2.1 190 16:18 17.12.2019
6014 Clouds 4 999 86 10000 2.1 180 15:38 17.12.2019
6015 Clouds 4 999 93 10000 2.1 180 15:20 17.12.2019
6016 Clouds 3 999 93 10000 2.1 180 14:56 17.12.2019
6017 Clouds 3 999 93 10000 2.1 180 14:38 17.12.2019
6018 Clouds 3 999 93 10000 1.5 0 14:19 17.12.2019
6019 Clouds 3 999 93 10000 1.5 0 13:58 17.12.2019
6020 Clouds 3 999 93 10000 1.5 0 13:39 17.12.2019
6021 Clouds 2 999 100 10000 1.5 180 13:19 17.12.2019
6022 Clouds 2 999 100 10000 1.5 180 13:19 17.12.2019
6023 Clouds 2 999 100 10000 1.5 180 12:59 17.12.2019
6024 Clouds 2 999 93 10000 1.5 0 12:38 17.12.2019
6025 Clouds 2 999 93 10000 1 0 12:18 17.12.2019
6026 Clouds 2 999 93 9000 1 0 11:56 17.12.2019
6027 Clouds 2 999 93 9000 1 0 11:36 17.12.2019
6028 Clouds 1 999 100 7000 1 140 11:18 17.12.2019
6029 Mist 1 999 92 3400 1.5 230 10:56 17.12.2019
6030 Mist 1 999 92 3400 1.5 230 10:37 17.12.2019
6031 Mist 1 998 92 5000 1.5 170 10:19 17.12.2019
6032 Clouds 0 998 92 7000 1.5 0 09:42 17.12.2019
6033 Clouds 0 998 92 9000 1.5 180 09:22 17.12.2019
6034 Clouds 1 998 92 9000 1.5 180 08:58 17.12.2019
6035 Clouds 1 997 93 9000 1 0 08:40 17.12.2019
6036 Clouds 0 997 100 9000 1 170 08:21 17.12.2019
6037 Clouds 0 997 100 9000 1.5 0 07:58 17.12.2019
6038 Clouds 0 997 100 9000 1.5 0 07:39 17.12.2019
6039 Clouds 1 997 93 10000 1.5 170 07:20 17.12.2019
6040 Clouds 1 997 100 10000 1.5 160 06:41 17.12.2019
6041 Clouds 1 997 92 10000 1 180 06:22 17.12.2019
6042 Mist 1 997 92 5000 1 170 05:40 17.12.2019
6043 Clouds 1 998 90 8000 1.5 170 04:48 17.12.2019
6044 Clouds 1 998 93 7000 1 0 03:31 17.12.2019
6045 Clouds 1 997 93 10000 1 0 01:59 17.12.2019
6046 Clouds 2 998 93 10000 1.5 0 01:21 17.12.2019
6047 Clouds 2 998 93 10000 1 170 00:39 17.12.2019
6048 Clouds 2 998 93 10000 1 170 00:39 17.12.2019
6049 Clouds 2 998 93 10000 1.5 170 00:21 17.12.2019
6050 Clouds 2 998 93 10000 2.1 170 23:43 16.12.2019
6051 Clouds 2 998 93 10000 2.1 180 23:19 16.12.2019
6052 Clouds 2 998 93 10000 2.1 180 22:58 16.12.2019
6053 Clouds 3 998 93 10000 1.5 0 22:38 16.12.2019
6054 Clouds 3 998 93 10000 1.5 0 22:20 16.12.2019
6055 Clouds 3 998 93 10000 1.5 0 21:56 16.12.2019
6056 Clouds 3 998 93 10000 1.5 0 21:38 16.12.2019
6057 Clouds 3 998 93 10000 1.5 0 21:20 16.12.2019
6058 Clouds 3 998 93 10000 1.5 0 20:58 16.12.2019
6059 Clouds 3 998 86 10000 1.5 0 20:38 16.12.2019
6060 Clouds 3 998 93 10000 1.5 0 20:19 16.12.2019
6061 Clouds 3 998 93 10000 1.5 0 19:56 16.12.2019
6062 Clouds 3 998 86 10000 1.5 0 19:37 16.12.2019
6063 Clouds 4 998 86 10000 1.5 0 19:19 16.12.2019
6064 Clouds 4 998 86 10000 1.5 0 18:56 16.12.2019
6065 Clouds 4 998 86 10000 1.5 0 18:38 16.12.2019
6066 Clouds 4 998 86 10000 1.5 0 18:19 16.12.2019
6067 Clouds 4 998 86 10000 1.5 0 17:57 16.12.2019
6068 Clouds 4 998 86 10000 1.5 0 17:38 16.12.2019
6069 Clouds 4 998 86 10000 2.1 180 17:20 16.12.2019
6070 Clouds 5 998 80 10000 2.1 190 16:57 16.12.2019
6071 Clouds 5 998 80 10000 2.1 190 16:38 16.12.2019
6072 Clouds 5 998 80 10000 1.5 0 16:19 16.12.2019
6073 Clouds 5 998 75 10000 1.5 0 15:57 16.12.2019
6074 Clouds 5 998 75 10000 1.5 0 15:38 16.12.2019
6075 Clouds 6 998 81 10000 2.1 180 15:20 16.12.2019
6076 Clouds 6 998 81 10000 2.1 180 14:55 16.12.2019
6077 Clouds 6 998 81 10000 3.1 190 14:37 16.12.2019
6078 Clouds 6 998 81 10000 3.1 190 14:18 16.12.2019
6079 Clouds 6 998 81 10000 3.1 190 13:56 16.12.2019
6080 Clouds 6 998 81 10000 3.1 190 13:56 16.12.2019
6081 Clouds 6 998 81 10000 2.6 190 13:37 16.12.2019
6082 Clouds 5 998 86 10000 3.1 180 13:19 16.12.2019
6083 Clouds 5 998 80 10000 2.1 170 12:56 16.12.2019
6084 Clouds 5 998 80 10000 2.1 170 12:38 16.12.2019
6085 Clouds 5 998 80 10000 2.1 170 12:18 16.12.2019
6086 Clouds 5 998 80 10000 2.1 170 12:18 16.12.2019
6087 Clouds 5 998 86 10000 1.5 0 11:55 16.12.2019
6088 Clouds 4 998 86 10000 1.5 0 11:37 16.12.2019
6089 Clouds 4 998 86 10000 1.5 0 11:19 16.12.2019
6090 Clouds 4 997 86 10000 1.5 0 10:40 16.12.2019
6091 Clouds 4 997 86 10000 1.5 0 10:40 16.12.2019
6092 Clouds 4 997 86 10000 1.5 0 10:40 16.12.2019
6093 Clouds 4 997 86 10000 1.5 0 10:21 16.12.2019
6094 Clouds 4 996 86 10000 2.1 180 09:56 16.12.2019
6095 Clouds 4 996 86 10000 2.1 180 09:38 16.12.2019
6096 Clouds 4 996 86 10000 2.6 170 09:20 16.12.2019
6097 Clouds 4 995 86 10000 2.6 180 08:40 16.12.2019
6098 Clouds 4 995 86 10000 3.6 200 08:19 16.12.2019
6099 Clouds 4 995 86 10000 3.6 200 08:19 16.12.2019
6100 Clouds 4 994 86 10000 4.6 200 07:52 16.12.2019
6101 Clouds 4 994 86 10000 4.6 200 07:31 16.12.2019
6102 Clouds 4 993 80 10000 5.1 190 06:52 16.12.2019
6103 Clouds 4 993 80 10000 5.1 180 06:27 16.12.2019
6104 Clouds 4 993 80 10000 4.1 180 05:58 16.12.2019
6105 Clouds 4 993 80 10000 4.1 180 05:39 16.12.2019
6106 Rain 4 993 86 10000 3.1 180 05:21 16.12.2019
6107 Rain 4 993 86 10000 2.6 160 02:59 16.12.2019
6108 Rain 4 993 86 10000 3.1 170 01:45 16.12.2019
6109 Clouds 4 993 80 10000 3.6 180 00:56 16.12.2019
6110 Clouds 4 993 80 10000 3.6 180 00:38 16.12.2019
6111 Clouds 4 993 86 10000 3.1 180 00:18 16.12.2019
6112 Clouds 4 993 86 10000 3.1 180 23:41 15.12.2019
6113 Clouds 4 993 86 10000 3.1 180 23:22 15.12.2019
6114 Rain 4 993 93 10000 2.1 200 22:57 15.12.2019
6115 Rain 4 993 93 10000 2.1 200 22:38 15.12.2019
6116 Rain 4 993 86 10000 2.1 180 22:19 15.12.2019
6117 Rain 4 993 86 10000 2.1 180 21:57 15.12.2019
6118 Rain 4 993 86 10000 2.6 180 21:38 15.12.2019
6119 Rain 4 993 86 10000 2.6 180 21:38 15.12.2019
6120 Rain 4 993 93 10000 3.1 180 21:19 15.12.2019
6121 Rain 4 993 86 10000 5.1 190 20:57 15.12.2019
6122 Rain 4 993 86 10000 5.1 190 20:38 15.12.2019
6123 Rain 4 993 86 10000 5.1 190 20:38 15.12.2019
6124 Rain 4 993 93 8000 3.6 220 20:19 15.12.2019
6125 Rain 4 993 86 5000 3.1 180 19:57 15.12.2019
6126 Rain 4 993 86 5000 3.1 180 19:39 15.12.2019
6127 Rain 4 993 86 5000 3.1 180 19:39 15.12.2019
6128 Rain 4 993 86 10000 3.6 180 19:18 15.12.2019
6129 Clouds 4 992 86 10000 2.1 160 18:56 15.12.2019
6130 Clouds 4 992 86 10000 2.1 160 18:38 15.12.2019
6131 Rain 4 993 80 10000 3.6 190 18:18 15.12.2019
6132 Rain 4 993 86 10000 3.6 180 17:56 15.12.2019
6133 Rain 4 993 86 10000 3.6 180 17:37 15.12.2019
6134 Rain 4 993 80 10000 4.1 190 17:18 15.12.2019
6135 Rain 4 992 86 10000 3.6 180 16:56 15.12.2019
6136 Rain 4 992 86 10000 3.6 180 16:38 15.12.2019
6137 Rain 4 992 86 10000 2.6 180 16:19 15.12.2019
6138 Rain 4 992 80 10000 2.1 180 15:54 15.12.2019
6139 Rain 4 992 80 10000 2.1 180 15:54 15.12.2019
6140 Rain 4 992 80 10000 2.1 180 15:36 15.12.2019
6141 Rain 5 992 80 10000 2.6 180 15:18 15.12.2019
6142 Rain 5 992 80 10000 2.6 190 14:55 15.12.2019
6143 Rain 5 992 80 10000 2.6 190 14:36 15.12.2019
6144 Clouds 5 992 75 10000 2.1 190 14:18 15.12.2019
6145 Clouds 5 992 75 10000 2.1 200 13:54 15.12.2019
6146 Clouds 5 992 75 10000 2.1 200 13:36 15.12.2019
6147 Clouds 5 992 75 10000 2.6 210 13:18 15.12.2019
6148 Clouds 5 992 75 10000 2.6 210 13:18 15.12.2019
6149 Clouds 5 992 75 10000 2.1 200 12:55 15.12.2019
6150 Clouds 5 992 75 10000 2.1 200 12:37 15.12.2019
6151 Clouds 5 991 70 10000 4.1 230 12:19 15.12.2019
6152 Clouds 4 991 75 10000 4.1 230 11:38 15.12.2019
6153 Clouds 4 990 69 10000 3.6 220 11:19 15.12.2019
6154 Clouds 4 990 69 10000 3.6 220 11:19 15.12.2019
6155 Clouds 4 989 69 10000 4.1 230 10:56 15.12.2019
6156 Clouds 3 989 69 10000 4.1 230 10:38 15.12.2019
6157 Clouds 3 989 69 10000 4.1 230 10:38 15.12.2019
6158 Clouds 3 989 69 10000 4.1 230 10:19 15.12.2019
6159 Rain 3 989 69 10000 4.1 230 09:57 15.12.2019
6160 Rain 3 988 69 10000 4.6 220 09:37 15.12.2019
6161 Rain 3 987 69 10000 5.1 240 09:19 15.12.2019
6162 Clouds 3 986 69 10000 6.2 240 08:42 15.12.2019
6163 Clouds 3 986 69 10000 6.2 240 08:23 15.12.2019
6164 Rain 3 986 69 10000 6.2 240 07:57 15.12.2019
6165 Rain 3 985 73 10000 6.7 230 07:38 15.12.2019
6166 Rain 4 984 73 10000 5.1 230 06:59 15.12.2019
6167 Clouds 4 984 73 10000 5.7 220 06:24 15.12.2019
6168 Clouds 3 984 73 10000 5.7 230 05:42 15.12.2019
6169 Rain 3 983 80 10000 4.6 210 05:20 15.12.2019
6170 Rain 4 982 80 10000 5.7 220 04:18 15.12.2019
6171 Rain 4 981 86 10000 7.2 230 02:35 15.12.2019
6172 Rain 4 980 93 10000 4.6 200 01:57 15.12.2019
6173 Rain 4 981 86 10000 3.1 180 01:39 15.12.2019
6174 Rain 3 981 93 10000 3.1 190 01:18 15.12.2019
6175 Clouds 3 981 93 10000 3.1 0 00:44 15.12.2019
6176 Clouds 3 981 93 10000 3.1 0 00:44 15.12.2019
6177 Rain 3 982 86 10000 3.1 180 00:25 15.12.2019
6178 Rain 3 983 86 10000 3.1 180 23:41 14.12.2019
6179 Rain 3 984 93 10000 2.6 190 23:22 14.12.2019
6180 Rain 3 984 93 10000 2.1 140 22:59 14.12.2019
6181 Rain 3 984 93 10000 2.1 140 22:41 14.12.2019
6182 Rain 2 985 100 6000 2.1 170 22:21 14.12.2019
6183 Rain 3 985 100 6000 2.1 170 21:56 14.12.2019
6184 Rain 3 986 86 3000 2.6 180 21:38 14.12.2019
6185 Rain 3 986 86 5000 3.1 190 21:19 14.12.2019
6186 Rain 3 986 86 5000 3.1 190 20:57 14.12.2019
6187 Rain 3 987 86 10000 2.6 220 20:39 14.12.2019
6188 Clouds 4 987 75 10000 5.1 200 20:19 14.12.2019
6189 Clouds 4 987 63 10000 3.6 200 19:56 14.12.2019
6190 Clouds 5 987 63 10000 3.6 200 19:37 14.12.2019
6191 Clouds 5 987 63 10000 2.6 200 19:18 14.12.2019
6192 Clouds 5 987 63 10000 3.1 210 18:56 14.12.2019
6193 Clouds 5 987 63 10000 3.1 210 18:37 14.12.2019
6194 Clouds 5 988 63 10000 3.1 220 18:19 14.12.2019
6195 Clouds 5 988 63 10000 5.7 230 17:43 14.12.2019
6196 Clouds 5 988 63 10000 4.6 220 17:23 14.12.2019
6197 Clouds 5 988 59 10000 4.6 220 16:56 14.12.2019
6198 Rain 5 988 59 10000 4.6 220 16:38 14.12.2019
6199 Rain 5 988 59 10000 6.7 230 16:18 14.12.2019
6200 Rain 5 987 59 10000 7.7 230 15:42 14.12.2019
6201 Clouds 5 987 59 10000 6.2 230 15:21 14.12.2019
6202 Clouds 5 987 59 10000 6.2 230 14:58 14.12.2019
6203 Clouds 5 987 59 10000 9.3 230 14:38 14.12.2019
6204 Rain 5 986 75 10000 7.7 240 14:19 14.12.2019
6205 Rain 5 986 75 10000 8.2 240 13:45 14.12.2019
6206 Rain 5 986 75 10000 8.2 240 13:20 14.12.2019
6207 Clouds 5 985 86 10000 4.6 230 12:59 14.12.2019
6208 Clouds 5 985 86 10000 4.6 230 12:40 14.12.2019
6209 Clouds 4 985 86 10000 4.6 210 12:21 14.12.2019
6210 Clouds 4 985 86 10000 4.6 210 12:21 14.12.2019
6211 Clouds 4 985 86 10000 4.6 210 12:21 14.12.2019
6212 Clouds 4 985 86 10000 4.6 210 11:59 14.12.2019
6213 Rain 4 984 86 10000 6.7 230 11:39 14.12.2019
6214 Rain 4 984 75 10000 4.1 200 11:19 14.12.2019
6215 Rain 4 984 58 10000 3.6 200 10:57 14.12.2019
6216 Rain 5 984 58 10000 3.6 200 10:39 14.12.2019
6217 Rain 4 984 58 10000 3.6 200 10:39 14.12.2019
6218 Rain 5 983 58 10000 2.6 200 10:20 14.12.2019
6219 Snow 5 983 58 10000 2.6 200 09:55 14.12.2019
6220 Snow 4 983 69 10000 4.1 210 09:37 14.12.2019
6221 Rain 4 983 69 10000 8.2 240 09:18 14.12.2019
6222 Rain 4 983 58 10000 8.2 240 08:42 14.12.2019
6223 Rain 4 983 58 10000 8.2 240 08:42 14.12.2019
6224 Rain 4 982 64 10000 8.2 250 08:19 14.12.2019
6225 Rain 4 982 64 10000 9.3 250 07:44 14.12.2019
6226 Rain 4 982 64 10000 9.8 250 07:23 14.12.2019
6227 Rain 4 981 75 10000 9.8 250 06:55 14.12.2019
6228 Rain 4 981 75 10000 9.8 250 06:36 14.12.2019
6229 Rain 4 981 80 10000 9.8 250 05:56 14.12.2019
6230 Rain 4 980 80 10000 7.7 250 04:42 14.12.2019
6231 Rain 4 979 86 10000 5.1 250 02:31 14.12.2019
6232 Rain 4 979 93 10000 3.6 220 01:46 14.12.2019
6233 Rain 4 979 93 10000 3.6 220 01:28 14.12.2019
6234 Rain 4 978 86 10000 3.6 230 00:44 14.12.2019
6235 Rain 4 978 86 10000 4.6 230 00:26 14.12.2019
6236 Rain 5 978 80 10000 3.6 230 23:44 13.12.2019
6237 Clouds 5 978 80 10000 3.6 230 23:22 13.12.2019
6238 Clouds 5 978 80 10000 3.6 230 22:59 13.12.2019
6239 Clouds 5 979 80 10000 4.6 230 22:40 13.12.2019
6240 Rain 5 978 80 10000 3.6 220 22:19 13.12.2019
6241 Rain 5 978 86 10000 4.1 220 21:55 13.12.2019
6242 Rain 5 978 86 10000 4.1 220 21:36 13.12.2019
6243 Clouds 5 978 80 10000 3.1 220 21:18 13.12.2019
6244 Rain 5 978 86 10000 4.1 220 20:40 13.12.2019
6245 Rain 5 979 93 10000 5.7 230 20:21 13.12.2019
6246 Rain 5 979 93 10000 5.7 230 19:58 13.12.2019
6247 Rain 6 979 93 5000 6.7 220 19:40 13.12.2019
6248 Rain 6 979 93 5000 6.7 220 19:20 13.12.2019
6249 Rain 6 979 93 9000 5.1 220 18:57 13.12.2019
6250 Rain 6 979 93 7000 7.2 240 18:39 13.12.2019
6251 Rain 6 979 93 7000 7.2 240 18:18 13.12.2019
6252 Rain 6 979 87 7000 9.3 240 17:41 13.12.2019
6253 Drizzle 6 978 93 9000 9.8 250 17:19 13.12.2019
6254 Drizzle 6 978 93 9000 9.8 250 17:19 13.12.2019
6255 Drizzle 6 978 93 9000 9.8 250 17:19 13.12.2019
6256 Drizzle 6 978 93 9000 9.8 250 16:59 13.12.2019
6257 Drizzle 6 978 93 5000 8.7 250 16:39 13.12.2019
6258 Drizzle 6 978 93 5000 8.7 250 16:20 13.12.2019
6259 Drizzle 6 978 93 5000 9.3 250 15:43 13.12.2019
6260 Rain 6 978 93 6000 8.7 240 15:23 13.12.2019
6261 Rain 6 978 93 6000 8.2 240 14:58 13.12.2019
6262 Rain 6 978 93 10000 8.2 250 14:39 13.12.2019
6263 Rain 6 978 93 10000 8.2 250 14:20 13.12.2019
6264 Rain 6 978 93 10000 8.2 250 14:20 13.12.2019
6265 Rain 6 978 93 10000 8.2 250 14:20 13.12.2019
6266 Rain 6 978 81 10000 10.8 250 13:56 13.12.2019
6267 Rain 6 978 93 10000 7.7 250 13:37 13.12.2019
6268 Rain 6 978 93 10000 7.7 250 13:37 13.12.2019
6269 Rain 6 978 93 10000 7.7 250 13:18 13.12.2019
6270 Rain 7 977 93 7000 9.8 250 12:42 13.12.2019
6271 Rain 7 977 93 7000 9.8 250 12:19 13.12.2019
6272 Rain 6 977 93 10000 10.3 250 11:57 13.12.2019
6273 Rain 6 976 87 9000 8.2 250 11:39 13.12.2019
6274 Rain 6 976 87 9000 8.2 250 11:19 13.12.2019
6275 Rain 6 976 93 8000 7.7 260 10:41 13.12.2019
6276 Rain 6 975 87 10000 6.7 260 10:21 13.12.2019
6277 Rain 6 975 93 9000 7.2 270 09:43 13.12.2019
6278 Rain 6 974 93 9000 7.2 270 09:22 13.12.2019
6279 Rain 6 974 87 6000 6.7 280 08:59 13.12.2019
6280 Rain 6 973 93 10000 6.7 260 08:40 13.12.2019
6281 Rain 6 973 93 10000 6.7 260 08:22 13.12.2019
6282 Rain 6 973 93 10000 6.2 270 07:43 13.12.2019
6283 Rain 5 973 93 10000 3.6 240 07:20 13.12.2019
6284 Rain 5 972 87 9000 5.1 280 06:50 13.12.2019
6285 Rain 5 972 93 7000 6.7 270 06:28 13.12.2019
6286 Rain 5 971 93 10000 4.1 270 05:43 13.12.2019
6287 Rain 5 971 93 6000 5.7 270 05:20 13.12.2019
6288 Rain 5 971 93 10000 3.6 250 04:33 13.12.2019
6289 Rain 5 970 100 4300 3.1 270 03:29 13.12.2019
6290 Rain 5 970 100 10000 2.6 230 02:31 13.12.2019
6291 Rain 5 969 100 10000 2.6 210 01:39 13.12.2019
6292 Rain 6 970 93 10000 2.1 180 00:51 13.12.2019
6293 Clouds 6 970 100 10000 2.1 180 00:29 13.12.2019
6294 Rain 6 970 93 10000 2.1 190 23:46 12.12.2019
6295 Rain 6 971 93 10000 2.1 180 23:27 12.12.2019
6296 Clouds 6 971 100 10000 2.1 190 22:57 12.12.2019
6297 Clouds 6 972 93 10000 3.1 220 22:39 12.12.2019
6298 Clouds 6 972 93 10000 3.1 220 22:21 12.12.2019
6299 Rain 6 972 93 10000 2.6 200 21:56 12.12.2019
6300 Rain 6 973 100 10000 3.1 210 21:37 12.12.2019
6301 Rain 6 973 100 10000 3.1 210 21:19 12.12.2019
6302 Rain 6 973 100 10000 3.1 210 21:19 12.12.2019
6303 Rain 6 973 100 10000 3.1 200 20:59 12.12.2019
6304 Rain 6 973 100 10000 3.1 200 20:40 12.12.2019
6305 Drizzle 6 974 100 10000 2.6 210 20:22 12.12.2019
6306 Drizzle 6 974 100 8000 3.1 200 19:56 12.12.2019
6307 Drizzle 6 974 93 7000 4.1 220 19:37 12.12.2019
6308 Drizzle 6 974 93 7000 4.1 220 19:19 12.12.2019
6309 Rain 6 975 93 10000 3.1 210 18:56 12.12.2019
6310 Rain 6 975 93 10000 3.1 200 18:38 12.12.2019
6311 Rain 6 975 93 10000 3.1 200 18:19 12.12.2019
6312 Drizzle 6 976 93 5000 3.1 210 17:56 12.12.2019
6313 Rain 6 976 93 5000 3.1 220 17:38 12.12.2019
6314 Rain 6 976 93 5000 3.1 220 17:19 12.12.2019
6315 Rain 6 977 100 4300 1.5 0 16:55 12.12.2019
6316 Drizzle 6 977 93 7000 2.1 170 16:36 12.12.2019
6317 Drizzle 6 977 93 7000 2.1 170 16:18 12.12.2019
6318 Rain 5 978 93 7000 3.1 170 15:42 12.12.2019
6319 Rain 5 979 93 9000 3.1 150 15:20 12.12.2019
6320 Rain 5 979 93 4600 3.1 0 14:57 12.12.2019
6321 Rain 5 980 87 7000 3.6 150 14:37 12.12.2019
6322 Rain 5 980 87 7000 3.6 150 14:19 12.12.2019
6323 Rain 5 981 87 10000 4.6 150 13:55 12.12.2019
6324 Rain 5 982 93 10000 4.1 140 13:37 12.12.2019
6325 Rain 5 982 93 10000 4.1 140 13:19 12.12.2019
6326 Rain 4 983 93 10000 4.1 140 12:55 12.12.2019
6327 Rain 4 985 86 10000 4.6 140 12:37 12.12.2019
6328 Rain 4 985 86 10000 4.6 140 12:18 12.12.2019
6329 Rain 4 986 93 10000 4.6 150 11:40 12.12.2019
6330 Rain 4 987 93 10000 5.1 150 11:22 12.12.2019
6331 Rain 4 988 93 10000 4.1 150 10:59 12.12.2019
6332 Rain 4 988 93 10000 4.1 150 10:59 12.12.2019
6333 Rain 3 989 86 6000 3.6 150 10:41 12.12.2019
6334 Rain 3 989 86 6000 3.6 150 10:22 12.12.2019
6335 Rain 3 989 86 10000 3.1 150 09:56 12.12.2019
6336 Rain 3 989 86 10000 3.1 150 09:56 12.12.2019
6337 Rain 3 990 93 10000 3.1 0 09:38 12.12.2019
6338 Rain 3 990 93 10000 3.1 0 09:20 12.12.2019
6339 Clouds 3 991 86 10000 3.1 150 08:48 12.12.2019
6340 Rain 3 992 86 10000 2.6 140 08:29 12.12.2019
6341 Rain 2 993 93 10000 3.1 150 07:56 12.12.2019
6342 Rain 2 993 93 10000 3.1 150 07:56 12.12.2019
6343 Rain 2 993 83 10000 2.6 150 07:37 12.12.2019
6344 Rain 2 993 83 10000 2.6 150 07:19 12.12.2019
6345 Clouds 2 994 83 10000 3.1 160 06:41 12.12.2019
6346 Clouds 2 995 83 10000 2.6 170 06:22 12.12.2019
6347 Clouds 2 996 83 10000 2.6 170 05:32 12.12.2019
6348 Clouds 2 996 84 10000 2.1 170 04:47 12.12.2019
6349 Clouds 1 998 84 10000 2.1 170 02:43 12.12.2019
6350 Clouds 2 999 84 10000 2.6 180 02:24 12.12.2019
6351 Clouds 1 999 84 10000 2.1 180 01:59 12.12.2019
6352 Clouds 1 999 84 10000 2.1 180 01:59 12.12.2019
6353 Clouds 2 999 84 10000 2.6 180 01:36 12.12.2019
6354 Clouds 2 1000 84 10000 3.1 190 00:49 12.12.2019
6355 Clouds 2 1000 84 10000 3.1 190 00:22 12.12.2019
6356 Clouds 2 1000 84 10000 3.1 190 23:58 11.12.2019
6357 Clouds 2 1000 84 10000 3.1 210 23:37 11.12.2019
6358 Clouds 2 1000 83 10000 3.1 210 23:18 11.12.2019
6359 Clouds 2 1000 93 10000 3.6 200 22:55 11.12.2019
6360 Rain 2 1000 83 10000 2.6 200 22:37 11.12.2019
6361 Rain 2 1000 83 10000 2.6 200 22:18 11.12.2019
6362 Rain 2 1000 83 10000 2.6 200 22:18 11.12.2019
6363 Rain 2 1000 93 10000 3.1 210 21:54 11.12.2019
6364 Clouds 2 1000 93 10000 2.6 200 21:36 11.12.2019
6365 Clouds 3 1000 93 10000 2.6 200 21:18 11.12.2019
6366 Clouds 3 1000 93 10000 2.1 190 20:54 11.12.2019
6367 Rain 3 1000 86 10000 1 0 20:36 11.12.2019
6368 Rain 3 1000 86 10000 1 0 20:18 11.12.2019
6369 Rain 3 1000 93 10000 4.6 230 19:41 11.12.2019
6370 Rain 3 1000 93 10000 2.1 210 19:23 11.12.2019
6371 Rain 3 999 93 10000 2.1 210 18:59 11.12.2019
6372 Rain 3 999 93 10000 2.1 200 18:39 11.12.2019
6373 Rain 3 999 93 10000 2.1 200 18:19 11.12.2019
6374 Rain 4 999 93 10000 2.6 210 17:56 11.12.2019
6375 Rain 4 998 93 10000 2.6 200 17:37 11.12.2019
6376 Rain 4 998 93 10000 2.6 200 17:18 11.12.2019
6377 Clouds 4 998 93 10000 3.1 200 16:55 11.12.2019
6378 Rain 4 998 86 10000 3.1 210 16:36 11.12.2019
6379 Rain 5 998 86 10000 3.1 210 16:18 11.12.2019
6380 Rain 5 998 86 10000 2.6 210 15:54 11.12.2019
6381 Rain 5 998 86 10000 2.6 200 15:36 11.12.2019
6382 Rain 5 998 86 10000 2.6 200 15:18 11.12.2019
6383 Rain 5 998 86 10000 3.6 210 14:54 11.12.2019
6384 Rain 5 998 86 10000 3.6 200 14:36 11.12.2019
6385 Rain 5 998 86 10000 3.6 200 14:36 11.12.2019
6386 Rain 5 998 86 10000 3.6 200 14:18 11.12.2019
6387 Clouds 5 999 86 10000 3.6 190 13:41 11.12.2019
6388 Clouds 5 999 86 10000 3.1 190 13:21 11.12.2019
6389 Clouds 5 999 86 10000 5.1 200 12:57 11.12.2019
6390 Clouds 5 1000 81 10000 4.1 200 12:38 11.12.2019
6391 Clouds 5 1000 81 10000 4.1 200 12:20 11.12.2019
6392 Clouds 5 1000 80 10000 3.1 180 11:58 11.12.2019
6393 Clouds 5 1001 86 10000 3.1 190 11:38 11.12.2019
6394 Clouds 5 1001 86 10000 3.1 190 11:18 11.12.2019
6395 Rain 4 1001 86 10000 2.1 180 10:56 11.12.2019
6396 Rain 4 1001 86 10000 2.6 180 10:38 11.12.2019
6397 Clouds 4 1001 86 10000 2.6 180 10:19 11.12.2019
6398 Clouds 4 1002 86 10000 2.1 180 09:41 11.12.2019
6399 Clouds 4 1002 86 10000 2.1 180 09:21 11.12.2019
6400 Clouds 4 1002 86 10000 3.6 190 08:58 11.12.2019
6401 Clouds 4 1002 86 10000 2.6 180 08:38 11.12.2019
6402 Clouds 4 1002 86 10000 2.6 180 08:19 11.12.2019
6403 Clouds 4 1002 86 10000 1.5 0 07:56 11.12.2019
6404 Clouds 4 1003 86 10000 2.6 180 07:38 11.12.2019
6405 Clouds 4 1003 86 10000 2.6 180 07:19 11.12.2019
6406 Clouds 4 1003 86 10000 2.6 180 06:44 11.12.2019
6407 Clouds 4 1003 86 10000 3.6 190 06:22 11.12.2019
6408 Clouds 4 1004 80 10000 3.1 190 05:41 11.12.2019
6409 Clouds 4 1004 80 10000 3.1 190 05:20 11.12.2019
6410 Clouds 4 1004 80 10000 3.1 210 04:28 11.12.2019
6411 Clouds 5 1004 80 10000 3.6 210 02:49 11.12.2019
6412 Clouds 5 1004 86 10000 2.6 190 01:25 11.12.2019
6413 Clouds 5 1003 86 10000 3.1 200 00:49 11.12.2019
6414 Clouds 6 1003 86 10000 3.1 190 00:22 11.12.2019
6415 Clouds 6 1002 86 10000 2.6 190 23:50 10.12.2019
6416 Clouds 6 1002 86 10000 3.6 210 23:30 10.12.2019
6417 Rain 6 1001 86 10000 4.6 230 22:59 10.12.2019
6418 Rain 6 1001 86 10000 4.6 230 22:59 10.12.2019
6419 Rain 6 1001 81 10000 5.7 240 22:40 10.12.2019
6420 Rain 6 1001 86 10000 4.6 230 22:40 10.12.2019
6421 Rain 6 1001 81 10000 5.7 240 22:22 10.12.2019
6422 Rain 6 1000 87 10000 5.7 230 21:57 10.12.2019
6423 Clouds 6 1000 87 10000 6.2 250 21:39 10.12.2019
6424 Rain 6 1000 87 10000 6.2 250 21:21 10.12.2019
6425 Rain 6 999 87 10000 9.8 270 20:57 10.12.2019
6426 Rain 6 998 87 7000 11.3 250 20:37 10.12.2019
6427 Rain 7 998 87 7000 11.3 250 20:19 10.12.2019
6428 Rain 7 998 87 10000 6.7 240 19:55 10.12.2019
6429 Rain 7 997 93 10000 8.7 270 19:37 10.12.2019
6430 Rain 7 997 93 10000 8.7 270 19:18 10.12.2019
6431 Rain 8 995 93 7000 12.9 280 18:40 10.12.2019
6432 Rain 9 993 93 3900 7.2 190 18:20 10.12.2019
6433 Rain 10 993 93 4900 6.7 190 17:58 10.12.2019
6434 Rain 11 994 93 6000 7.2 190 17:39 10.12.2019
6435 Rain 12 994 93 6000 7.2 190 17:20 10.12.2019
6436 Rain 12 994 87 7000 7.7 190 16:44 10.12.2019
6437 Drizzle 11 995 87 5000 7.2 180 16:21 10.12.2019
6438 Rain 11 996 93 7000 6.7 190 15:59 10.12.2019
6439 Rain 11 997 87 10000 7.2 180 15:38 10.12.2019
6440 Rain 11 997 87 10000 7.2 180 15:18 10.12.2019
6441 Rain 11 997 87 10000 7.2 180 15:18 10.12.2019
6442 Rain 11 998 87 10000 6.2 180 14:56 10.12.2019
6443 Rain 11 999 81 10000 6.7 190 14:37 10.12.2019
6444 Rain 11 999 81 10000 6.7 190 14:37 10.12.2019
6445 Rain 11 999 81 10000 6.7 190 14:19 10.12.2019
6446 Rain 10 1000 81 10000 5.7 190 13:56 10.12.2019
6447 Rain 10 1002 87 10000 7.2 180 13:38 10.12.2019
6448 Rain 10 1002 87 10000 7.2 180 13:18 10.12.2019
6449 Rain 9 1002 81 10000 6.7 180 12:41 10.12.2019
6450 Rain 9 1004 87 10000 6.2 180 12:22 10.12.2019
6451 Rain 9 1005 87 10000 6.2 170 11:44 10.12.2019
6452 Rain 8 1005 87 10000 6.2 180 11:25 10.12.2019
6453 Rain 8 1007 81 10000 5.1 180 10:57 10.12.2019
6454 Rain 8 1008 87 10000 6.2 180 10:39 10.12.2019
6455 Rain 8 1008 87 10000 6.2 180 10:39 10.12.2019
6456 Rain 7 1008 87 10000 6.2 180 10:21 10.12.2019
6457 Rain 7 1008 81 10000 5.1 180 09:56 10.12.2019
6458 Rain 7 1008 81 10000 5.1 180 09:56 10.12.2019
6459 Rain 7 1009 81 10000 5.1 170 09:38 10.12.2019
6460 Rain 7 1009 81 10000 5.1 170 09:38 10.12.2019
6461 Rain 7 1009 81 10000 5.1 170 09:38 10.12.2019
6462 Rain 7 1009 81 10000 5.1 170 09:20 10.12.2019
6463 Rain 6 1010 87 10000 3.6 170 08:55 10.12.2019
6464 Rain 6 1011 81 10000 4.1 170 08:37 10.12.2019
6465 Rain 6 1011 81 10000 4.1 170 08:18 10.12.2019
6466 Clouds 6 1012 81 10000 4.6 180 07:44 10.12.2019
6467 Rain 5 1013 86 10000 4.6 170 07:25 10.12.2019
6468 Rain 5 1014 80 10000 4.1 170 06:48 10.12.2019
6469 Clouds 5 1014 80 10000 4.1 0 06:22 10.12.2019
6470 Clouds 4 1015 80 10000 4.1 180 05:55 10.12.2019
6471 Clouds 4 1017 80 10000 3.1 170 04:56 10.12.2019
6472 Clouds 3 1019 80 10000 2.6 170 03:39 10.12.2019
6473 Clouds 3 1020 86 10000 1.5 0 02:46 10.12.2019
6474 Clouds 2 1021 93 10000 1.5 0 01:45 10.12.2019
6475 Clouds 2 1021 84 10000 2.1 180 01:24 10.12.2019
6476 Clouds 2 1022 93 10000 1.5 0 00:42 10.12.2019
6477 Clouds 2 1022 86 10000 2.1 180 00:22 10.12.2019
6478 Clouds 2 1022 86 10000 1.5 0 23:42 09.12.2019
6479 Clouds 2 1022 86 10000 1.5 0 23:42 09.12.2019
6480 Clouds 2 1022 86 10000 2.6 170 23:23 09.12.2019
6481 Clouds 2 1022 86 10000 2.1 170 22:58 09.12.2019
6482 Clouds 2 1022 86 10000 2.1 170 22:40 09.12.2019
6483 Clouds 2 1022 86 10000 2.1 170 22:20 09.12.2019
6484 Clouds 3 1022 86 10000 1.5 0 21:57 09.12.2019
6485 Clouds 3 1022 81 10000 2.1 150 21:38 09.12.2019
6486 Clouds 3 1022 81 10000 2.1 150 21:19 09.12.2019
6487 Clouds 3 1021 81 10000 2.1 170 20:56 09.12.2019
6488 Clouds 3 1021 81 10000 1.5 200 20:38 09.12.2019
6489 Clouds 3 1021 69 10000 1.5 200 20:20 09.12.2019
6490 Clear 3 1021 80 10000 1.5 230 19:56 09.12.2019
6491 Clear 3 1021 80 10000 1 0 19:37 09.12.2019
6492 Clear 4 1021 80 10000 1 0 19:19 09.12.2019
6493 Clear 4 1020 75 10000 1 0 18:56 09.12.2019
6494 Clear 4 1020 75 10000 1 0 18:56 09.12.2019
6495 Clear 4 1020 75 10000 3.1 290 18:37 09.12.2019
6496 Clear 4 1020 75 10000 3.1 290 18:19 09.12.2019
6497 Clear 5 1020 70 10000 3.1 280 17:57 09.12.2019
6498 Clear 5 1019 75 10000 4.1 300 17:38 09.12.2019
6499 Clear 5 1019 75 10000 4.1 300 17:20 09.12.2019
6500 Clear 6 1018 70 10000 3.6 310 16:56 09.12.2019
6501 Clear 6 1018 65 10000 5.7 310 16:37 09.12.2019
6502 Clear 6 1018 65 10000 5.7 310 16:37 09.12.2019
6503 Clear 6 1018 65 10000 5.7 310 16:18 09.12.2019
6504 Clear 7 1017 65 10000 6.2 310 15:55 09.12.2019
6505 Clear 7 1017 61 10000 6.2 310 15:37 09.12.2019
6506 Clear 7 1017 61 10000 6.2 310 15:19 09.12.2019
6507 Clear 7 1016 61 10000 5.1 320 14:42 09.12.2019
6508 Clouds 7 1016 61 10000 5.1 310 14:19 09.12.2019
6509 Clouds 7 1015 61 10000 5.7 310 13:58 09.12.2019
6510 Clouds 7 1014 65 10000 6.2 310 13:38 09.12.2019
6511 Clouds 7 1014 65 10000 6.2 310 13:19 09.12.2019
6512 Clouds 7 1013 70 10000 6.7 310 12:57 09.12.2019
6513 Clouds 7 1012 65 10000 6.2 320 12:38 09.12.2019
6514 Clouds 7 1012 65 10000 6.2 320 12:19 09.12.2019
6515 Clouds 7 1011 70 10000 7.2 320 11:56 09.12.2019
6516 Clouds 7 1010 70 10000 6.7 300 11:37 09.12.2019
6517 Clouds 7 1010 70 10000 6.7 300 11:18 09.12.2019
6518 Clouds 7 1009 70 10000 6.7 310 10:41 09.12.2019
6519 Clouds 7 1008 70 10000 5.1 310 10:41 09.12.2019
6520 Clouds 7 1008 70 10000 5.1 310 10:20 09.12.2019
6521 Clouds 6 1007 70 10000 6.2 310 09:59 09.12.2019
6522 Clouds 6 1007 70 10000 6.2 310 09:40 09.12.2019
6523 Clouds 6 1005 70 10000 6.2 310 09:21 09.12.2019
6524 Clouds 6 1004 75 10000 6.7 310 08:44 09.12.2019
6525 Clouds 7 1003 75 10000 8.2 310 08:26 09.12.2019
6526 Rain 7 1001 75 10000 7.7 320 07:56 09.12.2019
6527 Clouds 7 999 81 10000 9.3 310 07:38 09.12.2019
6528 Clouds 7 999 81 10000 9.3 310 07:20 09.12.2019
6529 Rain 7 998 81 10000 8.2 300 06:43 09.12.2019
6530 Rain 7 996 81 10000 8.7 300 06:24 09.12.2019
6531 Rain 7 996 81 10000 8.7 300 06:24 09.12.2019
6532 Clouds 7 993 81 10000 7.7 310 05:26 09.12.2019
6533 Rain 7 991 93 10000 4.1 260 04:31 09.12.2019
6534 Rain 6 988 87 10000 4.1 240 03:19 09.12.2019
6535 Rain 6 988 87 10000 4.1 240 03:19 09.12.2019
6536 Rain 6 987 87 10000 3.1 200 02:18 09.12.2019
6537 Rain 6 987 81 10000 4.6 230 01:40 09.12.2019
6538 Rain 6 986 87 10000 4.6 200 00:45 09.12.2019
6539 Rain 6 987 87 10000 4.6 210 00:24 09.12.2019
6540 Rain 6 987 81 10000 4.6 200 23:39 08.12.2019
6541 Rain 6 987 81 10000 4.6 200 23:21 08.12.2019
6542 Rain 6 987 87 10000 4.1 210 22:56 08.12.2019
6543 Rain 6 987 81 10000 4.6 200 22:38 08.12.2019
6544 Rain 6 987 81 10000 4.6 200 22:18 08.12.2019
6545 Rain 6 987 81 10000 4.6 200 22:18 08.12.2019
6546 Clouds 7 988 81 10000 4.1 200 21:57 08.12.2019
6547 Clouds 7 988 75 10000 3.6 200 21:38 08.12.2019
6548 Clouds 7 988 75 10000 3.6 200 21:19 08.12.2019
6549 Clouds 6 989 75 10000 4.6 200 20:56 08.12.2019
6550 Rain 6 989 75 10000 6.2 220 20:38 08.12.2019
6551 Rain 6 989 75 10000 6.2 220 20:19 08.12.2019
6552 Rain 6 989 75 10000 6.7 220 19:56 08.12.2019
6553 Clouds 6 990 70 10000 6.7 230 19:38 08.12.2019
6554 Clouds 6 990 70 10000 6.7 230 19:20 08.12.2019
6555 Rain 6 990 65 10000 6.7 230 18:55 08.12.2019
6556 Rain 7 991 70 10000 7.2 230 18:36 08.12.2019
6557 Rain 7 991 70 10000 7.2 230 18:18 08.12.2019
6558 Rain 7 991 75 10000 8.2 230 17:55 08.12.2019
6559 Rain 7 991 70 10000 8.2 240 17:37 08.12.2019
6560 Rain 7 991 70 10000 8.2 240 17:19 08.12.2019
6561 Rain 7 992 70 10000 8.2 240 16:55 08.12.2019
6562 Rain 7 992 65 10000 9.8 240 16:37 08.12.2019
6563 Rain 7 992 65 10000 9.8 240 16:18 08.12.2019
6564 Clouds 8 992 65 10000 8.2 240 15:38 08.12.2019
6565 Clouds 8 992 65 10000 8.2 240 15:19 08.12.2019
6566 Clouds 8 992 65 10000 8.2 240 15:19 08.12.2019
6567 Clouds 8 993 61 10000 10.8 240 14:58 08.12.2019
6568 Clouds 8 993 70 10000 10.8 240 14:39 08.12.2019
6569 Clouds 8 993 70 10000 10.8 240 14:39 08.12.2019
6570 Clouds 8 993 70 10000 10.8 240 14:20 08.12.2019
6571 Clouds 8 993 70 10000 12.3 240 13:42 08.12.2019
6572 Clouds 8 993 70 10000 12.3 240 13:42 08.12.2019
6573 Clouds 8 993 70 10000 10.8 240 13:23 08.12.2019
6574 Rain 8 993 70 10000 11.8 230 12:59 08.12.2019
6575 Rain 8 993 70 10000 11.8 230 12:41 08.12.2019
6576 Rain 8 994 70 10000 9.8 240 12:23 08.12.2019
6577 Rain 8 994 70 10000 8.7 240 11:59 08.12.2019
6578 Rain 8 994 70 10000 8.2 240 11:38 08.12.2019
6579 Rain 8 994 70 10000 8.2 240 11:19 08.12.2019
6580 Rain 8 994 70 10000 8.7 240 10:57 08.12.2019
6581 Rain 8 994 81 10000 4.1 210 10:38 08.12.2019
6582 Rain 7 994 81 10000 4.1 210 10:19 08.12.2019
6583 Rain 7 994 81 10000 4.1 210 10:19 08.12.2019
6584 Rain 7 994 81 10000 3.1 200 09:55 08.12.2019
6585 Clouds 7 994 75 10000 7.7 240 09:37 08.12.2019
6586 Clouds 7 994 75 10000 7.7 240 09:19 08.12.2019
6587 Clouds 7 994 75 10000 7.7 240 09:19 08.12.2019
6588 Rain 8 994 75 10000 8.2 250 08:44 08.12.2019
6589 Clouds 7 995 75 10000 7.7 250 08:23 08.12.2019
6590 Clouds 8 994 75 10000 7.7 250 07:58 08.12.2019
6591 Clouds 8 994 75 10000 7.7 250 07:40 08.12.2019
6592 Rain 8 994 75 10000 8.7 250 07:19 08.12.2019
6593 Clouds 8 994 70 10000 9.3 260 06:41 08.12.2019
6594 Rain 8 993 76 10000 10.3 260 06:21 08.12.2019
6595 Rain 9 993 71 10000 9.3 260 05:27 08.12.2019
6596 Rain 10 993 87 10000 8.2 270 04:54 08.12.2019
6597 Rain 11 992 87 7000 6.2 210 03:41 08.12.2019
6598 Rain 10 993 93 10000 6.7 200 02:46 08.12.2019
6599 Rain 10 994 87 10000 6.7 200 02:27 08.12.2019
6600 Rain 10 995 93 4200 6.2 190 01:41 08.12.2019
6601 Rain 9 996 87 10000 6.2 190 00:56 08.12.2019
6602 Rain 9 996 87 10000 6.2 190 00:56 08.12.2019
6603 Rain 9 997 87 10000 5.7 190 00:36 08.12.2019
6604 Rain 9 997 87 10000 5.7 190 00:18 08.12.2019
6605 Rain 9 998 87 10000 5.7 180 23:39 07.12.2019
6606 Rain 9 999 87 10000 6.2 190 23:20 07.12.2019
6607 Rain 9 999 87 10000 6.2 190 23:20 07.12.2019
6608 Rain 9 1000 87 10000 6.2 190 22:56 07.12.2019
6609 Rain 9 1001 87 10000 7.2 190 22:37 07.12.2019
6610 Clouds 9 1001 87 10000 7.2 190 22:19 07.12.2019
6611 Clouds 9 1002 87 10000 5.1 180 21:55 07.12.2019
6612 Clouds 9 1003 87 10000 4.6 190 21:37 07.12.2019
6613 Clouds 9 1003 87 10000 4.6 190 21:19 07.12.2019
6614 Clouds 9 1003 87 10000 4.6 190 21:19 07.12.2019
6615 Clouds 9 1004 87 10000 3.6 180 20:40 07.12.2019
6616 Clouds 9 1004 87 10000 5.1 190 20:20 07.12.2019
6617 Clouds 9 1005 87 10000 4.1 200 19:58 07.12.2019
6618 Clouds 9 1005 87 10000 4.1 200 19:39 07.12.2019
6619 Clouds 9 1005 87 10000 4.1 190 19:21 07.12.2019
6620 Clouds 9 1006 87 10000 4.6 200 18:59 07.12.2019
6621 Clouds 10 1006 87 10000 4.6 200 18:40 07.12.2019
6622 Clouds 9 1007 81 10000 4.1 190 18:18 07.12.2019
6623 Clouds 10 1007 81 10000 3.6 190 17:56 07.12.2019
6624 Rain 10 1008 81 10000 3.1 200 17:37 07.12.2019
6625 Rain 10 1008 81 10000 3.1 200 17:19 07.12.2019
6626 Clouds 10 1008 81 10000 3.1 200 16:56 07.12.2019
6627 Clouds 10 1008 81 10000 3.1 200 16:36 07.12.2019
6628 Clouds 10 1008 81 10000 3.1 200 16:18 07.12.2019
6629 Clouds 10 1008 81 10000 3.6 210 15:41 07.12.2019
6630 Clouds 10 1009 81 10000 3.1 210 15:23 07.12.2019
6631 Clouds 10 1009 76 10000 3.1 210 14:56 07.12.2019
6632 Clouds 10 1009 81 10000 3.6 210 14:38 07.12.2019
6633 Clouds 10 1009 81 10000 3.6 210 14:18 07.12.2019
6634 Clouds 10 1010 81 10000 3.6 210 13:40 07.12.2019
6635 Clouds 10 1010 81 10000 3.6 220 13:20 07.12.2019
6636 Clouds 9 1011 81 10000 3.6 210 12:55 07.12.2019
6637 Clouds 9 1011 81 10000 4.1 220 12:37 07.12.2019
6638 Clouds 9 1011 81 10000 4.1 220 12:19 07.12.2019
6639 Clouds 9 1011 93 10000 2.6 200 11:42 07.12.2019
6640 Clouds 9 1011 93 10000 2.1 200 11:24 07.12.2019
6641 Clouds 9 1011 87 10000 2.6 220 10:59 07.12.2019
6642 Clouds 8 1011 87 10000 4.1 210 10:37 07.12.2019
6643 Clouds 8 1011 87 10000 4.1 210 10:19 07.12.2019
6644 Clouds 8 1011 87 10000 4.6 240 09:40 07.12.2019
6645 Clouds 8 1011 87 10000 4.6 240 09:21 07.12.2019
6646 Clouds 8 1011 93 10000 4.6 250 08:47 07.12.2019
6647 Rain 8 1010 93 10000 4.1 250 08:25 07.12.2019
6648 Rain 8 1010 81 10000 5.7 250 07:54 07.12.2019
6649 Rain 8 1010 87 10000 6.2 260 07:30 07.12.2019
6650 Rain 8 1010 93 10000 5.7 250 06:55 07.12.2019
6651 Rain 8 1010 93 10000 5.1 260 06:28 07.12.2019
6652 Clouds 8 1009 93 10000 6.2 250 05:50 07.12.2019
6653 Rain 8 1009 87 10000 5.7 260 04:49 07.12.2019
6654 Rain 9 1008 81 10000 6.7 260 03:53 07.12.2019
6655 Rain 9 1008 87 10000 7.2 260 02:50 07.12.2019
6656 Rain 9 1007 87 10000 6.7 260 02:19 07.12.2019
6657 Rain 9 1007 87 10000 5.1 260 01:30 07.12.2019
6658 Rain 9 1006 87 9000 5.1 260 00:43 07.12.2019
6659 Rain 9 1006 87 10000 5.7 270 00:18 07.12.2019
6660 Drizzle 9 1005 87 3500 6.2 260 23:44 06.12.2019
6661 Rain 9 1005 87 10000 4.6 260 23:23 06.12.2019
6662 Clouds 9 1005 87 10000 6.2 260 22:58 06.12.2019
6663 Clouds 9 1005 87 10000 6.2 260 22:58 06.12.2019
6664 Rain 9 1005 87 10000 6.2 270 22:36 06.12.2019
6665 Rain 9 1005 87 10000 6.2 270 22:18 06.12.2019
6666 Clouds 9 1004 87 10000 7.2 280 21:41 06.12.2019
6667 Rain 9 1004 87 10000 7.2 280 21:21 06.12.2019
6668 Rain 9 1004 87 10000 7.2 270 20:59 06.12.2019
6669 Rain 9 1004 87 10000 7.2 270 20:41 06.12.2019
6670 Rain 9 1003 87 10000 6.2 270 20:20 06.12.2019
6671 Clouds 9 1002 87 10000 6.7 270 19:43 06.12.2019
6672 Clouds 9 1002 87 10000 8.2 270 19:24 06.12.2019
6673 Rain 9 1001 87 10000 6.7 270 18:59 06.12.2019
6674 Rain 9 1001 87 10000 6.7 270 18:40 06.12.2019
6675 Rain 9 1000 87 10000 5.7 270 18:22 06.12.2019
6676 Rain 9 999 93 10000 6.7 260 17:58 06.12.2019
6677 Rain 9 999 93 10000 6.7 260 17:40 06.12.2019
6678 Rain 9 999 93 10000 7.7 260 17:22 06.12.2019
6679 Rain 9 998 93 10000 6.2 260 16:58 06.12.2019
6680 Rain 9 998 87 10000 7.2 260 16:38 06.12.2019
6681 Rain 9 998 87 10000 7.2 260 16:19 06.12.2019
6682 Rain 9 998 87 10000 6.2 260 15:41 06.12.2019
6683 Rain 9 997 87 10000 6.2 240 15:22 06.12.2019
6684 Rain 10 997 93 10000 4.6 250 14:58 06.12.2019
6685 Rain 10 997 93 10000 4.6 250 14:40 06.12.2019
6686 Thunderstorm 10 997 76 10000 8.7 240 14:20 06.12.2019
6687 Rain 11 997 81 10000 5.1 230 13:46 06.12.2019
6688 Rain 11 997 81 10000 5.1 230 13:46 06.12.2019
6689 Rain 11 998 81 10000 5.1 240 13:27 06.12.2019
6690 Rain 11 998 81 10000 6.2 230 12:58 06.12.2019
6691 Rain 10 998 87 10000 3.6 200 12:39 06.12.2019
6692 Rain 10 998 87 10000 3.6 200 12:21 06.12.2019
6693 Rain 11 999 87 10000 4.6 210 11:42 06.12.2019
6694 Clouds 11 999 87 10000 4.6 210 11:23 06.12.2019
6695 Clouds 11 999 93 10000 5.1 210 10:56 06.12.2019
6696 Clouds 11 999 87 10000 5.1 210 10:38 06.12.2019
6697 Clouds 11 999 87 10000 5.1 210 10:20 06.12.2019
6698 Clouds 11 999 93 10000 4.6 210 09:56 06.12.2019
6699 Clouds 11 999 93 10000 5.1 210 09:36 06.12.2019
6700 Clouds 11 999 93 10000 5.1 210 09:18 06.12.2019
6701 Drizzle 11 1000 93 10000 4.6 210 08:42 06.12.2019
6702 Clouds 11 1000 93 10000 5.7 210 08:24 06.12.2019
6703 Clouds 11 1000 93 10000 4.6 200 07:42 06.12.2019
6704 Rain 11 1000 93 10000 5.1 200 07:22 06.12.2019
6705 Clouds 11 1001 93 10000 4.6 200 06:48 06.12.2019
6706 Rain 11 1001 93 10000 5.7 210 06:25 06.12.2019
6707 Rain 11 1002 93 10000 5.1 200 05:48 06.12.2019
6708 Clouds 12 1003 87 10000 8.2 230 02:46 06.12.2019
6709 Clouds 11 1004 81 10000 8.2 230 01:45 06.12.2019
6710 Clouds 11 1005 81 10000 6.2 230 00:50 06.12.2019
6711 Clouds 11 1005 81 10000 7.7 240 00:23 06.12.2019
6712 Clouds 11 1005 81 10000 8.7 240 23:51 05.12.2019
6713 Clouds 11 1005 81 10000 7.7 240 23:20 05.12.2019
6714 Rain 11 1005 81 10000 6.7 230 22:58 05.12.2019
6715 Rain 11 1005 76 10000 5.1 220 22:39 05.12.2019
6716 Rain 11 1005 76 10000 5.1 220 22:19 05.12.2019
6717 Rain 11 1005 76 10000 6.2 220 21:56 05.12.2019
6718 Clouds 11 1005 81 10000 5.1 220 21:37 05.12.2019
6719 Clouds 11 1005 81 10000 5.1 220 21:19 05.12.2019
6720 Clouds 11 1006 87 10000 4.6 210 20:55 05.12.2019
6721 Clouds 11 1006 87 10000 4.6 210 20:36 05.12.2019
6722 Clouds 10 1006 87 10000 5.1 200 20:18 05.12.2019
6723 Clouds 10 1006 87 10000 6.7 210 19:40 05.12.2019
6724 Clouds 10 1007 81 10000 6.7 200 19:21 05.12.2019
6725 Clouds 10 1007 81 10000 6.7 200 18:58 05.12.2019
6726 Clouds 10 1007 81 10000 5.7 210 18:38 05.12.2019
6727 Rain 10 1007 87 10000 5.7 210 18:20 05.12.2019
6728 Rain 10 1008 76 10000 5.7 210 17:41 05.12.2019
6729 Rain 9 1008 81 10000 4.6 200 17:20 05.12.2019
6730 Rain 9 1008 81 10000 4.6 200 16:59 05.12.2019
6731 Rain 9 1009 81 10000 5.1 200 16:40 05.12.2019
6732 Rain 9 1009 81 10000 5.1 200 16:21 05.12.2019
6733 Rain 9 1009 81 10000 5.1 200 15:58 05.12.2019
6734 Rain 9 1009 81 10000 5.1 200 15:58 05.12.2019
6735 Rain 8 1010 81 10000 5.1 200 15:39 05.12.2019
6736 Rain 8 1011 87 10000 4.6 190 15:20 05.12.2019
6737 Rain 8 1011 87 10000 4.6 190 14:56 05.12.2019
6738 Rain 8 1011 87 10000 4.6 190 14:56 05.12.2019
6739 Rain 8 1012 81 10000 4.6